<?xml version="1.0" encoding="UTF-8"?><gpx xmlns="http://www.topografix.com/GPX/1/1" version="1.1" creator="iOrient"><trk><name>GreatWalk. Извилистая река</name><trkseg><trkpt lat="55.9165389" lon="49.1735284"><time>2023-06-03T06:27:44.040</time></trkpt><trkpt lat="55.9165366" lon="49.1735153"><time>2023-06-03T06:27:45.147</time></trkpt><trkpt lat="55.9164958" lon="49.1734556"><time>2023-06-03T06:28:22.007</time></trkpt><trkpt lat="55.9164466" lon="49.1734182"><time>2023-06-03T06:28:24.003</time></trkpt><trkpt lat="55.9163917" lon="49.1734010"><time>2023-06-03T06:28:26.007</time></trkpt><trkpt lat="55.9163176" lon="49.1733461"><time>2023-06-03T06:28:27.993</time></trkpt><trkpt lat="55.9162754" lon="49.1733102"><time>2023-06-03T06:28:29.017</time></trkpt><trkpt lat="55.9162181" lon="49.1732465"><time>2023-06-03T06:28:31.010</time></trkpt><trkpt lat="55.9161737" lon="49.1731410"><time>2023-06-03T06:28:33.003</time></trkpt><trkpt lat="55.9161304" lon="49.1730210"><time>2023-06-03T06:28:35.010</time></trkpt><trkpt lat="55.9160831" lon="49.1728854"><time>2023-06-03T06:28:37.037</time></trkpt><trkpt lat="55.9160534" lon="49.1728472"><time>2023-06-03T06:28:38.160</time></trkpt><trkpt lat="55.9160166" lon="49.1727488"><time>2023-06-03T06:28:38.993</time></trkpt><trkpt lat="55.9159849" lon="49.1726785"><time>2023-06-03T06:28:40.017</time></trkpt><trkpt lat="55.9159471" lon="49.1726168"><time>2023-06-03T06:28:41.007</time></trkpt><trkpt lat="55.9159108" lon="49.1725584"><time>2023-06-03T06:28:42.003</time></trkpt><trkpt lat="55.9158809" lon="49.1724855"><time>2023-06-03T06:28:43.003</time></trkpt><trkpt lat="55.9158490" lon="49.1724107"><time>2023-06-03T06:28:44.003</time></trkpt><trkpt lat="55.9158211" lon="49.1723364"><time>2023-06-03T06:28:45.030</time></trkpt><trkpt lat="55.9158060" lon="49.1722888"><time>2023-06-03T06:28:46.153</time></trkpt><trkpt lat="55.9157646" lon="49.1721950"><time>2023-06-03T06:28:47.003</time></trkpt><trkpt lat="55.9157384" lon="49.1721209"><time>2023-06-03T06:28:47.987</time></trkpt><trkpt lat="55.9157135" lon="49.1720379"><time>2023-06-03T06:28:49.003</time></trkpt><trkpt lat="55.9156925" lon="49.1719595"><time>2023-06-03T06:28:49.990</time></trkpt><trkpt lat="55.9156552" lon="49.1718876"><time>2023-06-03T06:28:50.990</time></trkpt><trkpt lat="55.9156253" lon="49.1718151"><time>2023-06-03T06:28:51.987</time></trkpt><trkpt lat="55.9155913" lon="49.1717415"><time>2023-06-03T06:28:52.987</time></trkpt><trkpt lat="55.9155510" lon="49.1716649"><time>2023-06-03T06:28:54.003</time></trkpt><trkpt lat="55.9155089" lon="49.1715946"><time>2023-06-03T06:28:55</time></trkpt><trkpt lat="55.9154633" lon="49.1715213"><time>2023-06-03T06:28:56.010</time></trkpt><trkpt lat="55.9154266" lon="49.1714489"><time>2023-06-03T06:28:57</time></trkpt><trkpt lat="55.9153839" lon="49.1713834"><time>2023-06-03T06:28:58.007</time></trkpt><trkpt lat="55.9153306" lon="49.1713196"><time>2023-06-03T06:28:59.007</time></trkpt><trkpt lat="55.9152796" lon="49.1712517"><time>2023-06-03T06:29:00.013</time></trkpt><trkpt lat="55.9152370" lon="49.1711772"><time>2023-06-03T06:29:01.017</time></trkpt><trkpt lat="55.9151895" lon="49.1711072"><time>2023-06-03T06:29:02.050</time></trkpt><trkpt lat="55.9151623" lon="49.1710666"><time>2023-06-03T06:29:03.187</time></trkpt><trkpt lat="55.9151019" lon="49.1709818"><time>2023-06-03T06:29:04.007</time></trkpt><trkpt lat="55.9150561" lon="49.1709065"><time>2023-06-03T06:29:05.007</time></trkpt><trkpt lat="55.9150101" lon="49.1708338"><time>2023-06-03T06:29:06.007</time></trkpt><trkpt lat="55.9149651" lon="49.1707519"><time>2023-06-03T06:29:07.003</time></trkpt><trkpt lat="55.9149237" lon="49.1706684"><time>2023-06-03T06:29:08.003</time></trkpt><trkpt lat="55.9148863" lon="49.1705785"><time>2023-06-03T06:29:09.017</time></trkpt><trkpt lat="55.9148498" lon="49.1704891"><time>2023-06-03T06:29:10.003</time></trkpt><trkpt lat="55.9148201" lon="49.1703933"><time>2023-06-03T06:29:11.003</time></trkpt><trkpt lat="55.9147905" lon="49.1703038"><time>2023-06-03T06:29:12.007</time></trkpt><trkpt lat="55.9147656" lon="49.1702111"><time>2023-06-03T06:29:13.007</time></trkpt><trkpt lat="55.9147453" lon="49.1701069"><time>2023-06-03T06:29:14.007</time></trkpt><trkpt lat="55.9147272" lon="49.1700145"><time>2023-06-03T06:29:15.007</time></trkpt><trkpt lat="55.9147148" lon="49.1699244"><time>2023-06-03T06:29:15.993</time></trkpt><trkpt lat="55.9147084" lon="49.1698309"><time>2023-06-03T06:29:17</time></trkpt><trkpt lat="55.9147057" lon="49.1697443"><time>2023-06-03T06:29:18.007</time></trkpt><trkpt lat="55.9147049" lon="49.1696457"><time>2023-06-03T06:29:19.003</time></trkpt><trkpt lat="55.9147032" lon="49.1695560"><time>2023-06-03T06:29:20.007</time></trkpt><trkpt lat="55.9147033" lon="49.1694707"><time>2023-06-03T06:29:21.020</time></trkpt><trkpt lat="55.9147029" lon="49.1693840"><time>2023-06-03T06:29:22.007</time></trkpt><trkpt lat="55.9147073" lon="49.1692871"><time>2023-06-03T06:29:23.003</time></trkpt><trkpt lat="55.9147101" lon="49.1691898"><time>2023-06-03T06:29:24.007</time></trkpt><trkpt lat="55.9147061" lon="49.1690920"><time>2023-06-03T06:29:25.010</time></trkpt><trkpt lat="55.9147011" lon="49.1689961"><time>2023-06-03T06:29:26.013</time></trkpt><trkpt lat="55.9146881" lon="49.1688969"><time>2023-06-03T06:29:27.003</time></trkpt><trkpt lat="55.9146775" lon="49.1688022"><time>2023-06-03T06:29:28.007</time></trkpt><trkpt lat="55.9146618" lon="49.1687083"><time>2023-06-03T06:29:29.030</time></trkpt><trkpt lat="55.9146556" lon="49.1686196"><time>2023-06-03T06:29:30.153</time></trkpt><trkpt lat="55.9146255" lon="49.1685069"><time>2023-06-03T06:29:31.003</time></trkpt><trkpt lat="55.9145900" lon="49.1684255"><time>2023-06-03T06:29:31.997</time></trkpt><trkpt lat="55.9145482" lon="49.1683670"><time>2023-06-03T06:29:33.003</time></trkpt><trkpt lat="55.9145005" lon="49.1683005"><time>2023-06-03T06:29:34.007</time></trkpt><trkpt lat="55.9144490" lon="49.1682502"><time>2023-06-03T06:29:35.007</time></trkpt><trkpt lat="55.9144001" lon="49.1682049"><time>2023-06-03T06:29:36.007</time></trkpt><trkpt lat="55.9143583" lon="49.1681393"><time>2023-06-03T06:29:37.007</time></trkpt><trkpt lat="55.9143266" lon="49.1680790"><time>2023-06-03T06:29:38.010</time></trkpt><trkpt lat="55.9143044" lon="49.1680022"><time>2023-06-03T06:29:39.010</time></trkpt><trkpt lat="55.9142989" lon="49.1679209"><time>2023-06-03T06:29:40.007</time></trkpt><trkpt lat="55.9142954" lon="49.1677641"><time>2023-06-03T06:29:42</time></trkpt><trkpt lat="55.9142731" lon="49.1676113"><time>2023-06-03T06:29:44</time></trkpt><trkpt lat="55.9142483" lon="49.1675367"><time>2023-06-03T06:29:45</time></trkpt><trkpt lat="55.9142027" lon="49.1674308"><time>2023-06-03T06:29:47.007</time></trkpt><trkpt lat="55.9141697" lon="49.1673584"><time>2023-06-03T06:29:47.993</time></trkpt><trkpt lat="55.9141359" lon="49.1672775"><time>2023-06-03T06:29:49.003</time></trkpt><trkpt lat="55.9140844" lon="49.1672159"><time>2023-06-03T06:29:50.013</time></trkpt><trkpt lat="55.9140506" lon="49.1671563"><time>2023-06-03T06:29:51.010</time></trkpt><trkpt lat="55.9139915" lon="49.1671092"><time>2023-06-03T06:29:52.007</time></trkpt><trkpt lat="55.9139425" lon="49.1670410"><time>2023-06-03T06:29:53.007</time></trkpt><trkpt lat="55.9138935" lon="49.1669913"><time>2023-06-03T06:29:54.013</time></trkpt><trkpt lat="55.9138449" lon="49.1669333"><time>2023-06-03T06:29:55.010</time></trkpt><trkpt lat="55.9137997" lon="49.1668710"><time>2023-06-03T06:29:56.007</time></trkpt><trkpt lat="55.9137545" lon="49.1668056"><time>2023-06-03T06:29:57.003</time></trkpt><trkpt lat="55.9137060" lon="49.1667537"><time>2023-06-03T06:29:58.003</time></trkpt><trkpt lat="55.9136543" lon="49.1667020"><time>2023-06-03T06:29:59.003</time></trkpt><trkpt lat="55.9136047" lon="49.1666390"><time>2023-06-03T06:30:00.007</time></trkpt><trkpt lat="55.9135556" lon="49.1665751"><time>2023-06-03T06:30:01.007</time></trkpt><trkpt lat="55.9135063" lon="49.1665132"><time>2023-06-03T06:30:02.003</time></trkpt><trkpt lat="55.9134578" lon="49.1664467"><time>2023-06-03T06:30:03.013</time></trkpt><trkpt lat="55.9134103" lon="49.1663751"><time>2023-06-03T06:30:04.017</time></trkpt><trkpt lat="55.9133674" lon="49.1663033"><time>2023-06-03T06:30:05.010</time></trkpt><trkpt lat="55.9133222" lon="49.1662307"><time>2023-06-03T06:30:06.007</time></trkpt><trkpt lat="55.9132786" lon="49.1661572"><time>2023-06-03T06:30:07.007</time></trkpt><trkpt lat="55.9132392" lon="49.1660879"><time>2023-06-03T06:30:08.023</time></trkpt><trkpt lat="55.9131969" lon="49.1660203"><time>2023-06-03T06:30:08.997</time></trkpt><trkpt lat="55.9131578" lon="49.1659401"><time>2023-06-03T06:30:10.007</time></trkpt><trkpt lat="55.9131206" lon="49.1658659"><time>2023-06-03T06:30:11.007</time></trkpt><trkpt lat="55.9130859" lon="49.1657902"><time>2023-06-03T06:30:12.007</time></trkpt><trkpt lat="55.9130552" lon="49.1657154"><time>2023-06-03T06:30:13.010</time></trkpt><trkpt lat="55.9130257" lon="49.1656438"><time>2023-06-03T06:30:14.010</time></trkpt><trkpt lat="55.9129950" lon="49.1655713"><time>2023-06-03T06:30:15.013</time></trkpt><trkpt lat="55.9129649" lon="49.1655075"><time>2023-06-03T06:30:16.027</time></trkpt><trkpt lat="55.9129575" lon="49.1654660"><time>2023-06-03T06:30:17.157</time></trkpt><trkpt lat="55.9129209" lon="49.1653817"><time>2023-06-03T06:30:18.010</time></trkpt><trkpt lat="55.9128897" lon="49.1653040"><time>2023-06-03T06:30:19.013</time></trkpt><trkpt lat="55.9128552" lon="49.1652329"><time>2023-06-03T06:30:20.003</time></trkpt><trkpt lat="55.9128252" lon="49.1651667"><time>2023-06-03T06:30:21.007</time></trkpt><trkpt lat="55.9127887" lon="49.1650996"><time>2023-06-03T06:30:22.003</time></trkpt><trkpt lat="55.9127535" lon="49.1650310"><time>2023-06-03T06:30:23.007</time></trkpt><trkpt lat="55.9127178" lon="49.1649680"><time>2023-06-03T06:30:24.007</time></trkpt><trkpt lat="55.9126864" lon="49.1649084"><time>2023-06-03T06:30:25.010</time></trkpt><trkpt lat="55.9126594" lon="49.1648422"><time>2023-06-03T06:30:26.007</time></trkpt><trkpt lat="55.9126178" lon="49.1647410"><time>2023-06-03T06:30:28.010</time></trkpt><trkpt lat="55.9125900" lon="49.1646575"><time>2023-06-03T06:30:30.007</time></trkpt><trkpt lat="55.9125788" lon="49.1645761"><time>2023-06-03T06:30:32.017</time></trkpt><trkpt lat="55.9125486" lon="49.1644915"><time>2023-06-03T06:30:39.010</time></trkpt><trkpt lat="55.9125117" lon="49.1643914"><time>2023-06-03T06:30:42.007</time></trkpt><trkpt lat="55.9125043" lon="49.1642946"><time>2023-06-03T06:30:44.003</time></trkpt><trkpt lat="55.9124918" lon="49.1641878"><time>2023-06-03T06:30:46</time></trkpt><trkpt lat="55.9124821" lon="49.1640717"><time>2023-06-03T06:30:47.993</time></trkpt><trkpt lat="55.9124813" lon="49.1639776"><time>2023-06-03T06:30:50.007</time></trkpt><trkpt lat="55.9124900" lon="49.1638804"><time>2023-06-03T06:30:52.010</time></trkpt><trkpt lat="55.9124931" lon="49.1637757"><time>2023-06-03T06:30:54.017</time></trkpt><trkpt lat="55.9124976" lon="49.1636841"><time>2023-06-03T06:30:56.010</time></trkpt><trkpt lat="55.9125099" lon="49.1636032"><time>2023-06-03T06:30:58.010</time></trkpt><trkpt lat="55.9125219" lon="49.1635191"><time>2023-06-03T06:31:00.017</time></trkpt><trkpt lat="55.9125389" lon="49.1634343"><time>2023-06-03T06:31:02.013</time></trkpt><trkpt lat="55.9125571" lon="49.1633572"><time>2023-06-03T06:31:04.017</time></trkpt><trkpt lat="55.9125900" lon="49.1632582"><time>2023-06-03T06:31:07.010</time></trkpt><trkpt lat="55.9126227" lon="49.1631751"><time>2023-06-03T06:31:11.010</time></trkpt><trkpt lat="55.9126656" lon="49.1631233"><time>2023-06-03T06:31:14.007</time></trkpt><trkpt lat="55.9127081" lon="49.1630602"><time>2023-06-03T06:31:17</time></trkpt><trkpt lat="55.9127499" lon="49.1629958"><time>2023-06-03T06:31:20.010</time></trkpt><trkpt lat="55.9127923" lon="49.1629474"><time>2023-06-03T06:31:23.017</time></trkpt><trkpt lat="55.9128349" lon="49.1628988"><time>2023-06-03T06:31:26.013</time></trkpt><trkpt lat="55.9128787" lon="49.1628538"><time>2023-06-03T06:31:29.003</time></trkpt><trkpt lat="55.9129342" lon="49.1628597"><time>2023-06-03T06:31:34.003</time></trkpt><trkpt lat="55.9129097" lon="49.1629515"><time>2023-06-03T06:31:38.017</time></trkpt><trkpt lat="55.9128588" lon="49.1630345"><time>2023-06-03T06:31:41.010</time></trkpt><trkpt lat="55.9128183" lon="49.1631207"><time>2023-06-03T06:31:42.997</time></trkpt><trkpt lat="55.9127785" lon="49.1632130"><time>2023-06-03T06:31:44.993</time></trkpt><trkpt lat="55.9127490" lon="49.1632827"><time>2023-06-03T06:31:47.007</time></trkpt><trkpt lat="55.9127155" lon="49.1633476"><time>2023-06-03T06:31:50.020</time></trkpt><trkpt lat="55.9127088" lon="49.1634415"><time>2023-06-03T06:31:54.010</time></trkpt><trkpt lat="55.9126783" lon="49.1635118"><time>2023-06-03T06:31:57.010</time></trkpt><trkpt lat="55.9126437" lon="49.1635810"><time>2023-06-03T06:31:59.007</time></trkpt><trkpt lat="55.9125840" lon="49.1636410"><time>2023-06-03T06:32:01.017</time></trkpt><trkpt lat="55.9125290" lon="49.1637508"><time>2023-06-03T06:32:03.007</time></trkpt><trkpt lat="55.9124963" lon="49.1638120"><time>2023-06-03T06:32:04.017</time></trkpt><trkpt lat="55.9124654" lon="49.1638811"><time>2023-06-03T06:32:05.020</time></trkpt><trkpt lat="55.9124340" lon="49.1639462"><time>2023-06-03T06:32:06.003</time></trkpt><trkpt lat="55.9123994" lon="49.1640196"><time>2023-06-03T06:32:07.003</time></trkpt><trkpt lat="55.9123648" lon="49.1640898"><time>2023-06-03T06:32:08.003</time></trkpt><trkpt lat="55.9123277" lon="49.1641644"><time>2023-06-03T06:32:08.997</time></trkpt><trkpt lat="55.9122881" lon="49.1642414"><time>2023-06-03T06:32:10.003</time></trkpt><trkpt lat="55.9122501" lon="49.1643159"><time>2023-06-03T06:32:10.997</time></trkpt><trkpt lat="55.9122106" lon="49.1643993"><time>2023-06-03T06:32:12.010</time></trkpt><trkpt lat="55.9121697" lon="49.1644816"><time>2023-06-03T06:32:13.013</time></trkpt><trkpt lat="55.9121264" lon="49.1645664"><time>2023-06-03T06:32:14.010</time></trkpt><trkpt lat="55.9120828" lon="49.1646502"><time>2023-06-03T06:32:15.007</time></trkpt><trkpt lat="55.9120418" lon="49.1647328"><time>2023-06-03T06:32:16.007</time></trkpt><trkpt lat="55.9120004" lon="49.1648208"><time>2023-06-03T06:32:17.010</time></trkpt><trkpt lat="55.9119611" lon="49.1649088"><time>2023-06-03T06:32:18.007</time></trkpt><trkpt lat="55.9119204" lon="49.1649978"><time>2023-06-03T06:32:19.013</time></trkpt><trkpt lat="55.9118788" lon="49.1650887"><time>2023-06-03T06:32:20.007</time></trkpt><trkpt lat="55.9118356" lon="49.1651747"><time>2023-06-03T06:32:20.993</time></trkpt><trkpt lat="55.9117943" lon="49.1652615"><time>2023-06-03T06:32:22.007</time></trkpt><trkpt lat="55.9117544" lon="49.1653454"><time>2023-06-03T06:32:23.007</time></trkpt><trkpt lat="55.9117180" lon="49.1654280"><time>2023-06-03T06:32:24.003</time></trkpt><trkpt lat="55.9116788" lon="49.1655046"><time>2023-06-03T06:32:25.013</time></trkpt><trkpt lat="55.9116367" lon="49.1655878"><time>2023-06-03T06:32:26.007</time></trkpt><trkpt lat="55.9115943" lon="49.1656676"><time>2023-06-03T06:32:27.017</time></trkpt><trkpt lat="55.9115552" lon="49.1657455"><time>2023-06-03T06:32:28.010</time></trkpt><trkpt lat="55.9115160" lon="49.1658216"><time>2023-06-03T06:32:29.007</time></trkpt><trkpt lat="55.9114788" lon="49.1658980"><time>2023-06-03T06:32:30.013</time></trkpt><trkpt lat="55.9114420" lon="49.1659804"><time>2023-06-03T06:32:31.013</time></trkpt><trkpt lat="55.9114077" lon="49.1660524"><time>2023-06-03T06:32:32.007</time></trkpt><trkpt lat="55.9113749" lon="49.1661234"><time>2023-06-03T06:32:33.013</time></trkpt><trkpt lat="55.9113417" lon="49.1661859"><time>2023-06-03T06:32:34.007</time></trkpt><trkpt lat="55.9112896" lon="49.1662910"><time>2023-06-03T06:32:36.007</time></trkpt><trkpt lat="55.9112557" lon="49.1663498"><time>2023-06-03T06:32:38.010</time></trkpt><trkpt lat="55.9112134" lon="49.1663108"><time>2023-06-03T06:32:56.007</time></trkpt><trkpt lat="55.9112069" lon="49.1662191"><time>2023-06-03T06:32:59.003</time></trkpt><trkpt lat="55.9111488" lon="49.1662129"><time>2023-06-03T06:33:05.007</time></trkpt><trkpt lat="55.9111029" lon="49.1662214"><time>2023-06-03T06:33:07.017</time></trkpt><trkpt lat="55.9110597" lon="49.1661829"><time>2023-06-03T06:33:10.017</time></trkpt><trkpt lat="55.9110348" lon="49.1661161"><time>2023-06-03T06:33:14.003</time></trkpt><trkpt lat="55.9110176" lon="49.1660353"><time>2023-06-03T06:33:17.997</time></trkpt><trkpt lat="55.9109816" lon="49.1659752"><time>2023-06-03T06:33:22.027</time></trkpt><trkpt lat="55.9109448" lon="49.1659213"><time>2023-06-03T06:33:26.047</time></trkpt><trkpt lat="55.9109520" lon="49.1658387"><time>2023-06-03T06:33:30.027</time></trkpt><trkpt lat="55.9109159" lon="49.1657873"><time>2023-06-03T06:33:36.017</time></trkpt><trkpt lat="55.9108646" lon="49.1657721"><time>2023-06-03T06:33:50.050</time></trkpt><trkpt lat="55.9108156" lon="49.1657455"><time>2023-06-03T06:34:39.013</time></trkpt><trkpt lat="55.9107539" lon="49.1657271"><time>2023-06-03T06:34:43.010</time></trkpt><trkpt lat="55.9106947" lon="49.1657253"><time>2023-06-03T06:34:45.007</time></trkpt><trkpt lat="55.9106449" lon="49.1657431"><time>2023-06-03T06:34:47.013</time></trkpt><trkpt lat="55.9105932" lon="49.1657898"><time>2023-06-03T06:34:50.027</time></trkpt><trkpt lat="55.9105460" lon="49.1658529"><time>2023-06-03T06:34:52.017</time></trkpt><trkpt lat="55.9105079" lon="49.1659022"><time>2023-06-03T06:34:53.010</time></trkpt><trkpt lat="55.9104709" lon="49.1659547"><time>2023-06-03T06:34:54.030</time></trkpt><trkpt lat="55.9104355" lon="49.1660070"><time>2023-06-03T06:34:55.040</time></trkpt><trkpt lat="55.9103992" lon="49.1660612"><time>2023-06-03T06:34:56.017</time></trkpt><trkpt lat="55.9103616" lon="49.1661175"><time>2023-06-03T06:34:57.007</time></trkpt><trkpt lat="55.9103231" lon="49.1661811"><time>2023-06-03T06:34:58.013</time></trkpt><trkpt lat="55.9102830" lon="49.1662535"><time>2023-06-03T06:34:59.037</time></trkpt><trkpt lat="55.9102431" lon="49.1663272"><time>2023-06-03T06:35:00.067</time></trkpt><trkpt lat="55.9102015" lon="49.1663971"><time>2023-06-03T06:35:01.023</time></trkpt><trkpt lat="55.9101596" lon="49.1664573"><time>2023-06-03T06:35:02.027</time></trkpt><trkpt lat="55.9101207" lon="49.1665135"><time>2023-06-03T06:35:03.020</time></trkpt><trkpt lat="55.9100818" lon="49.1665704"><time>2023-06-03T06:35:04.023</time></trkpt><trkpt lat="55.9100425" lon="49.1666291"><time>2023-06-03T06:35:05.043</time></trkpt><trkpt lat="55.9100013" lon="49.1666894"><time>2023-06-03T06:35:06.047</time></trkpt><trkpt lat="55.9099628" lon="49.1667511"><time>2023-06-03T06:35:07.020</time></trkpt><trkpt lat="55.9099239" lon="49.1668129"><time>2023-06-03T06:35:08.017</time></trkpt><trkpt lat="55.9098846" lon="49.1668741"><time>2023-06-03T06:35:09.017</time></trkpt><trkpt lat="55.9098437" lon="49.1669338"><time>2023-06-03T06:35:10.057</time></trkpt><trkpt lat="55.9098020" lon="49.1669924"><time>2023-06-03T06:35:11.050</time></trkpt><trkpt lat="55.9097618" lon="49.1670508"><time>2023-06-03T06:35:12.017</time></trkpt><trkpt lat="55.9097215" lon="49.1671085"><time>2023-06-03T06:35:13.007</time></trkpt><trkpt lat="55.9096817" lon="49.1671701"><time>2023-06-03T06:35:14.020</time></trkpt><trkpt lat="55.9096430" lon="49.1672378"><time>2023-06-03T06:35:15.027</time></trkpt><trkpt lat="55.9096021" lon="49.1673060"><time>2023-06-03T06:35:16.033</time></trkpt><trkpt lat="55.9095619" lon="49.1673762"><time>2023-06-03T06:35:17.027</time></trkpt><trkpt lat="55.9095243" lon="49.1674472"><time>2023-06-03T06:35:18.010</time></trkpt><trkpt lat="55.9094877" lon="49.1675200"><time>2023-06-03T06:35:19.043</time></trkpt><trkpt lat="55.9094525" lon="49.1675960"><time>2023-06-03T06:35:20.053</time></trkpt><trkpt lat="55.9094128" lon="49.1676776"><time>2023-06-03T06:35:21.013</time></trkpt><trkpt lat="55.9093624" lon="49.1677670"><time>2023-06-03T06:35:22.013</time></trkpt><trkpt lat="55.9093325" lon="49.1678395"><time>2023-06-03T06:35:23.010</time></trkpt><trkpt lat="55.9093020" lon="49.1679202"><time>2023-06-03T06:35:24.017</time></trkpt><trkpt lat="55.9092702" lon="49.1679916"><time>2023-06-03T06:35:25.037</time></trkpt><trkpt lat="55.9092392" lon="49.1680641"><time>2023-06-03T06:35:26.053</time></trkpt><trkpt lat="55.9092053" lon="49.1681378"><time>2023-06-03T06:35:27</time></trkpt><trkpt lat="55.9091732" lon="49.1682034"><time>2023-06-03T06:35:28.017</time></trkpt><trkpt lat="55.9091391" lon="49.1682714"><time>2023-06-03T06:35:29.027</time></trkpt><trkpt lat="55.9091006" lon="49.1683223"><time>2023-06-03T06:35:30.020</time></trkpt><trkpt lat="55.9090755" lon="49.1683900"><time>2023-06-03T06:35:31.053</time></trkpt><trkpt lat="55.9090145" lon="49.1684976"><time>2023-06-03T06:35:33.020</time></trkpt><trkpt lat="55.9089709" lon="49.1686076"><time>2023-06-03T06:35:35.007</time></trkpt><trkpt lat="55.9089428" lon="49.1687210"><time>2023-06-03T06:35:37.010</time></trkpt><trkpt lat="55.9089193" lon="49.1688401"><time>2023-06-03T06:35:39.003</time></trkpt><trkpt lat="55.9089022" lon="49.1689673"><time>2023-06-03T06:35:41.053</time></trkpt><trkpt lat="55.9088962" lon="49.1690887"><time>2023-06-03T06:35:43.017</time></trkpt><trkpt lat="55.9088932" lon="49.1691840"><time>2023-06-03T06:35:45.023</time></trkpt><trkpt lat="55.9088585" lon="49.1692722"><time>2023-06-03T06:35:48.017</time></trkpt><trkpt lat="55.9087948" lon="49.1693149"><time>2023-06-03T06:35:50.037</time></trkpt><trkpt lat="55.9087226" lon="49.1693699"><time>2023-06-03T06:35:52.020</time></trkpt><trkpt lat="55.9086542" lon="49.1694616"><time>2023-06-03T06:35:54.023</time></trkpt><trkpt lat="55.9086224" lon="49.1695225"><time>2023-06-03T06:35:55.060</time></trkpt><trkpt lat="55.9085837" lon="49.1695860"><time>2023-06-03T06:35:56.017</time></trkpt><trkpt lat="55.9085496" lon="49.1696418"><time>2023-06-03T06:35:57.017</time></trkpt><trkpt lat="55.9085148" lon="49.1696930"><time>2023-06-03T06:35:58.020</time></trkpt><trkpt lat="55.9084785" lon="49.1697527"><time>2023-06-03T06:35:59.027</time></trkpt><trkpt lat="55.9084481" lon="49.1698188"><time>2023-06-03T06:36:00.027</time></trkpt><trkpt lat="55.9084172" lon="49.1698847"><time>2023-06-03T06:36:01.013</time></trkpt><trkpt lat="55.9083858" lon="49.1699484"><time>2023-06-03T06:36:02.027</time></trkpt><trkpt lat="55.9083560" lon="49.1700117"><time>2023-06-03T06:36:03.017</time></trkpt><trkpt lat="55.9083236" lon="49.1700726"><time>2023-06-03T06:36:04.010</time></trkpt><trkpt lat="55.9082932" lon="49.1701455"><time>2023-06-03T06:36:05.030</time></trkpt><trkpt lat="55.9082609" lon="49.1702150"><time>2023-06-03T06:36:06.017</time></trkpt><trkpt lat="55.9082240" lon="49.1702815"><time>2023-06-03T06:36:07.017</time></trkpt><trkpt lat="55.9081886" lon="49.1703553"><time>2023-06-03T06:36:08.020</time></trkpt><trkpt lat="55.9081556" lon="49.1704203"><time>2023-06-03T06:36:08.997</time></trkpt><trkpt lat="55.9081197" lon="49.1704833"><time>2023-06-03T06:36:10.010</time></trkpt><trkpt lat="55.9080882" lon="49.1705405"><time>2023-06-03T06:36:11.020</time></trkpt><trkpt lat="55.9080327" lon="49.1706475"><time>2023-06-03T06:36:13.017</time></trkpt><trkpt lat="55.9079770" lon="49.1707503"><time>2023-06-03T06:36:15.043</time></trkpt><trkpt lat="55.9079322" lon="49.1708427"><time>2023-06-03T06:36:17.013</time></trkpt><trkpt lat="55.9078971" lon="49.1709103"><time>2023-06-03T06:36:19.023</time></trkpt><trkpt lat="55.9078780" lon="49.1710232"><time>2023-06-03T06:36:22.010</time></trkpt><trkpt lat="55.9078929" lon="49.1711245"><time>2023-06-03T06:36:24.050</time></trkpt><trkpt lat="55.9079295" lon="49.1712093"><time>2023-06-03T06:36:26.040</time></trkpt><trkpt lat="55.9079882" lon="49.1712933"><time>2023-06-03T06:36:28.017</time></trkpt><trkpt lat="55.9080556" lon="49.1713775"><time>2023-06-03T06:36:30.047</time></trkpt><trkpt lat="55.9081181" lon="49.1714702"><time>2023-06-03T06:36:32.017</time></trkpt><trkpt lat="55.9081764" lon="49.1715623"><time>2023-06-03T06:36:34.033</time></trkpt><trkpt lat="55.9082176" lon="49.1716811"><time>2023-06-03T06:36:36.037</time></trkpt><trkpt lat="55.9082219" lon="49.1718176"><time>2023-06-03T06:36:38.017</time></trkpt><trkpt lat="55.9081951" lon="49.1719488"><time>2023-06-03T06:36:40.030</time></trkpt><trkpt lat="55.9081406" lon="49.1720671"><time>2023-06-03T06:36:42.013</time></trkpt><trkpt lat="55.9081059" lon="49.1721317"><time>2023-06-03T06:36:43.017</time></trkpt><trkpt lat="55.9080728" lon="49.1721982"><time>2023-06-03T06:36:44.020</time></trkpt><trkpt lat="55.9080387" lon="49.1722629"><time>2023-06-03T06:36:45.027</time></trkpt><trkpt lat="55.9080081" lon="49.1723321"><time>2023-06-03T06:36:46.040</time></trkpt><trkpt lat="55.9079749" lon="49.1723939"><time>2023-06-03T06:36:47.020</time></trkpt><trkpt lat="55.9079268" lon="49.1725117"><time>2023-06-03T06:36:49.070</time></trkpt><trkpt lat="55.9078781" lon="49.1726216"><time>2023-06-03T06:36:51.017</time></trkpt><trkpt lat="55.9078296" lon="49.1727354"><time>2023-06-03T06:36:53.027</time></trkpt><trkpt lat="55.9077874" lon="49.1728373"><time>2023-06-03T06:36:55.020</time></trkpt><trkpt lat="55.9077471" lon="49.1729312"><time>2023-06-03T06:36:57.017</time></trkpt><trkpt lat="55.9077127" lon="49.1730282"><time>2023-06-03T06:36:59.007</time></trkpt><trkpt lat="55.9076687" lon="49.1731347"><time>2023-06-03T06:37:01.050</time></trkpt><trkpt lat="55.9076216" lon="49.1732570"><time>2023-06-03T06:37:03.013</time></trkpt><trkpt lat="55.9075856" lon="49.1733938"><time>2023-06-03T06:37:05.013</time></trkpt><trkpt lat="55.9075419" lon="49.1735270"><time>2023-06-03T06:37:07.017</time></trkpt><trkpt lat="55.9075188" lon="49.1735964"><time>2023-06-03T06:37:08.020</time></trkpt><trkpt lat="55.9074895" lon="49.1736583"><time>2023-06-03T06:37:09.017</time></trkpt><trkpt lat="55.9074569" lon="49.1737165"><time>2023-06-03T06:37:10.023</time></trkpt><trkpt lat="55.9074184" lon="49.1737710"><time>2023-06-03T06:37:11.030</time></trkpt><trkpt lat="55.9073803" lon="49.1738311"><time>2023-06-03T06:37:12.013</time></trkpt><trkpt lat="55.9073411" lon="49.1738896"><time>2023-06-03T06:37:13.013</time></trkpt><trkpt lat="55.9073061" lon="49.1739544"><time>2023-06-03T06:37:14.003</time></trkpt><trkpt lat="55.9072693" lon="49.1740177"><time>2023-06-03T06:37:15.003</time></trkpt><trkpt lat="55.9072345" lon="49.1740813"><time>2023-06-03T06:37:16.010</time></trkpt><trkpt lat="55.9071990" lon="49.1741480"><time>2023-06-03T06:37:17.013</time></trkpt><trkpt lat="55.9071655" lon="49.1742158"><time>2023-06-03T06:37:18.017</time></trkpt><trkpt lat="55.9071347" lon="49.1742863"><time>2023-06-03T06:37:19.017</time></trkpt><trkpt lat="55.9070990" lon="49.1743645"><time>2023-06-03T06:37:20.010</time></trkpt><trkpt lat="55.9070677" lon="49.1744438"><time>2023-06-03T06:37:21.020</time></trkpt><trkpt lat="55.9070322" lon="49.1745126"><time>2023-06-03T06:37:22.017</time></trkpt><trkpt lat="55.9070012" lon="49.1745784"><time>2023-06-03T06:37:23.023</time></trkpt><trkpt lat="55.9069706" lon="49.1746447"><time>2023-06-03T06:37:24.043</time></trkpt><trkpt lat="55.9069159" lon="49.1747631"><time>2023-06-03T06:37:26.027</time></trkpt><trkpt lat="55.9068669" lon="49.1748958"><time>2023-06-03T06:37:28.020</time></trkpt><trkpt lat="55.9068411" lon="49.1749633"><time>2023-06-03T06:37:29.027</time></trkpt><trkpt lat="55.9067881" lon="49.1750870"><time>2023-06-03T06:37:31.017</time></trkpt><trkpt lat="55.9067418" lon="49.1752023"><time>2023-06-03T06:37:33.013</time></trkpt><trkpt lat="55.9066885" lon="49.1753244"><time>2023-06-03T06:37:35.050</time></trkpt><trkpt lat="55.9066380" lon="49.1754396"><time>2023-06-03T06:37:37.020</time></trkpt><trkpt lat="55.9065875" lon="49.1755508"><time>2023-06-03T06:37:39.043</time></trkpt><trkpt lat="55.9065399" lon="49.1756652"><time>2023-06-03T06:37:41.027</time></trkpt><trkpt lat="55.9064925" lon="49.1757891"><time>2023-06-03T06:37:43.013</time></trkpt><trkpt lat="55.9064417" lon="49.1759120"><time>2023-06-03T06:37:45.023</time></trkpt><trkpt lat="55.9063953" lon="49.1760390"><time>2023-06-03T06:37:47.020</time></trkpt><trkpt lat="55.9063493" lon="49.1761633"><time>2023-06-03T06:37:49.060</time></trkpt><trkpt lat="55.9063075" lon="49.1762875"><time>2023-06-03T06:37:51.047</time></trkpt><trkpt lat="55.9062755" lon="49.1764157"><time>2023-06-03T06:37:53.017</time></trkpt><trkpt lat="55.9062308" lon="49.1765534"><time>2023-06-03T06:37:55.023</time></trkpt><trkpt lat="55.9062085" lon="49.1766320"><time>2023-06-03T06:37:56.023</time></trkpt><trkpt lat="55.9061866" lon="49.1767133"><time>2023-06-03T06:37:57.017</time></trkpt><trkpt lat="55.9061633" lon="49.1768008"><time>2023-06-03T06:37:58.017</time></trkpt><trkpt lat="55.9061388" lon="49.1768915"><time>2023-06-03T06:37:59.057</time></trkpt><trkpt lat="55.9061139" lon="49.1769800"><time>2023-06-03T06:38:00.017</time></trkpt><trkpt lat="55.9060876" lon="49.1770659"><time>2023-06-03T06:38:01.047</time></trkpt><trkpt lat="55.9060599" lon="49.1771546"><time>2023-06-03T06:38:02.013</time></trkpt><trkpt lat="55.9060369" lon="49.1772484"><time>2023-06-03T06:38:03.023</time></trkpt><trkpt lat="55.9060071" lon="49.1773383"><time>2023-06-03T06:38:04.053</time></trkpt><trkpt lat="55.9059791" lon="49.1774322"><time>2023-06-03T06:38:05.013</time></trkpt><trkpt lat="55.9059518" lon="49.1775298"><time>2023-06-03T06:38:06.043</time></trkpt><trkpt lat="55.9059241" lon="49.1776231"><time>2023-06-03T06:38:07.017</time></trkpt><trkpt lat="55.9058915" lon="49.1777231"><time>2023-06-03T06:38:08.017</time></trkpt><trkpt lat="55.9058583" lon="49.1778252"><time>2023-06-03T06:38:09.003</time></trkpt><trkpt lat="55.9058276" lon="49.1779189"><time>2023-06-03T06:38:10.003</time></trkpt><trkpt lat="55.9058023" lon="49.1780108"><time>2023-06-03T06:38:11.013</time></trkpt><trkpt lat="55.9057780" lon="49.1781007"><time>2023-06-03T06:38:12.017</time></trkpt><trkpt lat="55.9057553" lon="49.1781857"><time>2023-06-03T06:38:13.013</time></trkpt><trkpt lat="55.9057358" lon="49.1782734"><time>2023-06-03T06:38:14.037</time></trkpt><trkpt lat="55.9057167" lon="49.1783626"><time>2023-06-03T06:38:15.030</time></trkpt><trkpt lat="55.9056950" lon="49.1784477"><time>2023-06-03T06:38:16.030</time></trkpt><trkpt lat="55.9056724" lon="49.1785251"><time>2023-06-03T06:38:17.020</time></trkpt><trkpt lat="55.9056458" lon="49.1786030"><time>2023-06-03T06:38:18.013</time></trkpt><trkpt lat="55.9055915" lon="49.1787278"><time>2023-06-03T06:38:20.037</time></trkpt><trkpt lat="55.9055504" lon="49.1788557"><time>2023-06-03T06:38:22.017</time></trkpt><trkpt lat="55.9055127" lon="49.1789847"><time>2023-06-03T06:38:24.013</time></trkpt><trkpt lat="55.9054689" lon="49.1791094"><time>2023-06-03T06:38:26.037</time></trkpt><trkpt lat="55.9054545" lon="49.1791864"><time>2023-06-03T06:38:27.017</time></trkpt><trkpt lat="55.9054417" lon="49.1793428"><time>2023-06-03T06:38:29.017</time></trkpt><trkpt lat="55.9054365" lon="49.1794787"><time>2023-06-03T06:38:31.027</time></trkpt><trkpt lat="55.9054286" lon="49.1796026"><time>2023-06-03T06:38:33.020</time></trkpt><trkpt lat="55.9054139" lon="49.1797310"><time>2023-06-03T06:38:35.063</time></trkpt><trkpt lat="55.9054002" lon="49.1798740"><time>2023-06-03T06:38:37.010</time></trkpt><trkpt lat="55.9053786" lon="49.1800006"><time>2023-06-03T06:38:39.010</time></trkpt><trkpt lat="55.9053521" lon="49.1801146"><time>2023-06-03T06:38:41.043</time></trkpt><trkpt lat="55.9053187" lon="49.1802146"><time>2023-06-03T06:38:43.017</time></trkpt><trkpt lat="55.9052772" lon="49.1802990"><time>2023-06-03T06:38:45.057</time></trkpt><trkpt lat="55.9052285" lon="49.1803611"><time>2023-06-03T06:38:47.013</time></trkpt><trkpt lat="55.9051845" lon="49.1803924"><time>2023-06-03T06:38:49.017</time></trkpt><trkpt lat="55.9051357" lon="49.1803910"><time>2023-06-03T06:38:53.010</time></trkpt><trkpt lat="55.9051074" lon="49.1802856"><time>2023-06-03T06:39:14.050</time></trkpt><trkpt lat="55.9050854" lon="49.1801736"><time>2023-06-03T06:39:15.983</time></trkpt><trkpt lat="55.9050531" lon="49.1800478"><time>2023-06-03T06:39:17.987</time></trkpt><trkpt lat="55.9050086" lon="49.1799286"><time>2023-06-03T06:39:19.987</time></trkpt><trkpt lat="55.9049541" lon="49.1798140"><time>2023-06-03T06:39:21.987</time></trkpt><trkpt lat="55.9048948" lon="49.1797160"><time>2023-06-03T06:39:23.993</time></trkpt><trkpt lat="55.9048328" lon="49.1796130"><time>2023-06-03T06:39:26.003</time></trkpt><trkpt lat="55.9047683" lon="49.1795114"><time>2023-06-03T06:39:27.990</time></trkpt><trkpt lat="55.9047060" lon="49.1794268"><time>2023-06-03T06:39:30.007</time></trkpt><trkpt lat="55.9046413" lon="49.1793686"><time>2023-06-03T06:39:32.007</time></trkpt><trkpt lat="55.9045787" lon="49.1793152"><time>2023-06-03T06:39:33.987</time></trkpt><trkpt lat="55.9045168" lon="49.1792606"><time>2023-06-03T06:39:36.003</time></trkpt><trkpt lat="55.9044746" lon="49.1792305"><time>2023-06-03T06:39:38.010</time></trkpt><trkpt lat="55.9044300" lon="49.1792754"><time>2023-06-03T06:39:41.007</time></trkpt><trkpt lat="55.9043904" lon="49.1793235"><time>2023-06-03T06:39:43.007</time></trkpt><trkpt lat="55.9043504" lon="49.1793668"><time>2023-06-03T06:39:45.007</time></trkpt><trkpt lat="55.9043062" lon="49.1794041"><time>2023-06-03T06:39:47.010</time></trkpt><trkpt lat="55.9042570" lon="49.1794448"><time>2023-06-03T06:39:49.007</time></trkpt><trkpt lat="55.9042089" lon="49.1794675"><time>2023-06-03T06:39:51.007</time></trkpt><trkpt lat="55.9041633" lon="49.1794753"><time>2023-06-03T06:39:53.007</time></trkpt><trkpt lat="55.9041170" lon="49.1794836"><time>2023-06-03T06:39:55.013</time></trkpt><trkpt lat="55.9040672" lon="49.1794962"><time>2023-06-03T06:39:57.010</time></trkpt><trkpt lat="55.9040176" lon="49.1795107"><time>2023-06-03T06:39:59.007</time></trkpt><trkpt lat="55.9039564" lon="49.1795357"><time>2023-06-03T06:40:02.010</time></trkpt><trkpt lat="55.9039043" lon="49.1795603"><time>2023-06-03T06:40:05</time></trkpt><trkpt lat="55.9038451" lon="49.1795795"><time>2023-06-03T06:41:04.007</time></trkpt><trkpt lat="55.9037833" lon="49.1796214"><time>2023-06-03T06:41:06.007</time></trkpt><trkpt lat="55.9037145" lon="49.1796743"><time>2023-06-03T06:41:08.007</time></trkpt><trkpt lat="55.9036309" lon="49.1797236"><time>2023-06-03T06:41:10.010</time></trkpt><trkpt lat="55.9035867" lon="49.1797503"><time>2023-06-03T06:41:11.010</time></trkpt><trkpt lat="55.9035416" lon="49.1797799"><time>2023-06-03T06:41:12.007</time></trkpt><trkpt lat="55.9034960" lon="49.1798138"><time>2023-06-03T06:41:13.010</time></trkpt><trkpt lat="55.9034510" lon="49.1798418"><time>2023-06-03T06:41:14.007</time></trkpt><trkpt lat="55.9034055" lon="49.1798726"><time>2023-06-03T06:41:15.017</time></trkpt><trkpt lat="55.9033566" lon="49.1799003"><time>2023-06-03T06:41:15.987</time></trkpt><trkpt lat="55.9033111" lon="49.1799264"><time>2023-06-03T06:41:17.017</time></trkpt><trkpt lat="55.9032608" lon="49.1799629"><time>2023-06-03T06:41:17.987</time></trkpt><trkpt lat="55.9032165" lon="49.1800030"><time>2023-06-03T06:41:18.990</time></trkpt><trkpt lat="55.9031719" lon="49.1800419"><time>2023-06-03T06:41:19.987</time></trkpt><trkpt lat="55.9031315" lon="49.1800867"><time>2023-06-03T06:41:21.007</time></trkpt><trkpt lat="55.9030920" lon="49.1801248"><time>2023-06-03T06:41:22.013</time></trkpt><trkpt lat="55.9030524" lon="49.1801717"><time>2023-06-03T06:41:22.990</time></trkpt><trkpt lat="55.9030077" lon="49.1802126"><time>2023-06-03T06:41:24.047</time></trkpt><trkpt lat="55.9029634" lon="49.1802558"><time>2023-06-03T06:41:25.043</time></trkpt><trkpt lat="55.9029178" lon="49.1802975"><time>2023-06-03T06:41:26.010</time></trkpt><trkpt lat="55.9028712" lon="49.1803413"><time>2023-06-03T06:41:27.010</time></trkpt><trkpt lat="55.9028260" lon="49.1803835"><time>2023-06-03T06:41:28.010</time></trkpt><trkpt lat="55.9027765" lon="49.1804171"><time>2023-06-03T06:41:29.077</time></trkpt><trkpt lat="55.9027347" lon="49.1804610"><time>2023-06-03T06:41:30.040</time></trkpt><trkpt lat="55.9026916" lon="49.1805070"><time>2023-06-03T06:41:31.010</time></trkpt><trkpt lat="55.9026202" lon="49.1805843"><time>2023-06-03T06:41:32.997</time></trkpt><trkpt lat="55.9025505" lon="49.1806605"><time>2023-06-03T06:41:35.047</time></trkpt><trkpt lat="55.9024814" lon="49.1807414"><time>2023-06-03T06:41:37.017</time></trkpt><trkpt lat="55.9024066" lon="49.1808188"><time>2023-06-03T06:41:39.050</time></trkpt><trkpt lat="55.9023322" lon="49.1809048"><time>2023-06-03T06:41:41.037</time></trkpt><trkpt lat="55.9022674" lon="49.1810068"><time>2023-06-03T06:41:43.023</time></trkpt><trkpt lat="55.9022042" lon="49.1811105"><time>2023-06-03T06:41:45.043</time></trkpt><trkpt lat="55.9021701" lon="49.1811645"><time>2023-06-03T06:41:46.010</time></trkpt><trkpt lat="55.9021024" lon="49.1812598"><time>2023-06-03T06:41:48.013</time></trkpt><trkpt lat="55.9020654" lon="49.1813056"><time>2023-06-03T06:41:49.043</time></trkpt><trkpt lat="55.9020240" lon="49.1813412"><time>2023-06-03T06:41:50.007</time></trkpt><trkpt lat="55.9019813" lon="49.1813709"><time>2023-06-03T06:41:51.023</time></trkpt><trkpt lat="55.9019369" lon="49.1814060"><time>2023-06-03T06:41:52.017</time></trkpt><trkpt lat="55.9018909" lon="49.1814371"><time>2023-06-03T06:41:53.013</time></trkpt><trkpt lat="55.9018466" lon="49.1814723"><time>2023-06-03T06:41:54.023</time></trkpt><trkpt lat="55.9018020" lon="49.1815056"><time>2023-06-03T06:41:55.023</time></trkpt><trkpt lat="55.9017583" lon="49.1815406"><time>2023-06-03T06:41:56.020</time></trkpt><trkpt lat="55.9017174" lon="49.1815754"><time>2023-06-03T06:41:57.020</time></trkpt><trkpt lat="55.9016746" lon="49.1816058"><time>2023-06-03T06:41:58.027</time></trkpt><trkpt lat="55.9016304" lon="49.1816339"><time>2023-06-03T06:41:59.013</time></trkpt><trkpt lat="55.9015447" lon="49.1816699"><time>2023-06-03T06:42:01.010</time></trkpt><trkpt lat="55.9015010" lon="49.1816897"><time>2023-06-03T06:42:02.027</time></trkpt><trkpt lat="55.9014137" lon="49.1817406"><time>2023-06-03T06:42:04.013</time></trkpt><trkpt lat="55.9013669" lon="49.1817635"><time>2023-06-03T06:42:05.013</time></trkpt><trkpt lat="55.9013197" lon="49.1817813"><time>2023-06-03T06:42:06.020</time></trkpt><trkpt lat="55.9012298" lon="49.1818125"><time>2023-06-03T06:42:08.023</time></trkpt><trkpt lat="55.9011798" lon="49.1818318"><time>2023-06-03T06:42:09.003</time></trkpt><trkpt lat="55.9011332" lon="49.1818468"><time>2023-06-03T06:42:10</time></trkpt><trkpt lat="55.9010819" lon="49.1818625"><time>2023-06-03T06:42:11.007</time></trkpt><trkpt lat="55.9010309" lon="49.1818768"><time>2023-06-03T06:42:12.017</time></trkpt><trkpt lat="55.9009842" lon="49.1818838"><time>2023-06-03T06:42:13.017</time></trkpt><trkpt lat="55.9009364" lon="49.1818919"><time>2023-06-03T06:42:14.047</time></trkpt><trkpt lat="55.9008896" lon="49.1818981"><time>2023-06-03T06:42:15.040</time></trkpt><trkpt lat="55.9008417" lon="49.1819033"><time>2023-06-03T06:42:16.037</time></trkpt><trkpt lat="55.9007927" lon="49.1819080"><time>2023-06-03T06:42:17.017</time></trkpt><trkpt lat="55.9007445" lon="49.1819074"><time>2023-06-03T06:42:18.017</time></trkpt><trkpt lat="55.9006991" lon="49.1819047"><time>2023-06-03T06:42:19.020</time></trkpt><trkpt lat="55.9006530" lon="49.1819025"><time>2023-06-03T06:42:20.020</time></trkpt><trkpt lat="55.9006060" lon="49.1818920"><time>2023-06-03T06:42:21.040</time></trkpt><trkpt lat="55.9005600" lon="49.1818857"><time>2023-06-03T06:42:22.013</time></trkpt><trkpt lat="55.9005146" lon="49.1818811"><time>2023-06-03T06:42:23.030</time></trkpt><trkpt lat="55.9004247" lon="49.1818679"><time>2023-06-03T06:42:25.010</time></trkpt><trkpt lat="55.9003795" lon="49.1818590"><time>2023-06-03T06:42:26.013</time></trkpt><trkpt lat="55.9003277" lon="49.1818531"><time>2023-06-03T06:42:27.010</time></trkpt><trkpt lat="55.9002802" lon="49.1818404"><time>2023-06-03T06:42:28.013</time></trkpt><trkpt lat="55.9002302" lon="49.1818199"><time>2023-06-03T06:42:29.047</time></trkpt><trkpt lat="55.9001824" lon="49.1818068"><time>2023-06-03T06:42:29.997</time></trkpt><trkpt lat="55.9001349" lon="49.1817956"><time>2023-06-03T06:42:31.050</time></trkpt><trkpt lat="55.9000858" lon="49.1817827"><time>2023-06-03T06:42:32.030</time></trkpt><trkpt lat="55.9000335" lon="49.1817690"><time>2023-06-03T06:42:33.017</time></trkpt><trkpt lat="55.8999836" lon="49.1817482"><time>2023-06-03T06:42:34.063</time></trkpt><trkpt lat="55.8999338" lon="49.1817297"><time>2023-06-03T06:42:35.023</time></trkpt><trkpt lat="55.8998878" lon="49.1817092"><time>2023-06-03T06:42:36.037</time></trkpt><trkpt lat="55.8998433" lon="49.1816911"><time>2023-06-03T06:42:37.017</time></trkpt><trkpt lat="55.8997971" lon="49.1816647"><time>2023-06-03T06:42:38.017</time></trkpt><trkpt lat="55.8997095" lon="49.1816165"><time>2023-06-03T06:42:40.017</time></trkpt><trkpt lat="55.8996655" lon="49.1815902"><time>2023-06-03T06:42:41.020</time></trkpt><trkpt lat="55.8995850" lon="49.1815226"><time>2023-06-03T06:42:43.017</time></trkpt><trkpt lat="55.8995455" lon="49.1814836"><time>2023-06-03T06:42:44.010</time></trkpt><trkpt lat="55.8995084" lon="49.1814382"><time>2023-06-03T06:42:45.013</time></trkpt><trkpt lat="55.8994701" lon="49.1813902"><time>2023-06-03T06:42:46.027</time></trkpt><trkpt lat="55.8994328" lon="49.1813355"><time>2023-06-03T06:42:47.017</time></trkpt><trkpt lat="55.8993695" lon="49.1812320"><time>2023-06-03T06:42:49.033</time></trkpt><trkpt lat="55.8993354" lon="49.1811739"><time>2023-06-03T06:42:50.037</time></trkpt><trkpt lat="55.8993067" lon="49.1811075"><time>2023-06-03T06:42:51.013</time></trkpt><trkpt lat="55.8992784" lon="49.1810432"><time>2023-06-03T06:42:52.017</time></trkpt><trkpt lat="55.8992516" lon="49.1809790"><time>2023-06-03T06:42:53.010</time></trkpt><trkpt lat="55.8992071" lon="49.1808411"><time>2023-06-03T06:42:55.007</time></trkpt><trkpt lat="55.8991898" lon="49.1807666"><time>2023-06-03T06:42:56.030</time></trkpt><trkpt lat="55.8991545" lon="49.1806234"><time>2023-06-03T06:42:58.013</time></trkpt><trkpt lat="55.8991250" lon="49.1804785"><time>2023-06-03T06:43:00.030</time></trkpt><trkpt lat="55.8991070" lon="49.1803318"><time>2023-06-03T06:43:02.017</time></trkpt><trkpt lat="55.8990878" lon="49.1801778"><time>2023-06-03T06:43:04.040</time></trkpt><trkpt lat="55.8990735" lon="49.1800285"><time>2023-06-03T06:43:06.017</time></trkpt><trkpt lat="55.8990686" lon="49.1798839"><time>2023-06-03T06:43:08.013</time></trkpt><trkpt lat="55.8990626" lon="49.1797375"><time>2023-06-03T06:43:10.047</time></trkpt><trkpt lat="55.8990612" lon="49.1795917"><time>2023-06-03T06:43:12.020</time></trkpt><trkpt lat="55.8990531" lon="49.1794366"><time>2023-06-03T06:43:13.997</time></trkpt><trkpt lat="55.8990437" lon="49.1792805"><time>2023-06-03T06:43:16.017</time></trkpt><trkpt lat="55.8990317" lon="49.1791324"><time>2023-06-03T06:43:18.020</time></trkpt><trkpt lat="55.8990194" lon="49.1789875"><time>2023-06-03T06:43:20.010</time></trkpt><trkpt lat="55.8990080" lon="49.1788447"><time>2023-06-03T06:43:22.023</time></trkpt><trkpt lat="55.8989941" lon="49.1787073"><time>2023-06-03T06:43:24.020</time></trkpt><trkpt lat="55.8989801" lon="49.1785793"><time>2023-06-03T06:43:26.010</time></trkpt><trkpt lat="55.8989616" lon="49.1784512"><time>2023-06-03T06:43:28.023</time></trkpt><trkpt lat="55.8989413" lon="49.1783227"><time>2023-06-03T06:43:30.050</time></trkpt><trkpt lat="55.8989254" lon="49.1781881"><time>2023-06-03T06:43:32.030</time></trkpt><trkpt lat="55.8989121" lon="49.1780494"><time>2023-06-03T06:43:34.037</time></trkpt><trkpt lat="55.8988948" lon="49.1779090"><time>2023-06-03T06:43:36.007</time></trkpt><trkpt lat="55.8988756" lon="49.1777703"><time>2023-06-03T06:43:38.013</time></trkpt><trkpt lat="55.8988581" lon="49.1776277"><time>2023-06-03T06:43:40.047</time></trkpt><trkpt lat="55.8988417" lon="49.1775002"><time>2023-06-03T06:43:42.020</time></trkpt><trkpt lat="55.8988269" lon="49.1773707"><time>2023-06-03T06:43:44.057</time></trkpt><trkpt lat="55.8988053" lon="49.1772486"><time>2023-06-03T06:43:46.030</time></trkpt><trkpt lat="55.8987889" lon="49.1771266"><time>2023-06-03T06:43:48.027</time></trkpt><trkpt lat="55.8987787" lon="49.1770044"><time>2023-06-03T06:43:50.020</time></trkpt><trkpt lat="55.8987623" lon="49.1768778"><time>2023-06-03T06:43:52.017</time></trkpt><trkpt lat="55.8987380" lon="49.1767478"><time>2023-06-03T06:43:54.053</time></trkpt><trkpt lat="55.8987105" lon="49.1766103"><time>2023-06-03T06:43:56.017</time></trkpt><trkpt lat="55.8986814" lon="49.1764721"><time>2023-06-03T06:43:58.023</time></trkpt><trkpt lat="55.8986516" lon="49.1763423"><time>2023-06-03T06:44:00.077</time></trkpt><trkpt lat="55.8986218" lon="49.1762173"><time>2023-06-03T06:44:02.027</time></trkpt><trkpt lat="55.8985941" lon="49.1760907"><time>2023-06-03T06:44:04.017</time></trkpt><trkpt lat="55.8985644" lon="49.1759610"><time>2023-06-03T06:44:06.040</time></trkpt><trkpt lat="55.8985387" lon="49.1758350"><time>2023-06-03T06:44:08.023</time></trkpt><trkpt lat="55.8985154" lon="49.1757101"><time>2023-06-03T06:44:10.003</time></trkpt><trkpt lat="55.8984833" lon="49.1755851"><time>2023-06-03T06:44:12.023</time></trkpt><trkpt lat="55.8984430" lon="49.1754679"><time>2023-06-03T06:44:14.063</time></trkpt><trkpt lat="55.8984014" lon="49.1753652"><time>2023-06-03T06:44:16.057</time></trkpt><trkpt lat="55.8983566" lon="49.1752830"><time>2023-06-03T06:44:18.017</time></trkpt><trkpt lat="55.8983116" lon="49.1751983"><time>2023-06-03T06:44:20.053</time></trkpt><trkpt lat="55.8982837" lon="49.1750925"><time>2023-06-03T06:44:22.013</time></trkpt><trkpt lat="55.8982627" lon="49.1750031"><time>2023-06-03T06:44:24.020</time></trkpt><trkpt lat="55.8982295" lon="49.1749126"><time>2023-06-03T06:44:26.037</time></trkpt><trkpt lat="55.8981979" lon="49.1748324"><time>2023-06-03T06:44:29.020</time></trkpt><trkpt lat="55.8981869" lon="49.1747199"><time>2023-06-03T06:45:23.013</time></trkpt><trkpt lat="55.8981805" lon="49.1746327"><time>2023-06-03T06:45:25.047</time></trkpt><trkpt lat="55.8981746" lon="49.1745310"><time>2023-06-03T06:45:27.030</time></trkpt><trkpt lat="55.8981607" lon="49.1744197"><time>2023-06-03T06:45:29.020</time></trkpt><trkpt lat="55.8981436" lon="49.1743051"><time>2023-06-03T06:45:31.007</time></trkpt><trkpt lat="55.8981268" lon="49.1741883"><time>2023-06-03T06:45:33.017</time></trkpt><trkpt lat="55.8981107" lon="49.1740491"><time>2023-06-03T06:45:35.043</time></trkpt><trkpt lat="55.8980829" lon="49.1739138"><time>2023-06-03T06:45:37.017</time></trkpt><trkpt lat="55.8980572" lon="49.1737895"><time>2023-06-03T06:45:39.057</time></trkpt><trkpt lat="55.8980361" lon="49.1736506"><time>2023-06-03T06:45:41.027</time></trkpt><trkpt lat="55.8980112" lon="49.1735124"><time>2023-06-03T06:45:43.023</time></trkpt><trkpt lat="55.8979879" lon="49.1733665"><time>2023-06-03T06:45:45.020</time></trkpt><trkpt lat="55.8979636" lon="49.1732140"><time>2023-06-03T06:45:47.020</time></trkpt><trkpt lat="55.8979491" lon="49.1731276"><time>2023-06-03T06:45:48.013</time></trkpt><trkpt lat="55.8979368" lon="49.1730454"><time>2023-06-03T06:45:49.040</time></trkpt><trkpt lat="55.8979237" lon="49.1729648"><time>2023-06-03T06:45:50.020</time></trkpt><trkpt lat="55.8979041" lon="49.1728204"><time>2023-06-03T06:45:52.010</time></trkpt><trkpt lat="55.8978789" lon="49.1726751"><time>2023-06-03T06:45:54.017</time></trkpt><trkpt lat="55.8978649" lon="49.1725976"><time>2023-06-03T06:45:55.027</time></trkpt><trkpt lat="55.8978500" lon="49.1725170"><time>2023-06-03T06:45:56.010</time></trkpt><trkpt lat="55.8978367" lon="49.1724367"><time>2023-06-03T06:45:57.017</time></trkpt><trkpt lat="55.8978139" lon="49.1722899"><time>2023-06-03T06:45:59.007</time></trkpt><trkpt lat="55.8977892" lon="49.1721438"><time>2023-06-03T06:46:01.003</time></trkpt><trkpt lat="55.8977643" lon="49.1720076"><time>2023-06-03T06:46:03.017</time></trkpt><trkpt lat="55.8977400" lon="49.1718640"><time>2023-06-03T06:46:05.047</time></trkpt><trkpt lat="55.8977150" lon="49.1717167"><time>2023-06-03T06:46:07.013</time></trkpt><trkpt lat="55.8976861" lon="49.1715679"><time>2023-06-03T06:46:09.003</time></trkpt><trkpt lat="55.8976596" lon="49.1714192"><time>2023-06-03T06:46:11.010</time></trkpt><trkpt lat="55.8976326" lon="49.1712706"><time>2023-06-03T06:46:13.017</time></trkpt><trkpt lat="55.8976202" lon="49.1711937"><time>2023-06-03T06:46:14.047</time></trkpt><trkpt lat="55.8976074" lon="49.1711158"><time>2023-06-03T06:46:15.017</time></trkpt><trkpt lat="55.8975937" lon="49.1710345"><time>2023-06-03T06:46:16.027</time></trkpt><trkpt lat="55.8975689" lon="49.1708792"><time>2023-06-03T06:46:18.027</time></trkpt><trkpt lat="55.8975380" lon="49.1707374"><time>2023-06-03T06:46:20.020</time></trkpt><trkpt lat="55.8975197" lon="49.1706619"><time>2023-06-03T06:46:21.033</time></trkpt><trkpt lat="55.8975021" lon="49.1705806"><time>2023-06-03T06:46:22.023</time></trkpt><trkpt lat="55.8974759" lon="49.1704186"><time>2023-06-03T06:46:24.010</time></trkpt><trkpt lat="55.8974505" lon="49.1702731"><time>2023-06-03T06:46:26.020</time></trkpt><trkpt lat="55.8974284" lon="49.1701279"><time>2023-06-03T06:46:28.023</time></trkpt><trkpt lat="55.8974036" lon="49.1699864"><time>2023-06-03T06:46:30.023</time></trkpt><trkpt lat="55.8973788" lon="49.1698422"><time>2023-06-03T06:46:32.017</time></trkpt><trkpt lat="55.8973511" lon="49.1696994"><time>2023-06-03T06:46:34.053</time></trkpt><trkpt lat="55.8973274" lon="49.1695457"><time>2023-06-03T06:46:36.027</time></trkpt><trkpt lat="55.8973081" lon="49.1693996"><time>2023-06-03T06:46:38.017</time></trkpt><trkpt lat="55.8972830" lon="49.1692621"><time>2023-06-03T06:46:40.017</time></trkpt><trkpt lat="55.8972576" lon="49.1691166"><time>2023-06-03T06:46:42.020</time></trkpt><trkpt lat="55.8972310" lon="49.1689702"><time>2023-06-03T06:46:44.057</time></trkpt><trkpt lat="55.8972030" lon="49.1688245"><time>2023-06-03T06:46:46.060</time></trkpt><trkpt lat="55.8971722" lon="49.1686737"><time>2023-06-03T06:46:48.013</time></trkpt><trkpt lat="55.8971592" lon="49.1685945"><time>2023-06-03T06:46:48.987</time></trkpt><trkpt lat="55.8971408" lon="49.1685131"><time>2023-06-03T06:46:50</time></trkpt><trkpt lat="55.8971230" lon="49.1684391"><time>2023-06-03T06:46:50.993</time></trkpt><trkpt lat="55.8971033" lon="49.1683606"><time>2023-06-03T06:46:52</time></trkpt><trkpt lat="55.8970853" lon="49.1682763"><time>2023-06-03T06:46:53.013</time></trkpt><trkpt lat="55.8970664" lon="49.1681984"><time>2023-06-03T06:46:54.010</time></trkpt><trkpt lat="55.8970326" lon="49.1680544"><time>2023-06-03T06:46:56.017</time></trkpt><trkpt lat="55.8970098" lon="49.1679087"><time>2023-06-03T06:46:58.017</time></trkpt><trkpt lat="55.8969805" lon="49.1677601"><time>2023-06-03T06:47:00.007</time></trkpt><trkpt lat="55.8969565" lon="49.1676153"><time>2023-06-03T06:47:02.013</time></trkpt><trkpt lat="55.8969361" lon="49.1674619"><time>2023-06-03T06:47:04.010</time></trkpt><trkpt lat="55.8969160" lon="49.1673116"><time>2023-06-03T06:47:06.003</time></trkpt><trkpt lat="55.8968992" lon="49.1671657"><time>2023-06-03T06:47:08.063</time></trkpt><trkpt lat="55.8968797" lon="49.1670252"><time>2023-06-03T06:47:10.027</time></trkpt><trkpt lat="55.8968581" lon="49.1668834"><time>2023-06-03T06:47:12.010</time></trkpt><trkpt lat="55.8968381" lon="49.1667441"><time>2023-06-03T06:47:14.053</time></trkpt><trkpt lat="55.8968176" lon="49.1665951"><time>2023-06-03T06:47:16.017</time></trkpt><trkpt lat="55.8967918" lon="49.1664424"><time>2023-06-03T06:47:18.027</time></trkpt><trkpt lat="55.8967714" lon="49.1662988"><time>2023-06-03T06:47:20.047</time></trkpt><trkpt lat="55.8967546" lon="49.1661578"><time>2023-06-03T06:47:22.007</time></trkpt><trkpt lat="55.8967380" lon="49.1660147"><time>2023-06-03T06:47:24.023</time></trkpt><trkpt lat="55.8967205" lon="49.1658693"><time>2023-06-03T06:47:26.013</time></trkpt><trkpt lat="55.8967012" lon="49.1657280"><time>2023-06-03T06:47:28.013</time></trkpt><trkpt lat="55.8966868" lon="49.1655803"><time>2023-06-03T06:47:30.043</time></trkpt><trkpt lat="55.8966759" lon="49.1654336"><time>2023-06-03T06:47:32.013</time></trkpt><trkpt lat="55.8966666" lon="49.1652878"><time>2023-06-03T06:47:34.013</time></trkpt><trkpt lat="55.8966566" lon="49.1651450"><time>2023-06-03T06:47:36.020</time></trkpt><trkpt lat="55.8966515" lon="49.1649998"><time>2023-06-03T06:47:38.007</time></trkpt><trkpt lat="55.8966452" lon="49.1648503"><time>2023-06-03T06:47:40.013</time></trkpt><trkpt lat="55.8966345" lon="49.1646992"><time>2023-06-03T06:47:42.017</time></trkpt><trkpt lat="55.8966217" lon="49.1645434"><time>2023-06-03T06:47:44.013</time></trkpt><trkpt lat="55.8966111" lon="49.1643889"><time>2023-06-03T06:47:46.047</time></trkpt><trkpt lat="55.8965993" lon="49.1642334"><time>2023-06-03T06:47:48.013</time></trkpt><trkpt lat="55.8965861" lon="49.1640782"><time>2023-06-03T06:47:50.027</time></trkpt><trkpt lat="55.8965710" lon="49.1639347"><time>2023-06-03T06:47:52</time></trkpt><trkpt lat="55.8965625" lon="49.1638028"><time>2023-06-03T06:47:54.027</time></trkpt><trkpt lat="55.8965483" lon="49.1636615"><time>2023-06-03T06:47:56.063</time></trkpt><trkpt lat="55.8965301" lon="49.1635121"><time>2023-06-03T06:47:58.017</time></trkpt><trkpt lat="55.8965266" lon="49.1633489"><time>2023-06-03T06:48:00.030</time></trkpt><trkpt lat="55.8965127" lon="49.1631931"><time>2023-06-03T06:48:02.013</time></trkpt><trkpt lat="55.8965063" lon="49.1631132"><time>2023-06-03T06:48:03.017</time></trkpt><trkpt lat="55.8964910" lon="49.1629590"><time>2023-06-03T06:48:05.053</time></trkpt><trkpt lat="55.8964818" lon="49.1628796"><time>2023-06-03T06:48:06.033</time></trkpt><trkpt lat="55.8964746" lon="49.1627984"><time>2023-06-03T06:48:06.997</time></trkpt><trkpt lat="55.8964556" lon="49.1626442"><time>2023-06-03T06:48:09</time></trkpt><trkpt lat="55.8964343" lon="49.1625009"><time>2023-06-03T06:48:11.023</time></trkpt><trkpt lat="55.8964110" lon="49.1623626"><time>2023-06-03T06:48:13.017</time></trkpt><trkpt lat="55.8963817" lon="49.1622162"><time>2023-06-03T06:48:15.047</time></trkpt><trkpt lat="55.8963704" lon="49.1621381"><time>2023-06-03T06:48:16.010</time></trkpt><trkpt lat="55.8963489" lon="49.1619847"><time>2023-06-03T06:48:18.027</time></trkpt><trkpt lat="55.8963253" lon="49.1618417"><time>2023-06-03T06:48:20.040</time></trkpt><trkpt lat="55.8963004" lon="49.1617082"><time>2023-06-03T06:48:22.020</time></trkpt><trkpt lat="55.8962695" lon="49.1615775"><time>2023-06-03T06:48:24.053</time></trkpt><trkpt lat="55.8962412" lon="49.1614520"><time>2023-06-03T06:48:26.037</time></trkpt><trkpt lat="55.8962068" lon="49.1613295"><time>2023-06-03T06:48:28.017</time></trkpt><trkpt lat="55.8961758" lon="49.1612185"><time>2023-06-03T06:48:30.033</time></trkpt><trkpt lat="55.8961529" lon="49.1611301"><time>2023-06-03T06:48:32.013</time></trkpt><trkpt lat="55.8961557" lon="49.1610281"><time>2023-06-03T06:49:27.020</time></trkpt><trkpt lat="55.8961351" lon="49.1609152"><time>2023-06-03T06:49:30.053</time></trkpt><trkpt lat="55.8961155" lon="49.1608267"><time>2023-06-03T06:49:32.007</time></trkpt><trkpt lat="55.8960942" lon="49.1607338"><time>2023-06-03T06:49:34.053</time></trkpt><trkpt lat="55.8960688" lon="49.1606341"><time>2023-06-03T06:49:36.020</time></trkpt><trkpt lat="55.8960380" lon="49.1605125"><time>2023-06-03T06:49:38.020</time></trkpt><trkpt lat="55.8960089" lon="49.1603713"><time>2023-06-03T06:49:40.030</time></trkpt><trkpt lat="55.8959902" lon="49.1602295"><time>2023-06-03T06:49:42.020</time></trkpt><trkpt lat="55.8959739" lon="49.1600801"><time>2023-06-03T06:49:44.003</time></trkpt><trkpt lat="55.8959698" lon="49.1599364"><time>2023-06-03T06:49:46.017</time></trkpt><trkpt lat="55.8959830" lon="49.1598089"><time>2023-06-03T06:49:48.023</time></trkpt><trkpt lat="55.8960127" lon="49.1596927"><time>2023-06-03T06:49:50.010</time></trkpt><trkpt lat="55.8960547" lon="49.1595883"><time>2023-06-03T06:49:52.013</time></trkpt><trkpt lat="55.8960888" lon="49.1594799"><time>2023-06-03T06:49:54.017</time></trkpt><trkpt lat="55.8961133" lon="49.1593643"><time>2023-06-03T06:49:56.017</time></trkpt><trkpt lat="55.8961279" lon="49.1592404"><time>2023-06-03T06:49:58.023</time></trkpt><trkpt lat="55.8961362" lon="49.1591271"><time>2023-06-03T06:50:00.013</time></trkpt><trkpt lat="55.8961388" lon="49.1590103"><time>2023-06-03T06:50:02.020</time></trkpt><trkpt lat="55.8961471" lon="49.1588815"><time>2023-06-03T06:50:04.017</time></trkpt><trkpt lat="55.8961544" lon="49.1587445"><time>2023-06-03T06:50:06.023</time></trkpt><trkpt lat="55.8961617" lon="49.1586045"><time>2023-06-03T06:50:08.017</time></trkpt><trkpt lat="55.8961702" lon="49.1584533"><time>2023-06-03T06:50:10</time></trkpt><trkpt lat="55.8961779" lon="49.1583023"><time>2023-06-03T06:50:12.013</time></trkpt><trkpt lat="55.8961839" lon="49.1581626"><time>2023-06-03T06:50:14.013</time></trkpt><trkpt lat="55.8961891" lon="49.1580215"><time>2023-06-03T06:50:16.020</time></trkpt><trkpt lat="55.8961909" lon="49.1578866"><time>2023-06-03T06:50:18.020</time></trkpt><trkpt lat="55.8961907" lon="49.1577608"><time>2023-06-03T06:50:20.017</time></trkpt><trkpt lat="55.8961941" lon="49.1576804"><time>2023-06-03T06:50:22.017</time></trkpt><trkpt lat="55.8962204" lon="49.1576151"><time>2023-06-03T06:50:26.020</time></trkpt><trkpt lat="55.8962667" lon="49.1575573"><time>2023-06-03T06:50:29.023</time></trkpt><trkpt lat="55.8963060" lon="49.1575164"><time>2023-06-03T06:50:32.017</time></trkpt><trkpt lat="55.8963662" lon="49.1574721"><time>2023-06-03T06:51:18.007</time></trkpt><trkpt lat="55.8964140" lon="49.1574413"><time>2023-06-03T06:51:19.993</time></trkpt><trkpt lat="55.8964705" lon="49.1573906"><time>2023-06-03T06:51:21.990</time></trkpt><trkpt lat="55.8965195" lon="49.1573398"><time>2023-06-03T06:51:23.990</time></trkpt><trkpt lat="55.8965616" lon="49.1572871"><time>2023-06-03T06:51:26.003</time></trkpt><trkpt lat="55.8966185" lon="49.1572174"><time>2023-06-03T06:51:29.010</time></trkpt><trkpt lat="55.8966639" lon="49.1571719"><time>2023-06-03T06:51:31</time></trkpt><trkpt lat="55.8967164" lon="49.1571282"><time>2023-06-03T06:51:32.990</time></trkpt><trkpt lat="55.8967779" lon="49.1571089"><time>2023-06-03T06:51:35.010</time></trkpt><trkpt lat="55.8968431" lon="49.1570968"><time>2023-06-03T06:51:36.993</time></trkpt><trkpt lat="55.8969042" lon="49.1570967"><time>2023-06-03T06:51:39.007</time></trkpt><trkpt lat="55.8969722" lon="49.1570879"><time>2023-06-03T06:51:41</time></trkpt><trkpt lat="55.8970412" lon="49.1570747"><time>2023-06-03T06:51:43.007</time></trkpt><trkpt lat="55.8971014" lon="49.1570661"><time>2023-06-03T06:51:45.003</time></trkpt><trkpt lat="55.8971640" lon="49.1570555"><time>2023-06-03T06:51:47.003</time></trkpt><trkpt lat="55.8972258" lon="49.1570398"><time>2023-06-03T06:51:49.010</time></trkpt><trkpt lat="55.8972908" lon="49.1570245"><time>2023-06-03T06:51:52.007</time></trkpt><trkpt lat="55.8973351" lon="49.1570091"><time>2023-06-03T06:51:54.007</time></trkpt><trkpt lat="55.8973851" lon="49.1569949"><time>2023-06-03T06:51:56.003</time></trkpt><trkpt lat="55.8974337" lon="49.1569782"><time>2023-06-03T06:51:57.993</time></trkpt><trkpt lat="55.8974950" lon="49.1569589"><time>2023-06-03T06:52:01.010</time></trkpt><trkpt lat="55.8975576" lon="49.1569440"><time>2023-06-03T06:52:04.007</time></trkpt><trkpt lat="55.8976042" lon="49.1569373"><time>2023-06-03T06:52:06.007</time></trkpt><trkpt lat="55.8976591" lon="49.1569240"><time>2023-06-03T06:52:08.010</time></trkpt><trkpt lat="55.8977079" lon="49.1569142"><time>2023-06-03T06:52:10</time></trkpt><trkpt lat="55.8977578" lon="49.1569020"><time>2023-06-03T06:52:12.007</time></trkpt><trkpt lat="55.8978108" lon="49.1568907"><time>2023-06-03T06:52:14.007</time></trkpt><trkpt lat="55.8978570" lon="49.1568805"><time>2023-06-03T06:52:16.003</time></trkpt><trkpt lat="55.8979111" lon="49.1568695"><time>2023-06-03T06:52:19.010</time></trkpt><trkpt lat="55.8979567" lon="49.1568630"><time>2023-06-03T06:52:48.003</time></trkpt><trkpt lat="55.8980052" lon="49.1568448"><time>2023-06-03T06:52:51.017</time></trkpt><trkpt lat="55.8980538" lon="49.1568293"><time>2023-06-03T06:52:53.007</time></trkpt><trkpt lat="55.8981118" lon="49.1568182"><time>2023-06-03T06:52:55.013</time></trkpt><trkpt lat="55.8981736" lon="49.1568042"><time>2023-06-03T06:52:57.010</time></trkpt><trkpt lat="55.8982342" lon="49.1567901"><time>2023-06-03T06:52:59.023</time></trkpt><trkpt lat="55.8982472" lon="49.1567852"><time>2023-06-03T06:52:59.967</time></trkpt><trkpt lat="55.8983175" lon="49.1567529"><time>2023-06-03T06:53:02.003</time></trkpt><trkpt lat="55.8983665" lon="49.1567290"><time>2023-06-03T06:53:04.010</time></trkpt><trkpt lat="55.8984128" lon="49.1566994"><time>2023-06-03T06:53:06.010</time></trkpt><trkpt lat="55.8984614" lon="49.1566627"><time>2023-06-03T06:53:08.007</time></trkpt><trkpt lat="55.8985077" lon="49.1566202"><time>2023-06-03T06:53:10.010</time></trkpt><trkpt lat="55.8985525" lon="49.1565810"><time>2023-06-03T06:53:12.007</time></trkpt><trkpt lat="55.8986017" lon="49.1565415"><time>2023-06-03T06:53:14.007</time></trkpt><trkpt lat="55.8986477" lon="49.1565118"><time>2023-06-03T06:53:16</time></trkpt><trkpt lat="55.8987010" lon="49.1564751"><time>2023-06-03T06:53:18.007</time></trkpt><trkpt lat="55.8987602" lon="49.1564479"><time>2023-06-03T06:53:20.013</time></trkpt><trkpt lat="55.8988207" lon="49.1564514"><time>2023-06-03T06:53:22.010</time></trkpt><trkpt lat="55.8988841" lon="49.1564544"><time>2023-06-03T06:53:24.047</time></trkpt><trkpt lat="55.8989450" lon="49.1564452"><time>2023-06-03T06:53:26.020</time></trkpt><trkpt lat="55.8989944" lon="49.1564357"><time>2023-06-03T06:53:28.017</time></trkpt><trkpt lat="55.8990501" lon="49.1564226"><time>2023-06-03T06:53:31.013</time></trkpt><trkpt lat="55.8991020" lon="49.1564241"><time>2023-06-03T06:53:34.043</time></trkpt><trkpt lat="55.8991538" lon="49.1564460"><time>2023-06-03T06:53:37.027</time></trkpt><trkpt lat="55.8991613" lon="49.1564458"><time>2023-06-03T06:53:38.143</time></trkpt><trkpt lat="55.8992084" lon="49.1564622"><time>2023-06-03T06:53:39.993</time></trkpt><trkpt lat="55.8992676" lon="49.1564931"><time>2023-06-03T06:53:43.010</time></trkpt><trkpt lat="55.8993302" lon="49.1565244"><time>2023-06-03T06:53:46.027</time></trkpt><trkpt lat="55.8993799" lon="49.1565468"><time>2023-06-03T06:53:48.007</time></trkpt><trkpt lat="55.8994318" lon="49.1565786"><time>2023-06-03T06:53:50.017</time></trkpt><trkpt lat="55.8994926" lon="49.1566162"><time>2023-06-03T06:53:52.017</time></trkpt><trkpt lat="55.8995587" lon="49.1566635"><time>2023-06-03T06:53:54.047</time></trkpt><trkpt lat="55.8995747" lon="49.1566748"><time>2023-06-03T06:53:55.053</time></trkpt><trkpt lat="55.8996295" lon="49.1567212"><time>2023-06-03T06:53:56.033</time></trkpt><trkpt lat="55.8997034" lon="49.1567870"><time>2023-06-03T06:53:58.010</time></trkpt><trkpt lat="55.8997708" lon="49.1568444"><time>2023-06-03T06:54:00.013</time></trkpt><trkpt lat="55.8998334" lon="49.1568971"><time>2023-06-03T06:54:02.010</time></trkpt><trkpt lat="55.8998759" lon="49.1569262"><time>2023-06-03T06:54:04.027</time></trkpt><trkpt lat="55.8998759" lon="49.1569262"><time>2023-06-03T06:54:04.123</time></trkpt><trkpt lat="55.8999156" lon="49.1568855"><time>2023-06-03T06:54:07.033</time></trkpt><trkpt lat="55.8999278" lon="49.1568740"><time>2023-06-03T06:54:08.147</time></trkpt><trkpt lat="55.8999691" lon="49.1567972"><time>2023-06-03T06:54:12.987</time></trkpt><trkpt lat="55.9000165" lon="49.1567560"><time>2023-06-03T06:54:16.997</time></trkpt><trkpt lat="55.8999943" lon="49.1566794"><time>2023-06-03T06:54:25.990</time></trkpt><trkpt lat="55.8999687" lon="49.1567650"><time>2023-06-03T06:55:09.990</time></trkpt><trkpt lat="55.8999357" lon="49.1568247"><time>2023-06-03T06:55:13.990</time></trkpt><trkpt lat="55.8998861" lon="49.1568734"><time>2023-06-03T06:57:06.030</time></trkpt><trkpt lat="55.8998373" lon="49.1568661"><time>2023-06-03T06:57:08.013</time></trkpt><trkpt lat="55.8997884" lon="49.1568243"><time>2023-06-03T06:57:10.023</time></trkpt><trkpt lat="55.8997392" lon="49.1567782"><time>2023-06-03T06:57:12.013</time></trkpt><trkpt lat="55.8996809" lon="49.1567260"><time>2023-06-03T06:57:14.033</time></trkpt><trkpt lat="55.8996237" lon="49.1566759"><time>2023-06-03T06:57:16.010</time></trkpt><trkpt lat="55.8995628" lon="49.1566316"><time>2023-06-03T06:57:18.030</time></trkpt><trkpt lat="55.8994979" lon="49.1565946"><time>2023-06-03T06:57:20.057</time></trkpt><trkpt lat="55.8994346" lon="49.1565557"><time>2023-06-03T06:57:22.017</time></trkpt><trkpt lat="55.8993695" lon="49.1565181"><time>2023-06-03T06:57:24.040</time></trkpt><trkpt lat="55.8992966" lon="49.1564833"><time>2023-06-03T06:57:26.047</time></trkpt><trkpt lat="55.8992266" lon="49.1564571"><time>2023-06-03T06:57:28.017</time></trkpt><trkpt lat="55.8991630" lon="49.1564197"><time>2023-06-03T06:57:30.030</time></trkpt><trkpt lat="55.8990935" lon="49.1563958"><time>2023-06-03T06:57:32.007</time></trkpt><trkpt lat="55.8990208" lon="49.1564124"><time>2023-06-03T06:57:34.050</time></trkpt><trkpt lat="55.8989471" lon="49.1564301"><time>2023-06-03T06:57:36.043</time></trkpt><trkpt lat="55.8988792" lon="49.1564364"><time>2023-06-03T06:57:38.013</time></trkpt><trkpt lat="55.8988082" lon="49.1564322"><time>2023-06-03T06:57:40.030</time></trkpt><trkpt lat="55.8987382" lon="49.1564434"><time>2023-06-03T06:57:42.017</time></trkpt><trkpt lat="55.8986731" lon="49.1564888"><time>2023-06-03T06:57:44.030</time></trkpt><trkpt lat="55.8986062" lon="49.1565409"><time>2023-06-03T06:57:46.023</time></trkpt><trkpt lat="55.8985378" lon="49.1565988"><time>2023-06-03T06:57:48.017</time></trkpt><trkpt lat="55.8984672" lon="49.1566644"><time>2023-06-03T06:57:50.057</time></trkpt><trkpt lat="55.8983982" lon="49.1567164"><time>2023-06-03T06:57:52.003</time></trkpt><trkpt lat="55.8983305" lon="49.1567509"><time>2023-06-03T06:57:54.067</time></trkpt><trkpt lat="55.8982616" lon="49.1567755"><time>2023-06-03T06:57:56.033</time></trkpt><trkpt lat="55.8981940" lon="49.1567950"><time>2023-06-03T06:57:58.013</time></trkpt><trkpt lat="55.8981241" lon="49.1568074"><time>2023-06-03T06:58:00.037</time></trkpt><trkpt lat="55.8980518" lon="49.1568226"><time>2023-06-03T06:58:02.010</time></trkpt><trkpt lat="55.8979779" lon="49.1568363"><time>2023-06-03T06:58:04.047</time></trkpt><trkpt lat="55.8979037" lon="49.1568491"><time>2023-06-03T06:58:06.047</time></trkpt><trkpt lat="55.8978296" lon="49.1568566"><time>2023-06-03T06:58:07.990</time></trkpt><trkpt lat="55.8977595" lon="49.1568684"><time>2023-06-03T06:58:09.997</time></trkpt><trkpt lat="55.8976896" lon="49.1568794"><time>2023-06-03T06:58:12.050</time></trkpt><trkpt lat="55.8976167" lon="49.1569017"><time>2023-06-03T06:58:14.037</time></trkpt><trkpt lat="55.8975475" lon="49.1569240"><time>2023-06-03T06:58:16.063</time></trkpt><trkpt lat="55.8974764" lon="49.1569467"><time>2023-06-03T06:58:18.013</time></trkpt><trkpt lat="55.8974040" lon="49.1569734"><time>2023-06-03T06:58:19.983</time></trkpt><trkpt lat="55.8973333" lon="49.1570096"><time>2023-06-03T06:58:21.993</time></trkpt><trkpt lat="55.8972625" lon="49.1570385"><time>2023-06-03T06:58:23.993</time></trkpt><trkpt lat="55.8971881" lon="49.1570623"><time>2023-06-03T06:58:26.057</time></trkpt><trkpt lat="55.8971154" lon="49.1570752"><time>2023-06-03T06:58:28.020</time></trkpt><trkpt lat="55.8970416" lon="49.1570836"><time>2023-06-03T06:58:30.047</time></trkpt><trkpt lat="55.8969665" lon="49.1570908"><time>2023-06-03T06:58:32.017</time></trkpt><trkpt lat="55.8968944" lon="49.1571018"><time>2023-06-03T06:58:34.037</time></trkpt><trkpt lat="55.8968230" lon="49.1571187"><time>2023-06-03T06:58:36.020</time></trkpt><trkpt lat="55.8967577" lon="49.1571512"><time>2023-06-03T06:58:37.997</time></trkpt><trkpt lat="55.8966890" lon="49.1571738"><time>2023-06-03T06:58:40</time></trkpt><trkpt lat="55.8966238" lon="49.1572208"><time>2023-06-03T06:58:42.010</time></trkpt><trkpt lat="55.8965648" lon="49.1572843"><time>2023-06-03T06:58:44.020</time></trkpt><trkpt lat="55.8965084" lon="49.1573602"><time>2023-06-03T06:58:46.017</time></trkpt><trkpt lat="55.8964416" lon="49.1574187"><time>2023-06-03T06:58:48.010</time></trkpt><trkpt lat="55.8963818" lon="49.1574634"><time>2023-06-03T06:58:50.063</time></trkpt><trkpt lat="55.8963197" lon="49.1575001"><time>2023-06-03T06:58:52.017</time></trkpt><trkpt lat="55.8962643" lon="49.1575576"><time>2023-06-03T06:58:54.030</time></trkpt><trkpt lat="55.8962302" lon="49.1576235"><time>2023-06-03T06:58:56.037</time></trkpt><trkpt lat="55.8962011" lon="49.1576898"><time>2023-06-03T06:59:25.013</time></trkpt><trkpt lat="55.8961916" lon="49.1577780"><time>2023-06-03T06:59:27.007</time></trkpt><trkpt lat="55.8961915" lon="49.1578945"><time>2023-06-03T06:59:29.007</time></trkpt><trkpt lat="55.8961912" lon="49.1580318"><time>2023-06-03T06:59:31.003</time></trkpt><trkpt lat="55.8961883" lon="49.1581438"><time>2023-06-03T06:59:33.010</time></trkpt><trkpt lat="55.8961830" lon="49.1582568"><time>2023-06-03T06:59:35.010</time></trkpt><trkpt lat="55.8961769" lon="49.1583620"><time>2023-06-03T06:59:37.007</time></trkpt><trkpt lat="55.8961685" lon="49.1584779"><time>2023-06-03T06:59:39.007</time></trkpt><trkpt lat="55.8961586" lon="49.1586004"><time>2023-06-03T06:59:41</time></trkpt><trkpt lat="55.8961526" lon="49.1587275"><time>2023-06-03T06:59:43.010</time></trkpt><trkpt lat="55.8961428" lon="49.1588479"><time>2023-06-03T06:59:45.007</time></trkpt><trkpt lat="55.8961362" lon="49.1589693"><time>2023-06-03T06:59:47.007</time></trkpt><trkpt lat="55.8961330" lon="49.1590934"><time>2023-06-03T06:59:49.003</time></trkpt><trkpt lat="55.8961239" lon="49.1592063"><time>2023-06-03T06:59:51.003</time></trkpt><trkpt lat="55.8961119" lon="49.1593199"><time>2023-06-03T06:59:53.010</time></trkpt><trkpt lat="55.8960977" lon="49.1594204"><time>2023-06-03T06:59:55.007</time></trkpt><trkpt lat="55.8960715" lon="49.1595118"><time>2023-06-03T06:59:57.010</time></trkpt><trkpt lat="55.8960404" lon="49.1596039"><time>2023-06-03T06:59:59.007</time></trkpt><trkpt lat="55.8960035" lon="49.1596893"><time>2023-06-03T07:00:01.007</time></trkpt><trkpt lat="55.8959769" lon="49.1597832"><time>2023-06-03T07:00:03.003</time></trkpt><trkpt lat="55.8959533" lon="49.1598651"><time>2023-06-03T07:00:05.003</time></trkpt><trkpt lat="55.8959201" lon="49.1599361"><time>2023-06-03T07:00:07.013</time></trkpt><trkpt lat="55.8958803" lon="49.1600152"><time>2023-06-03T07:00:09.017</time></trkpt><trkpt lat="55.8958374" lon="49.1600903"><time>2023-06-03T07:00:11.017</time></trkpt><trkpt lat="55.8957985" lon="49.1601659"><time>2023-06-03T07:00:13.007</time></trkpt><trkpt lat="55.8957560" lon="49.1602367"><time>2023-06-03T07:00:15.007</time></trkpt><trkpt lat="55.8957103" lon="49.1603058"><time>2023-06-03T07:00:17.007</time></trkpt><trkpt lat="55.8956730" lon="49.1603668"><time>2023-06-03T07:00:19.007</time></trkpt><trkpt lat="55.8956378" lon="49.1604545"><time>2023-06-03T07:00:22.010</time></trkpt><trkpt lat="55.8956114" lon="49.1605312"><time>2023-06-03T07:00:25.010</time></trkpt><trkpt lat="55.8955746" lon="49.1606089"><time>2023-06-03T07:00:32.007</time></trkpt><trkpt lat="55.8955416" lon="49.1606744"><time>2023-06-03T07:00:34.007</time></trkpt><trkpt lat="55.8955099" lon="49.1607466"><time>2023-06-03T07:00:36.007</time></trkpt><trkpt lat="55.8954755" lon="49.1608395"><time>2023-06-03T07:00:38.007</time></trkpt><trkpt lat="55.8954274" lon="49.1609255"><time>2023-06-03T07:00:40.010</time></trkpt><trkpt lat="55.8953757" lon="49.1610150"><time>2023-06-03T07:00:42.007</time></trkpt><trkpt lat="55.8953247" lon="49.1611078"><time>2023-06-03T07:00:44.007</time></trkpt><trkpt lat="55.8952802" lon="49.1612041"><time>2023-06-03T07:00:45.993</time></trkpt><trkpt lat="55.8952346" lon="49.1612977"><time>2023-06-03T07:00:48.010</time></trkpt><trkpt lat="55.8951854" lon="49.1613920"><time>2023-06-03T07:00:50.010</time></trkpt><trkpt lat="55.8951354" lon="49.1614875"><time>2023-06-03T07:00:52.007</time></trkpt><trkpt lat="55.8950891" lon="49.1615858"><time>2023-06-03T07:00:54.007</time></trkpt><trkpt lat="55.8950417" lon="49.1616845"><time>2023-06-03T07:00:56</time></trkpt><trkpt lat="55.8949911" lon="49.1617878"><time>2023-06-03T07:00:58</time></trkpt><trkpt lat="55.8949356" lon="49.1618917"><time>2023-06-03T07:01:00.010</time></trkpt><trkpt lat="55.8948817" lon="49.1619962"><time>2023-06-03T07:01:02.007</time></trkpt><trkpt lat="55.8948384" lon="49.1621112"><time>2023-06-03T07:01:04.007</time></trkpt><trkpt lat="55.8948113" lon="49.1622381"><time>2023-06-03T07:01:06.007</time></trkpt><trkpt lat="55.8947848" lon="49.1623635"><time>2023-06-03T07:01:08.017</time></trkpt><trkpt lat="55.8947408" lon="49.1624601"><time>2023-06-03T07:01:10.010</time></trkpt><trkpt lat="55.8946815" lon="49.1625238"><time>2023-06-03T07:01:12.010</time></trkpt><trkpt lat="55.8946085" lon="49.1625656"><time>2023-06-03T07:01:14.013</time></trkpt><trkpt lat="55.8945384" lon="49.1626182"><time>2023-06-03T07:01:16.007</time></trkpt><trkpt lat="55.8944773" lon="49.1626827"><time>2023-06-03T07:01:18.030</time></trkpt><trkpt lat="55.8944242" lon="49.1627703"><time>2023-06-03T07:01:20.017</time></trkpt><trkpt lat="55.8943672" lon="49.1628447"><time>2023-06-03T07:01:22.017</time></trkpt><trkpt lat="55.8943062" lon="49.1629132"><time>2023-06-03T07:01:24.027</time></trkpt><trkpt lat="55.8942489" lon="49.1630012"><time>2023-06-03T07:01:26.017</time></trkpt><trkpt lat="55.8942063" lon="49.1631153"><time>2023-06-03T07:01:28.010</time></trkpt><trkpt lat="55.8941716" lon="49.1632606"><time>2023-06-03T07:01:30.027</time></trkpt><trkpt lat="55.8941368" lon="49.1634080"><time>2023-06-03T07:01:32.017</time></trkpt><trkpt lat="55.8941224" lon="49.1634881"><time>2023-06-03T07:01:33.020</time></trkpt><trkpt lat="55.8941038" lon="49.1635680"><time>2023-06-03T07:01:34.023</time></trkpt><trkpt lat="55.8940893" lon="49.1636479"><time>2023-06-03T07:01:35.027</time></trkpt><trkpt lat="55.8940754" lon="49.1637296"><time>2023-06-03T07:01:36.063</time></trkpt><trkpt lat="55.8940600" lon="49.1638116"><time>2023-06-03T07:01:37.020</time></trkpt><trkpt lat="55.8940425" lon="49.1638888"><time>2023-06-03T07:01:38.013</time></trkpt><trkpt lat="55.8940232" lon="49.1639664"><time>2023-06-03T07:01:39.033</time></trkpt><trkpt lat="55.8940034" lon="49.1640388"><time>2023-06-03T07:01:40.040</time></trkpt><trkpt lat="55.8939565" lon="49.1641582"><time>2023-06-03T07:01:42.010</time></trkpt><trkpt lat="55.8939132" lon="49.1642727"><time>2023-06-03T07:01:44.040</time></trkpt><trkpt lat="55.8938849" lon="49.1643912"><time>2023-06-03T07:01:46.043</time></trkpt><trkpt lat="55.8938597" lon="49.1645190"><time>2023-06-03T07:01:48.017</time></trkpt><trkpt lat="55.8938441" lon="49.1646546"><time>2023-06-03T07:01:50.023</time></trkpt><trkpt lat="55.8938295" lon="49.1647891"><time>2023-06-03T07:01:52.017</time></trkpt><trkpt lat="55.8938184" lon="49.1649265"><time>2023-06-03T07:01:54.017</time></trkpt><trkpt lat="55.8938088" lon="49.1650649"><time>2023-06-03T07:01:56.067</time></trkpt><trkpt lat="55.8937994" lon="49.1652098"><time>2023-06-03T07:01:58.013</time></trkpt><trkpt lat="55.8937918" lon="49.1653595"><time>2023-06-03T07:02:00.030</time></trkpt><trkpt lat="55.8937805" lon="49.1655112"><time>2023-06-03T07:02:02.017</time></trkpt><trkpt lat="55.8937693" lon="49.1656631"><time>2023-06-03T07:02:04.060</time></trkpt><trkpt lat="55.8937550" lon="49.1658103"><time>2023-06-03T07:02:06.030</time></trkpt><trkpt lat="55.8937391" lon="49.1659507"><time>2023-06-03T07:02:08.010</time></trkpt><trkpt lat="55.8937246" lon="49.1660952"><time>2023-06-03T07:02:10</time></trkpt><trkpt lat="55.8937051" lon="49.1662349"><time>2023-06-03T07:02:11.997</time></trkpt><trkpt lat="55.8936776" lon="49.1663634"><time>2023-06-03T07:02:14.013</time></trkpt><trkpt lat="55.8936424" lon="49.1664963"><time>2023-06-03T07:02:16.057</time></trkpt><trkpt lat="55.8936024" lon="49.1666248"><time>2023-06-03T07:02:18.007</time></trkpt><trkpt lat="55.8935534" lon="49.1667527"><time>2023-06-03T07:02:20.020</time></trkpt><trkpt lat="55.8935251" lon="49.1668182"><time>2023-06-03T07:02:21.010</time></trkpt><trkpt lat="55.8934946" lon="49.1668802"><time>2023-06-03T07:02:22.013</time></trkpt><trkpt lat="55.8934650" lon="49.1669407"><time>2023-06-03T07:02:23.017</time></trkpt><trkpt lat="55.8934347" lon="49.1670008"><time>2023-06-03T07:02:24.047</time></trkpt><trkpt lat="55.8934036" lon="49.1670615"><time>2023-06-03T07:02:25.023</time></trkpt><trkpt lat="55.8933687" lon="49.1671211"><time>2023-06-03T07:02:26.027</time></trkpt><trkpt lat="55.8933360" lon="49.1671788"><time>2023-06-03T07:02:27.013</time></trkpt><trkpt lat="55.8932719" lon="49.1672848"><time>2023-06-03T07:02:29.067</time></trkpt><trkpt lat="55.8932143" lon="49.1673896"><time>2023-06-03T07:02:31.050</time></trkpt><trkpt lat="55.8931543" lon="49.1674773"><time>2023-06-03T07:02:33.023</time></trkpt><trkpt lat="55.8930940" lon="49.1675560"><time>2023-06-03T07:02:35.023</time></trkpt><trkpt lat="55.8930309" lon="49.1676354"><time>2023-06-03T07:02:37.010</time></trkpt><trkpt lat="55.8929596" lon="49.1677151"><time>2023-06-03T07:02:39.017</time></trkpt><trkpt lat="55.8928811" lon="49.1677817"><time>2023-06-03T07:02:41.003</time></trkpt><trkpt lat="55.8928392" lon="49.1678105"><time>2023-06-03T07:02:42.007</time></trkpt><trkpt lat="55.8927954" lon="49.1678408"><time>2023-06-03T07:02:43.027</time></trkpt><trkpt lat="55.8927508" lon="49.1678747"><time>2023-06-03T07:02:44.027</time></trkpt><trkpt lat="55.8927059" lon="49.1679118"><time>2023-06-03T07:02:45.047</time></trkpt><trkpt lat="55.8926607" lon="49.1679477"><time>2023-06-03T07:02:46.023</time></trkpt><trkpt lat="55.8926160" lon="49.1679791"><time>2023-06-03T07:02:47.017</time></trkpt><trkpt lat="55.8925407" lon="49.1680367"><time>2023-06-03T07:02:49.030</time></trkpt><trkpt lat="55.8924729" lon="49.1680776"><time>2023-06-03T07:02:51.027</time></trkpt><trkpt lat="55.8923924" lon="49.1681089"><time>2023-06-03T07:02:53.013</time></trkpt><trkpt lat="55.8923068" lon="49.1681283"><time>2023-06-03T07:02:55.033</time></trkpt><trkpt lat="55.8922612" lon="49.1681417"><time>2023-06-03T07:02:56.033</time></trkpt><trkpt lat="55.8921903" lon="49.1681783"><time>2023-06-03T07:02:58.013</time></trkpt><trkpt lat="55.8921391" lon="49.1681937"><time>2023-06-03T07:03:00.033</time></trkpt><trkpt lat="55.8920750" lon="49.1681951"><time>2023-06-03T07:03:55.030</time></trkpt><trkpt lat="55.8920114" lon="49.1681745"><time>2023-06-03T07:03:57.010</time></trkpt><trkpt lat="55.8919358" lon="49.1681514"><time>2023-06-03T07:03:59.050</time></trkpt><trkpt lat="55.8918550" lon="49.1681387"><time>2023-06-03T07:04:01.040</time></trkpt><trkpt lat="55.8917742" lon="49.1681281"><time>2023-06-03T07:04:03.010</time></trkpt><trkpt lat="55.8916931" lon="49.1681122"><time>2023-06-03T07:04:05.027</time></trkpt><trkpt lat="55.8916121" lon="49.1680970"><time>2023-06-03T07:04:07.013</time></trkpt><trkpt lat="55.8915326" lon="49.1680812"><time>2023-06-03T07:04:09.007</time></trkpt><trkpt lat="55.8914531" lon="49.1680620"><time>2023-06-03T07:04:11.010</time></trkpt><trkpt lat="55.8913704" lon="49.1680388"><time>2023-06-03T07:04:13.033</time></trkpt><trkpt lat="55.8912873" lon="49.1680167"><time>2023-06-03T07:04:15.030</time></trkpt><trkpt lat="55.8912032" lon="49.1679989"><time>2023-06-03T07:04:17.013</time></trkpt><trkpt lat="55.8911566" lon="49.1679831"><time>2023-06-03T07:04:18.007</time></trkpt><trkpt lat="55.8910650" lon="49.1679322"><time>2023-06-03T07:04:20.057</time></trkpt><trkpt lat="55.8910205" lon="49.1678967"><time>2023-06-03T07:04:21.027</time></trkpt><trkpt lat="55.8909739" lon="49.1678597"><time>2023-06-03T07:04:22.007</time></trkpt><trkpt lat="55.8909312" lon="49.1678287"><time>2023-06-03T07:04:23.007</time></trkpt><trkpt lat="55.8908532" lon="49.1677532"><time>2023-06-03T07:04:25.023</time></trkpt><trkpt lat="55.8907812" lon="49.1676790"><time>2023-06-03T07:04:27.010</time></trkpt><trkpt lat="55.8907062" lon="49.1675968"><time>2023-06-03T07:04:29.027</time></trkpt><trkpt lat="55.8906435" lon="49.1675086"><time>2023-06-03T07:04:31.037</time></trkpt><trkpt lat="55.8905958" lon="49.1674208"><time>2023-06-03T07:04:33.017</time></trkpt><trkpt lat="55.8905598" lon="49.1673421"><time>2023-06-03T07:04:35.047</time></trkpt><trkpt lat="55.8905264" lon="49.1672476"><time>2023-06-03T07:04:37.020</time></trkpt><trkpt lat="55.8904984" lon="49.1671330"><time>2023-06-03T07:04:39.020</time></trkpt><trkpt lat="55.8904769" lon="49.1670128"><time>2023-06-03T07:04:41.027</time></trkpt><trkpt lat="55.8904522" lon="49.1668881"><time>2023-06-03T07:04:43.010</time></trkpt><trkpt lat="55.8904273" lon="49.1667662"><time>2023-06-03T07:04:45.073</time></trkpt><trkpt lat="55.8904073" lon="49.1666311"><time>2023-06-03T07:04:47.007</time></trkpt><trkpt lat="55.8903894" lon="49.1664885"><time>2023-06-03T07:04:49.067</time></trkpt><trkpt lat="55.8903671" lon="49.1663430"><time>2023-06-03T07:04:51.060</time></trkpt><trkpt lat="55.8903466" lon="49.1661886"><time>2023-06-03T07:04:53.010</time></trkpt><trkpt lat="55.8903241" lon="49.1660473"><time>2023-06-03T07:04:55.037</time></trkpt><trkpt lat="55.8902959" lon="49.1659164"><time>2023-06-03T07:04:56.997</time></trkpt><trkpt lat="55.8902689" lon="49.1657963"><time>2023-06-03T07:04:59.017</time></trkpt><trkpt lat="55.8902439" lon="49.1656846"><time>2023-06-03T07:05:01.007</time></trkpt><trkpt lat="55.8902178" lon="49.1655625"><time>2023-06-03T07:05:03.020</time></trkpt><trkpt lat="55.8901964" lon="49.1654412"><time>2023-06-03T07:05:05.033</time></trkpt><trkpt lat="55.8901788" lon="49.1653271"><time>2023-06-03T07:05:07.013</time></trkpt><trkpt lat="55.8901700" lon="49.1652097"><time>2023-06-03T07:05:09.050</time></trkpt><trkpt lat="55.8901517" lon="49.1650902"><time>2023-06-03T07:05:11.027</time></trkpt><trkpt lat="55.8901258" lon="49.1649725"><time>2023-06-03T07:05:12.997</time></trkpt><trkpt lat="55.8901095" lon="49.1648518"><time>2023-06-03T07:05:15.073</time></trkpt><trkpt lat="55.8900870" lon="49.1647294"><time>2023-06-03T07:05:17.013</time></trkpt><trkpt lat="55.8900632" lon="49.1646174"><time>2023-06-03T07:05:19.033</time></trkpt><trkpt lat="55.8900329" lon="49.1645132"><time>2023-06-03T07:05:21.020</time></trkpt><trkpt lat="55.8899989" lon="49.1644195"><time>2023-06-03T07:05:23.013</time></trkpt><trkpt lat="55.8899679" lon="49.1643391"><time>2023-06-03T07:05:25.077</time></trkpt><trkpt lat="55.8899326" lon="49.1642510"><time>2023-06-03T07:06:05.037</time></trkpt><trkpt lat="55.8898992" lon="49.1641433"><time>2023-06-03T07:06:08.017</time></trkpt><trkpt lat="55.8898740" lon="49.1640634"><time>2023-06-03T07:06:10</time></trkpt><trkpt lat="55.8898498" lon="49.1639872"><time>2023-06-03T07:06:12.020</time></trkpt><trkpt lat="55.8898214" lon="49.1639034"><time>2023-06-03T07:06:15</time></trkpt><trkpt lat="55.8898080" lon="49.1638233"><time>2023-06-03T07:06:18.007</time></trkpt><trkpt lat="55.8897983" lon="49.1637415"><time>2023-06-03T07:06:21.037</time></trkpt><trkpt lat="55.8897787" lon="49.1636561"><time>2023-06-03T07:06:25.060</time></trkpt><trkpt lat="55.8897537" lon="49.1635654"><time>2023-06-03T07:06:29.030</time></trkpt><trkpt lat="55.8897190" lon="49.1634810"><time>2023-06-03T07:06:33.030</time></trkpt><trkpt lat="55.8896930" lon="49.1634119"><time>2023-06-03T07:06:36.023</time></trkpt><trkpt lat="55.8896600" lon="49.1633330"><time>2023-06-03T07:06:40.043</time></trkpt><trkpt lat="55.8896189" lon="49.1632806"><time>2023-06-03T07:06:44.033</time></trkpt><trkpt lat="55.8895710" lon="49.1632650"><time>2023-06-03T07:06:49.007</time></trkpt><trkpt lat="55.8895267" lon="49.1632311"><time>2023-06-03T07:07:08.057</time></trkpt><trkpt lat="55.8894669" lon="49.1631806"><time>2023-06-03T07:07:13.007</time></trkpt><trkpt lat="55.8894280" lon="49.1632296"><time>2023-06-03T07:07:18.987</time></trkpt><trkpt lat="55.8893891" lon="49.1632765"><time>2023-06-03T07:07:23.993</time></trkpt><trkpt lat="55.8893377" lon="49.1633040"><time>2023-06-03T07:07:29.990</time></trkpt><trkpt lat="55.8893894" lon="49.1632907"><time>2023-06-03T07:08:02.987</time></trkpt><trkpt lat="55.8894376" lon="49.1633222"><time>2023-06-03T07:08:08.997</time></trkpt><trkpt lat="55.8894866" lon="49.1633273"><time>2023-06-03T07:08:13.990</time></trkpt><trkpt lat="55.8895327" lon="49.1633447"><time>2023-06-03T07:08:20.290</time></trkpt><trkpt lat="55.8895897" lon="49.1633273"><time>2023-06-03T07:08:25.013</time></trkpt><trkpt lat="55.8896387" lon="49.1633626"><time>2023-06-03T07:08:28.020</time></trkpt><trkpt lat="55.8896776" lon="49.1634044"><time>2023-06-03T07:08:32.027</time></trkpt><trkpt lat="55.8897052" lon="49.1634932"><time>2023-06-03T07:08:37.017</time></trkpt><trkpt lat="55.8897440" lon="49.1635693"><time>2023-06-03T07:08:41.017</time></trkpt><trkpt lat="55.8897647" lon="49.1636561"><time>2023-06-03T07:08:45.057</time></trkpt><trkpt lat="55.8897842" lon="49.1637467"><time>2023-06-03T07:08:49.027</time></trkpt><trkpt lat="55.8897896" lon="49.1638268"><time>2023-06-03T07:08:52.020</time></trkpt><trkpt lat="55.8897596" lon="49.1639083"><time>2023-06-03T07:08:55.037</time></trkpt><trkpt lat="55.8897209" lon="49.1639615"><time>2023-06-03T07:08:57.027</time></trkpt><trkpt lat="55.8896813" lon="49.1640284"><time>2023-06-03T07:09:00.050</time></trkpt><trkpt lat="55.8896344" lon="49.1640298"><time>2023-06-03T07:09:03.017</time></trkpt><trkpt lat="55.8895900" lon="49.1639899"><time>2023-06-03T07:09:05.017</time></trkpt><trkpt lat="55.8895411" lon="49.1639514"><time>2023-06-03T07:09:07.010</time></trkpt><trkpt lat="55.8894869" lon="49.1639198"><time>2023-06-03T07:09:09.023</time></trkpt><trkpt lat="55.8894366" lon="49.1638904"><time>2023-06-03T07:09:12.017</time></trkpt><trkpt lat="55.8893834" lon="49.1638780"><time>2023-06-03T07:09:15.037</time></trkpt><trkpt lat="55.8893269" lon="49.1638544"><time>2023-06-03T07:09:18.003</time></trkpt><trkpt lat="55.8892836" lon="49.1638167"><time>2023-06-03T07:09:20.013</time></trkpt><trkpt lat="55.8892436" lon="49.1637678"><time>2023-06-03T07:09:22.017</time></trkpt><trkpt lat="55.8892044" lon="49.1637284"><time>2023-06-03T07:09:24.030</time></trkpt><trkpt lat="55.8891548" lon="49.1636868"><time>2023-06-03T07:09:31.013</time></trkpt><trkpt lat="55.8891173" lon="49.1636331"><time>2023-06-03T07:09:36.040</time></trkpt><trkpt lat="55.8890664" lon="49.1635864"><time>2023-06-03T07:09:41.020</time></trkpt><trkpt lat="55.8890236" lon="49.1635566"><time>2023-06-03T07:09:43.020</time></trkpt><trkpt lat="55.8889724" lon="49.1635429"><time>2023-06-03T07:09:45.030</time></trkpt><trkpt lat="55.8889200" lon="49.1635458"><time>2023-06-03T07:09:48.007</time></trkpt><trkpt lat="55.8888633" lon="49.1635381"><time>2023-06-03T07:09:51.047</time></trkpt><trkpt lat="55.8888132" lon="49.1635487"><time>2023-06-03T07:09:53.020</time></trkpt><trkpt lat="55.8887646" lon="49.1635665"><time>2023-06-03T07:09:55.043</time></trkpt><trkpt lat="55.8887545" lon="49.1635588"><time>2023-06-03T07:09:56.170</time></trkpt><trkpt lat="55.8887025" lon="49.1635676"><time>2023-06-03T07:09:58.010</time></trkpt><trkpt lat="55.8886332" lon="49.1635780"><time>2023-06-03T07:10:01.063</time></trkpt><trkpt lat="55.8885767" lon="49.1635820"><time>2023-06-03T07:10:03</time></trkpt><trkpt lat="55.8885186" lon="49.1635878"><time>2023-06-03T07:10:05.017</time></trkpt><trkpt lat="55.8884544" lon="49.1636012"><time>2023-06-03T07:10:07.017</time></trkpt><trkpt lat="55.8883986" lon="49.1636183"><time>2023-06-03T07:10:09.007</time></trkpt><trkpt lat="55.8883452" lon="49.1636394"><time>2023-06-03T07:10:10.997</time></trkpt><trkpt lat="55.8882851" lon="49.1636686"><time>2023-06-03T07:10:13.050</time></trkpt><trkpt lat="55.8882260" lon="49.1637209"><time>2023-06-03T07:10:15.027</time></trkpt><trkpt lat="55.8881644" lon="49.1637828"><time>2023-06-03T07:10:17.003</time></trkpt><trkpt lat="55.8881005" lon="49.1638504"><time>2023-06-03T07:10:19.027</time></trkpt><trkpt lat="55.8880361" lon="49.1639146"><time>2023-06-03T07:10:21.040</time></trkpt><trkpt lat="55.8879689" lon="49.1639809"><time>2023-06-03T07:10:23.013</time></trkpt><trkpt lat="55.8879024" lon="49.1640433"><time>2023-06-03T07:10:25.057</time></trkpt><trkpt lat="55.8878790" lon="49.1640644"><time>2023-06-03T07:10:26.160</time></trkpt><trkpt lat="55.8878338" lon="49.1641076"><time>2023-06-03T07:10:27.010</time></trkpt><trkpt lat="55.8877699" lon="49.1641701"><time>2023-06-03T07:10:29.013</time></trkpt><trkpt lat="55.8877047" lon="49.1642425"><time>2023-06-03T07:10:31.040</time></trkpt><trkpt lat="55.8876405" lon="49.1643171"><time>2023-06-03T07:10:33.013</time></trkpt><trkpt lat="55.8875862" lon="49.1643942"><time>2023-06-03T07:10:35.007</time></trkpt><trkpt lat="55.8875466" lon="49.1644730"><time>2023-06-03T07:10:37.037</time></trkpt><trkpt lat="55.8875370" lon="49.1645051"><time>2023-06-03T07:10:38.170</time></trkpt><trkpt lat="55.8875043" lon="49.1645822"><time>2023-06-03T07:10:40.057</time></trkpt><trkpt lat="55.8874622" lon="49.1646806"><time>2023-06-03T07:10:43.013</time></trkpt><trkpt lat="55.8874334" lon="49.1647455"><time>2023-06-03T07:10:45.023</time></trkpt><trkpt lat="55.8873852" lon="49.1648079"><time>2023-06-03T07:10:48.013</time></trkpt><trkpt lat="55.8873435" lon="49.1648460"><time>2023-06-03T07:10:53.003</time></trkpt><trkpt lat="55.8872971" lon="49.1648402"><time>2023-06-03T07:10:57.037</time></trkpt><trkpt lat="55.8872971" lon="49.1648402"><time>2023-06-03T07:10:57.120</time></trkpt><trkpt lat="55.8872690" lon="49.1647714"><time>2023-06-03T07:11:23.007</time></trkpt><trkpt lat="55.8872667" lon="49.1647690"><time>2023-06-03T07:11:24.117</time></trkpt><trkpt lat="55.8872859" lon="49.1646967"><time>2023-06-03T07:11:33.990</time></trkpt><trkpt lat="55.8872596" lon="49.1647695"><time>2023-06-03T07:11:47.997</time></trkpt><trkpt lat="55.8872368" lon="49.1648569"><time>2023-06-03T07:11:51.997</time></trkpt><trkpt lat="55.8871865" lon="49.1649132"><time>2023-06-03T07:11:54.997</time></trkpt><trkpt lat="55.8871423" lon="49.1648835"><time>2023-06-03T07:11:56.990</time></trkpt><trkpt lat="55.8871106" lon="49.1648196"><time>2023-06-03T07:11:58.990</time></trkpt><trkpt lat="55.8871117" lon="49.1647381"><time>2023-06-03T07:12:05.290</time></trkpt><trkpt lat="55.8871131" lon="49.1648211"><time>2023-06-03T07:12:31.013</time></trkpt><trkpt lat="55.8871484" lon="49.1648750"><time>2023-06-03T07:12:34.023</time></trkpt><trkpt lat="55.8871968" lon="49.1649105"><time>2023-06-03T07:12:38.017</time></trkpt><trkpt lat="55.8872495" lon="49.1649522"><time>2023-06-03T07:12:41.990</time></trkpt><trkpt lat="55.8873011" lon="49.1649253"><time>2023-06-03T07:12:47.010</time></trkpt><trkpt lat="55.8873504" lon="49.1649104"><time>2023-06-03T07:12:52.013</time></trkpt><trkpt lat="55.8873024" lon="49.1648639"><time>2023-06-03T07:13:13.033</time></trkpt><trkpt lat="55.8873534" lon="49.1648495"><time>2023-06-03T07:14:21.027</time></trkpt><trkpt lat="55.8873907" lon="49.1647837"><time>2023-06-03T07:14:26.017</time></trkpt><trkpt lat="55.8874374" lon="49.1646852"><time>2023-06-03T07:14:30.040</time></trkpt><trkpt lat="55.8874734" lon="49.1646085"><time>2023-06-03T07:14:32.020</time></trkpt><trkpt lat="55.8875082" lon="49.1645301"><time>2023-06-03T07:14:34.040</time></trkpt><trkpt lat="55.8875461" lon="49.1644560"><time>2023-06-03T07:14:36.020</time></trkpt><trkpt lat="55.8875851" lon="49.1643848"><time>2023-06-03T07:14:38.017</time></trkpt><trkpt lat="55.8876295" lon="49.1643239"><time>2023-06-03T07:14:40.033</time></trkpt><trkpt lat="55.8876762" lon="49.1642712"><time>2023-06-03T07:14:42.023</time></trkpt><trkpt lat="55.8877257" lon="49.1642269"><time>2023-06-03T07:14:44.007</time></trkpt><trkpt lat="55.8877748" lon="49.1641881"><time>2023-06-03T07:14:46.027</time></trkpt><trkpt lat="55.8878221" lon="49.1641444"><time>2023-06-03T07:14:48.017</time></trkpt><trkpt lat="55.8878706" lon="49.1641022"><time>2023-06-03T07:14:50.033</time></trkpt><trkpt lat="55.8879244" lon="49.1640522"><time>2023-06-03T07:14:52.010</time></trkpt><trkpt lat="55.8879840" lon="49.1639918"><time>2023-06-03T07:14:54.020</time></trkpt><trkpt lat="55.8880337" lon="49.1639418"><time>2023-06-03T07:14:56.050</time></trkpt><trkpt lat="55.8880821" lon="49.1638984"><time>2023-06-03T07:14:58.020</time></trkpt><trkpt lat="55.8881277" lon="49.1638582"><time>2023-06-03T07:15:00.023</time></trkpt><trkpt lat="55.8881682" lon="49.1638129"><time>2023-06-03T07:15:02</time></trkpt><trkpt lat="55.8882085" lon="49.1637714"><time>2023-06-03T07:15:04.007</time></trkpt><trkpt lat="55.8882487" lon="49.1637244"><time>2023-06-03T07:15:05.997</time></trkpt><trkpt lat="55.8882918" lon="49.1636872"><time>2023-06-03T07:15:12.020</time></trkpt><trkpt lat="55.8883509" lon="49.1636570"><time>2023-06-03T07:15:15.007</time></trkpt><trkpt lat="55.8883996" lon="49.1636351"><time>2023-06-03T07:15:17.010</time></trkpt><trkpt lat="55.8884563" lon="49.1636205"><time>2023-06-03T07:15:19.003</time></trkpt><trkpt lat="55.8885109" lon="49.1636110"><time>2023-06-03T07:15:21.003</time></trkpt><trkpt lat="55.8885622" lon="49.1636029"><time>2023-06-03T07:15:23.020</time></trkpt><trkpt lat="55.8886139" lon="49.1635993"><time>2023-06-03T07:15:25.047</time></trkpt><trkpt lat="55.8886637" lon="49.1635948"><time>2023-06-03T07:15:27.010</time></trkpt><trkpt lat="55.8887213" lon="49.1635684"><time>2023-06-03T07:15:30.010</time></trkpt><trkpt lat="55.8887848" lon="49.1635554"><time>2023-06-03T07:15:34.033</time></trkpt><trkpt lat="55.8888349" lon="49.1635356"><time>2023-06-03T07:15:37.017</time></trkpt><trkpt lat="55.8888800" lon="49.1635201"><time>2023-06-03T07:15:39</time></trkpt><trkpt lat="55.8889266" lon="49.1635175"><time>2023-06-03T07:15:41.023</time></trkpt><trkpt lat="55.8889833" lon="49.1635222"><time>2023-06-03T07:15:44</time></trkpt><trkpt lat="55.8890261" lon="49.1635510"><time>2023-06-03T07:15:47.013</time></trkpt><trkpt lat="55.8890779" lon="49.1635924"><time>2023-06-03T07:15:51</time></trkpt><trkpt lat="55.8891166" lon="49.1636458"><time>2023-06-03T07:15:55.023</time></trkpt><trkpt lat="55.8891476" lon="49.1637136"><time>2023-06-03T07:16:11</time></trkpt><trkpt lat="55.8891927" lon="49.1637657"><time>2023-06-03T07:16:15.017</time></trkpt><trkpt lat="55.8892432" lon="49.1638087"><time>2023-06-03T07:16:19.020</time></trkpt><trkpt lat="55.8892908" lon="49.1638529"><time>2023-06-03T07:16:23.010</time></trkpt><trkpt lat="55.8893373" lon="49.1638963"><time>2023-06-03T07:16:27.020</time></trkpt><trkpt lat="55.8893895" lon="49.1639168"><time>2023-06-03T07:16:32.010</time></trkpt><trkpt lat="55.8894437" lon="49.1639468"><time>2023-06-03T07:16:35.033</time></trkpt><trkpt lat="55.8895032" lon="49.1639877"><time>2023-06-03T07:16:39.053</time></trkpt><trkpt lat="55.8895516" lon="49.1640149"><time>2023-06-03T07:16:42.027</time></trkpt><trkpt lat="55.8896033" lon="49.1640479"><time>2023-06-03T07:16:45.013</time></trkpt><trkpt lat="55.8896578" lon="49.1640862"><time>2023-06-03T07:16:48.020</time></trkpt><trkpt lat="55.8897005" lon="49.1641209"><time>2023-06-03T07:16:50.027</time></trkpt><trkpt lat="55.8897502" lon="49.1641539"><time>2023-06-03T07:16:52.017</time></trkpt><trkpt lat="55.8898041" lon="49.1641952"><time>2023-06-03T07:16:54.020</time></trkpt><trkpt lat="55.8898572" lon="49.1642374"><time>2023-06-03T07:16:56.017</time></trkpt><trkpt lat="55.8899054" lon="49.1642927"><time>2023-06-03T07:16:58.013</time></trkpt><trkpt lat="55.8899417" lon="49.1643576"><time>2023-06-03T07:17:00.017</time></trkpt><trkpt lat="55.8899727" lon="49.1644160"><time>2023-06-03T07:17:02.023</time></trkpt><trkpt lat="55.8900031" lon="49.1644847"><time>2023-06-03T07:18:03.013</time></trkpt><trkpt lat="55.8900337" lon="49.1645567"><time>2023-06-03T07:18:05.017</time></trkpt><trkpt lat="55.8900625" lon="49.1646500"><time>2023-06-03T07:18:07.007</time></trkpt><trkpt lat="55.8900802" lon="49.1647491"><time>2023-06-03T07:18:09.017</time></trkpt><trkpt lat="55.8900894" lon="49.1648532"><time>2023-06-03T07:18:11</time></trkpt><trkpt lat="55.8901098" lon="49.1649650"><time>2023-06-03T07:18:13.033</time></trkpt><trkpt lat="55.8901367" lon="49.1650840"><time>2023-06-03T07:18:15.050</time></trkpt><trkpt lat="55.8901602" lon="49.1652040"><time>2023-06-03T07:18:17.010</time></trkpt><trkpt lat="55.8901816" lon="49.1653254"><time>2023-06-03T07:18:19.020</time></trkpt><trkpt lat="55.8902021" lon="49.1654595"><time>2023-06-03T07:18:21.017</time></trkpt><trkpt lat="55.8902289" lon="49.1656011"><time>2023-06-03T07:18:23.007</time></trkpt><trkpt lat="55.8902554" lon="49.1657414"><time>2023-06-03T07:18:25.023</time></trkpt><trkpt lat="55.8902843" lon="49.1658787"><time>2023-06-03T07:18:27.013</time></trkpt><trkpt lat="55.8903126" lon="49.1660044"><time>2023-06-03T07:18:29.013</time></trkpt><trkpt lat="55.8903307" lon="49.1661213"><time>2023-06-03T07:18:31.030</time></trkpt><trkpt lat="55.8903482" lon="49.1662498"><time>2023-06-03T07:18:33.013</time></trkpt><trkpt lat="55.8903600" lon="49.1663706"><time>2023-06-03T07:18:35.047</time></trkpt><trkpt lat="55.8903742" lon="49.1664905"><time>2023-06-03T07:18:37.010</time></trkpt><trkpt lat="55.8903894" lon="49.1666108"><time>2023-06-03T07:18:39.017</time></trkpt><trkpt lat="55.8904023" lon="49.1667225"><time>2023-06-03T07:18:41.017</time></trkpt><trkpt lat="55.8904227" lon="49.1668412"><time>2023-06-03T07:18:43.017</time></trkpt><trkpt lat="55.8904430" lon="49.1669634"><time>2023-06-03T07:18:45.037</time></trkpt><trkpt lat="55.8904630" lon="49.1670863"><time>2023-06-03T07:18:47.010</time></trkpt><trkpt lat="55.8904842" lon="49.1672076"><time>2023-06-03T07:18:49.047</time></trkpt><trkpt lat="55.8905178" lon="49.1673154"><time>2023-06-03T07:18:51.017</time></trkpt><trkpt lat="55.8905559" lon="49.1674027"><time>2023-06-03T07:18:53.010</time></trkpt><trkpt lat="55.8905948" lon="49.1674835"><time>2023-06-03T07:18:55.040</time></trkpt><trkpt lat="55.8906316" lon="49.1675445"><time>2023-06-03T07:18:57.020</time></trkpt><trkpt lat="55.8906659" lon="49.1675965"><time>2023-06-03T07:19:00.030</time></trkpt><trkpt lat="55.8906928" lon="49.1676852"><time>2023-06-03T07:19:03.010</time></trkpt><trkpt lat="55.8907061" lon="49.1677705"><time>2023-06-03T07:19:04.993</time></trkpt><trkpt lat="55.8907200" lon="49.1678701"><time>2023-06-03T07:19:07.027</time></trkpt><trkpt lat="55.8907318" lon="49.1679794"><time>2023-06-03T07:19:09</time></trkpt><trkpt lat="55.8907370" lon="49.1680910"><time>2023-06-03T07:19:11.010</time></trkpt><trkpt lat="55.8907424" lon="49.1681831"><time>2023-06-03T07:19:13.013</time></trkpt><trkpt lat="55.8907537" lon="49.1682787"><time>2023-06-03T07:19:15.017</time></trkpt><trkpt lat="55.8907577" lon="49.1683668"><time>2023-06-03T07:19:17.020</time></trkpt><trkpt lat="55.8907685" lon="49.1684742"><time>2023-06-03T07:19:20.017</time></trkpt><trkpt lat="55.8907703" lon="49.1685849"><time>2023-06-03T07:21:01.040</time></trkpt><trkpt lat="55.8907737" lon="49.1686662"><time>2023-06-03T07:21:03.017</time></trkpt><trkpt lat="55.8907789" lon="49.1687612"><time>2023-06-03T07:21:05.037</time></trkpt><trkpt lat="55.8907922" lon="49.1688654"><time>2023-06-03T07:21:06.997</time></trkpt><trkpt lat="55.8908099" lon="49.1689756"><time>2023-06-03T07:21:09.020</time></trkpt><trkpt lat="55.8908277" lon="49.1690974"><time>2023-06-03T07:21:11.020</time></trkpt><trkpt lat="55.8908416" lon="49.1692301"><time>2023-06-03T07:21:13.013</time></trkpt><trkpt lat="55.8908527" lon="49.1693688"><time>2023-06-03T07:21:15.023</time></trkpt><trkpt lat="55.8908602" lon="49.1695030"><time>2023-06-03T07:21:17.013</time></trkpt><trkpt lat="55.8908662" lon="49.1696335"><time>2023-06-03T07:21:19.017</time></trkpt><trkpt lat="55.8908683" lon="49.1697661"><time>2023-06-03T07:21:21.023</time></trkpt><trkpt lat="55.8908782" lon="49.1699025"><time>2023-06-03T07:21:23.013</time></trkpt><trkpt lat="55.8908816" lon="49.1700410"><time>2023-06-03T07:21:25.033</time></trkpt><trkpt lat="55.8908856" lon="49.1701778"><time>2023-06-03T07:21:27.010</time></trkpt><trkpt lat="55.8908965" lon="49.1703070"><time>2023-06-03T07:21:29.010</time></trkpt><trkpt lat="55.8909105" lon="49.1704399"><time>2023-06-03T07:21:31.047</time></trkpt><trkpt lat="55.8909279" lon="49.1705694"><time>2023-06-03T07:21:33.010</time></trkpt><trkpt lat="55.8909484" lon="49.1706956"><time>2023-06-03T07:21:35.027</time></trkpt><trkpt lat="55.8909692" lon="49.1708138"><time>2023-06-03T07:21:37.010</time></trkpt><trkpt lat="55.8909906" lon="49.1709233"><time>2023-06-03T07:21:39.017</time></trkpt><trkpt lat="55.8910039" lon="49.1710141"><time>2023-06-03T07:21:41.023</time></trkpt><trkpt lat="55.8910052" lon="49.1711003"><time>2023-06-03T07:21:43.013</time></trkpt><trkpt lat="55.8909969" lon="49.1711874"><time>2023-06-03T07:21:45.040</time></trkpt><trkpt lat="55.8909685" lon="49.1712779"><time>2023-06-03T07:21:47.010</time></trkpt><trkpt lat="55.8909304" lon="49.1713805"><time>2023-06-03T07:21:49.047</time></trkpt><trkpt lat="55.8908939" lon="49.1714884"><time>2023-06-03T07:21:51.047</time></trkpt><trkpt lat="55.8908559" lon="49.1715994"><time>2023-06-03T07:21:53.013</time></trkpt><trkpt lat="55.8908217" lon="49.1717251"><time>2023-06-03T07:21:55.013</time></trkpt><trkpt lat="55.8907834" lon="49.1718637"><time>2023-06-03T07:21:57.007</time></trkpt><trkpt lat="55.8907596" lon="49.1719344"><time>2023-06-03T07:21:58.017</time></trkpt><trkpt lat="55.8907199" lon="49.1720746"><time>2023-06-03T07:22:00.040</time></trkpt><trkpt lat="55.8906857" lon="49.1722055"><time>2023-06-03T07:22:02.010</time></trkpt><trkpt lat="55.8906487" lon="49.1723450"><time>2023-06-03T07:22:04.047</time></trkpt><trkpt lat="55.8906167" lon="49.1724132"><time>2023-06-03T07:22:05.047</time></trkpt><trkpt lat="55.8905784" lon="49.1724716"><time>2023-06-03T07:22:06.053</time></trkpt><trkpt lat="55.8905375" lon="49.1725111"><time>2023-06-03T07:22:07.007</time></trkpt><trkpt lat="55.8904740" lon="49.1725849"><time>2023-06-03T07:22:09.017</time></trkpt><trkpt lat="55.8904215" lon="49.1726913"><time>2023-06-03T07:22:11</time></trkpt><trkpt lat="55.8903641" lon="49.1727937"><time>2023-06-03T07:22:13.003</time></trkpt><trkpt lat="55.8903104" lon="49.1729061"><time>2023-06-03T07:22:15.020</time></trkpt><trkpt lat="55.8902564" lon="49.1730212"><time>2023-06-03T07:22:17.007</time></trkpt><trkpt lat="55.8902090" lon="49.1731244"><time>2023-06-03T07:22:19.010</time></trkpt><trkpt lat="55.8901743" lon="49.1732344"><time>2023-06-03T07:22:21.023</time></trkpt><trkpt lat="55.8901642" lon="49.1733700"><time>2023-06-03T07:22:23.007</time></trkpt><trkpt lat="55.8901662" lon="49.1734958"><time>2023-06-03T07:22:25.003</time></trkpt><trkpt lat="55.8901741" lon="49.1736077"><time>2023-06-03T07:22:27.013</time></trkpt><trkpt lat="55.8901822" lon="49.1737109"><time>2023-06-03T07:22:29.017</time></trkpt><trkpt lat="55.8901963" lon="49.1738155"><time>2023-06-03T07:22:31.017</time></trkpt><trkpt lat="55.8902064" lon="49.1739277"><time>2023-06-03T07:22:33.010</time></trkpt><trkpt lat="55.8902115" lon="49.1740450"><time>2023-06-03T07:22:35.033</time></trkpt><trkpt lat="55.8902155" lon="49.1741602"><time>2023-06-03T07:22:37.010</time></trkpt><trkpt lat="55.8902162" lon="49.1742806"><time>2023-06-03T07:22:39.007</time></trkpt><trkpt lat="55.8902118" lon="49.1744076"><time>2023-06-03T07:22:41.103</time></trkpt><trkpt lat="55.8902033" lon="49.1745372"><time>2023-06-03T07:22:43.007</time></trkpt><trkpt lat="55.8901970" lon="49.1746681"><time>2023-06-03T07:22:45.003</time></trkpt><trkpt lat="55.8901887" lon="49.1748045"><time>2023-06-03T07:22:47.010</time></trkpt><trkpt lat="55.8901719" lon="49.1749427"><time>2023-06-03T07:22:49.007</time></trkpt><trkpt lat="55.8901535" lon="49.1750774"><time>2023-06-03T07:22:51.020</time></trkpt><trkpt lat="55.8901344" lon="49.1752078"><time>2023-06-03T07:22:53.027</time></trkpt><trkpt lat="55.8901097" lon="49.1753286"><time>2023-06-03T07:22:55.013</time></trkpt><trkpt lat="55.8900881" lon="49.1754477"><time>2023-06-03T07:22:57.013</time></trkpt><trkpt lat="55.8900683" lon="49.1755704"><time>2023-06-03T07:22:59.013</time></trkpt><trkpt lat="55.8900515" lon="49.1756975"><time>2023-06-03T07:23:01.023</time></trkpt><trkpt lat="55.8900258" lon="49.1758342"><time>2023-06-03T07:23:02.997</time></trkpt><trkpt lat="55.8899933" lon="49.1759673"><time>2023-06-03T07:23:05.007</time></trkpt><trkpt lat="55.8899537" lon="49.1760907"><time>2023-06-03T07:23:07.007</time></trkpt><trkpt lat="55.8899044" lon="49.1762050"><time>2023-06-03T07:23:09.033</time></trkpt><trkpt lat="55.8898436" lon="49.1763040"><time>2023-06-03T07:23:11.027</time></trkpt><trkpt lat="55.8897817" lon="49.1764041"><time>2023-06-03T07:23:13.023</time></trkpt><trkpt lat="55.8897171" lon="49.1765064"><time>2023-06-03T07:23:15.003</time></trkpt><trkpt lat="55.8896544" lon="49.1766009"><time>2023-06-03T07:23:17.013</time></trkpt><trkpt lat="55.8896044" lon="49.1766668"><time>2023-06-03T07:23:18.983</time></trkpt><trkpt lat="55.8895626" lon="49.1767118"><time>2023-06-03T07:23:20.983</time></trkpt><trkpt lat="55.8895158" lon="49.1767672"><time>2023-06-03T07:23:23.983</time></trkpt><trkpt lat="55.8894776" lon="49.1768189"><time>2023-06-03T07:25:10.027</time></trkpt><trkpt lat="55.8894290" lon="49.1768792"><time>2023-06-03T07:25:12.990</time></trkpt><trkpt lat="55.8893870" lon="49.1769269"><time>2023-06-03T07:25:15.003</time></trkpt><trkpt lat="55.8893410" lon="49.1769829"><time>2023-06-03T07:25:16.983</time></trkpt><trkpt lat="55.8892880" lon="49.1770401"><time>2023-06-03T07:25:19.013</time></trkpt><trkpt lat="55.8892291" lon="49.1770873"><time>2023-06-03T07:25:21.017</time></trkpt><trkpt lat="55.8891610" lon="49.1771290"><time>2023-06-03T07:25:23.003</time></trkpt><trkpt lat="55.8890898" lon="49.1771621"><time>2023-06-03T07:25:25.020</time></trkpt><trkpt lat="55.8890097" lon="49.1772033"><time>2023-06-03T07:25:27.017</time></trkpt><trkpt lat="55.8889319" lon="49.1772298"><time>2023-06-03T07:25:29.033</time></trkpt><trkpt lat="55.8888564" lon="49.1772498"><time>2023-06-03T07:25:31.027</time></trkpt><trkpt lat="55.8887794" lon="49.1772705"><time>2023-06-03T07:25:33.017</time></trkpt><trkpt lat="55.8886976" lon="49.1772805"><time>2023-06-03T07:25:35.013</time></trkpt><trkpt lat="55.8886077" lon="49.1772768"><time>2023-06-03T07:25:37.017</time></trkpt><trkpt lat="55.8885599" lon="49.1772755"><time>2023-06-03T07:25:38.013</time></trkpt><trkpt lat="55.8885136" lon="49.1772748"><time>2023-06-03T07:25:39.053</time></trkpt><trkpt lat="55.8884285" lon="49.1772784"><time>2023-06-03T07:25:41.023</time></trkpt><trkpt lat="55.8883832" lon="49.1772799"><time>2023-06-03T07:25:42.003</time></trkpt><trkpt lat="55.8883375" lon="49.1772834"><time>2023-06-03T07:25:43.010</time></trkpt><trkpt lat="55.8882480" lon="49.1772959"><time>2023-06-03T07:25:45.017</time></trkpt><trkpt lat="55.8882024" lon="49.1773071"><time>2023-06-03T07:25:46.003</time></trkpt><trkpt lat="55.8881215" lon="49.1773415"><time>2023-06-03T07:25:48.007</time></trkpt><trkpt lat="55.8880500" lon="49.1773965"><time>2023-06-03T07:25:50.027</time></trkpt><trkpt lat="55.8879929" lon="49.1774636"><time>2023-06-03T07:25:52</time></trkpt><trkpt lat="55.8879334" lon="49.1775468"><time>2023-06-03T07:25:54.020</time></trkpt><trkpt lat="55.8878743" lon="49.1776399"><time>2023-06-03T07:25:56.020</time></trkpt><trkpt lat="55.8878128" lon="49.1777380"><time>2023-06-03T07:25:58.010</time></trkpt><trkpt lat="55.8877569" lon="49.1778474"><time>2023-06-03T07:26:00.023</time></trkpt><trkpt lat="55.8877167" lon="49.1779718"><time>2023-06-03T07:26:02.003</time></trkpt><trkpt lat="55.8877008" lon="49.1780492"><time>2023-06-03T07:26:03.003</time></trkpt><trkpt lat="55.8876866" lon="49.1781343"><time>2023-06-03T07:26:04.007</time></trkpt><trkpt lat="55.8876779" lon="49.1782180"><time>2023-06-03T07:26:05.020</time></trkpt><trkpt lat="55.8876754" lon="49.1783031"><time>2023-06-03T07:26:06.057</time></trkpt><trkpt lat="55.8876733" lon="49.1783883"><time>2023-06-03T07:26:07.010</time></trkpt><trkpt lat="55.8876686" lon="49.1784860"><time>2023-06-03T07:26:08.010</time></trkpt><trkpt lat="55.8876698" lon="49.1785786"><time>2023-06-03T07:26:09.007</time></trkpt><trkpt lat="55.8876654" lon="49.1786782"><time>2023-06-03T07:26:09.997</time></trkpt><trkpt lat="55.8876578" lon="49.1787685"><time>2023-06-03T07:26:11</time></trkpt><trkpt lat="55.8876481" lon="49.1788585"><time>2023-06-03T07:26:12.023</time></trkpt><trkpt lat="55.8876386" lon="49.1789438"><time>2023-06-03T07:26:13.017</time></trkpt><trkpt lat="55.8876288" lon="49.1790291"><time>2023-06-03T07:26:14.007</time></trkpt><trkpt lat="55.8876148" lon="49.1791185"><time>2023-06-03T07:26:15.010</time></trkpt><trkpt lat="55.8876059" lon="49.1792000"><time>2023-06-03T07:26:16.040</time></trkpt><trkpt lat="55.8876005" lon="49.1792849"><time>2023-06-03T07:26:17.017</time></trkpt><trkpt lat="55.8875920" lon="49.1793748"><time>2023-06-03T07:26:18.007</time></trkpt><trkpt lat="55.8875843" lon="49.1794690"><time>2023-06-03T07:26:19.010</time></trkpt><trkpt lat="55.8875769" lon="49.1795591"><time>2023-06-03T07:26:20.017</time></trkpt><trkpt lat="55.8875699" lon="49.1796523"><time>2023-06-03T07:26:21.027</time></trkpt><trkpt lat="55.8875655" lon="49.1797464"><time>2023-06-03T07:26:22.007</time></trkpt><trkpt lat="55.8875561" lon="49.1798361"><time>2023-06-03T07:26:23.010</time></trkpt><trkpt lat="55.8875511" lon="49.1799267"><time>2023-06-03T07:26:24.020</time></trkpt><trkpt lat="55.8875483" lon="49.1800092"><time>2023-06-03T07:26:25.043</time></trkpt><trkpt lat="55.8875473" lon="49.1800958"><time>2023-06-03T07:26:26.013</time></trkpt><trkpt lat="55.8875523" lon="49.1801868"><time>2023-06-03T07:26:27.007</time></trkpt><trkpt lat="55.8875595" lon="49.1802722"><time>2023-06-03T07:26:28.003</time></trkpt><trkpt lat="55.8875641" lon="49.1803656"><time>2023-06-03T07:26:29.050</time></trkpt><trkpt lat="55.8875772" lon="49.1804537"><time>2023-06-03T07:26:30.033</time></trkpt><trkpt lat="55.8875900" lon="49.1805443"><time>2023-06-03T07:26:31.023</time></trkpt><trkpt lat="55.8876045" lon="49.1806304"><time>2023-06-03T07:26:32.013</time></trkpt><trkpt lat="55.8876154" lon="49.1807201"><time>2023-06-03T07:26:33.017</time></trkpt><trkpt lat="55.8876330" lon="49.1808051"><time>2023-06-03T07:26:34.053</time></trkpt><trkpt lat="55.8876476" lon="49.1808906"><time>2023-06-03T07:26:35.043</time></trkpt><trkpt lat="55.8876634" lon="49.1809755"><time>2023-06-03T07:26:36.027</time></trkpt><trkpt lat="55.8876845" lon="49.1810630"><time>2023-06-03T07:26:37.007</time></trkpt><trkpt lat="55.8877052" lon="49.1811450"><time>2023-06-03T07:26:38.007</time></trkpt><trkpt lat="55.8877257" lon="49.1812247"><time>2023-06-03T07:26:39.037</time></trkpt><trkpt lat="55.8877516" lon="49.1813006"><time>2023-06-03T07:26:40.023</time></trkpt><trkpt lat="55.8877744" lon="49.1813720"><time>2023-06-03T07:26:41.023</time></trkpt><trkpt lat="55.8878004" lon="49.1814476"><time>2023-06-03T07:26:42.010</time></trkpt><trkpt lat="55.8878258" lon="49.1815225"><time>2023-06-03T07:26:43.017</time></trkpt><trkpt lat="55.8878522" lon="49.1815998"><time>2023-06-03T07:26:44.027</time></trkpt><trkpt lat="55.8878807" lon="49.1816646"><time>2023-06-03T07:26:45.010</time></trkpt><trkpt lat="55.8879127" lon="49.1817240"><time>2023-06-03T07:26:46.050</time></trkpt><trkpt lat="55.8879445" lon="49.1817842"><time>2023-06-03T07:26:47.007</time></trkpt><trkpt lat="55.8879769" lon="49.1818445"><time>2023-06-03T07:26:48.007</time></trkpt><trkpt lat="55.8880127" lon="49.1818997"><time>2023-06-03T07:26:49.017</time></trkpt><trkpt lat="55.8880808" lon="49.1819998"><time>2023-06-03T07:26:51.013</time></trkpt><trkpt lat="55.8881158" lon="49.1820602"><time>2023-06-03T07:26:52.027</time></trkpt><trkpt lat="55.8881550" lon="49.1821162"><time>2023-06-03T07:26:53.010</time></trkpt><trkpt lat="55.8881953" lon="49.1821774"><time>2023-06-03T07:26:54.023</time></trkpt><trkpt lat="55.8882356" lon="49.1822400"><time>2023-06-03T07:26:55.027</time></trkpt><trkpt lat="55.8882733" lon="49.1823009"><time>2023-06-03T07:26:56.043</time></trkpt><trkpt lat="55.8883107" lon="49.1823632"><time>2023-06-03T07:26:57.013</time></trkpt><trkpt lat="55.8883502" lon="49.1824222"><time>2023-06-03T07:26:58.013</time></trkpt><trkpt lat="55.8883899" lon="49.1824819"><time>2023-06-03T07:26:59.030</time></trkpt><trkpt lat="55.8884273" lon="49.1825333"><time>2023-06-03T07:27:00.017</time></trkpt><trkpt lat="55.8884672" lon="49.1825879"><time>2023-06-03T07:27:01.030</time></trkpt><trkpt lat="55.8885070" lon="49.1826469"><time>2023-06-03T07:27:02.013</time></trkpt><trkpt lat="55.8885472" lon="49.1827029"><time>2023-06-03T07:27:03.010</time></trkpt><trkpt lat="55.8885862" lon="49.1827546"><time>2023-06-03T07:27:04.023</time></trkpt><trkpt lat="55.8886266" lon="49.1828083"><time>2023-06-03T07:27:05.057</time></trkpt><trkpt lat="55.8886670" lon="49.1828565"><time>2023-06-03T07:27:06.047</time></trkpt><trkpt lat="55.8887062" lon="49.1828989"><time>2023-06-03T07:27:07.010</time></trkpt><trkpt lat="55.8887480" lon="49.1829411"><time>2023-06-03T07:27:08.010</time></trkpt><trkpt lat="55.8887894" lon="49.1829871"><time>2023-06-03T07:27:09.033</time></trkpt><trkpt lat="55.8888338" lon="49.1830408"><time>2023-06-03T07:27:10.030</time></trkpt><trkpt lat="55.8888752" lon="49.1830925"><time>2023-06-03T07:27:11.030</time></trkpt><trkpt lat="55.8889121" lon="49.1831474"><time>2023-06-03T07:27:12.023</time></trkpt><trkpt lat="55.8889515" lon="49.1831989"><time>2023-06-03T07:27:13.007</time></trkpt><trkpt lat="55.8889909" lon="49.1832491"><time>2023-06-03T07:27:14.003</time></trkpt><trkpt lat="55.8890281" lon="49.1832975"><time>2023-06-03T07:27:15.010</time></trkpt><trkpt lat="55.8890990" lon="49.1833883"><time>2023-06-03T07:27:17.013</time></trkpt><trkpt lat="55.8891660" lon="49.1834813"><time>2023-06-03T07:27:19.023</time></trkpt><trkpt lat="55.8892352" lon="49.1835799"><time>2023-06-03T07:27:21.010</time></trkpt><trkpt lat="55.8893028" lon="49.1836556"><time>2023-06-03T07:27:23.013</time></trkpt><trkpt lat="55.8893633" lon="49.1837149"><time>2023-06-03T07:27:25.020</time></trkpt><trkpt lat="55.8894154" lon="49.1837888"><time>2023-06-03T07:27:27.007</time></trkpt><trkpt lat="55.8894519" lon="49.1838819"><time>2023-06-03T07:27:29.033</time></trkpt><trkpt lat="55.8894900" lon="49.1839897"><time>2023-06-03T07:27:31.050</time></trkpt><trkpt lat="55.8895296" lon="49.1840984"><time>2023-06-03T07:27:33.007</time></trkpt><trkpt lat="55.8895770" lon="49.1842075"><time>2023-06-03T07:27:35.040</time></trkpt><trkpt lat="55.8896305" lon="49.1843103"><time>2023-06-03T07:27:37.013</time></trkpt><trkpt lat="55.8896891" lon="49.1844114"><time>2023-06-03T07:27:39.020</time></trkpt><trkpt lat="55.8897505" lon="49.1845161"><time>2023-06-03T07:27:41.060</time></trkpt><trkpt lat="55.8898111" lon="49.1846208"><time>2023-06-03T07:27:43.007</time></trkpt><trkpt lat="55.8898673" lon="49.1847276"><time>2023-06-03T07:27:45.010</time></trkpt><trkpt lat="55.8899164" lon="49.1848343"><time>2023-06-03T07:27:47.010</time></trkpt><trkpt lat="55.8899571" lon="49.1849314"><time>2023-06-03T07:27:49.010</time></trkpt><trkpt lat="55.8899806" lon="49.1850046"><time>2023-06-03T07:27:51.027</time></trkpt><trkpt lat="55.8899998" lon="49.1850906"><time>2023-06-03T07:27:53.003</time></trkpt><trkpt lat="55.8900321" lon="49.1852291"><time>2023-06-03T07:27:55.027</time></trkpt><trkpt lat="55.8900742" lon="49.1853432"><time>2023-06-03T07:27:57.007</time></trkpt><trkpt lat="55.8901188" lon="49.1854185"><time>2023-06-03T07:27:59.017</time></trkpt><trkpt lat="55.8901672" lon="49.1854963"><time>2023-06-03T07:28:01.020</time></trkpt><trkpt lat="55.8902213" lon="49.1855854"><time>2023-06-03T07:28:03.010</time></trkpt><trkpt lat="55.8902715" lon="49.1856848"><time>2023-06-03T07:28:05.010</time></trkpt><trkpt lat="55.8903206" lon="49.1857994"><time>2023-06-03T07:28:07.010</time></trkpt><trkpt lat="55.8903657" lon="49.1859066"><time>2023-06-03T07:28:09.010</time></trkpt><trkpt lat="55.8904049" lon="49.1859986"><time>2023-06-03T07:28:10.993</time></trkpt><trkpt lat="55.8904508" lon="49.1860968"><time>2023-06-03T07:28:13.023</time></trkpt><trkpt lat="55.8905032" lon="49.1862121"><time>2023-06-03T07:28:15.023</time></trkpt><trkpt lat="55.8905456" lon="49.1863305"><time>2023-06-03T07:28:17.013</time></trkpt><trkpt lat="55.8905759" lon="49.1864377"><time>2023-06-03T07:28:19.013</time></trkpt><trkpt lat="55.8906002" lon="49.1865278"><time>2023-06-03T07:28:22.007</time></trkpt><trkpt lat="55.8906190" lon="49.1866021"><time>2023-06-03T07:28:27.010</time></trkpt><trkpt lat="55.8906317" lon="49.1866928"><time>2023-06-03T07:28:33.010</time></trkpt><trkpt lat="55.8906653" lon="49.1867658"><time>2023-06-03T07:28:37.003</time></trkpt><trkpt lat="55.8907036" lon="49.1868245"><time>2023-06-03T07:28:41.050</time></trkpt><trkpt lat="55.8907426" lon="49.1868976"><time>2023-06-03T07:28:45.007</time></trkpt><trkpt lat="55.8907730" lon="49.1869725"><time>2023-06-03T07:28:49.017</time></trkpt><trkpt lat="55.8907958" lon="49.1870429"><time>2023-06-03T07:29:37.033</time></trkpt><trkpt lat="55.8908354" lon="49.1870919"><time>2023-06-03T07:29:40.010</time></trkpt><trkpt lat="55.8908788" lon="49.1871594"><time>2023-06-03T07:29:43</time></trkpt><trkpt lat="55.8909083" lon="49.1872515"><time>2023-06-03T07:29:44.997</time></trkpt><trkpt lat="55.8909373" lon="49.1873505"><time>2023-06-03T07:29:47.003</time></trkpt><trkpt lat="55.8909704" lon="49.1874688"><time>2023-06-03T07:29:49.037</time></trkpt><trkpt lat="55.8910002" lon="49.1876006"><time>2023-06-03T07:29:51.013</time></trkpt><trkpt lat="55.8910234" lon="49.1877401"><time>2023-06-03T07:29:53.010</time></trkpt><trkpt lat="55.8910501" lon="49.1878719"><time>2023-06-03T07:29:55.050</time></trkpt><trkpt lat="55.8910794" lon="49.1879989"><time>2023-06-03T07:29:57.017</time></trkpt><trkpt lat="55.8911115" lon="49.1881256"><time>2023-06-03T07:29:59.013</time></trkpt><trkpt lat="55.8911557" lon="49.1882444"><time>2023-06-03T07:30:01.047</time></trkpt><trkpt lat="55.8912035" lon="49.1883510"><time>2023-06-03T07:30:03.003</time></trkpt><trkpt lat="55.8912274" lon="49.1884438"><time>2023-06-03T07:30:05.057</time></trkpt><trkpt lat="55.8911990" lon="49.1885435"><time>2023-06-03T07:30:08.017</time></trkpt><trkpt lat="55.8911640" lon="49.1886257"><time>2023-06-03T07:30:09.980</time></trkpt><trkpt lat="55.8911278" lon="49.1887056"><time>2023-06-03T07:30:12.013</time></trkpt><trkpt lat="55.8910979" lon="49.1887745"><time>2023-06-03T07:30:15.027</time></trkpt><trkpt lat="55.8910721" lon="49.1888782"><time>2023-06-03T07:30:18.007</time></trkpt><trkpt lat="55.8910682" lon="49.1889594"><time>2023-06-03T07:30:20.053</time></trkpt><trkpt lat="55.8910628" lon="49.1890735"><time>2023-06-03T07:30:23.017</time></trkpt><trkpt lat="55.8910575" lon="49.1892061"><time>2023-06-03T07:30:26.050</time></trkpt><trkpt lat="55.8910534" lon="49.1893199"><time>2023-06-03T07:30:28.010</time></trkpt><trkpt lat="55.8910580" lon="49.1894173"><time>2023-06-03T07:30:30.003</time></trkpt><trkpt lat="55.8910604" lon="49.1895320"><time>2023-06-03T07:30:32.010</time></trkpt><trkpt lat="55.8910598" lon="49.1896634"><time>2023-06-03T07:30:34.037</time></trkpt><trkpt lat="55.8910493" lon="49.1898065"><time>2023-06-03T07:30:36.020</time></trkpt><trkpt lat="55.8910299" lon="49.1899489"><time>2023-06-03T07:30:38.023</time></trkpt><trkpt lat="55.8909996" lon="49.1900801"><time>2023-06-03T07:30:40.017</time></trkpt><trkpt lat="55.8909650" lon="49.1902032"><time>2023-06-03T07:30:42.007</time></trkpt><trkpt lat="55.8909223" lon="49.1903230"><time>2023-06-03T07:30:44.010</time></trkpt><trkpt lat="55.8908756" lon="49.1904404"><time>2023-06-03T07:30:46.043</time></trkpt><trkpt lat="55.8908141" lon="49.1905359"><time>2023-06-03T07:30:48.020</time></trkpt><trkpt lat="55.8907357" lon="49.1906153"><time>2023-06-03T07:30:50.050</time></trkpt><trkpt lat="55.8906930" lon="49.1906572"><time>2023-06-03T07:30:51.037</time></trkpt><trkpt lat="55.8906482" lon="49.1906966"><time>2023-06-03T07:30:52.010</time></trkpt><trkpt lat="55.8906085" lon="49.1907368"><time>2023-06-03T07:30:53</time></trkpt><trkpt lat="55.8905267" lon="49.1908139"><time>2023-06-03T07:30:55.037</time></trkpt><trkpt lat="55.8904769" lon="49.1908649"><time>2023-06-03T07:30:56.020</time></trkpt><trkpt lat="55.8904240" lon="49.1909167"><time>2023-06-03T07:30:56.993</time></trkpt><trkpt lat="55.8903733" lon="49.1909593"><time>2023-06-03T07:30:58.007</time></trkpt><trkpt lat="55.8903294" lon="49.1910047"><time>2023-06-03T07:30:59.037</time></trkpt><trkpt lat="55.8902651" lon="49.1910910"><time>2023-06-03T07:31:01.017</time></trkpt><trkpt lat="55.8901942" lon="49.1911754"><time>2023-06-03T07:31:03.013</time></trkpt><trkpt lat="55.8901135" lon="49.1912324"><time>2023-06-03T07:31:05.053</time></trkpt><trkpt lat="55.8900396" lon="49.1912893"><time>2023-06-03T07:31:07.020</time></trkpt><trkpt lat="55.8899658" lon="49.1913346"><time>2023-06-03T07:31:09.030</time></trkpt><trkpt lat="55.8898875" lon="49.1913806"><time>2023-06-03T07:31:11.013</time></trkpt><trkpt lat="55.8898151" lon="49.1914321"><time>2023-06-03T07:31:13.007</time></trkpt><trkpt lat="55.8897704" lon="49.1914665"><time>2023-06-03T07:31:15.037</time></trkpt><trkpt lat="55.8897183" lon="49.1914935"><time>2023-06-03T07:31:19.013</time></trkpt><trkpt lat="55.8896653" lon="49.1915096"><time>2023-06-03T07:32:35.007</time></trkpt><trkpt lat="55.8896162" lon="49.1915183"><time>2023-06-03T07:32:37.007</time></trkpt><trkpt lat="55.8895534" lon="49.1915223"><time>2023-06-03T07:32:39.017</time></trkpt><trkpt lat="55.8894796" lon="49.1915249"><time>2023-06-03T07:32:41.013</time></trkpt><trkpt lat="55.8894052" lon="49.1915291"><time>2023-06-03T07:32:43.010</time></trkpt><trkpt lat="55.8893251" lon="49.1915368"><time>2023-06-03T07:32:45.057</time></trkpt><trkpt lat="55.8892423" lon="49.1915547"><time>2023-06-03T07:32:47.007</time></trkpt><trkpt lat="55.8891635" lon="49.1915739"><time>2023-06-03T07:32:49.017</time></trkpt><trkpt lat="55.8890817" lon="49.1915992"><time>2023-06-03T07:32:51.043</time></trkpt><trkpt lat="55.8890022" lon="49.1916192"><time>2023-06-03T07:32:53.017</time></trkpt><trkpt lat="55.8889196" lon="49.1916319"><time>2023-06-03T07:32:55.023</time></trkpt><trkpt lat="55.8888339" lon="49.1916299"><time>2023-06-03T07:32:57.007</time></trkpt><trkpt lat="55.8887473" lon="49.1916157"><time>2023-06-03T07:32:59.017</time></trkpt><trkpt lat="55.8887007" lon="49.1916077"><time>2023-06-03T07:33:00.013</time></trkpt><trkpt lat="55.8886538" lon="49.1915996"><time>2023-06-03T07:33:01.020</time></trkpt><trkpt lat="55.8886068" lon="49.1915857"><time>2023-06-03T07:33:02.007</time></trkpt><trkpt lat="55.8885592" lon="49.1915776"><time>2023-06-03T07:33:03.003</time></trkpt><trkpt lat="55.8884756" lon="49.1915394"><time>2023-06-03T07:33:05.043</time></trkpt><trkpt lat="55.8883909" lon="49.1915026"><time>2023-06-03T07:33:07.010</time></trkpt><trkpt lat="55.8883043" lon="49.1914650"><time>2023-06-03T07:33:09.020</time></trkpt><trkpt lat="55.8882593" lon="49.1914480"><time>2023-06-03T07:33:10.027</time></trkpt><trkpt lat="55.8882147" lon="49.1914306"><time>2023-06-03T07:33:11.010</time></trkpt><trkpt lat="55.8881698" lon="49.1914036"><time>2023-06-03T07:33:12.003</time></trkpt><trkpt lat="55.8881264" lon="49.1913795"><time>2023-06-03T07:33:13.020</time></trkpt><trkpt lat="55.8880839" lon="49.1913529"><time>2023-06-03T07:33:14.057</time></trkpt><trkpt lat="55.8880482" lon="49.1913311"><time>2023-06-03T07:33:15.173</time></trkpt><trkpt lat="55.8879911" lon="49.1912928"><time>2023-06-03T07:33:16.027</time></trkpt><trkpt lat="55.8879034" lon="49.1912578"><time>2023-06-03T07:33:18.003</time></trkpt><trkpt lat="55.8878582" lon="49.1912351"><time>2023-06-03T07:33:19.047</time></trkpt><trkpt lat="55.8878134" lon="49.1912031"><time>2023-06-03T07:33:20.040</time></trkpt><trkpt lat="55.8877335" lon="49.1911346"><time>2023-06-03T07:33:22.007</time></trkpt><trkpt lat="55.8876530" lon="49.1910736"><time>2023-06-03T07:33:24.017</time></trkpt><trkpt lat="55.8876117" lon="49.1910395"><time>2023-06-03T07:33:25.023</time></trkpt><trkpt lat="55.8875711" lon="49.1910047"><time>2023-06-03T07:33:26.033</time></trkpt><trkpt lat="55.8874982" lon="49.1909327"><time>2023-06-03T07:33:28.010</time></trkpt><trkpt lat="55.8874389" lon="49.1908709"><time>2023-06-03T07:33:30.030</time></trkpt><trkpt lat="55.8873847" lon="49.1908425"><time>2023-06-03T07:33:32.003</time></trkpt><trkpt lat="55.8873360" lon="49.1908578"><time>2023-06-03T07:33:34.047</time></trkpt><trkpt lat="55.8872936" lon="49.1909128"><time>2023-06-03T07:33:37.007</time></trkpt><trkpt lat="55.8872623" lon="49.1909886"><time>2023-06-03T07:33:44.023</time></trkpt><trkpt lat="55.8872098" lon="49.1910611"><time>2023-06-03T07:33:47.027</time></trkpt><trkpt lat="55.8871970" lon="49.1910705"><time>2023-06-03T07:33:48.160</time></trkpt><trkpt lat="55.8871465" lon="49.1911177"><time>2023-06-03T07:33:50.033</time></trkpt><trkpt lat="55.8870981" lon="49.1911531"><time>2023-06-03T07:33:52.003</time></trkpt><trkpt lat="55.8870473" lon="49.1912225"><time>2023-06-03T07:33:55.017</time></trkpt><trkpt lat="55.8869858" lon="49.1912316"><time>2023-06-03T07:33:58.010</time></trkpt><trkpt lat="55.8869248" lon="49.1911953"><time>2023-06-03T07:34:01.013</time></trkpt><trkpt lat="55.8868696" lon="49.1911660"><time>2023-06-03T07:34:04.030</time></trkpt><trkpt lat="55.8868188" lon="49.1911551"><time>2023-06-03T07:34:07.010</time></trkpt><trkpt lat="55.8868317" lon="49.1910546"><time>2023-06-03T07:34:32.010</time></trkpt><trkpt lat="55.8868294" lon="49.1909673"><time>2023-06-03T07:34:36.047</time></trkpt><trkpt lat="55.8868612" lon="49.1909085"><time>2023-06-03T07:35:00.053</time></trkpt><trkpt lat="55.8868966" lon="49.1908316"><time>2023-06-03T07:35:04.010</time></trkpt><trkpt lat="55.8869408" lon="49.1907535"><time>2023-06-03T07:35:07.007</time></trkpt><trkpt lat="55.8869750" lon="49.1906705"><time>2023-06-03T07:35:10.030</time></trkpt><trkpt lat="55.8870091" lon="49.1905946"><time>2023-06-03T07:35:13.010</time></trkpt><trkpt lat="55.8870412" lon="49.1905103"><time>2023-06-03T07:35:16.027</time></trkpt><trkpt lat="55.8869980" lon="49.1905747"><time>2023-06-03T07:36:00.007</time></trkpt><trkpt lat="55.8869620" lon="49.1906606"><time>2023-06-03T07:36:03.003</time></trkpt><trkpt lat="55.8869260" lon="49.1907458"><time>2023-06-03T07:36:05.997</time></trkpt><trkpt lat="55.8868897" lon="49.1908120"><time>2023-06-03T07:36:09.003</time></trkpt><trkpt lat="55.8868534" lon="49.1908739"><time>2023-06-03T07:36:11.997</time></trkpt><trkpt lat="55.8868022" lon="49.1908729"><time>2023-06-03T07:36:17</time></trkpt><trkpt lat="55.8867751" lon="49.1908027"><time>2023-06-03T07:36:20.023</time></trkpt><trkpt lat="55.8867716" lon="49.1907830"><time>2023-06-03T07:36:21.137</time></trkpt><trkpt lat="55.8867418" lon="49.1907077"><time>2023-06-03T07:36:24</time></trkpt><trkpt lat="55.8866932" lon="49.1907476"><time>2023-06-03T07:36:38</time></trkpt><trkpt lat="55.8866528" lon="49.1907834"><time>2023-06-03T07:36:47.050</time></trkpt><trkpt lat="55.8867019" lon="49.1908092"><time>2023-06-03T07:37:21.980</time></trkpt><trkpt lat="55.8867387" lon="49.1907627"><time>2023-06-03T07:37:33.990</time></trkpt><trkpt lat="55.8867187" lon="49.1906769"><time>2023-06-03T07:37:50</time></trkpt><trkpt lat="55.8866816" lon="49.1905993"><time>2023-06-03T07:37:52.013</time></trkpt><trkpt lat="55.8866410" lon="49.1905139"><time>2023-06-03T07:37:54</time></trkpt><trkpt lat="55.8865916" lon="49.1904328"><time>2023-06-03T07:37:57.020</time></trkpt><trkpt lat="55.8865916" lon="49.1904328"><time>2023-06-03T07:37:57.107</time></trkpt><trkpt lat="55.8865766" lon="49.1903525"><time>2023-06-03T07:38:02.033</time></trkpt><trkpt lat="55.8865667" lon="49.1903602"><time>2023-06-03T07:38:03.150</time></trkpt><trkpt lat="55.8865205" lon="49.1903460"><time>2023-06-03T07:38:09.977</time></trkpt><trkpt lat="55.8864763" lon="49.1903225"><time>2023-06-03T07:38:25.980</time></trkpt><trkpt lat="55.8864391" lon="49.1902644"><time>2023-06-03T07:38:31.977</time></trkpt><trkpt lat="55.8864152" lon="49.1901874"><time>2023-06-03T07:38:36.983</time></trkpt><trkpt lat="55.8863883" lon="49.1901092"><time>2023-06-03T07:38:40.980</time></trkpt><trkpt lat="55.8863596" lon="49.1900417"><time>2023-06-03T07:38:45.983</time></trkpt><trkpt lat="55.8863325" lon="49.1899770"><time>2023-06-03T07:38:49.980</time></trkpt><trkpt lat="55.8863575" lon="49.1898900"><time>2023-06-03T07:38:59.980</time></trkpt><trkpt lat="55.8863725" lon="49.1899754"><time>2023-06-03T07:39:17.007</time></trkpt><trkpt lat="55.8864034" lon="49.1900398"><time>2023-06-03T07:39:30</time></trkpt><trkpt lat="55.8863817" lon="49.1901271"><time>2023-06-03T07:39:42.997</time></trkpt><trkpt lat="55.8863948" lon="49.1902086"><time>2023-06-03T07:39:46.997</time></trkpt><trkpt lat="55.8864099" lon="49.1902974"><time>2023-06-03T07:39:56</time></trkpt><trkpt lat="55.8863957" lon="49.1901990"><time>2023-06-03T07:40:04</time></trkpt><trkpt lat="55.8863683" lon="49.1901157"><time>2023-06-03T07:40:07.997</time></trkpt><trkpt lat="55.8863494" lon="49.1900351"><time>2023-06-03T07:40:15</time></trkpt><trkpt lat="55.8863528" lon="49.1899512"><time>2023-06-03T07:40:28</time></trkpt><trkpt lat="55.8863925" lon="49.1899005"><time>2023-06-03T07:40:34</time></trkpt><trkpt lat="55.8864360" lon="49.1899388"><time>2023-06-03T07:40:45</time></trkpt><trkpt lat="55.8864142" lon="49.1900102"><time>2023-06-03T07:41:01.007</time></trkpt><trkpt lat="55.8864575" lon="49.1899704"><time>2023-06-03T07:41:20.987</time></trkpt><trkpt lat="55.8864481" lon="49.1898841"><time>2023-06-03T07:41:29.007</time></trkpt><trkpt lat="55.8864381" lon="49.1899709"><time>2023-06-03T07:41:46.007</time></trkpt><trkpt lat="55.8864826" lon="49.1900039"><time>2023-06-03T07:41:52.003</time></trkpt><trkpt lat="55.8865126" lon="49.1899344"><time>2023-06-03T07:41:59.003</time></trkpt><trkpt lat="55.8865494" lon="49.1900051"><time>2023-06-03T07:42:13.003</time></trkpt><trkpt lat="55.8865034" lon="49.1900336"><time>2023-06-03T07:42:27.007</time></trkpt><trkpt lat="55.8864922" lon="49.1901149"><time>2023-06-03T07:42:30.997</time></trkpt><trkpt lat="55.8864925" lon="49.1902063"><time>2023-06-03T07:42:36.007</time></trkpt><trkpt lat="55.8864424" lon="49.1901947"><time>2023-06-03T07:42:43.007</time></trkpt><trkpt lat="55.8864208" lon="49.1902748"><time>2023-06-03T07:42:56</time></trkpt><trkpt lat="55.8864172" lon="49.1903599"><time>2023-06-03T07:43:00</time></trkpt><trkpt lat="55.8864258" lon="49.1904444"><time>2023-06-03T07:43:06.010</time></trkpt><trkpt lat="55.8864561" lon="49.1903753"><time>2023-06-03T07:43:14.007</time></trkpt><trkpt lat="55.8864390" lon="49.1902887"><time>2023-06-03T07:43:21.037</time></trkpt><trkpt lat="55.8864328" lon="49.1901997"><time>2023-06-03T07:43:26.023</time></trkpt><trkpt lat="55.8864232" lon="49.1901094"><time>2023-06-03T07:43:32.013</time></trkpt><trkpt lat="55.8863867" lon="49.1900496"><time>2023-06-03T07:43:44.020</time></trkpt><trkpt lat="55.8863363" lon="49.1900205"><time>2023-06-03T07:43:53.013</time></trkpt><trkpt lat="55.8862954" lon="49.1899848"><time>2023-06-03T07:43:58.013</time></trkpt><trkpt lat="55.8863412" lon="49.1899340"><time>2023-06-03T07:44:27.010</time></trkpt><trkpt lat="55.8863854" lon="49.1899816"><time>2023-06-03T07:44:34.007</time></trkpt><trkpt lat="55.8863800" lon="49.1898972"><time>2023-06-03T07:45:10.997</time></trkpt><trkpt lat="55.8863331" lon="49.1898904"><time>2023-06-03T07:45:18.987</time></trkpt><trkpt lat="55.8862979" lon="49.1899474"><time>2023-06-03T07:46:10.997</time></trkpt><trkpt lat="55.8862498" lon="49.1899655"><time>2023-06-03T07:46:17.007</time></trkpt><trkpt lat="55.8862017" lon="49.1899156"><time>2023-06-03T07:46:32.010</time></trkpt><trkpt lat="55.8861660" lon="49.1898437"><time>2023-06-03T07:46:39.997</time></trkpt><trkpt lat="55.8861369" lon="49.1897591"><time>2023-06-03T07:46:44.007</time></trkpt><trkpt lat="55.8860881" lon="49.1897339"><time>2023-06-03T07:46:49.007</time></trkpt><trkpt lat="55.8860410" lon="49.1897361"><time>2023-06-03T07:46:57.007</time></trkpt><trkpt lat="55.8859938" lon="49.1897290"><time>2023-06-03T07:47:02</time></trkpt><trkpt lat="55.8860397" lon="49.1897766"><time>2023-06-03T07:47:15.003</time></trkpt><trkpt lat="55.8860827" lon="49.1898040"><time>2023-06-03T07:47:20.010</time></trkpt><trkpt lat="55.8861184" lon="49.1898698"><time>2023-06-03T07:47:25</time></trkpt><trkpt lat="55.8861365" lon="49.1899526"><time>2023-06-03T07:47:29.007</time></trkpt><trkpt lat="55.8861666" lon="49.1900227"><time>2023-06-03T07:47:33.010</time></trkpt><trkpt lat="55.8862082" lon="49.1900722"><time>2023-06-03T07:47:38.003</time></trkpt><trkpt lat="55.8862541" lon="49.1900589"><time>2023-06-03T07:47:50.007</time></trkpt><trkpt lat="55.8863050" lon="49.1900708"><time>2023-06-03T07:48:28.997</time></trkpt><trkpt lat="55.8863473" lon="49.1901109"><time>2023-06-03T07:48:35.007</time></trkpt><trkpt lat="55.8863826" lon="49.1901681"><time>2023-06-03T07:48:42.007</time></trkpt><trkpt lat="55.8864280" lon="49.1901998"><time>2023-06-03T07:48:46.003</time></trkpt><trkpt lat="55.8864453" lon="49.1902812"><time>2023-06-03T07:48:51.007</time></trkpt><trkpt lat="55.8864705" lon="49.1903478"><time>2023-06-03T07:49:10.003</time></trkpt><trkpt lat="55.8865050" lon="49.1904039"><time>2023-06-03T07:49:24</time></trkpt><trkpt lat="55.8865407" lon="49.1904714"><time>2023-06-03T07:49:28</time></trkpt><trkpt lat="55.8865847" lon="49.1905505"><time>2023-06-03T07:49:31</time></trkpt><trkpt lat="55.8866219" lon="49.1906259"><time>2023-06-03T07:49:33.003</time></trkpt><trkpt lat="55.8866587" lon="49.1907084"><time>2023-06-03T07:49:34.990</time></trkpt><trkpt lat="55.8867030" lon="49.1907882"><time>2023-06-03T07:49:38</time></trkpt><trkpt lat="55.8867397" lon="49.1908386"><time>2023-06-03T07:49:40</time></trkpt><trkpt lat="55.8867756" lon="49.1909169"><time>2023-06-03T07:49:42.997</time></trkpt><trkpt lat="55.8867955" lon="49.1910011"><time>2023-06-03T07:49:46</time></trkpt><trkpt lat="55.8867908" lon="49.1910863"><time>2023-06-03T07:49:48.997</time></trkpt><trkpt lat="55.8867555" lon="49.1911483"><time>2023-06-03T07:52:04.023</time></trkpt><trkpt lat="55.8867135" lon="49.1912266"><time>2023-06-03T07:52:07.020</time></trkpt><trkpt lat="55.8866718" lon="49.1912858"><time>2023-06-03T07:52:09.010</time></trkpt><trkpt lat="55.8866431" lon="49.1913682"><time>2023-06-03T07:52:11.997</time></trkpt><trkpt lat="55.8866144" lon="49.1914314"><time>2023-06-03T07:52:14.997</time></trkpt><trkpt lat="55.8865820" lon="49.1915009"><time>2023-06-03T07:52:17.997</time></trkpt><trkpt lat="55.8865598" lon="49.1915812"><time>2023-06-03T07:52:23.013</time></trkpt><trkpt lat="55.8865275" lon="49.1916375"><time>2023-06-03T07:52:26.013</time></trkpt><trkpt lat="55.8865019" lon="49.1917033"><time>2023-06-03T07:52:29.007</time></trkpt><trkpt lat="55.8864874" lon="49.1917983"><time>2023-06-03T07:52:34.003</time></trkpt><trkpt lat="55.8864843" lon="49.1918796"><time>2023-06-03T07:52:38.013</time></trkpt><trkpt lat="55.8864387" lon="49.1919351"><time>2023-06-03T07:52:43.013</time></trkpt><trkpt lat="55.8863799" lon="49.1920005"><time>2023-06-03T07:52:47.010</time></trkpt><trkpt lat="55.8863060" lon="49.1920828"><time>2023-06-03T07:52:49.023</time></trkpt><trkpt lat="55.8862614" lon="49.1921674"><time>2023-06-03T07:52:51.017</time></trkpt><trkpt lat="55.8862153" lon="49.1922473"><time>2023-06-03T07:52:52.997</time></trkpt><trkpt lat="55.8861683" lon="49.1923273"><time>2023-06-03T07:52:55.017</time></trkpt><trkpt lat="55.8861125" lon="49.1924065"><time>2023-06-03T07:52:57.007</time></trkpt><trkpt lat="55.8860580" lon="49.1924943"><time>2023-06-03T07:52:59.033</time></trkpt><trkpt lat="55.8859990" lon="49.1925759"><time>2023-06-03T07:53:00.997</time></trkpt><trkpt lat="55.8859413" lon="49.1926609"><time>2023-06-03T07:53:02.997</time></trkpt><trkpt lat="55.8858797" lon="49.1927349"><time>2023-06-03T07:53:05.013</time></trkpt><trkpt lat="55.8858233" lon="49.1928241"><time>2023-06-03T07:53:07.007</time></trkpt><trkpt lat="55.8857707" lon="49.1929000"><time>2023-06-03T07:53:09.017</time></trkpt><trkpt lat="55.8857165" lon="49.1929935"><time>2023-06-03T07:53:11.040</time></trkpt><trkpt lat="55.8856514" lon="49.1931012"><time>2023-06-03T07:53:13</time></trkpt><trkpt lat="55.8855808" lon="49.1931822"><time>2023-06-03T07:53:15.017</time></trkpt><trkpt lat="55.8855174" lon="49.1932715"><time>2023-06-03T07:53:17.007</time></trkpt><trkpt lat="55.8854558" lon="49.1933623"><time>2023-06-03T07:53:19.020</time></trkpt><trkpt lat="55.8853973" lon="49.1934563"><time>2023-06-03T07:53:21.017</time></trkpt><trkpt lat="55.8853459" lon="49.1935572"><time>2023-06-03T07:53:23.007</time></trkpt><trkpt lat="55.8852967" lon="49.1936551"><time>2023-06-03T07:53:25.047</time></trkpt><trkpt lat="55.8852492" lon="49.1937348"><time>2023-06-03T07:53:27.007</time></trkpt><trkpt lat="55.8852057" lon="49.1938221"><time>2023-06-03T07:53:29.033</time></trkpt><trkpt lat="55.8851673" lon="49.1939242"><time>2023-06-03T07:53:31.037</time></trkpt><trkpt lat="55.8851314" lon="49.1940118"><time>2023-06-03T07:53:33.003</time></trkpt><trkpt lat="55.8850993" lon="49.1940690"><time>2023-06-03T07:53:35.017</time></trkpt><trkpt lat="55.8850422" lon="49.1940654"><time>2023-06-03T07:53:38.010</time></trkpt><trkpt lat="55.8849986" lon="49.1940334"><time>2023-06-03T07:53:40.017</time></trkpt><trkpt lat="55.8849482" lon="49.1939883"><time>2023-06-03T07:53:41.997</time></trkpt><trkpt lat="55.8848889" lon="49.1939363"><time>2023-06-03T07:53:44.023</time></trkpt><trkpt lat="55.8848181" lon="49.1938861"><time>2023-06-03T07:53:46.010</time></trkpt><trkpt lat="55.8847364" lon="49.1938452"><time>2023-06-03T07:53:48.010</time></trkpt><trkpt lat="55.8846559" lon="49.1938102"><time>2023-06-03T07:53:50.023</time></trkpt><trkpt lat="55.8845820" lon="49.1937733"><time>2023-06-03T07:53:52.017</time></trkpt><trkpt lat="55.8845169" lon="49.1937391"><time>2023-06-03T07:53:54.010</time></trkpt><trkpt lat="55.8844431" lon="49.1937215"><time>2023-06-03T07:53:56.020</time></trkpt><trkpt lat="55.8843711" lon="49.1937069"><time>2023-06-03T07:53:58.010</time></trkpt><trkpt lat="55.8842904" lon="49.1936846"><time>2023-06-03T07:54:00.037</time></trkpt><trkpt lat="55.8842139" lon="49.1936704"><time>2023-06-03T07:54:02.017</time></trkpt><trkpt lat="55.8841396" lon="49.1936695"><time>2023-06-03T07:54:04.013</time></trkpt><trkpt lat="55.8840681" lon="49.1936671"><time>2023-06-03T07:54:06.043</time></trkpt><trkpt lat="55.8839949" lon="49.1936657"><time>2023-06-03T07:54:07.997</time></trkpt><trkpt lat="55.8839122" lon="49.1936578"><time>2023-06-03T07:54:10.007</time></trkpt><trkpt lat="55.8838671" lon="49.1936601"><time>2023-06-03T07:54:10.997</time></trkpt><trkpt lat="55.8838221" lon="49.1936652"><time>2023-06-03T07:54:11.993</time></trkpt><trkpt lat="55.8837733" lon="49.1936637"><time>2023-06-03T07:54:13.007</time></trkpt><trkpt lat="55.8837248" lon="49.1936553"><time>2023-06-03T07:54:14.033</time></trkpt><trkpt lat="55.8836794" lon="49.1936455"><time>2023-06-03T07:54:15.020</time></trkpt><trkpt lat="55.8836318" lon="49.1936493"><time>2023-06-03T07:54:16.033</time></trkpt><trkpt lat="55.8835822" lon="49.1936473"><time>2023-06-03T07:54:17.007</time></trkpt><trkpt lat="55.8835306" lon="49.1936401"><time>2023-06-03T07:54:18.010</time></trkpt><trkpt lat="55.8834804" lon="49.1936366"><time>2023-06-03T07:54:19.007</time></trkpt><trkpt lat="55.8834277" lon="49.1936290"><time>2023-06-03T07:54:20.017</time></trkpt><trkpt lat="55.8833764" lon="49.1936290"><time>2023-06-03T07:54:21.040</time></trkpt><trkpt lat="55.8833228" lon="49.1936238"><time>2023-06-03T07:54:22.007</time></trkpt><trkpt lat="55.8832714" lon="49.1936168"><time>2023-06-03T07:54:23.007</time></trkpt><trkpt lat="55.8832183" lon="49.1936186"><time>2023-06-03T07:54:24.047</time></trkpt><trkpt lat="55.8831645" lon="49.1936137"><time>2023-06-03T07:54:25.010</time></trkpt><trkpt lat="55.8831118" lon="49.1936030"><time>2023-06-03T07:54:26.050</time></trkpt><trkpt lat="55.8830539" lon="49.1935976"><time>2023-06-03T07:54:27.013</time></trkpt><trkpt lat="55.8829972" lon="49.1935889"><time>2023-06-03T07:54:28.007</time></trkpt><trkpt lat="55.8829381" lon="49.1935804"><time>2023-06-03T07:54:29.023</time></trkpt><trkpt lat="55.8828772" lon="49.1935709"><time>2023-06-03T07:54:30.040</time></trkpt><trkpt lat="55.8828162" lon="49.1935578"><time>2023-06-03T07:54:31.013</time></trkpt><trkpt lat="55.8827563" lon="49.1935483"><time>2023-06-03T07:54:32.003</time></trkpt><trkpt lat="55.8826995" lon="49.1935394"><time>2023-06-03T07:54:32.993</time></trkpt><trkpt lat="55.8826470" lon="49.1935232"><time>2023-06-03T07:54:34.043</time></trkpt><trkpt lat="55.8826002" lon="49.1935143"><time>2023-06-03T07:54:35.017</time></trkpt><trkpt lat="55.8825240" lon="49.1934905"><time>2023-06-03T07:54:37.007</time></trkpt><trkpt lat="55.8824810" lon="49.1934625"><time>2023-06-03T07:54:42.007</time></trkpt><trkpt lat="55.8825170" lon="49.1935341"><time>2023-06-03T07:56:22.010</time></trkpt><trkpt lat="55.8825623" lon="49.1935953"><time>2023-06-03T07:56:25.037</time></trkpt><trkpt lat="55.8825716" lon="49.1936965"><time>2023-06-03T07:56:27.013</time></trkpt><trkpt lat="55.8825643" lon="49.1938282"><time>2023-06-03T07:56:29.017</time></trkpt><trkpt lat="55.8825563" lon="49.1939792"><time>2023-06-03T07:56:31.050</time></trkpt><trkpt lat="55.8825421" lon="49.1940626"><time>2023-06-03T07:56:32.013</time></trkpt><trkpt lat="55.8825365" lon="49.1941440"><time>2023-06-03T07:56:33.007</time></trkpt><trkpt lat="55.8825312" lon="49.1942248"><time>2023-06-03T07:56:34.057</time></trkpt><trkpt lat="55.8825254" lon="49.1943108"><time>2023-06-03T07:56:35.017</time></trkpt><trkpt lat="55.8825153" lon="49.1943965"><time>2023-06-03T07:56:36.020</time></trkpt><trkpt lat="55.8825071" lon="49.1944783"><time>2023-06-03T07:56:37.013</time></trkpt><trkpt lat="55.8824853" lon="49.1946327"><time>2023-06-03T07:56:39.017</time></trkpt><trkpt lat="55.8824705" lon="49.1947101"><time>2023-06-03T07:56:40.020</time></trkpt><trkpt lat="55.8824576" lon="49.1947927"><time>2023-06-03T07:56:41.017</time></trkpt><trkpt lat="55.8824493" lon="49.1948752"><time>2023-06-03T07:56:42.013</time></trkpt><trkpt lat="55.8824364" lon="49.1950325"><time>2023-06-03T07:56:44.010</time></trkpt><trkpt lat="55.8824282" lon="49.1951138"><time>2023-06-03T07:56:45.027</time></trkpt><trkpt lat="55.8824150" lon="49.1952599"><time>2023-06-03T07:56:47</time></trkpt><trkpt lat="55.8824122" lon="49.1953425"><time>2023-06-03T07:56:48.007</time></trkpt><trkpt lat="55.8824104" lon="49.1954873"><time>2023-06-03T07:56:50</time></trkpt><trkpt lat="55.8824158" lon="49.1956328"><time>2023-06-03T07:56:52</time></trkpt><trkpt lat="55.8824257" lon="49.1957641"><time>2023-06-03T07:56:54.020</time></trkpt><trkpt lat="55.8824325" lon="49.1958844"><time>2023-06-03T07:56:56.020</time></trkpt><trkpt lat="55.8824274" lon="49.1960203"><time>2023-06-03T07:56:58.007</time></trkpt><trkpt lat="55.8823946" lon="49.1961637"><time>2023-06-03T07:57:00.010</time></trkpt><trkpt lat="55.8823608" lon="49.1963087"><time>2023-06-03T07:57:02.003</time></trkpt><trkpt lat="55.8823344" lon="49.1964473"><time>2023-06-03T07:57:04.007</time></trkpt><trkpt lat="55.8823045" lon="49.1965719"><time>2023-06-03T07:57:06.047</time></trkpt><trkpt lat="55.8822779" lon="49.1966888"><time>2023-06-03T07:57:08.007</time></trkpt><trkpt lat="55.8822502" lon="49.1968026"><time>2023-06-03T07:57:10.053</time></trkpt><trkpt lat="55.8822245" lon="49.1969279"><time>2023-06-03T07:57:12.007</time></trkpt><trkpt lat="55.8821990" lon="49.1970546"><time>2023-06-03T07:57:14.010</time></trkpt><trkpt lat="55.8821672" lon="49.1971733"><time>2023-06-03T07:57:16.013</time></trkpt><trkpt lat="55.8821371" lon="49.1972998"><time>2023-06-03T07:57:18</time></trkpt><trkpt lat="55.8821041" lon="49.1974286"><time>2023-06-03T07:57:19.997</time></trkpt><trkpt lat="55.8820674" lon="49.1975549"><time>2023-06-03T07:57:21.997</time></trkpt><trkpt lat="55.8820256" lon="49.1976672"><time>2023-06-03T07:57:24.050</time></trkpt><trkpt lat="55.8820083" lon="49.1977121"><time>2023-06-03T07:57:25.170</time></trkpt><trkpt lat="55.8819693" lon="49.1977693"><time>2023-06-03T07:57:26.037</time></trkpt><trkpt lat="55.8819110" lon="49.1978575"><time>2023-06-03T07:57:28</time></trkpt><trkpt lat="55.8818691" lon="49.1979385"><time>2023-06-03T07:57:30.023</time></trkpt><trkpt lat="55.8818376" lon="49.1979956"><time>2023-06-03T07:57:32.013</time></trkpt><trkpt lat="55.8817837" lon="49.1980854"><time>2023-06-03T07:57:35.043</time></trkpt><trkpt lat="55.8817385" lon="49.1981688"><time>2023-06-03T07:57:37</time></trkpt><trkpt lat="55.8816952" lon="49.1982528"><time>2023-06-03T07:57:39.027</time></trkpt><trkpt lat="55.8816532" lon="49.1983357"><time>2023-06-03T07:57:41.043</time></trkpt><trkpt lat="55.8816082" lon="49.1984169"><time>2023-06-03T07:57:43.007</time></trkpt><trkpt lat="55.8815629" lon="49.1985002"><time>2023-06-03T07:57:45.043</time></trkpt><trkpt lat="55.8815203" lon="49.1985860"><time>2023-06-03T07:57:47.003</time></trkpt><trkpt lat="55.8814727" lon="49.1986679"><time>2023-06-03T07:57:49.053</time></trkpt><trkpt lat="55.8814263" lon="49.1987563"><time>2023-06-03T07:57:51.047</time></trkpt><trkpt lat="55.8813793" lon="49.1988441"><time>2023-06-03T07:57:53</time></trkpt><trkpt lat="55.8813326" lon="49.1989346"><time>2023-06-03T07:57:55.027</time></trkpt><trkpt lat="55.8812827" lon="49.1990242"><time>2023-06-03T07:57:57.003</time></trkpt><trkpt lat="55.8812323" lon="49.1991040"><time>2023-06-03T07:57:59.027</time></trkpt><trkpt lat="55.8811764" lon="49.1991734"><time>2023-06-03T07:58:01.040</time></trkpt><trkpt lat="55.8811232" lon="49.1992406"><time>2023-06-03T07:58:03.003</time></trkpt><trkpt lat="55.8810754" lon="49.1992934"><time>2023-06-03T07:58:05.033</time></trkpt><trkpt lat="55.8810276" lon="49.1993447"><time>2023-06-03T07:58:07.013</time></trkpt><trkpt lat="55.8809851" lon="49.1993854"><time>2023-06-03T07:58:09.017</time></trkpt><trkpt lat="55.8809371" lon="49.1994392"><time>2023-06-03T07:58:11.987</time></trkpt><trkpt lat="55.8809737" lon="49.1994868"><time>2023-06-03T07:59:02.007</time></trkpt><trkpt lat="55.8810193" lon="49.1994350"><time>2023-06-03T07:59:04.030</time></trkpt><trkpt lat="55.8810582" lon="49.1993888"><time>2023-06-03T07:59:06.027</time></trkpt><trkpt lat="55.8811079" lon="49.1993933"><time>2023-06-03T07:59:14.053</time></trkpt><trkpt lat="55.8810915" lon="49.1994939"><time>2023-06-03T07:59:17.007</time></trkpt><trkpt lat="55.8810659" lon="49.1995856"><time>2023-06-03T07:59:19.043</time></trkpt><trkpt lat="55.8810557" lon="49.1996730"><time>2023-06-03T07:59:21.023</time></trkpt><trkpt lat="55.8810515" lon="49.1997748"><time>2023-06-03T07:59:24.017</time></trkpt><trkpt lat="55.8810479" lon="49.1998818"><time>2023-06-03T07:59:28.043</time></trkpt><trkpt lat="55.8810482" lon="49.1998925"><time>2023-06-03T07:59:29.180</time></trkpt><trkpt lat="55.8810322" lon="49.1999801"><time>2023-06-03T07:59:33</time></trkpt><trkpt lat="55.8810338" lon="49.2000626"><time>2023-06-03T07:59:40.023</time></trkpt><trkpt lat="55.8810109" lon="49.2001491"><time>2023-06-03T07:59:46.993</time></trkpt><trkpt lat="55.8810119" lon="49.2002382"><time>2023-06-03T07:59:53.010</time></trkpt><trkpt lat="55.8810125" lon="49.2003235"><time>2023-06-03T07:59:57.003</time></trkpt><trkpt lat="55.8810037" lon="49.2004210"><time>2023-06-03T08:00:03.007</time></trkpt><trkpt lat="55.8810481" lon="49.2004784"><time>2023-06-03T08:00:17.003</time></trkpt><trkpt lat="55.8810948" lon="49.2005165"><time>2023-06-03T08:00:22.010</time></trkpt><trkpt lat="55.8811230" lon="49.2005795"><time>2023-06-03T08:00:28.007</time></trkpt><trkpt lat="55.8811738" lon="49.2005919"><time>2023-06-03T08:00:31.020</time></trkpt><trkpt lat="55.8812180" lon="49.2005556"><time>2023-06-03T08:00:40.013</time></trkpt><trkpt lat="55.8812666" lon="49.2006018"><time>2023-06-03T08:00:44.013</time></trkpt><trkpt lat="55.8813206" lon="49.2006242"><time>2023-06-03T08:00:48.030</time></trkpt><trkpt lat="55.8813464" lon="49.2006509"><time>2023-06-03T08:00:49.130</time></trkpt><trkpt lat="55.8813977" lon="49.2007017"><time>2023-06-03T08:00:54.027</time></trkpt><trkpt lat="55.8814449" lon="49.2007415"><time>2023-06-03T08:00:58.013</time></trkpt><trkpt lat="55.8814931" lon="49.2007612"><time>2023-06-03T08:01:03.020</time></trkpt><trkpt lat="55.8815522" lon="49.2007812"><time>2023-06-03T08:01:08.007</time></trkpt><trkpt lat="55.8816014" lon="49.2007957"><time>2023-06-03T08:01:12.017</time></trkpt><trkpt lat="55.8816014" lon="49.2007957"><time>2023-06-03T08:01:12.090</time></trkpt><trkpt lat="55.8816501" lon="49.2008083"><time>2023-06-03T08:01:16.043</time></trkpt><trkpt lat="55.8816329" lon="49.2008042"><time>2023-06-03T08:01:17.147</time></trkpt><trkpt lat="55.8816812" lon="49.2008060"><time>2023-06-03T08:01:25.977</time></trkpt><trkpt lat="55.8816727" lon="49.2007274"><time>2023-06-03T08:01:41.980</time></trkpt><trkpt lat="55.8816336" lon="49.2006801"><time>2023-06-03T08:01:45.983</time></trkpt><trkpt lat="55.8815850" lon="49.2006436"><time>2023-06-03T08:01:52.980</time></trkpt><trkpt lat="55.8815376" lon="49.2006037"><time>2023-06-03T08:01:58.983</time></trkpt><trkpt lat="55.8814834" lon="49.2005633"><time>2023-06-03T08:02:02.987</time></trkpt><trkpt lat="55.8814386" lon="49.2005360"><time>2023-06-03T08:02:05.983</time></trkpt><trkpt lat="55.8813942" lon="49.2005092"><time>2023-06-03T08:02:08.983</time></trkpt><trkpt lat="55.8813492" lon="49.2004870"><time>2023-06-03T08:02:12.987</time></trkpt><trkpt lat="55.8812999" lon="49.2004448"><time>2023-06-03T08:02:16.980</time></trkpt><trkpt lat="55.8812527" lon="49.2004202"><time>2023-06-03T08:02:19.993</time></trkpt><trkpt lat="55.8812058" lon="49.2003759"><time>2023-06-03T08:02:24.003</time></trkpt><trkpt lat="55.8811527" lon="49.2003636"><time>2023-06-03T08:02:27.003</time></trkpt><trkpt lat="55.8811080" lon="49.2004157"><time>2023-06-03T08:02:30.003</time></trkpt><trkpt lat="55.8810979" lon="49.2005002"><time>2023-06-03T08:02:34.993</time></trkpt><trkpt lat="55.8810549" lon="49.2005411"><time>2023-06-03T08:04:01.997</time></trkpt><trkpt lat="55.8810673" lon="49.2004633"><time>2023-06-03T08:04:13.997</time></trkpt><trkpt lat="55.8810877" lon="49.2003863"><time>2023-06-03T08:04:17.993</time></trkpt><trkpt lat="55.8811024" lon="49.2003016"><time>2023-06-03T08:04:21.997</time></trkpt><trkpt lat="55.8811154" lon="49.2002245"><time>2023-06-03T08:04:26.993</time></trkpt><trkpt lat="55.8811148" lon="49.2001381"><time>2023-06-03T08:04:30.997</time></trkpt><trkpt lat="55.8811095" lon="49.2000586"><time>2023-06-03T08:04:33.997</time></trkpt><trkpt lat="55.8811097" lon="49.1999756"><time>2023-06-03T08:04:37.007</time></trkpt><trkpt lat="55.8811197" lon="49.1998662"><time>2023-06-03T08:04:41</time></trkpt><trkpt lat="55.8811199" lon="49.1997745"><time>2023-06-03T08:04:45</time></trkpt><trkpt lat="55.8811034" lon="49.1996901"><time>2023-06-03T08:04:48.990</time></trkpt><trkpt lat="55.8810710" lon="49.1996245"><time>2023-06-03T08:04:53</time></trkpt><trkpt lat="55.8810548" lon="49.1995324"><time>2023-06-03T08:05:02</time></trkpt><trkpt lat="55.8810389" lon="49.1994489"><time>2023-06-03T08:05:05.997</time></trkpt><trkpt lat="55.8810250" lon="49.1993626"><time>2023-06-03T08:05:11</time></trkpt><trkpt lat="55.8810451" lon="49.1994446"><time>2023-06-03T08:06:10.007</time></trkpt><trkpt lat="55.8810827" lon="49.1993905"><time>2023-06-03T08:06:14</time></trkpt><trkpt lat="55.8811274" lon="49.1993330"><time>2023-06-03T08:06:20.997</time></trkpt><trkpt lat="55.8811764" lon="49.1992850"><time>2023-06-03T08:06:22.990</time></trkpt><trkpt lat="55.8812437" lon="49.1992185"><time>2023-06-03T08:06:26</time></trkpt><trkpt lat="55.8813031" lon="49.1991381"><time>2023-06-03T08:06:27.993</time></trkpt><trkpt lat="55.8813584" lon="49.1990468"><time>2023-06-03T08:06:29.993</time></trkpt><trkpt lat="55.8814127" lon="49.1989518"><time>2023-06-03T08:06:32</time></trkpt><trkpt lat="55.8814709" lon="49.1988521"><time>2023-06-03T08:06:33.997</time></trkpt><trkpt lat="55.8815320" lon="49.1987455"><time>2023-06-03T08:06:35.993</time></trkpt><trkpt lat="55.8815901" lon="49.1986262"><time>2023-06-03T08:06:38.003</time></trkpt><trkpt lat="55.8816132" lon="49.1985574"><time>2023-06-03T08:06:38.997</time></trkpt><trkpt lat="55.8816691" lon="49.1984385"><time>2023-06-03T08:06:41</time></trkpt><trkpt lat="55.8817232" lon="49.1983356"><time>2023-06-03T08:06:43.007</time></trkpt><trkpt lat="55.8817566" lon="49.1982736"><time>2023-06-03T08:06:44.997</time></trkpt><trkpt lat="55.8817970" lon="49.1981922"><time>2023-06-03T08:06:48.003</time></trkpt><trkpt lat="55.8818043" lon="49.1981072"><time>2023-06-03T08:06:49.997</time></trkpt><trkpt lat="55.8817652" lon="49.1980454"><time>2023-06-03T08:06:52</time></trkpt><trkpt lat="55.8816904" lon="49.1980165"><time>2023-06-03T08:06:53.993</time></trkpt><trkpt lat="55.8816069" lon="49.1979751"><time>2023-06-03T08:06:55.997</time></trkpt><trkpt lat="55.8815225" lon="49.1979269"><time>2023-06-03T08:06:58</time></trkpt><trkpt lat="55.8814790" lon="49.1979006"><time>2023-06-03T08:06:59</time></trkpt><trkpt lat="55.8814300" lon="49.1978730"><time>2023-06-03T08:06:59.993</time></trkpt><trkpt lat="55.8813837" lon="49.1978563"><time>2023-06-03T08:07:01</time></trkpt><trkpt lat="55.8813361" lon="49.1978388"><time>2023-06-03T08:07:01.997</time></trkpt><trkpt lat="55.8812462" lon="49.1978020"><time>2023-06-03T08:07:03.997</time></trkpt><trkpt lat="55.8811963" lon="49.1977840"><time>2023-06-03T08:07:04.993</time></trkpt><trkpt lat="55.8811464" lon="49.1977648"><time>2023-06-03T08:07:06.013</time></trkpt><trkpt lat="55.8810963" lon="49.1977466"><time>2023-06-03T08:07:07</time></trkpt><trkpt lat="55.8810459" lon="49.1977249"><time>2023-06-03T08:07:08.003</time></trkpt><trkpt lat="55.8809948" lon="49.1977020"><time>2023-06-03T08:07:08.997</time></trkpt><trkpt lat="55.8809428" lon="49.1976900"><time>2023-06-03T08:07:10.003</time></trkpt><trkpt lat="55.8808851" lon="49.1976684"><time>2023-06-03T08:07:10.993</time></trkpt><trkpt lat="55.8808358" lon="49.1976515"><time>2023-06-03T08:07:11.997</time></trkpt><trkpt lat="55.8807816" lon="49.1976363"><time>2023-06-03T08:07:13.003</time></trkpt><trkpt lat="55.8807277" lon="49.1976181"><time>2023-06-03T08:07:13.997</time></trkpt><trkpt lat="55.8806737" lon="49.1976028"><time>2023-06-03T08:07:14.990</time></trkpt><trkpt lat="55.8806223" lon="49.1975908"><time>2023-06-03T08:07:15.990</time></trkpt><trkpt lat="55.8805677" lon="49.1975682"><time>2023-06-03T08:07:16.997</time></trkpt><trkpt lat="55.8805147" lon="49.1975451"><time>2023-06-03T08:07:17.997</time></trkpt><trkpt lat="55.8804605" lon="49.1975318"><time>2023-06-03T08:07:19.030</time></trkpt><trkpt lat="55.8804052" lon="49.1975193"><time>2023-06-03T08:07:20.020</time></trkpt><trkpt lat="55.8803489" lon="49.1975034"><time>2023-06-03T08:07:21.007</time></trkpt><trkpt lat="55.8802908" lon="49.1974823"><time>2023-06-03T08:07:22</time></trkpt><trkpt lat="55.8802378" lon="49.1974679"><time>2023-06-03T08:07:23.007</time></trkpt><trkpt lat="55.8801877" lon="49.1974471"><time>2023-06-03T08:07:24.020</time></trkpt><trkpt lat="55.8801392" lon="49.1974223"><time>2023-06-03T08:07:25.013</time></trkpt><trkpt lat="55.8800945" lon="49.1973956"><time>2023-06-03T08:07:26.017</time></trkpt><trkpt lat="55.8800500" lon="49.1973735"><time>2023-06-03T08:07:27.003</time></trkpt><trkpt lat="55.8800062" lon="49.1973452"><time>2023-06-03T08:07:28.003</time></trkpt><trkpt lat="55.8799599" lon="49.1973101"><time>2023-06-03T08:07:29.013</time></trkpt><trkpt lat="55.8799135" lon="49.1972722"><time>2023-06-03T08:07:30.020</time></trkpt><trkpt lat="55.8798648" lon="49.1972290"><time>2023-06-03T08:07:31.010</time></trkpt><trkpt lat="55.8798209" lon="49.1971763"><time>2023-06-03T08:07:32.003</time></trkpt><trkpt lat="55.8797836" lon="49.1971113"><time>2023-06-03T08:07:33.007</time></trkpt><trkpt lat="55.8797456" lon="49.1970520"><time>2023-06-03T08:07:34.043</time></trkpt><trkpt lat="55.8797038" lon="49.1969882"><time>2023-06-03T08:07:35.043</time></trkpt><trkpt lat="55.8796651" lon="49.1969208"><time>2023-06-03T08:07:36.017</time></trkpt><trkpt lat="55.8796235" lon="49.1968569"><time>2023-06-03T08:07:37.007</time></trkpt><trkpt lat="55.8795807" lon="49.1967888"><time>2023-06-03T08:07:38.007</time></trkpt><trkpt lat="55.8795403" lon="49.1967172"><time>2023-06-03T08:07:39.047</time></trkpt><trkpt lat="55.8794977" lon="49.1966467"><time>2023-06-03T08:07:40.027</time></trkpt><trkpt lat="55.8794557" lon="49.1965812"><time>2023-06-03T08:07:41.013</time></trkpt><trkpt lat="55.8794137" lon="49.1965124"><time>2023-06-03T08:07:42</time></trkpt><trkpt lat="55.8793705" lon="49.1964452"><time>2023-06-03T08:07:43.003</time></trkpt><trkpt lat="55.8793237" lon="49.1963720"><time>2023-06-03T08:07:44.007</time></trkpt><trkpt lat="55.8792731" lon="49.1962987"><time>2023-06-03T08:07:45.010</time></trkpt><trkpt lat="55.8792261" lon="49.1962285"><time>2023-06-03T08:07:46.033</time></trkpt><trkpt lat="55.8791818" lon="49.1961602"><time>2023-06-03T08:07:47</time></trkpt><trkpt lat="55.8791278" lon="49.1960950"><time>2023-06-03T08:07:48</time></trkpt><trkpt lat="55.8790803" lon="49.1960217"><time>2023-06-03T08:07:49.017</time></trkpt><trkpt lat="55.8790323" lon="49.1959623"><time>2023-06-03T08:07:50.007</time></trkpt><trkpt lat="55.8789837" lon="49.1959023"><time>2023-06-03T08:07:51.003</time></trkpt><trkpt lat="55.8789269" lon="49.1958464"><time>2023-06-03T08:07:52.013</time></trkpt><trkpt lat="55.8788768" lon="49.1957851"><time>2023-06-03T08:07:53.007</time></trkpt><trkpt lat="55.8788275" lon="49.1957237"><time>2023-06-03T08:07:54.007</time></trkpt><trkpt lat="55.8787755" lon="49.1956630"><time>2023-06-03T08:07:55.040</time></trkpt><trkpt lat="55.8787271" lon="49.1956008"><time>2023-06-03T08:07:56.040</time></trkpt><trkpt lat="55.8786728" lon="49.1955495"><time>2023-06-03T08:07:57</time></trkpt><trkpt lat="55.8786277" lon="49.1954941"><time>2023-06-03T08:07:58.007</time></trkpt><trkpt lat="55.8785822" lon="49.1954360"><time>2023-06-03T08:07:59.010</time></trkpt><trkpt lat="55.8785405" lon="49.1953785"><time>2023-06-03T08:08:00.013</time></trkpt><trkpt lat="55.8784974" lon="49.1953201"><time>2023-06-03T08:08:01.017</time></trkpt><trkpt lat="55.8784569" lon="49.1952523"><time>2023-06-03T08:08:02.010</time></trkpt><trkpt lat="55.8784148" lon="49.1951786"><time>2023-06-03T08:08:02.993</time></trkpt><trkpt lat="55.8783699" lon="49.1951077"><time>2023-06-03T08:08:04.033</time></trkpt><trkpt lat="55.8783244" lon="49.1950387"><time>2023-06-03T08:08:05.020</time></trkpt><trkpt lat="55.8782819" lon="49.1949685"><time>2023-06-03T08:08:06.017</time></trkpt><trkpt lat="55.8782429" lon="49.1949015"><time>2023-06-03T08:08:07.007</time></trkpt><trkpt lat="55.8782031" lon="49.1948364"><time>2023-06-03T08:08:08.003</time></trkpt><trkpt lat="55.8781638" lon="49.1947794"><time>2023-06-03T08:08:09.007</time></trkpt><trkpt lat="55.8781207" lon="49.1947137"><time>2023-06-03T08:08:10.010</time></trkpt><trkpt lat="55.8780795" lon="49.1946503"><time>2023-06-03T08:08:10.980</time></trkpt><trkpt lat="55.8780408" lon="49.1945842"><time>2023-06-03T08:08:11.990</time></trkpt><trkpt lat="55.8780026" lon="49.1945271"><time>2023-06-03T08:08:13.007</time></trkpt><trkpt lat="55.8779479" lon="49.1944643"><time>2023-06-03T08:08:14.043</time></trkpt><trkpt lat="55.8779062" lon="49.1944100"><time>2023-06-03T08:08:15.013</time></trkpt><trkpt lat="55.8778664" lon="49.1943504"><time>2023-06-03T08:08:16.017</time></trkpt><trkpt lat="55.8778309" lon="49.1942923"><time>2023-06-03T08:08:17.010</time></trkpt><trkpt lat="55.8777904" lon="49.1942494"><time>2023-06-03T08:08:18.007</time></trkpt><trkpt lat="55.8777262" lon="49.1941660"><time>2023-06-03T08:08:20.013</time></trkpt><trkpt lat="55.8776876" lon="49.1941216"><time>2023-06-03T08:08:21.017</time></trkpt><trkpt lat="55.8776156" lon="49.1940359"><time>2023-06-03T08:08:23.007</time></trkpt><trkpt lat="55.8775490" lon="49.1939717"><time>2023-06-03T08:08:25.017</time></trkpt><trkpt lat="55.8775060" lon="49.1939466"><time>2023-06-03T08:08:26.037</time></trkpt><trkpt lat="55.8774638" lon="49.1939191"><time>2023-06-03T08:08:27.013</time></trkpt><trkpt lat="55.8774236" lon="49.1938780"><time>2023-06-03T08:08:27.997</time></trkpt><trkpt lat="55.8773470" lon="49.1937966"><time>2023-06-03T08:08:30.027</time></trkpt><trkpt lat="55.8772998" lon="49.1937534"><time>2023-06-03T08:08:31.043</time></trkpt><trkpt lat="55.8772557" lon="49.1937138"><time>2023-06-03T08:08:32.007</time></trkpt><trkpt lat="55.8772043" lon="49.1936790"><time>2023-06-03T08:08:33.007</time></trkpt><trkpt lat="55.8771540" lon="49.1936330"><time>2023-06-03T08:08:34.017</time></trkpt><trkpt lat="55.8771082" lon="49.1935932"><time>2023-06-03T08:08:35.040</time></trkpt><trkpt lat="55.8770591" lon="49.1935532"><time>2023-06-03T08:08:36.020</time></trkpt><trkpt lat="55.8770083" lon="49.1935187"><time>2023-06-03T08:08:37.003</time></trkpt><trkpt lat="55.8769597" lon="49.1934859"><time>2023-06-03T08:08:38</time></trkpt><trkpt lat="55.8769068" lon="49.1934575"><time>2023-06-03T08:08:39.017</time></trkpt><trkpt lat="55.8768562" lon="49.1934343"><time>2023-06-03T08:08:40.017</time></trkpt><trkpt lat="55.8768076" lon="49.1934025"><time>2023-06-03T08:08:41.027</time></trkpt><trkpt lat="55.8767639" lon="49.1933787"><time>2023-06-03T08:08:42</time></trkpt><trkpt lat="55.8766790" lon="49.1933404"><time>2023-06-03T08:08:44.017</time></trkpt><trkpt lat="55.8766015" lon="49.1933323"><time>2023-06-03T08:08:46.010</time></trkpt><trkpt lat="55.8765567" lon="49.1933273"><time>2023-06-03T08:08:47</time></trkpt><trkpt lat="55.8764706" lon="49.1932994"><time>2023-06-03T08:08:49.003</time></trkpt><trkpt lat="55.8764261" lon="49.1932850"><time>2023-06-03T08:08:50.017</time></trkpt><trkpt lat="55.8763331" lon="49.1932551"><time>2023-06-03T08:08:52.003</time></trkpt><trkpt lat="55.8762861" lon="49.1932392"><time>2023-06-03T08:08:53.007</time></trkpt><trkpt lat="55.8761930" lon="49.1932055"><time>2023-06-03T08:08:55.023</time></trkpt><trkpt lat="55.8761433" lon="49.1931738"><time>2023-06-03T08:08:56.010</time></trkpt><trkpt lat="55.8760950" lon="49.1931422"><time>2023-06-03T08:08:56.997</time></trkpt><trkpt lat="55.8760497" lon="49.1931105"><time>2023-06-03T08:08:58.003</time></trkpt><trkpt lat="55.8760020" lon="49.1930823"><time>2023-06-03T08:08:59.030</time></trkpt><trkpt lat="55.8759546" lon="49.1930519"><time>2023-06-03T08:09:00.030</time></trkpt><trkpt lat="55.8758807" lon="49.1929784"><time>2023-06-03T08:09:02.007</time></trkpt><trkpt lat="55.8758028" lon="49.1929111"><time>2023-06-03T08:09:04.020</time></trkpt><trkpt lat="55.8757324" lon="49.1928213"><time>2023-06-03T08:09:06.043</time></trkpt><trkpt lat="55.8756931" lon="49.1927656"><time>2023-06-03T08:09:07.007</time></trkpt><trkpt lat="55.8756488" lon="49.1927111"><time>2023-06-03T08:09:08.007</time></trkpt><trkpt lat="55.8756047" lon="49.1926498"><time>2023-06-03T08:09:09.003</time></trkpt><trkpt lat="55.8755570" lon="49.1925852"><time>2023-06-03T08:09:10.020</time></trkpt><trkpt lat="55.8755175" lon="49.1925326"><time>2023-06-03T08:09:11.030</time></trkpt><trkpt lat="55.8754799" lon="49.1924771"><time>2023-06-03T08:09:12.007</time></trkpt><trkpt lat="55.8754403" lon="49.1924313"><time>2023-06-03T08:09:13.003</time></trkpt><trkpt lat="55.8753967" lon="49.1923751"><time>2023-06-03T08:09:14.013</time></trkpt><trkpt lat="55.8753509" lon="49.1923262"><time>2023-06-03T08:09:15.023</time></trkpt><trkpt lat="55.8753133" lon="49.1922781"><time>2023-06-03T08:09:16.027</time></trkpt><trkpt lat="55.8752442" lon="49.1922024"><time>2023-06-03T08:09:18.013</time></trkpt><trkpt lat="55.8752014" lon="49.1921719"><time>2023-06-03T08:09:19.007</time></trkpt><trkpt lat="55.8751364" lon="49.1921029"><time>2023-06-03T08:09:21.017</time></trkpt><trkpt lat="55.8750722" lon="49.1920401"><time>2023-06-03T08:09:23</time></trkpt><trkpt lat="55.8750160" lon="49.1919824"><time>2023-06-03T08:09:24.993</time></trkpt><trkpt lat="55.8749499" lon="49.1919300"><time>2023-06-03T08:09:26.980</time></trkpt><trkpt lat="55.8748782" lon="49.1918767"><time>2023-06-03T08:09:29.003</time></trkpt><trkpt lat="55.8748104" lon="49.1918321"><time>2023-06-03T08:09:31</time></trkpt><trkpt lat="55.8747496" lon="49.1917975"><time>2023-06-03T08:09:32.997</time></trkpt><trkpt lat="55.8746963" lon="49.1917592"><time>2023-06-03T08:09:34.987</time></trkpt><trkpt lat="55.8746283" lon="49.1917253"><time>2023-06-03T08:09:37.007</time></trkpt><trkpt lat="55.8745537" lon="49.1916836"><time>2023-06-03T08:09:39.047</time></trkpt><trkpt lat="55.8744812" lon="49.1916467"><time>2023-06-03T08:09:41.017</time></trkpt><trkpt lat="55.8744039" lon="49.1916163"><time>2023-06-03T08:09:43.007</time></trkpt><trkpt lat="55.8743151" lon="49.1915865"><time>2023-06-03T08:09:44.993</time></trkpt><trkpt lat="55.8742597" lon="49.1915732"><time>2023-06-03T08:09:46.007</time></trkpt><trkpt lat="55.8742100" lon="49.1915623"><time>2023-06-03T08:09:47.003</time></trkpt><trkpt lat="55.8741635" lon="49.1915491"><time>2023-06-03T08:09:48.017</time></trkpt><trkpt lat="55.8741182" lon="49.1915358"><time>2023-06-03T08:09:49.010</time></trkpt><trkpt lat="55.8740670" lon="49.1915243"><time>2023-06-03T08:09:49.990</time></trkpt><trkpt lat="55.8740165" lon="49.1915129"><time>2023-06-03T08:09:51.037</time></trkpt><trkpt lat="55.8739639" lon="49.1915024"><time>2023-06-03T08:09:52.003</time></trkpt><trkpt lat="55.8739145" lon="49.1914878"><time>2023-06-03T08:09:53</time></trkpt><trkpt lat="55.8738648" lon="49.1914819"><time>2023-06-03T08:09:54.007</time></trkpt><trkpt lat="55.8738046" lon="49.1914738"><time>2023-06-03T08:09:55.003</time></trkpt><trkpt lat="55.8737451" lon="49.1914658"><time>2023-06-03T08:09:56.007</time></trkpt><trkpt lat="55.8736935" lon="49.1914616"><time>2023-06-03T08:09:57.003</time></trkpt><trkpt lat="55.8736385" lon="49.1914671"><time>2023-06-03T08:09:58.003</time></trkpt><trkpt lat="55.8735810" lon="49.1914696"><time>2023-06-03T08:09:59.007</time></trkpt><trkpt lat="55.8735251" lon="49.1914734"><time>2023-06-03T08:10:00</time></trkpt><trkpt lat="55.8734691" lon="49.1914834"><time>2023-06-03T08:10:01.003</time></trkpt><trkpt lat="55.8734130" lon="49.1914985"><time>2023-06-03T08:10:01.997</time></trkpt><trkpt lat="55.8733588" lon="49.1915111"><time>2023-06-03T08:10:02.990</time></trkpt><trkpt lat="55.8733033" lon="49.1915261"><time>2023-06-03T08:10:04.003</time></trkpt><trkpt lat="55.8732462" lon="49.1915404"><time>2023-06-03T08:10:05.003</time></trkpt><trkpt lat="55.8731965" lon="49.1915420"><time>2023-06-03T08:10:05.997</time></trkpt><trkpt lat="55.8731447" lon="49.1915423"><time>2023-06-03T08:10:07.010</time></trkpt><trkpt lat="55.8730837" lon="49.1915376"><time>2023-06-03T08:10:08</time></trkpt><trkpt lat="55.8730345" lon="49.1915571"><time>2023-06-03T08:10:09</time></trkpt><trkpt lat="55.8729862" lon="49.1915601"><time>2023-06-03T08:10:10.007</time></trkpt><trkpt lat="55.8729364" lon="49.1915579"><time>2023-06-03T08:10:10.973</time></trkpt><trkpt lat="55.8728521" lon="49.1915411"><time>2023-06-03T08:10:13.007</time></trkpt><trkpt lat="55.8728072" lon="49.1915316"><time>2023-06-03T08:10:14.007</time></trkpt><trkpt lat="55.8727248" lon="49.1915105"><time>2023-06-03T08:10:16</time></trkpt><trkpt lat="55.8726671" lon="49.1914903"><time>2023-06-03T08:10:18</time></trkpt><trkpt lat="55.8726089" lon="49.1914696"><time>2023-06-03T08:10:19.997</time></trkpt><trkpt lat="55.8725608" lon="49.1914482"><time>2023-06-03T08:10:23.007</time></trkpt><trkpt lat="55.8725240" lon="49.1914024"><time>2023-06-03T08:11:00.013</time></trkpt><trkpt lat="55.8724837" lon="49.1913426"><time>2023-06-03T08:11:39.017</time></trkpt><trkpt lat="55.8724502" lon="49.1912546"><time>2023-06-03T08:11:42.010</time></trkpt><trkpt lat="55.8724235" lon="49.1911862"><time>2023-06-03T08:11:44.017</time></trkpt><trkpt lat="55.8724003" lon="49.1910884"><time>2023-06-03T08:11:47.017</time></trkpt><trkpt lat="55.8723610" lon="49.1910103"><time>2023-06-03T08:11:50.047</time></trkpt><trkpt lat="55.8723210" lon="49.1909441"><time>2023-06-03T08:11:52.003</time></trkpt><trkpt lat="55.8722654" lon="49.1908786"><time>2023-06-03T08:11:55.017</time></trkpt><trkpt lat="55.8722065" lon="49.1908321"><time>2023-06-03T08:11:58.003</time></trkpt><trkpt lat="55.8721509" lon="49.1908160"><time>2023-06-03T08:12:00.017</time></trkpt><trkpt lat="55.8720941" lon="49.1907956"><time>2023-06-03T08:12:02.003</time></trkpt><trkpt lat="55.8720499" lon="49.1907783"><time>2023-06-03T08:12:04.027</time></trkpt><trkpt lat="55.8719998" lon="49.1907318"><time>2023-06-03T08:12:07.003</time></trkpt><trkpt lat="55.8719517" lon="49.1906408"><time>2023-06-03T08:12:10.010</time></trkpt><trkpt lat="55.8719054" lon="49.1905241"><time>2023-06-03T08:12:11.993</time></trkpt><trkpt lat="55.8718854" lon="49.1904271"><time>2023-06-03T08:12:12.997</time></trkpt><trkpt lat="55.8718806" lon="49.1903318"><time>2023-06-03T08:12:13.993</time></trkpt><trkpt lat="55.8718727" lon="49.1902516"><time>2023-06-03T08:12:15.033</time></trkpt><trkpt lat="55.8718635" lon="49.1901620"><time>2023-06-03T08:12:16.013</time></trkpt><trkpt lat="55.8718523" lon="49.1900807"><time>2023-06-03T08:12:17</time></trkpt><trkpt lat="55.8718408" lon="49.1900008"><time>2023-06-03T08:12:18.007</time></trkpt><trkpt lat="55.8718333" lon="49.1899183"><time>2023-06-03T08:12:19.020</time></trkpt><trkpt lat="55.8718153" lon="49.1898250"><time>2023-06-03T08:12:20.027</time></trkpt><trkpt lat="55.8718013" lon="49.1896747"><time>2023-06-03T08:12:22.020</time></trkpt><trkpt lat="55.8717844" lon="49.1895308"><time>2023-06-03T08:12:24.053</time></trkpt><trkpt lat="55.8717786" lon="49.1894004"><time>2023-06-03T08:12:26.020</time></trkpt><trkpt lat="55.8717786" lon="49.1892688"><time>2023-06-03T08:12:28.003</time></trkpt><trkpt lat="55.8717767" lon="49.1891407"><time>2023-06-03T08:12:30.017</time></trkpt><trkpt lat="55.8717653" lon="49.1890065"><time>2023-06-03T08:12:32.003</time></trkpt><trkpt lat="55.8717558" lon="49.1888597"><time>2023-06-03T08:12:34.037</time></trkpt><trkpt lat="55.8717595" lon="49.1887139"><time>2023-06-03T08:12:36.010</time></trkpt><trkpt lat="55.8717618" lon="49.1885998"><time>2023-06-03T08:12:38.003</time></trkpt><trkpt lat="55.8717626" lon="49.1884812"><time>2023-06-03T08:12:40.020</time></trkpt><trkpt lat="55.8717644" lon="49.1883664"><time>2023-06-03T08:12:42.007</time></trkpt><trkpt lat="55.8717599" lon="49.1882509"><time>2023-06-03T08:12:44.017</time></trkpt><trkpt lat="55.8717478" lon="49.1881331"><time>2023-06-03T08:12:46.003</time></trkpt><trkpt lat="55.8717327" lon="49.1880150"><time>2023-06-03T08:12:48.010</time></trkpt><trkpt lat="55.8717212" lon="49.1878939"><time>2023-06-03T08:12:49.997</time></trkpt><trkpt lat="55.8717219" lon="49.1877663"><time>2023-06-03T08:12:52</time></trkpt><trkpt lat="55.8717371" lon="49.1876544"><time>2023-06-03T08:12:54.007</time></trkpt><trkpt lat="55.8717689" lon="49.1875518"><time>2023-06-03T08:12:56.007</time></trkpt><trkpt lat="55.8718074" lon="49.1874404"><time>2023-06-03T08:12:58.003</time></trkpt><trkpt lat="55.8718348" lon="49.1873177"><time>2023-06-03T08:13:00.007</time></trkpt><trkpt lat="55.8718424" lon="49.1871746"><time>2023-06-03T08:13:01.987</time></trkpt><trkpt lat="55.8718442" lon="49.1870279"><time>2023-06-03T08:13:04.003</time></trkpt><trkpt lat="55.8718419" lon="49.1868728"><time>2023-06-03T08:13:06.007</time></trkpt><trkpt lat="55.8718246" lon="49.1867174"><time>2023-06-03T08:13:08</time></trkpt><trkpt lat="55.8717927" lon="49.1865773"><time>2023-06-03T08:13:10.033</time></trkpt><trkpt lat="55.8717535" lon="49.1864398"><time>2023-06-03T08:13:12.003</time></trkpt><trkpt lat="55.8717341" lon="49.1863647"><time>2023-06-03T08:13:13.003</time></trkpt><trkpt lat="55.8717168" lon="49.1862882"><time>2023-06-03T08:13:14.037</time></trkpt><trkpt lat="55.8716765" lon="49.1861567"><time>2023-06-03T08:13:16.047</time></trkpt><trkpt lat="55.8716350" lon="49.1860309"><time>2023-06-03T08:13:18.003</time></trkpt><trkpt lat="55.8715846" lon="49.1859090"><time>2023-06-03T08:13:19.983</time></trkpt><trkpt lat="55.8715424" lon="49.1857858"><time>2023-06-03T08:13:21.977</time></trkpt><trkpt lat="55.8714993" lon="49.1856511"><time>2023-06-03T08:13:23.980</time></trkpt><trkpt lat="55.8714574" lon="49.1855243"><time>2023-06-03T08:13:26</time></trkpt><trkpt lat="55.8714123" lon="49.1854079"><time>2023-06-03T08:13:27.993</time></trkpt><trkpt lat="55.8713674" lon="49.1852939"><time>2023-06-03T08:13:29.997</time></trkpt><trkpt lat="55.8713218" lon="49.1851778"><time>2023-06-03T08:13:31.997</time></trkpt><trkpt lat="55.8712827" lon="49.1850516"><time>2023-06-03T08:13:34.053</time></trkpt><trkpt lat="55.8712443" lon="49.1849266"><time>2023-06-03T08:13:36.020</time></trkpt><trkpt lat="55.8712016" lon="49.1848011"><time>2023-06-03T08:13:37.997</time></trkpt><trkpt lat="55.8711666" lon="49.1846818"><time>2023-06-03T08:13:40.020</time></trkpt><trkpt lat="55.8711306" lon="49.1845802"><time>2023-06-03T08:13:42.013</time></trkpt><trkpt lat="55.8711002" lon="49.1844810"><time>2023-06-03T08:13:44.053</time></trkpt><trkpt lat="55.8710619" lon="49.1843755"><time>2023-06-03T08:13:46.017</time></trkpt><trkpt lat="55.8710196" lon="49.1842560"><time>2023-06-03T08:13:48.007</time></trkpt><trkpt lat="55.8709936" lon="49.1841376"><time>2023-06-03T08:13:50.020</time></trkpt><trkpt lat="55.8709878" lon="49.1841035"><time>2023-06-03T08:13:51.117</time></trkpt><trkpt lat="55.8709696" lon="49.1840220"><time>2023-06-03T08:13:52.003</time></trkpt><trkpt lat="55.8709363" lon="49.1839043"><time>2023-06-03T08:13:53.987</time></trkpt><trkpt lat="55.8708977" lon="49.1837869"><time>2023-06-03T08:13:56.037</time></trkpt><trkpt lat="55.8708613" lon="49.1836677"><time>2023-06-03T08:13:58.010</time></trkpt><trkpt lat="55.8708314" lon="49.1835538"><time>2023-06-03T08:14:00.017</time></trkpt><trkpt lat="55.8708051" lon="49.1834299"><time>2023-06-03T08:14:02.007</time></trkpt><trkpt lat="55.8707810" lon="49.1833050"><time>2023-06-03T08:14:04.017</time></trkpt><trkpt lat="55.8707549" lon="49.1831801"><time>2023-06-03T08:14:06.013</time></trkpt><trkpt lat="55.8707415" lon="49.1830475"><time>2023-06-03T08:14:08.003</time></trkpt><trkpt lat="55.8707333" lon="49.1829198"><time>2023-06-03T08:14:10.003</time></trkpt><trkpt lat="55.8707361" lon="49.1827953"><time>2023-06-03T08:14:11.990</time></trkpt><trkpt lat="55.8707409" lon="49.1826830"><time>2023-06-03T08:14:14.043</time></trkpt><trkpt lat="55.8707420" lon="49.1825640"><time>2023-06-03T08:14:16.030</time></trkpt><trkpt lat="55.8707335" lon="49.1825281"><time>2023-06-03T08:14:17.150</time></trkpt><trkpt lat="55.8707171" lon="49.1824431"><time>2023-06-03T08:14:18.003</time></trkpt><trkpt lat="55.8706895" lon="49.1823024"><time>2023-06-03T08:14:20.023</time></trkpt><trkpt lat="55.8706654" lon="49.1821672"><time>2023-06-03T08:14:22.003</time></trkpt><trkpt lat="55.8706423" lon="49.1820477"><time>2023-06-03T08:14:24.050</time></trkpt><trkpt lat="55.8706259" lon="49.1819500"><time>2023-06-03T08:14:26</time></trkpt><trkpt lat="55.8706164" lon="49.1818548"><time>2023-06-03T08:14:28.017</time></trkpt><trkpt lat="55.8706181" lon="49.1817512"><time>2023-06-03T08:14:31.007</time></trkpt><trkpt lat="55.8705575" lon="49.1817336"><time>2023-06-03T08:15:01.050</time></trkpt><trkpt lat="55.8705443" lon="49.1817279"><time>2023-06-03T08:15:02.177</time></trkpt><trkpt lat="55.8704875" lon="49.1817306"><time>2023-06-03T08:15:05.017</time></trkpt><trkpt lat="55.8704360" lon="49.1817468"><time>2023-06-03T08:15:09.033</time></trkpt><trkpt lat="55.8703832" lon="49.1817544"><time>2023-06-03T08:15:13.003</time></trkpt><trkpt lat="55.8703366" lon="49.1817277"><time>2023-06-03T08:15:18.980</time></trkpt><trkpt lat="55.8702887" lon="49.1817010"><time>2023-06-03T08:15:24.010</time></trkpt><trkpt lat="55.8702389" lon="49.1816820"><time>2023-06-03T08:15:33.990</time></trkpt><trkpt lat="55.8702389" lon="49.1816820"><time>2023-06-03T08:15:34.067</time></trkpt><trkpt lat="55.8701907" lon="49.1816856"><time>2023-06-03T08:15:40.017</time></trkpt><trkpt lat="55.8701869" lon="49.1816841"><time>2023-06-03T08:15:41.153</time></trkpt><trkpt lat="55.8701459" lon="49.1817392"><time>2023-06-03T08:15:48.007</time></trkpt><trkpt lat="55.8701238" lon="49.1818097"><time>2023-06-03T08:16:27.013</time></trkpt><trkpt lat="55.8700931" lon="49.1817409"><time>2023-06-03T08:16:39.010</time></trkpt><trkpt lat="55.8700754" lon="49.1816542"><time>2023-06-03T08:16:46.003</time></trkpt><trkpt lat="55.8700429" lon="49.1815761"><time>2023-06-03T08:16:55.043</time></trkpt><trkpt lat="55.8700002" lon="49.1815468"><time>2023-06-03T08:16:58.003</time></trkpt><trkpt lat="55.8699579" lon="49.1815050"><time>2023-06-03T08:17:02.020</time></trkpt><trkpt lat="55.8699923" lon="49.1815573"><time>2023-06-03T08:17:16.133</time></trkpt><trkpt lat="55.8700349" lon="49.1816229"><time>2023-06-03T08:17:21.997</time></trkpt><trkpt lat="55.8700555" lon="49.1816941"><time>2023-06-03T08:17:26.997</time></trkpt><trkpt lat="55.8700871" lon="49.1817641"><time>2023-06-03T08:17:33</time></trkpt><trkpt lat="55.8701316" lon="49.1818080"><time>2023-06-03T08:17:36.997</time></trkpt><trkpt lat="55.8701727" lon="49.1818678"><time>2023-06-03T08:17:42.007</time></trkpt><trkpt lat="55.8701985" lon="49.1819442"><time>2023-06-03T08:17:48.003</time></trkpt><trkpt lat="55.8702051" lon="49.1820272"><time>2023-06-03T08:17:54.023</time></trkpt><trkpt lat="55.8702131" lon="49.1821140"><time>2023-06-03T08:18:00.003</time></trkpt><trkpt lat="55.8702237" lon="49.1821958"><time>2023-06-03T08:18:04.993</time></trkpt><trkpt lat="55.8702276" lon="49.1822786"><time>2023-06-03T08:18:10.007</time></trkpt><trkpt lat="55.8702361" lon="49.1823732"><time>2023-06-03T08:18:16.017</time></trkpt><trkpt lat="55.8702484" lon="49.1824655"><time>2023-06-03T08:18:22.007</time></trkpt><trkpt lat="55.8702508" lon="49.1825459"><time>2023-06-03T08:18:27.007</time></trkpt><trkpt lat="55.8702573" lon="49.1826445"><time>2023-06-03T08:18:32.003</time></trkpt><trkpt lat="55.8702732" lon="49.1827380"><time>2023-06-03T08:18:37.007</time></trkpt><trkpt lat="55.8702438" lon="49.1826712"><time>2023-06-03T08:18:47.003</time></trkpt><trkpt lat="55.8702453" lon="49.1825890"><time>2023-06-03T08:18:52.007</time></trkpt><trkpt lat="55.8702397" lon="49.1825029"><time>2023-06-03T08:18:57</time></trkpt><trkpt lat="55.8702460" lon="49.1824146"><time>2023-06-03T08:19:04.037</time></trkpt><trkpt lat="55.8702286" lon="49.1823331"><time>2023-06-03T08:19:10.013</time></trkpt><trkpt lat="55.8702179" lon="49.1822505"><time>2023-06-03T08:19:15.010</time></trkpt><trkpt lat="55.8702161" lon="49.1821666"><time>2023-06-03T08:19:18.990</time></trkpt><trkpt lat="55.8702041" lon="49.1820862"><time>2023-06-03T08:19:23.007</time></trkpt><trkpt lat="55.8701605" lon="49.1820221"><time>2023-06-03T08:19:27.003</time></trkpt><trkpt lat="55.8701184" lon="49.1819814"><time>2023-06-03T08:19:34.010</time></trkpt><trkpt lat="55.8701027" lon="49.1818849"><time>2023-06-03T08:19:38</time></trkpt><trkpt lat="55.8700570" lon="49.1818909"><time>2023-06-03T08:19:46</time></trkpt><trkpt lat="55.8700976" lon="49.1818350"><time>2023-06-03T08:20:32.013</time></trkpt><trkpt lat="55.8701477" lon="49.1818220"><time>2023-06-03T08:20:37.007</time></trkpt><trkpt lat="55.8701918" lon="49.1817829"><time>2023-06-03T08:20:42.003</time></trkpt><trkpt lat="55.8702550" lon="49.1817370"><time>2023-06-03T08:20:54.997</time></trkpt><trkpt lat="55.8703094" lon="49.1817538"><time>2023-06-03T08:21:01.017</time></trkpt><trkpt lat="55.8703525" lon="49.1817816"><time>2023-06-03T08:21:05.040</time></trkpt><trkpt lat="55.8703684" lon="49.1818644"><time>2023-06-03T08:21:10.003</time></trkpt><trkpt lat="55.8703376" lon="49.1819253"><time>2023-06-03T08:21:14.993</time></trkpt><trkpt lat="55.8702929" lon="49.1818854"><time>2023-06-03T08:21:28.020</time></trkpt><trkpt lat="55.8702471" lon="49.1818879"><time>2023-06-03T08:21:32.990</time></trkpt><trkpt lat="55.8702122" lon="49.1819392"><time>2023-06-03T08:21:36.990</time></trkpt><trkpt lat="55.8702206" lon="49.1820240"><time>2023-06-03T08:21:41.033</time></trkpt><trkpt lat="55.8702201" lon="49.1821133"><time>2023-06-03T08:21:46</time></trkpt><trkpt lat="55.8702273" lon="49.1822102"><time>2023-06-03T08:21:51.017</time></trkpt><trkpt lat="55.8702333" lon="49.1822914"><time>2023-06-03T08:21:55</time></trkpt><trkpt lat="55.8702679" lon="49.1823749"><time>2023-06-03T08:21:58.990</time></trkpt><trkpt lat="55.8703180" lon="49.1823976"><time>2023-06-03T08:22:04.007</time></trkpt><trkpt lat="55.8703673" lon="49.1824410"><time>2023-06-03T08:22:11.020</time></trkpt><trkpt lat="55.8703884" lon="49.1825413"><time>2023-06-03T08:22:14.023</time></trkpt><trkpt lat="55.8704414" lon="49.1825372"><time>2023-06-03T08:22:17.003</time></trkpt><trkpt lat="55.8704825" lon="49.1825715"><time>2023-06-03T08:22:22.007</time></trkpt><trkpt lat="55.8704786" lon="49.1826555"><time>2023-06-03T08:22:30.037</time></trkpt><trkpt lat="55.8704961" lon="49.1827396"><time>2023-06-03T08:22:38.013</time></trkpt><trkpt lat="55.8705195" lon="49.1828252"><time>2023-06-03T08:22:44.007</time></trkpt><trkpt lat="55.8705342" lon="49.1829074"><time>2023-06-03T08:22:48.993</time></trkpt><trkpt lat="55.8705710" lon="49.1829767"><time>2023-06-03T08:23:06.010</time></trkpt><trkpt lat="55.8706133" lon="49.1830287"><time>2023-06-03T08:23:10.013</time></trkpt><trkpt lat="55.8706596" lon="49.1829892"><time>2023-06-03T08:23:15.010</time></trkpt><trkpt lat="55.8706822" lon="49.1829203"><time>2023-06-03T08:23:20</time></trkpt><trkpt lat="55.8706928" lon="49.1828375"><time>2023-06-03T08:23:25.033</time></trkpt><trkpt lat="55.8706943" lon="49.1827456"><time>2023-06-03T08:23:30.983</time></trkpt><trkpt lat="55.8707049" lon="49.1826516"><time>2023-06-03T08:23:36.973</time></trkpt><trkpt lat="55.8707392" lon="49.1827271"><time>2023-06-03T08:23:38.973</time></trkpt><trkpt lat="55.8707144" lon="49.1828244"><time>2023-06-03T08:23:42.987</time></trkpt><trkpt lat="55.8706840" lon="49.1829410"><time>2023-06-03T08:23:44.987</time></trkpt><trkpt lat="55.8706248" lon="49.1830052"><time>2023-06-03T08:23:46.993</time></trkpt><trkpt lat="55.8705736" lon="49.1829624"><time>2023-06-03T08:23:49.003</time></trkpt><trkpt lat="55.8705420" lon="49.1829016"><time>2023-06-03T08:23:51.997</time></trkpt><trkpt lat="55.8705142" lon="49.1829653"><time>2023-06-03T08:23:56.977</time></trkpt><trkpt lat="55.8704521" lon="49.1829915"><time>2023-06-03T08:23:58.993</time></trkpt><trkpt lat="55.8703900" lon="49.1829988"><time>2023-06-03T08:24:00.993</time></trkpt><trkpt lat="55.8703455" lon="49.1829332"><time>2023-06-03T08:24:02.997</time></trkpt><trkpt lat="55.8703274" lon="49.1828220"><time>2023-06-03T08:24:04.993</time></trkpt><trkpt lat="55.8703181" lon="49.1827141"><time>2023-06-03T08:24:06.990</time></trkpt><trkpt lat="55.8703069" lon="49.1826299"><time>2023-06-03T08:24:08.987</time></trkpt><trkpt lat="55.8702948" lon="49.1825326"><time>2023-06-03T08:24:10.990</time></trkpt><trkpt lat="55.8702708" lon="49.1824467"><time>2023-06-03T08:24:12.987</time></trkpt><trkpt lat="55.8702678" lon="49.1823416"><time>2023-06-03T08:24:15.990</time></trkpt><trkpt lat="55.8702605" lon="49.1822133"><time>2023-06-03T08:24:18.993</time></trkpt><trkpt lat="55.8702356" lon="49.1821146"><time>2023-06-03T08:24:20.993</time></trkpt><trkpt lat="55.8702102" lon="49.1820104"><time>2023-06-03T08:24:22.993</time></trkpt><trkpt lat="55.8701743" lon="49.1819113"><time>2023-06-03T08:24:24.990</time></trkpt><trkpt lat="55.8701434" lon="49.1818466"><time>2023-06-03T08:24:26.993</time></trkpt><trkpt lat="55.8701049" lon="49.1817929"><time>2023-06-03T08:24:29.997</time></trkpt><trkpt lat="55.8700767" lon="49.1817090"><time>2023-06-03T08:24:38.993</time></trkpt><trkpt lat="55.8700467" lon="49.1816167"><time>2023-06-03T08:24:41.993</time></trkpt><trkpt lat="55.8700318" lon="49.1815267"><time>2023-06-03T08:24:45.997</time></trkpt><trkpt lat="55.8699838" lon="49.1814713"><time>2023-06-03T08:24:48.997</time></trkpt><trkpt lat="55.8699308" lon="49.1814558"><time>2023-06-03T08:24:52.997</time></trkpt><trkpt lat="55.8699371" lon="49.1813421"><time>2023-06-03T08:24:54.993</time></trkpt><trkpt lat="55.8699922" lon="49.1813337"><time>2023-06-03T08:24:58.997</time></trkpt><trkpt lat="55.8700332" lon="49.1813955"><time>2023-06-03T08:25:03.007</time></trkpt><trkpt lat="55.8700704" lon="49.1814458"><time>2023-06-03T08:25:06.997</time></trkpt><trkpt lat="55.8701156" lon="49.1814437"><time>2023-06-03T08:25:16</time></trkpt><trkpt lat="55.8701630" lon="49.1814478"><time>2023-06-03T08:25:30.990</time></trkpt><trkpt lat="55.8701336" lon="49.1813849"><time>2023-06-03T08:25:37.997</time></trkpt><trkpt lat="55.8701287" lon="49.1814734"><time>2023-06-03T08:25:58.007</time></trkpt><trkpt lat="55.8701186" lon="49.1815524"><time>2023-06-03T08:26:02.003</time></trkpt><trkpt lat="55.8701585" lon="49.1814952"><time>2023-06-03T08:26:24.017</time></trkpt><trkpt lat="55.8701896" lon="49.1814191"><time>2023-06-03T08:26:31.037</time></trkpt><trkpt lat="55.8701789" lon="49.1813415"><time>2023-06-03T08:26:36.033</time></trkpt><trkpt lat="55.8702224" lon="49.1812818"><time>2023-06-03T08:26:43</time></trkpt><trkpt lat="55.8702690" lon="49.1812592"><time>2023-06-03T08:26:47</time></trkpt><trkpt lat="55.8703212" lon="49.1812375"><time>2023-06-03T08:26:51.040</time></trkpt><trkpt lat="55.8703805" lon="49.1812485"><time>2023-06-03T08:26:55.030</time></trkpt><trkpt lat="55.8704247" lon="49.1812651"><time>2023-06-03T08:26:58.003</time></trkpt><trkpt lat="55.8704739" lon="49.1813024"><time>2023-06-03T08:27:02.013</time></trkpt><trkpt lat="55.8705224" lon="49.1813452"><time>2023-06-03T08:27:06.027</time></trkpt><trkpt lat="55.8705680" lon="49.1813947"><time>2023-06-03T08:27:10.007</time></trkpt><trkpt lat="55.8705970" lon="49.1814704"><time>2023-06-03T08:27:15</time></trkpt><trkpt lat="55.8706044" lon="49.1815550"><time>2023-06-03T08:30:58.997</time></trkpt><trkpt lat="55.8706130" lon="49.1816790"><time>2023-06-03T08:31:02</time></trkpt><trkpt lat="55.8706031" lon="49.1818269"><time>2023-06-03T08:31:05.013</time></trkpt><trkpt lat="55.8706118" lon="49.1819305"><time>2023-06-03T08:31:07.003</time></trkpt><trkpt lat="55.8706330" lon="49.1820370"><time>2023-06-03T08:31:09.007</time></trkpt><trkpt lat="55.8706522" lon="49.1821448"><time>2023-06-03T08:31:11.003</time></trkpt><trkpt lat="55.8706748" lon="49.1822703"><time>2023-06-03T08:31:13</time></trkpt><trkpt lat="55.8706983" lon="49.1824069"><time>2023-06-03T08:31:15.007</time></trkpt><trkpt lat="55.8707222" lon="49.1825484"><time>2023-06-03T08:31:17.003</time></trkpt><trkpt lat="55.8707199" lon="49.1827120"><time>2023-06-03T08:31:19.010</time></trkpt><trkpt lat="55.8707178" lon="49.1827975"><time>2023-06-03T08:31:20.037</time></trkpt><trkpt lat="55.8707152" lon="49.1828823"><time>2023-06-03T08:31:21</time></trkpt><trkpt lat="55.8707212" lon="49.1830423"><time>2023-06-03T08:31:22.990</time></trkpt><trkpt lat="55.8707277" lon="49.1831294"><time>2023-06-03T08:31:24.003</time></trkpt><trkpt lat="55.8707497" lon="49.1832857"><time>2023-06-03T08:31:26.003</time></trkpt><trkpt lat="55.8707644" lon="49.1833647"><time>2023-06-03T08:31:27.007</time></trkpt><trkpt lat="55.8707810" lon="49.1834457"><time>2023-06-03T08:31:28</time></trkpt><trkpt lat="55.8707995" lon="49.1835262"><time>2023-06-03T08:31:29.013</time></trkpt><trkpt lat="55.8708204" lon="49.1836042"><time>2023-06-03T08:31:30.043</time></trkpt><trkpt lat="55.8708403" lon="49.1836803"><time>2023-06-03T08:31:31.037</time></trkpt><trkpt lat="55.8708788" lon="49.1838194"><time>2023-06-03T08:31:33.017</time></trkpt><trkpt lat="55.8708969" lon="49.1838943"><time>2023-06-03T08:31:34.043</time></trkpt><trkpt lat="55.8709198" lon="49.1839686"><time>2023-06-03T08:31:35.040</time></trkpt><trkpt lat="55.8709548" lon="49.1841183"><time>2023-06-03T08:31:37.010</time></trkpt><trkpt lat="55.8709954" lon="49.1842539"><time>2023-06-03T08:31:39.010</time></trkpt><trkpt lat="55.8710367" lon="49.1843897"><time>2023-06-03T08:31:41.047</time></trkpt><trkpt lat="55.8710772" lon="49.1845233"><time>2023-06-03T08:31:43.003</time></trkpt><trkpt lat="55.8711225" lon="49.1846491"><time>2023-06-03T08:31:45.027</time></trkpt><trkpt lat="55.8711455" lon="49.1847206"><time>2023-06-03T08:31:46.057</time></trkpt><trkpt lat="55.8711690" lon="49.1847897"><time>2023-06-03T08:31:47.007</time></trkpt><trkpt lat="55.8711951" lon="49.1848569"><time>2023-06-03T08:31:48</time></trkpt><trkpt lat="55.8712150" lon="49.1849297"><time>2023-06-03T08:31:49.007</time></trkpt><trkpt lat="55.8712581" lon="49.1850738"><time>2023-06-03T08:31:51.037</time></trkpt><trkpt lat="55.8712758" lon="49.1851520"><time>2023-06-03T08:31:52</time></trkpt><trkpt lat="55.8713202" lon="49.1852802"><time>2023-06-03T08:31:54.053</time></trkpt><trkpt lat="55.8713641" lon="49.1854010"><time>2023-06-03T08:31:56.003</time></trkpt><trkpt lat="55.8713932" lon="49.1855270"><time>2023-06-03T08:31:58.003</time></trkpt><trkpt lat="55.8714245" lon="49.1856502"><time>2023-06-03T08:32:00.007</time></trkpt><trkpt lat="55.8714648" lon="49.1857660"><time>2023-06-03T08:32:02.003</time></trkpt><trkpt lat="55.8715059" lon="49.1858697"><time>2023-06-03T08:32:03.997</time></trkpt><trkpt lat="55.8715477" lon="49.1859860"><time>2023-06-03T08:32:06.010</time></trkpt><trkpt lat="55.8715849" lon="49.1861067"><time>2023-06-03T08:32:08</time></trkpt><trkpt lat="55.8716194" lon="49.1862082"><time>2023-06-03T08:32:10.013</time></trkpt><trkpt lat="55.8716587" lon="49.1863110"><time>2023-06-03T08:32:11.993</time></trkpt><trkpt lat="55.8716977" lon="49.1864177"><time>2023-06-03T08:32:13.973</time></trkpt><trkpt lat="55.8717340" lon="49.1865360"><time>2023-06-03T08:32:16.003</time></trkpt><trkpt lat="55.8717610" lon="49.1866547"><time>2023-06-03T08:32:17.983</time></trkpt><trkpt lat="55.8717783" lon="49.1867725"><time>2023-06-03T08:32:20.007</time></trkpt><trkpt lat="55.8717922" lon="49.1868871"><time>2023-06-03T08:32:21.997</time></trkpt><trkpt lat="55.8718065" lon="49.1870065"><time>2023-06-03T08:32:24</time></trkpt><trkpt lat="55.8718107" lon="49.1871231"><time>2023-06-03T08:32:26.037</time></trkpt><trkpt lat="55.8718048" lon="49.1872390"><time>2023-06-03T08:32:28</time></trkpt><trkpt lat="55.8717926" lon="49.1873522"><time>2023-06-03T08:32:29.997</time></trkpt><trkpt lat="55.8717656" lon="49.1874594"><time>2023-06-03T08:32:32</time></trkpt><trkpt lat="55.8717281" lon="49.1875630"><time>2023-06-03T08:32:34</time></trkpt><trkpt lat="55.8716960" lon="49.1876672"><time>2023-06-03T08:32:36</time></trkpt><trkpt lat="55.8716882" lon="49.1877881"><time>2023-06-03T08:32:38.013</time></trkpt><trkpt lat="55.8716949" lon="49.1879173"><time>2023-06-03T08:32:40.043</time></trkpt><trkpt lat="55.8717033" lon="49.1880511"><time>2023-06-03T08:32:42.003</time></trkpt><trkpt lat="55.8717044" lon="49.1881906"><time>2023-06-03T08:32:44.010</time></trkpt><trkpt lat="55.8717115" lon="49.1883174"><time>2023-06-03T08:32:46.047</time></trkpt><trkpt lat="55.8717147" lon="49.1884449"><time>2023-06-03T08:32:47.990</time></trkpt><trkpt lat="55.8717122" lon="49.1885762"><time>2023-06-03T08:32:49.990</time></trkpt><trkpt lat="55.8717093" lon="49.1887169"><time>2023-06-03T08:32:51.997</time></trkpt><trkpt lat="55.8717160" lon="49.1888431"><time>2023-06-03T08:32:54.057</time></trkpt><trkpt lat="55.8717292" lon="49.1889851"><time>2023-06-03T08:32:56.030</time></trkpt><trkpt lat="55.8717356" lon="49.1891134"><time>2023-06-03T08:32:58.007</time></trkpt><trkpt lat="55.8717450" lon="49.1892405"><time>2023-06-03T08:33:00.020</time></trkpt><trkpt lat="55.8717353" lon="49.1893772"><time>2023-06-03T08:33:02.007</time></trkpt><trkpt lat="55.8717283" lon="49.1895061"><time>2023-06-03T08:33:04.023</time></trkpt><trkpt lat="55.8717454" lon="49.1896475"><time>2023-06-03T08:33:06.017</time></trkpt><trkpt lat="55.8717621" lon="49.1897969"><time>2023-06-03T08:33:08</time></trkpt><trkpt lat="55.8717834" lon="49.1899237"><time>2023-06-03T08:33:10.007</time></trkpt><trkpt lat="55.8718080" lon="49.1900484"><time>2023-06-03T08:33:12.007</time></trkpt><trkpt lat="55.8718255" lon="49.1901735"><time>2023-06-03T08:33:14.007</time></trkpt><trkpt lat="55.8718464" lon="49.1902971"><time>2023-06-03T08:33:16.013</time></trkpt><trkpt lat="55.8718705" lon="49.1904146"><time>2023-06-03T08:33:17.997</time></trkpt><trkpt lat="55.8718923" lon="49.1905370"><time>2023-06-03T08:33:20.043</time></trkpt><trkpt lat="55.8719155" lon="49.1906394"><time>2023-06-03T08:33:21.997</time></trkpt><trkpt lat="55.8719418" lon="49.1907140"><time>2023-06-03T08:33:24.007</time></trkpt><trkpt lat="55.8719923" lon="49.1907944"><time>2023-06-03T08:33:26.997</time></trkpt><trkpt lat="55.8720539" lon="49.1908237"><time>2023-06-03T08:33:29.037</time></trkpt><trkpt lat="55.8721091" lon="49.1908569"><time>2023-06-03T08:33:31.040</time></trkpt><trkpt lat="55.8721621" lon="49.1908889"><time>2023-06-03T08:33:32.990</time></trkpt><trkpt lat="55.8722122" lon="49.1909297"><time>2023-06-03T08:33:35.037</time></trkpt><trkpt lat="55.8722489" lon="49.1910029"><time>2023-06-03T08:33:36.987</time></trkpt><trkpt lat="55.8722829" lon="49.1910725"><time>2023-06-03T08:33:39</time></trkpt><trkpt lat="55.8723140" lon="49.1911335"><time>2023-06-03T08:33:41.023</time></trkpt><trkpt lat="55.8723414" lon="49.1911994"><time>2023-06-03T08:33:42.997</time></trkpt><trkpt lat="55.8723719" lon="49.1912922"><time>2023-06-03T08:33:46.037</time></trkpt><trkpt lat="55.8723805" lon="49.1913867"><time>2023-06-03T08:33:49.030</time></trkpt><trkpt lat="55.8723435" lon="49.1914714"><time>2023-06-03T08:33:51.983</time></trkpt><trkpt lat="55.8722801" lon="49.1914596"><time>2023-06-03T08:33:54</time></trkpt><trkpt lat="55.8722104" lon="49.1914557"><time>2023-06-03T08:33:56.007</time></trkpt><trkpt lat="55.8721357" lon="49.1914734"><time>2023-06-03T08:33:57.993</time></trkpt><trkpt lat="55.8720545" lon="49.1915040"><time>2023-06-03T08:34:00.013</time></trkpt><trkpt lat="55.8719704" lon="49.1915288"><time>2023-06-03T08:34:01.997</time></trkpt><trkpt lat="55.8719244" lon="49.1915400"><time>2023-06-03T08:34:03</time></trkpt><trkpt lat="55.8718766" lon="49.1915532"><time>2023-06-03T08:34:04.030</time></trkpt><trkpt lat="55.8718306" lon="49.1915692"><time>2023-06-03T08:34:05</time></trkpt><trkpt lat="55.8717861" lon="49.1915853"><time>2023-06-03T08:34:06.040</time></trkpt><trkpt lat="55.8717375" lon="49.1916005"><time>2023-06-03T08:34:07</time></trkpt><trkpt lat="55.8716896" lon="49.1916181"><time>2023-06-03T08:34:08.010</time></trkpt><trkpt lat="55.8716432" lon="49.1916327"><time>2023-06-03T08:34:09.007</time></trkpt><trkpt lat="55.8715979" lon="49.1916493"><time>2023-06-03T08:34:10.043</time></trkpt><trkpt lat="55.8715529" lon="49.1916688"><time>2023-06-03T08:34:11.003</time></trkpt><trkpt lat="55.8715044" lon="49.1916961"><time>2023-06-03T08:34:11.997</time></trkpt><trkpt lat="55.8714608" lon="49.1917268"><time>2023-06-03T08:34:13.003</time></trkpt><trkpt lat="55.8714120" lon="49.1917643"><time>2023-06-03T08:34:14.017</time></trkpt><trkpt lat="55.8713653" lon="49.1918091"><time>2023-06-03T08:34:15</time></trkpt><trkpt lat="55.8713207" lon="49.1918561"><time>2023-06-03T08:34:16.007</time></trkpt><trkpt lat="55.8712704" lon="49.1918980"><time>2023-06-03T08:34:17.013</time></trkpt><trkpt lat="55.8712219" lon="49.1919415"><time>2023-06-03T08:34:18</time></trkpt><trkpt lat="55.8711734" lon="49.1919831"><time>2023-06-03T08:34:18.997</time></trkpt><trkpt lat="55.8711291" lon="49.1920329"><time>2023-06-03T08:34:20.007</time></trkpt><trkpt lat="55.8710785" lon="49.1920742"><time>2023-06-03T08:34:20.997</time></trkpt><trkpt lat="55.8710269" lon="49.1921166"><time>2023-06-03T08:34:21.997</time></trkpt><trkpt lat="55.8709796" lon="49.1921672"><time>2023-06-03T08:34:23.003</time></trkpt><trkpt lat="55.8709321" lon="49.1922058"><time>2023-06-03T08:34:24.003</time></trkpt><trkpt lat="55.8708851" lon="49.1922481"><time>2023-06-03T08:34:25.003</time></trkpt><trkpt lat="55.8708392" lon="49.1922775"><time>2023-06-03T08:34:25.997</time></trkpt><trkpt lat="55.8707899" lon="49.1923123"><time>2023-06-03T08:34:27</time></trkpt><trkpt lat="55.8707351" lon="49.1923345"><time>2023-06-03T08:34:27.997</time></trkpt><trkpt lat="55.8706833" lon="49.1923602"><time>2023-06-03T08:34:29.003</time></trkpt><trkpt lat="55.8706271" lon="49.1923844"><time>2023-06-03T08:34:29.977</time></trkpt><trkpt lat="55.8705710" lon="49.1924106"><time>2023-06-03T08:34:31.147</time></trkpt><trkpt lat="55.8705179" lon="49.1924333"><time>2023-06-03T08:34:32.003</time></trkpt><trkpt lat="55.8704611" lon="49.1924605"><time>2023-06-03T08:34:33.010</time></trkpt><trkpt lat="55.8704056" lon="49.1924811"><time>2023-06-03T08:34:34.040</time></trkpt><trkpt lat="55.8703469" lon="49.1925111"><time>2023-06-03T08:34:35.013</time></trkpt><trkpt lat="55.8702894" lon="49.1925296"><time>2023-06-03T08:34:35.977</time></trkpt><trkpt lat="55.8702360" lon="49.1925559"><time>2023-06-03T08:34:36.987</time></trkpt><trkpt lat="55.8701840" lon="49.1925782"><time>2023-06-03T08:34:37.997</time></trkpt><trkpt lat="55.8701293" lon="49.1925964"><time>2023-06-03T08:34:39.013</time></trkpt><trkpt lat="55.8700744" lon="49.1926116"><time>2023-06-03T08:34:39.997</time></trkpt><trkpt lat="55.8700185" lon="49.1926369"><time>2023-06-03T08:34:40.983</time></trkpt><trkpt lat="55.8699551" lon="49.1926630"><time>2023-06-03T08:34:42</time></trkpt><trkpt lat="55.8699033" lon="49.1926838"><time>2023-06-03T08:34:43.003</time></trkpt><trkpt lat="55.8698391" lon="49.1927084"><time>2023-06-03T08:34:44</time></trkpt><trkpt lat="55.8697860" lon="49.1927283"><time>2023-06-03T08:34:44.993</time></trkpt><trkpt lat="55.8697324" lon="49.1927557"><time>2023-06-03T08:34:46</time></trkpt><trkpt lat="55.8696814" lon="49.1927872"><time>2023-06-03T08:34:46.997</time></trkpt><trkpt lat="55.8696278" lon="49.1928016"><time>2023-06-03T08:34:47.997</time></trkpt><trkpt lat="55.8695792" lon="49.1928220"><time>2023-06-03T08:34:49.007</time></trkpt><trkpt lat="55.8695264" lon="49.1928469"><time>2023-06-03T08:34:49.997</time></trkpt><trkpt lat="55.8694756" lon="49.1928676"><time>2023-06-03T08:34:50.990</time></trkpt><trkpt lat="55.8694201" lon="49.1928930"><time>2023-06-03T08:34:51.993</time></trkpt><trkpt lat="55.8693576" lon="49.1929229"><time>2023-06-03T08:34:53.017</time></trkpt><trkpt lat="55.8693003" lon="49.1929475"><time>2023-06-03T08:34:53.980</time></trkpt><trkpt lat="55.8692455" lon="49.1929700"><time>2023-06-03T08:34:54.983</time></trkpt><trkpt lat="55.8691891" lon="49.1929914"><time>2023-06-03T08:34:55.993</time></trkpt><trkpt lat="55.8691325" lon="49.1930182"><time>2023-06-03T08:34:56.997</time></trkpt><trkpt lat="55.8690756" lon="49.1930434"><time>2023-06-03T08:34:57.980</time></trkpt><trkpt lat="55.8690256" lon="49.1930756"><time>2023-06-03T08:34:58.997</time></trkpt><trkpt lat="55.8689745" lon="49.1930994"><time>2023-06-03T08:34:59.997</time></trkpt><trkpt lat="55.8689211" lon="49.1931277"><time>2023-06-03T08:35:00.997</time></trkpt><trkpt lat="55.8688725" lon="49.1931492"><time>2023-06-03T08:35:02</time></trkpt><trkpt lat="55.8688266" lon="49.1931710"><time>2023-06-03T08:35:02.997</time></trkpt><trkpt lat="55.8687804" lon="49.1931957"><time>2023-06-03T08:35:04.007</time></trkpt><trkpt lat="55.8687065" lon="49.1932216"><time>2023-06-03T08:35:06</time></trkpt><trkpt lat="55.8686458" lon="49.1932485"><time>2023-06-03T08:35:09.007</time></trkpt><trkpt lat="55.8685939" lon="49.1932488"><time>2023-06-03T08:35:12.003</time></trkpt><trkpt lat="55.8685650" lon="49.1933269"><time>2023-06-03T08:36:33.003</time></trkpt><trkpt lat="55.8685702" lon="49.1934066"><time>2023-06-03T08:36:35.007</time></trkpt><trkpt lat="55.8685688" lon="49.1935018"><time>2023-06-03T08:36:36.990</time></trkpt><trkpt lat="55.8685629" lon="49.1936016"><time>2023-06-03T08:36:38.997</time></trkpt><trkpt lat="55.8685487" lon="49.1936936"><time>2023-06-03T08:36:40.987</time></trkpt><trkpt lat="55.8685374" lon="49.1937773"><time>2023-06-03T08:36:42.987</time></trkpt><trkpt lat="55.8685150" lon="49.1938721"><time>2023-06-03T08:36:45.993</time></trkpt><trkpt lat="55.8684903" lon="49.1939669"><time>2023-06-03T08:36:49.987</time></trkpt><trkpt lat="55.8684733" lon="49.1940581"><time>2023-06-03T08:36:55.007</time></trkpt><trkpt lat="55.8684585" lon="49.1941406"><time>2023-06-03T08:36:59.023</time></trkpt><trkpt lat="55.8684445" lon="49.1942348"><time>2023-06-03T08:37:03.997</time></trkpt><trkpt lat="55.8684306" lon="49.1943223"><time>2023-06-03T08:37:07.970</time></trkpt><trkpt lat="55.8684225" lon="49.1944119"><time>2023-06-03T08:37:11.993</time></trkpt><trkpt lat="55.8684161" lon="49.1944926"><time>2023-06-03T08:37:15.997</time></trkpt><trkpt lat="55.8684068" lon="49.1945870"><time>2023-06-03T08:37:18.997</time></trkpt><trkpt lat="55.8683880" lon="49.1947244"><time>2023-06-03T08:37:20.980</time></trkpt><trkpt lat="55.8683636" lon="49.1948419"><time>2023-06-03T08:37:24.003</time></trkpt><trkpt lat="55.8683480" lon="49.1949238"><time>2023-06-03T08:37:26</time></trkpt><trkpt lat="55.8683375" lon="49.1950071"><time>2023-06-03T08:37:27.997</time></trkpt><trkpt lat="55.8683344" lon="49.1951217"><time>2023-06-03T08:37:30.997</time></trkpt><trkpt lat="55.8683310" lon="49.1952251"><time>2023-06-03T08:37:33.990</time></trkpt><trkpt lat="55.8683338" lon="49.1953361"><time>2023-06-03T08:37:37</time></trkpt><trkpt lat="55.8683262" lon="49.1954262"><time>2023-06-03T08:37:39.027</time></trkpt><trkpt lat="55.8683044" lon="49.1955116"><time>2023-06-03T08:37:41.017</time></trkpt><trkpt lat="55.8682705" lon="49.1955888"><time>2023-06-03T08:37:43</time></trkpt><trkpt lat="55.8682391" lon="49.1956514"><time>2023-06-03T08:37:45.007</time></trkpt><trkpt lat="55.8682047" lon="49.1957028"><time>2023-06-03T08:37:47.007</time></trkpt><trkpt lat="55.8681588" lon="49.1957797"><time>2023-06-03T08:37:50.040</time></trkpt><trkpt lat="55.8681112" lon="49.1958243"><time>2023-06-03T08:37:52</time></trkpt><trkpt lat="55.8680494" lon="49.1958532"><time>2023-06-03T08:37:54.023</time></trkpt><trkpt lat="55.8679971" lon="49.1958671"><time>2023-06-03T08:37:56.003</time></trkpt><trkpt lat="55.8679498" lon="49.1958800"><time>2023-06-03T08:37:58</time></trkpt><trkpt lat="55.8678932" lon="49.1958896"><time>2023-06-03T08:38:01.033</time></trkpt><trkpt lat="55.8678279" lon="49.1959148"><time>2023-06-03T08:38:03.983</time></trkpt><trkpt lat="55.8677678" lon="49.1959482"><time>2023-06-03T08:38:05.973</time></trkpt><trkpt lat="55.8677072" lon="49.1959827"><time>2023-06-03T08:38:07.997</time></trkpt><trkpt lat="55.8676664" lon="49.1960223"><time>2023-06-03T08:38:10.790</time></trkpt><trkpt lat="55.8676172" lon="49.1960721"><time>2023-06-03T08:38:13.003</time></trkpt><trkpt lat="55.8675612" lon="49.1961229"><time>2023-06-03T08:38:16.027</time></trkpt><trkpt lat="55.8675131" lon="49.1961723"><time>2023-06-03T08:38:17.973</time></trkpt><trkpt lat="55.8674663" lon="49.1962367"><time>2023-06-03T08:38:19.990</time></trkpt><trkpt lat="55.8674201" lon="49.1963090"><time>2023-06-03T08:38:21.993</time></trkpt><trkpt lat="55.8673703" lon="49.1964087"><time>2023-06-03T08:38:23.993</time></trkpt><trkpt lat="55.8673110" lon="49.1965055"><time>2023-06-03T08:38:26.040</time></trkpt><trkpt lat="55.8672721" lon="49.1965460"><time>2023-06-03T08:38:26.993</time></trkpt><trkpt lat="55.8672304" lon="49.1966088"><time>2023-06-03T08:38:28</time></trkpt><trkpt lat="55.8671719" lon="49.1966828"><time>2023-06-03T08:38:29.977</time></trkpt><trkpt lat="55.8671205" lon="49.1967450"><time>2023-06-03T08:38:32.007</time></trkpt><trkpt lat="55.8670800" lon="49.1967961"><time>2023-06-03T08:38:34.010</time></trkpt><trkpt lat="55.8670304" lon="49.1968761"><time>2023-06-03T08:38:36.990</time></trkpt><trkpt lat="55.8669997" lon="49.1969442"><time>2023-06-03T08:38:38.990</time></trkpt><trkpt lat="55.8669699" lon="49.1970128"><time>2023-06-03T08:38:41.020</time></trkpt><trkpt lat="55.8669327" lon="49.1971119"><time>2023-06-03T08:38:42.987</time></trkpt><trkpt lat="55.8668978" lon="49.1972047"><time>2023-06-03T08:38:44.987</time></trkpt><trkpt lat="55.8668649" lon="49.1972866"><time>2023-06-03T08:38:46.973</time></trkpt><trkpt lat="55.8668394" lon="49.1973672"><time>2023-06-03T08:38:49.037</time></trkpt><trkpt lat="55.8668012" lon="49.1974339"><time>2023-06-03T08:38:51</time></trkpt><trkpt lat="55.8667635" lon="49.1975174"><time>2023-06-03T08:38:52.993</time></trkpt><trkpt lat="55.8667328" lon="49.1976077"><time>2023-06-03T08:38:55.010</time></trkpt><trkpt lat="55.8666921" lon="49.1977135"><time>2023-06-03T08:38:56.997</time></trkpt><trkpt lat="55.8666497" lon="49.1978230"><time>2023-06-03T08:38:58.997</time></trkpt><trkpt lat="55.8665938" lon="49.1979060"><time>2023-06-03T08:39:01.013</time></trkpt><trkpt lat="55.8665406" lon="49.1979642"><time>2023-06-03T08:39:02.997</time></trkpt><trkpt lat="55.8664955" lon="49.1980059"><time>2023-06-03T08:39:09.997</time></trkpt><trkpt lat="55.8664596" lon="49.1980727"><time>2023-06-03T08:40:44.030</time></trkpt><trkpt lat="55.8664541" lon="49.1981577"><time>2023-06-03T08:40:46.013</time></trkpt><trkpt lat="55.8664548" lon="49.1982639"><time>2023-06-03T08:40:48.010</time></trkpt><trkpt lat="55.8664348" lon="49.1983753"><time>2023-06-03T08:40:50</time></trkpt><trkpt lat="55.8664057" lon="49.1985155"><time>2023-06-03T08:40:52.003</time></trkpt><trkpt lat="55.8663918" lon="49.1986421"><time>2023-06-03T08:40:54.017</time></trkpt><trkpt lat="55.8663658" lon="49.1987284"><time>2023-06-03T08:40:56.003</time></trkpt><trkpt lat="55.8663312" lon="49.1988187"><time>2023-06-03T08:40:58.003</time></trkpt><trkpt lat="55.8662989" lon="49.1989129"><time>2023-06-03T08:41:00.013</time></trkpt><trkpt lat="55.8662777" lon="49.1989923"><time>2023-06-03T08:41:01.990</time></trkpt><trkpt lat="55.8662655" lon="49.1990750"><time>2023-06-03T08:41:04.023</time></trkpt><trkpt lat="55.8662493" lon="49.1991869"><time>2023-06-03T08:41:06.013</time></trkpt><trkpt lat="55.8662438" lon="49.1992983"><time>2023-06-03T08:41:08</time></trkpt><trkpt lat="55.8662352" lon="49.1993989"><time>2023-06-03T08:41:10.040</time></trkpt><trkpt lat="55.8662156" lon="49.1994811"><time>2023-06-03T08:41:12.017</time></trkpt><trkpt lat="55.8661925" lon="49.1995327"><time>2023-06-03T08:41:13.133</time></trkpt><trkpt lat="55.8661507" lon="49.1996117"><time>2023-06-03T08:41:15.007</time></trkpt><trkpt lat="55.8661256" lon="49.1996886"><time>2023-06-03T08:41:16.997</time></trkpt><trkpt lat="55.8660995" lon="49.1997912"><time>2023-06-03T08:41:19.023</time></trkpt><trkpt lat="55.8660655" lon="49.1998968"><time>2023-06-03T08:41:21.003</time></trkpt><trkpt lat="55.8660216" lon="49.2000101"><time>2023-06-03T08:41:22.987</time></trkpt><trkpt lat="55.8659744" lon="49.2001209"><time>2023-06-03T08:41:25.007</time></trkpt><trkpt lat="55.8659345" lon="49.2002188"><time>2023-06-03T08:41:26.993</time></trkpt><trkpt lat="55.8658997" lon="49.2002806"><time>2023-06-03T08:41:29.040</time></trkpt><trkpt lat="55.8658629" lon="49.2003534"><time>2023-06-03T08:41:33.010</time></trkpt><trkpt lat="55.8658173" lon="49.2003577"><time>2023-06-03T08:42:36.993</time></trkpt><trkpt lat="55.8657753" lon="49.2004042"><time>2023-06-03T08:42:38.993</time></trkpt><trkpt lat="55.8657147" lon="49.2004559"><time>2023-06-03T08:42:41.990</time></trkpt><trkpt lat="55.8656667" lon="49.2004957"><time>2023-06-03T08:42:43.993</time></trkpt><trkpt lat="55.8655994" lon="49.2005306"><time>2023-06-03T08:42:45.990</time></trkpt><trkpt lat="55.8655434" lon="49.2005807"><time>2023-06-03T08:42:48.010</time></trkpt><trkpt lat="55.8655141" lon="49.2005842"><time>2023-06-03T08:42:49.130</time></trkpt><trkpt lat="55.8654672" lon="49.2005964"><time>2023-06-03T08:42:49.993</time></trkpt><trkpt lat="55.8653821" lon="49.2006242"><time>2023-06-03T08:42:51.997</time></trkpt><trkpt lat="55.8653384" lon="49.2006433"><time>2023-06-03T08:42:52.997</time></trkpt><trkpt lat="55.8652552" lon="49.2006810"><time>2023-06-03T08:42:54.990</time></trkpt><trkpt lat="55.8651804" lon="49.2007248"><time>2023-06-03T08:42:56.987</time></trkpt><trkpt lat="55.8651165" lon="49.2007684"><time>2023-06-03T08:42:58.987</time></trkpt><trkpt lat="55.8650504" lon="49.2008129"><time>2023-06-03T08:43:00.987</time></trkpt><trkpt lat="55.8649914" lon="49.2008488"><time>2023-06-03T08:43:02.990</time></trkpt><trkpt lat="55.8649299" lon="49.2009169"><time>2023-06-03T08:43:04.987</time></trkpt><trkpt lat="55.8648796" lon="49.2010049"><time>2023-06-03T08:43:06.997</time></trkpt><trkpt lat="55.8648314" lon="49.2010928"><time>2023-06-03T08:43:08.993</time></trkpt><trkpt lat="55.8647917" lon="49.2011682"><time>2023-06-03T08:43:10.990</time></trkpt><trkpt lat="55.8647546" lon="49.2012294"><time>2023-06-03T08:43:12.987</time></trkpt><trkpt lat="55.8647136" lon="49.2012863"><time>2023-06-03T08:43:14.993</time></trkpt><trkpt lat="55.8646691" lon="49.2013470"><time>2023-06-03T08:43:16.993</time></trkpt><trkpt lat="55.8646356" lon="49.2014124"><time>2023-06-03T08:43:18.987</time></trkpt><trkpt lat="55.8645907" lon="49.2015025"><time>2023-06-03T08:43:21.993</time></trkpt><trkpt lat="55.8645462" lon="49.2015801"><time>2023-06-03T08:43:23.990</time></trkpt><trkpt lat="55.8645013" lon="49.2016599"><time>2023-06-03T08:43:25.990</time></trkpt><trkpt lat="55.8644560" lon="49.2017230"><time>2023-06-03T08:43:27.993</time></trkpt><trkpt lat="55.8644100" lon="49.2017881"><time>2023-06-03T08:43:29.993</time></trkpt><trkpt lat="55.8643563" lon="49.2018483"><time>2023-06-03T08:43:31.997</time></trkpt><trkpt lat="55.8643169" lon="49.2019115"><time>2023-06-03T08:43:33.997</time></trkpt><trkpt lat="55.8642811" lon="49.2019701"><time>2023-06-03T08:43:36.017</time></trkpt><trkpt lat="55.8642713" lon="49.2019774"><time>2023-06-03T08:43:37.137</time></trkpt><trkpt lat="55.8642307" lon="49.2020581"><time>2023-06-03T08:43:39.997</time></trkpt><trkpt lat="55.8642315" lon="49.2021531"><time>2023-06-03T08:43:50.997</time></trkpt><trkpt lat="55.8642370" lon="49.2022337"><time>2023-06-03T08:43:58.003</time></trkpt><trkpt lat="55.8642194" lon="49.2023125"><time>2023-06-03T08:44:59.057</time></trkpt><trkpt lat="55.8642147" lon="49.2023955"><time>2023-06-03T08:45:07.997</time></trkpt><trkpt lat="55.8642131" lon="49.2024761"><time>2023-06-03T08:45:14.017</time></trkpt><trkpt lat="55.8642566" lon="49.2025366"><time>2023-06-03T08:45:30.033</time></trkpt><trkpt lat="55.8642824" lon="49.2024711"><time>2023-06-03T08:45:57.997</time></trkpt><trkpt lat="55.8643102" lon="49.2024076"><time>2023-06-03T08:46:08</time></trkpt><trkpt lat="55.8643567" lon="49.2024322"><time>2023-06-03T08:46:25.037</time></trkpt><trkpt lat="55.8643553" lon="49.2024124"><time>2023-06-03T08:46:26.157</time></trkpt><trkpt lat="55.8643959" lon="49.2023717"><time>2023-06-03T08:46:34.003</time></trkpt><trkpt lat="55.8644276" lon="49.2023146"><time>2023-06-03T08:46:43</time></trkpt><trkpt lat="55.8644541" lon="49.2022462"><time>2023-06-03T08:47:01.007</time></trkpt><trkpt lat="55.8645001" lon="49.2022711"><time>2023-06-03T08:47:52.997</time></trkpt><trkpt lat="55.8645365" lon="49.2023184"><time>2023-06-03T08:48:10.987</time></trkpt><trkpt lat="55.8645221" lon="49.2022391"><time>2023-06-03T08:48:32</time></trkpt><trkpt lat="55.8644718" lon="49.2022255"><time>2023-06-03T08:48:38.003</time></trkpt><trkpt lat="55.8644281" lon="49.2022617"><time>2023-06-03T08:48:52.007</time></trkpt><trkpt lat="55.8643801" lon="49.2022447"><time>2023-06-03T08:49:00.003</time></trkpt><trkpt lat="55.8643517" lon="49.2023128"><time>2023-06-03T08:49:11</time></trkpt><trkpt lat="55.8643129" lon="49.2023595"><time>2023-06-03T08:49:39.977</time></trkpt><trkpt lat="55.8642848" lon="49.2024295"><time>2023-06-03T08:49:53.987</time></trkpt><trkpt lat="55.8642847" lon="49.2024191"><time>2023-06-03T08:49:55.083</time></trkpt><trkpt lat="55.8642858" lon="49.2025286"><time>2023-06-03T08:50:15.977</time></trkpt><trkpt lat="55.8642767" lon="49.2026096"><time>2023-06-03T08:50:24.003</time></trkpt><trkpt lat="55.8642797" lon="49.2026943"><time>2023-06-03T08:50:33.997</time></trkpt><trkpt lat="55.8642866" lon="49.2027783"><time>2023-06-03T08:50:41.013</time></trkpt><trkpt lat="55.8643022" lon="49.2028543"><time>2023-06-03T08:50:46.013</time></trkpt><trkpt lat="55.8642574" lon="49.2028893"><time>2023-06-03T08:51:02.003</time></trkpt><trkpt lat="55.8642329" lon="49.2029576"><time>2023-06-03T08:51:12</time></trkpt><trkpt lat="55.8641890" lon="49.2029939"><time>2023-06-03T08:51:20</time></trkpt><trkpt lat="55.8641451" lon="49.2030241"><time>2023-06-03T08:51:29.993</time></trkpt><trkpt lat="55.8641323" lon="49.2029402"><time>2023-06-03T08:51:44</time></trkpt><trkpt lat="55.8641644" lon="49.2028826"><time>2023-06-03T08:51:56.030</time></trkpt><trkpt lat="55.8641634" lon="49.2027948"><time>2023-06-03T08:52:15.010</time></trkpt><trkpt lat="55.8641749" lon="49.2027146"><time>2023-06-03T08:52:21.010</time></trkpt><trkpt lat="55.8642038" lon="49.2026500"><time>2023-06-03T08:52:26.993</time></trkpt><trkpt lat="55.8642304" lon="49.2025759"><time>2023-06-03T08:52:34.987</time></trkpt><trkpt lat="55.8642721" lon="49.2026320"><time>2023-06-03T08:53:15</time></trkpt><trkpt lat="55.8642785" lon="49.2025457"><time>2023-06-03T08:53:29.023</time></trkpt><trkpt lat="55.8642374" lon="49.2024894"><time>2023-06-03T08:53:32.997</time></trkpt><trkpt lat="55.8641933" lon="49.2024242"><time>2023-06-03T08:53:37.003</time></trkpt><trkpt lat="55.8641634" lon="49.2023609"><time>2023-06-03T08:53:41.047</time></trkpt><trkpt lat="55.8641354" lon="49.2022909"><time>2023-06-03T08:53:47.003</time></trkpt><trkpt lat="55.8641918" lon="49.2022551"><time>2023-06-03T08:56:42.993</time></trkpt><trkpt lat="55.8642375" lon="49.2022123"><time>2023-06-03T08:56:45</time></trkpt><trkpt lat="55.8642767" lon="49.2021404"><time>2023-06-03T08:56:47</time></trkpt><trkpt lat="55.8643185" lon="49.2020531"><time>2023-06-03T08:56:49.033</time></trkpt><trkpt lat="55.8643216" lon="49.2020326"><time>2023-06-03T08:56:50.153</time></trkpt><trkpt lat="55.8643744" lon="49.2019230"><time>2023-06-03T08:56:51.993</time></trkpt><trkpt lat="55.8644247" lon="49.2018318"><time>2023-06-03T08:56:54.030</time></trkpt><trkpt lat="55.8644778" lon="49.2017498"><time>2023-06-03T08:56:56.020</time></trkpt><trkpt lat="55.8645335" lon="49.2016715"><time>2023-06-03T08:56:57.997</time></trkpt><trkpt lat="55.8645875" lon="49.2016032"><time>2023-06-03T08:57:00.013</time></trkpt><trkpt lat="55.8646408" lon="49.2015196"><time>2023-06-03T08:57:01.997</time></trkpt><trkpt lat="55.8646822" lon="49.2014215"><time>2023-06-03T08:57:04.017</time></trkpt><trkpt lat="55.8647211" lon="49.2013390"><time>2023-06-03T08:57:06.003</time></trkpt><trkpt lat="55.8647663" lon="49.2012658"><time>2023-06-03T08:57:08</time></trkpt><trkpt lat="55.8648025" lon="49.2012058"><time>2023-06-03T08:57:09.997</time></trkpt><trkpt lat="55.8648412" lon="49.2011558"><time>2023-06-03T08:57:11.997</time></trkpt><trkpt lat="55.8648818" lon="49.2011061"><time>2023-06-03T08:57:15.020</time></trkpt><trkpt lat="55.8649195" lon="49.2010221"><time>2023-06-03T08:57:19.997</time></trkpt><trkpt lat="55.8648724" lon="49.2010217"><time>2023-06-03T08:57:36.997</time></trkpt><trkpt lat="55.8648740" lon="49.2011202"><time>2023-06-03T08:57:51.017</time></trkpt><trkpt lat="55.8649131" lon="49.2011626"><time>2023-06-03T08:58:04.970</time></trkpt><trkpt lat="55.8649070" lon="49.2012421"><time>2023-06-03T08:58:16.997</time></trkpt><trkpt lat="55.8649114" lon="49.2013220"><time>2023-06-03T08:58:26.027</time></trkpt><trkpt lat="55.8649238" lon="49.2014248"><time>2023-06-03T08:58:31.020</time></trkpt><trkpt lat="55.8649277" lon="49.2014436"><time>2023-06-03T08:58:32.147</time></trkpt><trkpt lat="55.8649728" lon="49.2014744"><time>2023-06-03T08:58:44.003</time></trkpt><trkpt lat="55.8650135" lon="49.2015186"><time>2023-06-03T08:58:50.007</time></trkpt><trkpt lat="55.8650579" lon="49.2015662"><time>2023-06-03T08:58:53.997</time></trkpt><trkpt lat="55.8651103" lon="49.2015542"><time>2023-06-03T08:58:58.980</time></trkpt><trkpt lat="55.8651556" lon="49.2015428"><time>2023-06-03T08:59:03.970</time></trkpt><trkpt lat="55.8651218" lon="49.2014861"><time>2023-06-03T08:59:24.977</time></trkpt><trkpt lat="55.8650721" lon="49.2014765"><time>2023-06-03T08:59:31.980</time></trkpt><trkpt lat="55.8650230" lon="49.2014413"><time>2023-06-03T08:59:36.980</time></trkpt><trkpt lat="55.8650159" lon="49.2013603"><time>2023-06-03T08:59:40.987</time></trkpt><trkpt lat="55.8650290" lon="49.2012834"><time>2023-06-03T08:59:44.993</time></trkpt><trkpt lat="55.8650341" lon="49.2012759"><time>2023-06-03T08:59:46.100</time></trkpt><trkpt lat="55.8650815" lon="49.2012476"><time>2023-06-03T08:59:54.977</time></trkpt><trkpt lat="55.8651194" lon="49.2011958"><time>2023-06-03T08:59:59.003</time></trkpt><trkpt lat="55.8651677" lon="49.2012099"><time>2023-06-03T09:00:06.010</time></trkpt><trkpt lat="55.8652152" lon="49.2012099"><time>2023-06-03T09:00:12.010</time></trkpt><trkpt lat="55.8652614" lon="49.2012474"><time>2023-06-03T09:00:19.017</time></trkpt><trkpt lat="55.8652951" lon="49.2013013"><time>2023-06-03T09:00:24.027</time></trkpt><trkpt lat="55.8652860" lon="49.2012745"><time>2023-06-03T09:00:25.143</time></trkpt><trkpt lat="55.8653323" lon="49.2012625"><time>2023-06-03T09:00:30.987</time></trkpt><trkpt lat="55.8653357" lon="49.2012596"><time>2023-06-03T09:00:32.103</time></trkpt><trkpt lat="55.8653016" lon="49.2012023"><time>2023-06-03T09:00:41.987</time></trkpt><trkpt lat="55.8652559" lon="49.2011585"><time>2023-06-03T09:00:47.997</time></trkpt><trkpt lat="55.8652045" lon="49.2011719"><time>2023-06-03T09:00:52.990</time></trkpt><trkpt lat="55.8651551" lon="49.2012148"><time>2023-06-03T09:00:58.967</time></trkpt><trkpt lat="55.8651037" lon="49.2012005"><time>2023-06-03T09:01:04.977</time></trkpt><trkpt lat="55.8650518" lon="49.2012134"><time>2023-06-03T09:01:09.987</time></trkpt><trkpt lat="55.8650254" lon="49.2012883"><time>2023-06-03T09:01:15.980</time></trkpt><trkpt lat="55.8650292" lon="49.2013685"><time>2023-06-03T09:01:19.990</time></trkpt><trkpt lat="55.8650351" lon="49.2013777"><time>2023-06-03T09:01:21.097</time></trkpt><trkpt lat="55.8650580" lon="49.2014495"><time>2023-06-03T09:01:24.973</time></trkpt><trkpt lat="55.8651067" lon="49.2014859"><time>2023-06-03T09:01:28.983</time></trkpt><trkpt lat="55.8651553" lon="49.2014792"><time>2023-06-03T09:01:32.977</time></trkpt><trkpt lat="55.8652001" lon="49.2015496"><time>2023-06-03T09:01:36.980</time></trkpt><trkpt lat="55.8652099" lon="49.2016339"><time>2023-06-03T09:01:39.977</time></trkpt><trkpt lat="55.8652055" lon="49.2017141"><time>2023-06-03T09:01:43.980</time></trkpt><trkpt lat="55.8651815" lon="49.2017940"><time>2023-06-03T09:01:49.990</time></trkpt><trkpt lat="55.8651815" lon="49.2017940"><time>2023-06-03T09:01:50.030</time></trkpt><trkpt lat="55.8651442" lon="49.2017490"><time>2023-06-03T09:01:56.987</time></trkpt><trkpt lat="55.8651629" lon="49.2017445"><time>2023-06-03T09:01:58.097</time></trkpt><trkpt lat="55.8651636" lon="49.2018417"><time>2023-06-03T09:02:04.997</time></trkpt><trkpt lat="55.8651758" lon="49.2019200"><time>2023-06-03T09:02:08.997</time></trkpt><trkpt lat="55.8651866" lon="49.2019990"><time>2023-06-03T09:02:15.017</time></trkpt><trkpt lat="55.8651819" lon="49.2019031"><time>2023-06-03T09:02:39.987</time></trkpt><trkpt lat="55.8651916" lon="49.2018239"><time>2023-06-03T09:02:44.997</time></trkpt><trkpt lat="55.8652108" lon="49.2017407"><time>2023-06-03T09:02:50.997</time></trkpt><trkpt lat="55.8651924" lon="49.2016520"><time>2023-06-03T09:02:54.997</time></trkpt><trkpt lat="55.8651516" lon="49.2016112"><time>2023-06-03T09:02:58</time></trkpt><trkpt lat="55.8651125" lon="49.2015556"><time>2023-06-03T09:03:02.007</time></trkpt><trkpt lat="55.8650983" lon="49.2014760"><time>2023-06-03T09:03:07</time></trkpt><trkpt lat="55.8650933" lon="49.2013961"><time>2023-06-03T09:03:12.997</time></trkpt><trkpt lat="55.8650925" lon="49.2013030"><time>2023-06-03T09:03:19.007</time></trkpt><trkpt lat="55.8650600" lon="49.2012421"><time>2023-06-03T09:03:23.987</time></trkpt><trkpt lat="55.8650362" lon="49.2011678"><time>2023-06-03T09:03:35.997</time></trkpt><trkpt lat="55.8649895" lon="49.2011300"><time>2023-06-03T09:03:41.990</time></trkpt><trkpt lat="55.8649443" lon="49.2011123"><time>2023-06-03T09:03:47.990</time></trkpt><trkpt lat="55.8648956" lon="49.2010669"><time>2023-06-03T09:03:53.993</time></trkpt><trkpt lat="55.8649345" lon="49.2010152"><time>2023-06-03T09:03:58.997</time></trkpt><trkpt lat="55.8649834" lon="49.2010174"><time>2023-06-03T09:05:45.997</time></trkpt><trkpt lat="55.8650246" lon="49.2009689"><time>2023-06-03T09:05:50.003</time></trkpt><trkpt lat="55.8650750" lon="49.2009136"><time>2023-06-03T09:05:53.997</time></trkpt><trkpt lat="55.8651168" lon="49.2008601"><time>2023-06-03T09:05:56.987</time></trkpt><trkpt lat="55.8651626" lon="49.2008407"><time>2023-06-03T09:05:59.010</time></trkpt><trkpt lat="55.8652057" lon="49.2008167"><time>2023-06-03T09:06:00.990</time></trkpt><trkpt lat="55.8652692" lon="49.2007931"><time>2023-06-03T09:06:03.990</time></trkpt><trkpt lat="55.8653423" lon="49.2007586"><time>2023-06-03T09:06:06.007</time></trkpt><trkpt lat="55.8653940" lon="49.2007385"><time>2023-06-03T09:06:07.010</time></trkpt><trkpt lat="55.8654522" lon="49.2007168"><time>2023-06-03T09:06:08.010</time></trkpt><trkpt lat="55.8654987" lon="49.2007019"><time>2023-06-03T09:06:09.013</time></trkpt><trkpt lat="55.8655675" lon="49.2006790"><time>2023-06-03T09:06:11.007</time></trkpt><trkpt lat="55.8657905" lon="49.2006196"><time>2023-06-03T09:06:11.990</time></trkpt><trkpt lat="55.8658353" lon="49.2006050"><time>2023-06-03T09:06:13.997</time></trkpt><trkpt lat="55.8658708" lon="49.2005522"><time>2023-06-03T09:06:16.993</time></trkpt><trkpt lat="55.8659037" lon="49.2004834"><time>2023-06-03T09:06:18.987</time></trkpt><trkpt lat="55.8659512" lon="49.2003979"><time>2023-06-03T09:06:20.990</time></trkpt><trkpt lat="55.8659981" lon="49.2002970"><time>2023-06-03T09:06:23.003</time></trkpt><trkpt lat="55.8660492" lon="49.2002021"><time>2023-06-03T09:06:24.997</time></trkpt><trkpt lat="55.8660955" lon="49.2001147"><time>2023-06-03T09:06:27.990</time></trkpt><trkpt lat="55.8661333" lon="49.2000354"><time>2023-06-03T09:06:29.990</time></trkpt><trkpt lat="55.8661786" lon="49.1999133"><time>2023-06-03T09:06:31.997</time></trkpt><trkpt lat="55.8662218" lon="49.1998118"><time>2023-06-03T09:06:33.990</time></trkpt><trkpt lat="55.8662531" lon="49.1997049"><time>2023-06-03T09:06:35.990</time></trkpt><trkpt lat="55.8662686" lon="49.1995890"><time>2023-06-03T09:06:37.987</time></trkpt><trkpt lat="55.8662780" lon="49.1994653"><time>2023-06-03T09:06:40.010</time></trkpt><trkpt lat="55.8662994" lon="49.1993417"><time>2023-06-03T09:06:41.990</time></trkpt><trkpt lat="55.8663131" lon="49.1992308"><time>2023-06-03T09:06:43.997</time></trkpt><trkpt lat="55.8663361" lon="49.1991063"><time>2023-06-03T09:06:45.990</time></trkpt><trkpt lat="55.8663615" lon="49.1990002"><time>2023-06-03T09:06:48</time></trkpt><trkpt lat="55.8663956" lon="49.1989048"><time>2023-06-03T09:06:50.997</time></trkpt><trkpt lat="55.8664189" lon="49.1988021"><time>2023-06-03T09:06:52.990</time></trkpt><trkpt lat="55.8664416" lon="49.1986745"><time>2023-06-03T09:06:54.993</time></trkpt><trkpt lat="55.8664638" lon="49.1985550"><time>2023-06-03T09:06:56.993</time></trkpt><trkpt lat="55.8664869" lon="49.1984624"><time>2023-06-03T09:06:58.997</time></trkpt><trkpt lat="55.8665076" lon="49.1983723"><time>2023-06-03T09:07:00.990</time></trkpt><trkpt lat="55.8665209" lon="49.1982880"><time>2023-06-03T09:07:02.987</time></trkpt><trkpt lat="55.8665531" lon="49.1981926"><time>2023-06-03T09:07:05.997</time></trkpt><trkpt lat="55.8665935" lon="49.1981430"><time>2023-06-03T09:07:07.997</time></trkpt><trkpt lat="55.8666357" lon="49.1980987"><time>2023-06-03T09:07:09.987</time></trkpt><trkpt lat="55.8666754" lon="49.1980277"><time>2023-06-03T09:07:11.990</time></trkpt><trkpt lat="55.8667007" lon="49.1979434"><time>2023-06-03T09:07:14</time></trkpt><trkpt lat="55.8667172" lon="49.1978673"><time>2023-06-03T09:07:15.997</time></trkpt><trkpt lat="55.8667500" lon="49.1977871"><time>2023-06-03T09:07:17.987</time></trkpt><trkpt lat="55.8667750" lon="49.1977192"><time>2023-06-03T09:07:19.990</time></trkpt><trkpt lat="55.8668026" lon="49.1976395"><time>2023-06-03T09:07:21.993</time></trkpt><trkpt lat="55.8668380" lon="49.1975500"><time>2023-06-03T09:07:23.990</time></trkpt><trkpt lat="55.8668611" lon="49.1974787"><time>2023-06-03T09:07:24.987</time></trkpt><trkpt lat="55.8668840" lon="49.1974092"><time>2023-06-03T09:07:25.987</time></trkpt><trkpt lat="55.8669525" lon="49.1972286"><time>2023-06-03T09:07:27.987</time></trkpt><trkpt lat="55.8670064" lon="49.1971428"><time>2023-06-03T09:07:29.997</time></trkpt><trkpt lat="55.8670526" lon="49.1970530"><time>2023-06-03T09:07:31.987</time></trkpt><trkpt lat="55.8670954" lon="49.1969738"><time>2023-06-03T09:07:33.983</time></trkpt><trkpt lat="55.8671402" lon="49.1969084"><time>2023-06-03T09:07:35.983</time></trkpt><trkpt lat="55.8671946" lon="49.1968276"><time>2023-06-03T09:07:37.990</time></trkpt><trkpt lat="55.8672384" lon="49.1967558"><time>2023-06-03T09:07:39.007</time></trkpt><trkpt lat="55.8672760" lon="49.1967012"><time>2023-06-03T09:07:40.007</time></trkpt><trkpt lat="55.8673145" lon="49.1966477"><time>2023-06-03T09:07:41.023</time></trkpt><trkpt lat="55.8673725" lon="49.1965381"><time>2023-06-03T09:07:42.990</time></trkpt><trkpt lat="55.8674139" lon="49.1964486"><time>2023-06-03T09:07:45.007</time></trkpt><trkpt lat="55.8674547" lon="49.1963771"><time>2023-06-03T09:07:46.993</time></trkpt><trkpt lat="55.8675113" lon="49.1963132"><time>2023-06-03T09:07:49.030</time></trkpt><trkpt lat="55.8675517" lon="49.1962749"><time>2023-06-03T09:07:49.997</time></trkpt><trkpt lat="55.8676237" lon="49.1961989"><time>2023-06-03T09:07:51.993</time></trkpt><trkpt lat="55.8676597" lon="49.1961432"><time>2023-06-03T09:07:52.997</time></trkpt><trkpt lat="55.8677007" lon="49.1960935"><time>2023-06-03T09:07:53.997</time></trkpt><trkpt lat="55.8677867" lon="49.1960460"><time>2023-06-03T09:07:56.040</time></trkpt><trkpt lat="55.8678317" lon="49.1960338"><time>2023-06-03T09:07:57</time></trkpt><trkpt lat="55.8679072" lon="49.1960173"><time>2023-06-03T09:07:59.030</time></trkpt><trkpt lat="55.8679821" lon="49.1960115"><time>2023-06-03T09:08:00.997</time></trkpt><trkpt lat="55.8680278" lon="49.1960095"><time>2023-06-03T09:08:01.993</time></trkpt><trkpt lat="55.8680991" lon="49.1959917"><time>2023-06-03T09:08:04.003</time></trkpt><trkpt lat="55.8681430" lon="49.1959689"><time>2023-06-03T09:08:05.993</time></trkpt><trkpt lat="55.8682048" lon="49.1959241"><time>2023-06-03T09:08:08.993</time></trkpt><trkpt lat="55.8682588" lon="49.1958541"><time>2023-06-03T09:08:11.993</time></trkpt><trkpt lat="55.8682893" lon="49.1957821"><time>2023-06-03T09:08:14.003</time></trkpt><trkpt lat="55.8683239" lon="49.1956935"><time>2023-06-03T09:08:15.993</time></trkpt><trkpt lat="55.8683475" lon="49.1956075"><time>2023-06-03T09:08:17.997</time></trkpt><trkpt lat="55.8683600" lon="49.1955111"><time>2023-06-03T09:08:19.990</time></trkpt><trkpt lat="55.8683652" lon="49.1954026"><time>2023-06-03T09:08:22</time></trkpt><trkpt lat="55.8683623" lon="49.1952920"><time>2023-06-03T09:08:23.967</time></trkpt><trkpt lat="55.8683620" lon="49.1951586"><time>2023-06-03T09:08:25.987</time></trkpt><trkpt lat="55.8683668" lon="49.1950135"><time>2023-06-03T09:08:27.983</time></trkpt><trkpt lat="55.8683826" lon="49.1948759"><time>2023-06-03T09:08:29.993</time></trkpt><trkpt lat="55.8684077" lon="49.1947312"><time>2023-06-03T09:08:31.993</time></trkpt><trkpt lat="55.8684228" lon="49.1946537"><time>2023-06-03T09:08:32.997</time></trkpt><trkpt lat="55.8684360" lon="49.1945608"><time>2023-06-03T09:08:33.993</time></trkpt><trkpt lat="55.8684522" lon="49.1944010"><time>2023-06-03T09:08:36</time></trkpt><trkpt lat="55.8684475" lon="49.1943210"><time>2023-06-03T09:08:37.007</time></trkpt><trkpt lat="55.8684530" lon="49.1942349"><time>2023-06-03T09:08:37.993</time></trkpt><trkpt lat="55.8684762" lon="49.1940989"><time>2023-06-03T09:08:40.007</time></trkpt><trkpt lat="55.8684846" lon="49.1940164"><time>2023-06-03T09:08:42</time></trkpt><trkpt lat="55.8685052" lon="49.1939148"><time>2023-06-03T09:08:45.020</time></trkpt><trkpt lat="55.8685236" lon="49.1938292"><time>2023-06-03T09:08:46.997</time></trkpt><trkpt lat="55.8685402" lon="49.1937470"><time>2023-06-03T09:08:48.997</time></trkpt><trkpt lat="55.8685616" lon="49.1936453"><time>2023-06-03T09:08:51.013</time></trkpt><trkpt lat="55.8685897" lon="49.1935482"><time>2023-06-03T09:08:52.997</time></trkpt><trkpt lat="55.8686233" lon="49.1934702"><time>2023-06-03T09:08:55.033</time></trkpt><trkpt lat="55.8686599" lon="49.1934104"><time>2023-06-03T09:08:57</time></trkpt><trkpt lat="55.8687014" lon="49.1933704"><time>2023-06-03T09:08:59</time></trkpt><trkpt lat="55.8687458" lon="49.1933559"><time>2023-06-03T09:12:28.993</time></trkpt><trkpt lat="55.8687910" lon="49.1933052"><time>2023-06-03T09:12:31.970</time></trkpt><trkpt lat="55.8688504" lon="49.1932777"><time>2023-06-03T09:12:33.970</time></trkpt><trkpt lat="55.8689267" lon="49.1932457"><time>2023-06-03T09:12:35.987</time></trkpt><trkpt lat="55.8690002" lon="49.1932077"><time>2023-06-03T09:12:37.987</time></trkpt><trkpt lat="55.8690628" lon="49.1931822"><time>2023-06-03T09:12:39.993</time></trkpt><trkpt lat="55.8691083" lon="49.1931599"><time>2023-06-03T09:12:41.003</time></trkpt><trkpt lat="55.8691953" lon="49.1931319"><time>2023-06-03T09:12:42.997</time></trkpt><trkpt lat="55.8692496" lon="49.1931224"><time>2023-06-03T09:12:44.003</time></trkpt><trkpt lat="55.8693013" lon="49.1930944"><time>2023-06-03T09:12:45</time></trkpt><trkpt lat="55.8693576" lon="49.1930679"><time>2023-06-03T09:12:46.003</time></trkpt><trkpt lat="55.8694100" lon="49.1930377"><time>2023-06-03T09:12:46.997</time></trkpt><trkpt lat="55.8694607" lon="49.1930085"><time>2023-06-03T09:12:47.993</time></trkpt><trkpt lat="55.8695057" lon="49.1929897"><time>2023-06-03T09:12:49.027</time></trkpt><trkpt lat="55.8695650" lon="49.1929647"><time>2023-06-03T09:12:50.037</time></trkpt><trkpt lat="55.8696178" lon="49.1929290"><time>2023-06-03T09:12:51.007</time></trkpt><trkpt lat="55.8696751" lon="49.1929102"><time>2023-06-03T09:12:51.990</time></trkpt><trkpt lat="55.8697286" lon="49.1928881"><time>2023-06-03T09:12:52.993</time></trkpt><trkpt lat="55.8697849" lon="49.1928676"><time>2023-06-03T09:12:54.010</time></trkpt><trkpt lat="55.8698359" lon="49.1928678"><time>2023-06-03T09:12:54.997</time></trkpt><trkpt lat="55.8698973" lon="49.1928422"><time>2023-06-03T09:12:56</time></trkpt><trkpt lat="55.8699514" lon="49.1928275"><time>2023-06-03T09:12:56.993</time></trkpt><trkpt lat="55.8700014" lon="49.1928045"><time>2023-06-03T09:12:57.993</time></trkpt><trkpt lat="55.8700588" lon="49.1927846"><time>2023-06-03T09:12:58.977</time></trkpt><trkpt lat="55.8701114" lon="49.1927658"><time>2023-06-03T09:13:00.003</time></trkpt><trkpt lat="55.8701672" lon="49.1927432"><time>2023-06-03T09:13:01.013</time></trkpt><trkpt lat="55.8702201" lon="49.1927166"><time>2023-06-03T09:13:01.993</time></trkpt><trkpt lat="55.8702707" lon="49.1926847"><time>2023-06-03T09:13:02.993</time></trkpt><trkpt lat="55.8703737" lon="49.1926523"><time>2023-06-03T09:13:05.037</time></trkpt><trkpt lat="55.8704221" lon="49.1926273"><time>2023-06-03T09:13:05.997</time></trkpt><trkpt lat="55.8704732" lon="49.1926028"><time>2023-06-03T09:13:06.997</time></trkpt><trkpt lat="55.8705275" lon="49.1925753"><time>2023-06-03T09:13:07.980</time></trkpt><trkpt lat="55.8705834" lon="49.1925533"><time>2023-06-03T09:13:08.990</time></trkpt><trkpt lat="55.8706413" lon="49.1925268"><time>2023-06-03T09:13:09.987</time></trkpt><trkpt lat="55.8707051" lon="49.1924961"><time>2023-06-03T09:13:10.987</time></trkpt><trkpt lat="55.8707632" lon="49.1924675"><time>2023-06-03T09:13:11.997</time></trkpt><trkpt lat="55.8708198" lon="49.1924346"><time>2023-06-03T09:13:12.993</time></trkpt><trkpt lat="55.8708669" lon="49.1923912"><time>2023-06-03T09:13:13.990</time></trkpt><trkpt lat="55.8709201" lon="49.1923471"><time>2023-06-03T09:13:14.990</time></trkpt><trkpt lat="55.8709640" lon="49.1922956"><time>2023-06-03T09:13:16</time></trkpt><trkpt lat="55.8710164" lon="49.1922520"><time>2023-06-03T09:13:16.990</time></trkpt><trkpt lat="55.8710638" lon="49.1922080"><time>2023-06-03T09:13:18.030</time></trkpt><trkpt lat="55.8711160" lon="49.1921662"><time>2023-06-03T09:13:18.987</time></trkpt><trkpt lat="55.8711719" lon="49.1921154"><time>2023-06-03T09:13:20.020</time></trkpt><trkpt lat="55.8712213" lon="49.1920718"><time>2023-06-03T09:13:20.977</time></trkpt><trkpt lat="55.8712769" lon="49.1920249"><time>2023-06-03T09:13:21.990</time></trkpt><trkpt lat="55.8713294" lon="49.1919701"><time>2023-06-03T09:13:22.987</time></trkpt><trkpt lat="55.8713816" lon="49.1919257"><time>2023-06-03T09:13:23.983</time></trkpt><trkpt lat="55.8714343" lon="49.1918928"><time>2023-06-03T09:13:24.993</time></trkpt><trkpt lat="55.8714834" lon="49.1918592"><time>2023-06-03T09:13:26.043</time></trkpt><trkpt lat="55.8715374" lon="49.1918243"><time>2023-06-03T09:13:26.990</time></trkpt><trkpt lat="55.8715902" lon="49.1918034"><time>2023-06-03T09:13:27.987</time></trkpt><trkpt lat="55.8716367" lon="49.1917826"><time>2023-06-03T09:13:28.980</time></trkpt><trkpt lat="55.8716948" lon="49.1917612"><time>2023-06-03T09:13:29.987</time></trkpt><trkpt lat="55.8717464" lon="49.1917488"><time>2023-06-03T09:13:30.987</time></trkpt><trkpt lat="55.8718152" lon="49.1917313"><time>2023-06-03T09:13:31.983</time></trkpt><trkpt lat="55.8718820" lon="49.1917175"><time>2023-06-03T09:13:32.987</time></trkpt><trkpt lat="55.8719415" lon="49.1917029"><time>2023-06-03T09:13:33.987</time></trkpt><trkpt lat="55.8719897" lon="49.1916964"><time>2023-06-03T09:13:34.983</time></trkpt><trkpt lat="55.8720494" lon="49.1916750"><time>2023-06-03T09:13:35.983</time></trkpt><trkpt lat="55.8721115" lon="49.1916631"><time>2023-06-03T09:13:36.987</time></trkpt><trkpt lat="55.8721690" lon="49.1916561"><time>2023-06-03T09:13:37.990</time></trkpt><trkpt lat="55.8722261" lon="49.1916395"><time>2023-06-03T09:13:38.997</time></trkpt><trkpt lat="55.8722815" lon="49.1916365"><time>2023-06-03T09:13:39.990</time></trkpt><trkpt lat="55.8723366" lon="49.1916239"><time>2023-06-03T09:13:40.993</time></trkpt><trkpt lat="55.8723895" lon="49.1916216"><time>2023-06-03T09:13:41.997</time></trkpt><trkpt lat="55.8724456" lon="49.1916253"><time>2023-06-03T09:13:42.960</time></trkpt><trkpt lat="55.8724987" lon="49.1916407"><time>2023-06-03T09:13:44.003</time></trkpt><trkpt lat="55.8725479" lon="49.1916458"><time>2023-06-03T09:13:44.993</time></trkpt><trkpt lat="55.8726109" lon="49.1916592"><time>2023-06-03T09:13:45.993</time></trkpt><trkpt lat="55.8726783" lon="49.1916635"><time>2023-06-03T09:13:46.987</time></trkpt><trkpt lat="55.8727496" lon="49.1916621"><time>2023-06-03T09:13:47.993</time></trkpt><trkpt lat="55.8728056" lon="49.1916721"><time>2023-06-03T09:13:48.993</time></trkpt><trkpt lat="55.8728799" lon="49.1916794"><time>2023-06-03T09:13:50</time></trkpt><trkpt lat="55.8729528" lon="49.1916927"><time>2023-06-03T09:13:50.993</time></trkpt><trkpt lat="55.8730214" lon="49.1916935"><time>2023-06-03T09:13:52</time></trkpt><trkpt lat="55.8730913" lon="49.1916996"><time>2023-06-03T09:13:52.980</time></trkpt><trkpt lat="55.8732042" lon="49.1916743"><time>2023-06-03T09:13:55</time></trkpt><trkpt lat="55.8732723" lon="49.1916418"><time>2023-06-03T09:13:56.007</time></trkpt><trkpt lat="55.8733363" lon="49.1916153"><time>2023-06-03T09:13:56.993</time></trkpt><trkpt lat="55.8733936" lon="49.1915963"><time>2023-06-03T09:13:57.987</time></trkpt><trkpt lat="55.8734557" lon="49.1915913"><time>2023-06-03T09:13:58.990</time></trkpt><trkpt lat="55.8735075" lon="49.1915815"><time>2023-06-03T09:13:59.997</time></trkpt><trkpt lat="55.8735625" lon="49.1915951"><time>2023-06-03T09:14:00.997</time></trkpt><trkpt lat="55.8736321" lon="49.1916008"><time>2023-06-03T09:14:01.997</time></trkpt><trkpt lat="55.8736928" lon="49.1916202"><time>2023-06-03T09:14:02.990</time></trkpt><trkpt lat="55.8737450" lon="49.1916153"><time>2023-06-03T09:14:04.023</time></trkpt><trkpt lat="55.8738114" lon="49.1916247"><time>2023-06-03T09:14:05</time></trkpt><trkpt lat="55.8738780" lon="49.1916481"><time>2023-06-03T09:14:05.997</time></trkpt><trkpt lat="55.8739430" lon="49.1916506"><time>2023-06-03T09:14:06.987</time></trkpt><trkpt lat="55.8739989" lon="49.1916625"><time>2023-06-03T09:14:07.990</time></trkpt><trkpt lat="55.8740547" lon="49.1916709"><time>2023-06-03T09:14:08.983</time></trkpt><trkpt lat="55.8740999" lon="49.1916983"><time>2023-06-03T09:14:09.997</time></trkpt><trkpt lat="55.8741998" lon="49.1917189"><time>2023-06-03T09:14:11.997</time></trkpt><trkpt lat="55.8742571" lon="49.1917356"><time>2023-06-03T09:14:13</time></trkpt><trkpt lat="55.8743082" lon="49.1917554"><time>2023-06-03T09:14:13.997</time></trkpt><trkpt lat="55.8743659" lon="49.1917688"><time>2023-06-03T09:14:15.007</time></trkpt><trkpt lat="55.8744209" lon="49.1917970"><time>2023-06-03T09:14:16</time></trkpt><trkpt lat="55.8744789" lon="49.1918264"><time>2023-06-03T09:14:16.990</time></trkpt><trkpt lat="55.8745426" lon="49.1918417"><time>2023-06-03T09:14:17.987</time></trkpt><trkpt lat="55.8745978" lon="49.1918733"><time>2023-06-03T09:14:18.993</time></trkpt><trkpt lat="55.8746535" lon="49.1919154"><time>2023-06-03T09:14:20.017</time></trkpt><trkpt lat="55.8747128" lon="49.1919567"><time>2023-06-03T09:14:21.097</time></trkpt><trkpt lat="55.8747696" lon="49.1919950"><time>2023-06-03T09:14:22</time></trkpt><trkpt lat="55.8748126" lon="49.1920392"><time>2023-06-03T09:14:22.990</time></trkpt><trkpt lat="55.8748819" lon="49.1920922"><time>2023-06-03T09:14:23.990</time></trkpt><trkpt lat="55.8749342" lon="49.1921322"><time>2023-06-03T09:14:25.007</time></trkpt><trkpt lat="55.8749948" lon="49.1921587"><time>2023-06-03T09:14:25.977</time></trkpt><trkpt lat="55.8750500" lon="49.1922047"><time>2023-06-03T09:14:26.987</time></trkpt><trkpt lat="55.8751045" lon="49.1922532"><time>2023-06-03T09:14:27.987</time></trkpt><trkpt lat="55.8751640" lon="49.1922905"><time>2023-06-03T09:14:28.997</time></trkpt><trkpt lat="55.8752182" lon="49.1923514"><time>2023-06-03T09:14:29.990</time></trkpt><trkpt lat="55.8752695" lon="49.1924102"><time>2023-06-03T09:14:30.970</time></trkpt><trkpt lat="55.8753262" lon="49.1924698"><time>2023-06-03T09:14:31.997</time></trkpt><trkpt lat="55.8753715" lon="49.1925310"><time>2023-06-03T09:14:32.997</time></trkpt><trkpt lat="55.8754128" lon="49.1926043"><time>2023-06-03T09:14:33.997</time></trkpt><trkpt lat="55.8754595" lon="49.1926737"><time>2023-06-03T09:14:35</time></trkpt><trkpt lat="55.8755032" lon="49.1927350"><time>2023-06-03T09:14:36.017</time></trkpt><trkpt lat="55.8755815" lon="49.1928391"><time>2023-06-03T09:14:37.997</time></trkpt><trkpt lat="55.8756259" lon="49.1928908"><time>2023-06-03T09:14:39.023</time></trkpt><trkpt lat="55.8756682" lon="49.1929416"><time>2023-06-03T09:14:40.023</time></trkpt><trkpt lat="55.8757321" lon="49.1930156"><time>2023-06-03T09:14:41.990</time></trkpt><trkpt lat="55.8757746" lon="49.1930582"><time>2023-06-03T09:14:42.983</time></trkpt><trkpt lat="55.8758160" lon="49.1931028"><time>2023-06-03T09:14:43.980</time></trkpt><trkpt lat="55.8758762" lon="49.1931462"><time>2023-06-03T09:14:44.983</time></trkpt><trkpt lat="55.8759375" lon="49.1931889"><time>2023-06-03T09:14:45.983</time></trkpt><trkpt lat="55.8760011" lon="49.1932355"><time>2023-06-03T09:14:46.990</time></trkpt><trkpt lat="55.8760483" lon="49.1932809"><time>2023-06-03T09:14:47.977</time></trkpt><trkpt lat="55.8761017" lon="49.1933207"><time>2023-06-03T09:14:49.030</time></trkpt><trkpt lat="55.8761600" lon="49.1933673"><time>2023-06-03T09:14:50</time></trkpt><trkpt lat="55.8762226" lon="49.1933982"><time>2023-06-03T09:14:50.990</time></trkpt><trkpt lat="55.8762771" lon="49.1934125"><time>2023-06-03T09:14:51.997</time></trkpt><trkpt lat="55.8763510" lon="49.1934207"><time>2023-06-03T09:14:52.993</time></trkpt><trkpt lat="55.8764071" lon="49.1934337"><time>2023-06-03T09:14:54.023</time></trkpt><trkpt lat="55.8764548" lon="49.1934475"><time>2023-06-03T09:14:54.997</time></trkpt><trkpt lat="55.8765196" lon="49.1934613"><time>2023-06-03T09:14:55.997</time></trkpt><trkpt lat="55.8765955" lon="49.1934703"><time>2023-06-03T09:14:56.997</time></trkpt><trkpt lat="55.8766630" lon="49.1934911"><time>2023-06-03T09:14:57.973</time></trkpt><trkpt lat="55.8767317" lon="49.1935164"><time>2023-06-03T09:14:58.963</time></trkpt><trkpt lat="55.8767958" lon="49.1935311"><time>2023-06-03T09:15:00</time></trkpt><trkpt lat="55.8768665" lon="49.1935824"><time>2023-06-03T09:15:01</time></trkpt><trkpt lat="55.8769398" lon="49.1936225"><time>2023-06-03T09:15:01.993</time></trkpt><trkpt lat="55.8770160" lon="49.1936812"><time>2023-06-03T09:15:02.997</time></trkpt><trkpt lat="55.8770840" lon="49.1937406"><time>2023-06-03T09:15:04.027</time></trkpt><trkpt lat="55.8771500" lon="49.1937887"><time>2023-06-03T09:15:05.033</time></trkpt><trkpt lat="55.8771977" lon="49.1938440"><time>2023-06-03T09:15:05.997</time></trkpt><trkpt lat="55.8772568" lon="49.1938896"><time>2023-06-03T09:15:06.997</time></trkpt><trkpt lat="55.8773268" lon="49.1939392"><time>2023-06-03T09:15:07.987</time></trkpt><trkpt lat="55.8773846" lon="49.1939813"><time>2023-06-03T09:15:09.030</time></trkpt><trkpt lat="55.8774499" lon="49.1940460"><time>2023-06-03T09:15:10.037</time></trkpt><trkpt lat="55.8775029" lon="49.1940970"><time>2023-06-03T09:15:11</time></trkpt><trkpt lat="55.8775574" lon="49.1941503"><time>2023-06-03T09:15:11.993</time></trkpt><trkpt lat="55.8776169" lon="49.1942235"><time>2023-06-03T09:15:12.997</time></trkpt><trkpt lat="55.8776671" lon="49.1942839"><time>2023-06-03T09:15:14.003</time></trkpt><trkpt lat="55.8777154" lon="49.1943438"><time>2023-06-03T09:15:15.007</time></trkpt><trkpt lat="55.8777709" lon="49.1944123"><time>2023-06-03T09:15:16.003</time></trkpt><trkpt lat="55.8778218" lon="49.1944757"><time>2023-06-03T09:15:16.990</time></trkpt><trkpt lat="55.8778764" lon="49.1945238"><time>2023-06-03T09:15:17.990</time></trkpt><trkpt lat="55.8779215" lon="49.1945906"><time>2023-06-03T09:15:18.993</time></trkpt><trkpt lat="55.8779685" lon="49.1946676"><time>2023-06-03T09:15:19.997</time></trkpt><trkpt lat="55.8780135" lon="49.1947326"><time>2023-06-03T09:15:21.010</time></trkpt><trkpt lat="55.8780544" lon="49.1948220"><time>2023-06-03T09:15:21.997</time></trkpt><trkpt lat="55.8781042" lon="49.1948883"><time>2023-06-03T09:15:22.993</time></trkpt><trkpt lat="55.8781444" lon="49.1949585"><time>2023-06-03T09:15:23.983</time></trkpt><trkpt lat="55.8781918" lon="49.1950199"><time>2023-06-03T09:15:25.007</time></trkpt><trkpt lat="55.8782367" lon="49.1950840"><time>2023-06-03T09:15:26.147</time></trkpt><trkpt lat="55.8782824" lon="49.1951452"><time>2023-06-03T09:15:27</time></trkpt><trkpt lat="55.8783319" lon="49.1952083"><time>2023-06-03T09:15:27.997</time></trkpt><trkpt lat="55.8783782" lon="49.1952718"><time>2023-06-03T09:15:29.007</time></trkpt><trkpt lat="55.8784210" lon="49.1953430"><time>2023-06-03T09:15:29.997</time></trkpt><trkpt lat="55.8784665" lon="49.1954049"><time>2023-06-03T09:15:31.003</time></trkpt><trkpt lat="55.8785133" lon="49.1954685"><time>2023-06-03T09:15:31.983</time></trkpt><trkpt lat="55.8785632" lon="49.1955276"><time>2023-06-03T09:15:33</time></trkpt><trkpt lat="55.8786104" lon="49.1955765"><time>2023-06-03T09:15:34.033</time></trkpt><trkpt lat="55.8786628" lon="49.1956312"><time>2023-06-03T09:15:35.030</time></trkpt><trkpt lat="55.8787150" lon="49.1956848"><time>2023-06-03T09:15:35.987</time></trkpt><trkpt lat="55.8787682" lon="49.1957407"><time>2023-06-03T09:15:37.137</time></trkpt><trkpt lat="55.8788199" lon="49.1958008"><time>2023-06-03T09:15:37.993</time></trkpt><trkpt lat="55.8788705" lon="49.1958501"><time>2023-06-03T09:15:38.993</time></trkpt><trkpt lat="55.8789200" lon="49.1959092"><time>2023-06-03T09:15:39.997</time></trkpt><trkpt lat="55.8789679" lon="49.1959683"><time>2023-06-03T09:15:40.983</time></trkpt><trkpt lat="55.8790215" lon="49.1960398"><time>2023-06-03T09:15:41.997</time></trkpt><trkpt lat="55.8790696" lon="49.1961117"><time>2023-06-03T09:15:42.993</time></trkpt><trkpt lat="55.8791143" lon="49.1961844"><time>2023-06-03T09:15:44.003</time></trkpt><trkpt lat="55.8791619" lon="49.1962528"><time>2023-06-03T09:15:45.007</time></trkpt><trkpt lat="55.8792077" lon="49.1963261"><time>2023-06-03T09:15:46.007</time></trkpt><trkpt lat="55.8792506" lon="49.1963999"><time>2023-06-03T09:15:46.997</time></trkpt><trkpt lat="55.8792937" lon="49.1964691"><time>2023-06-03T09:15:47.993</time></trkpt><trkpt lat="55.8793364" lon="49.1965398"><time>2023-06-03T09:15:48.990</time></trkpt><trkpt lat="55.8793808" lon="49.1966018"><time>2023-06-03T09:15:50</time></trkpt><trkpt lat="55.8794260" lon="49.1966627"><time>2023-06-03T09:15:51.030</time></trkpt><trkpt lat="55.8794723" lon="49.1967285"><time>2023-06-03T09:15:51.993</time></trkpt><trkpt lat="55.8795109" lon="49.1967961"><time>2023-06-03T09:15:52.993</time></trkpt><trkpt lat="55.8795482" lon="49.1968575"><time>2023-06-03T09:15:54.003</time></trkpt><trkpt lat="55.8795835" lon="49.1969150"><time>2023-06-03T09:15:55.010</time></trkpt><trkpt lat="55.8796223" lon="49.1969655"><time>2023-06-03T09:15:56.007</time></trkpt><trkpt lat="55.8796607" lon="49.1970230"><time>2023-06-03T09:15:56.990</time></trkpt><trkpt lat="55.8797017" lon="49.1970798"><time>2023-06-03T09:15:57.993</time></trkpt><trkpt lat="55.8797354" lon="49.1971373"><time>2023-06-03T09:15:58.997</time></trkpt><trkpt lat="55.8797700" lon="49.1972034"><time>2023-06-03T09:16:00.003</time></trkpt><trkpt lat="55.8798372" lon="49.1973221"><time>2023-06-03T09:16:01.993</time></trkpt><trkpt lat="55.8798817" lon="49.1973752"><time>2023-06-03T09:16:02.997</time></trkpt><trkpt lat="55.8799231" lon="49.1974242"><time>2023-06-03T09:16:04.037</time></trkpt><trkpt lat="55.8799735" lon="49.1974612"><time>2023-06-03T09:16:05.043</time></trkpt><trkpt lat="55.8800248" lon="49.1974909"><time>2023-06-03T09:16:06</time></trkpt><trkpt lat="55.8800788" lon="49.1975167"><time>2023-06-03T09:16:06.993</time></trkpt><trkpt lat="55.8801376" lon="49.1975463"><time>2023-06-03T09:16:07.993</time></trkpt><trkpt lat="55.8801971" lon="49.1975687"><time>2023-06-03T09:16:09.037</time></trkpt><trkpt lat="55.8802608" lon="49.1975893"><time>2023-06-03T09:16:10.010</time></trkpt><trkpt lat="55.8803250" lon="49.1976089"><time>2023-06-03T09:16:11.050</time></trkpt><trkpt lat="55.8803932" lon="49.1976340"><time>2023-06-03T09:16:11.993</time></trkpt><trkpt lat="55.8804546" lon="49.1976531"><time>2023-06-03T09:16:12.993</time></trkpt><trkpt lat="55.8805184" lon="49.1976673"><time>2023-06-03T09:16:14.007</time></trkpt><trkpt lat="55.8805810" lon="49.1976944"><time>2023-06-03T09:16:15.010</time></trkpt><trkpt lat="55.8806437" lon="49.1977104"><time>2023-06-03T09:16:16.007</time></trkpt><trkpt lat="55.8807112" lon="49.1977333"><time>2023-06-03T09:16:16.990</time></trkpt><trkpt lat="55.8807757" lon="49.1977534"><time>2023-06-03T09:16:17.990</time></trkpt><trkpt lat="55.8808385" lon="49.1977778"><time>2023-06-03T09:16:19</time></trkpt><trkpt lat="55.8809004" lon="49.1977992"><time>2023-06-03T09:16:20.040</time></trkpt><trkpt lat="55.8809633" lon="49.1978164"><time>2023-06-03T09:16:21.033</time></trkpt><trkpt lat="55.8810255" lon="49.1978381"><time>2023-06-03T09:16:21.997</time></trkpt><trkpt lat="55.8810869" lon="49.1978638"><time>2023-06-03T09:16:22.990</time></trkpt><trkpt lat="55.8811477" lon="49.1978794"><time>2023-06-03T09:16:24.007</time></trkpt><trkpt lat="55.8812070" lon="49.1978976"><time>2023-06-03T09:16:25.003</time></trkpt><trkpt lat="55.8812682" lon="49.1979190"><time>2023-06-03T09:16:26</time></trkpt><trkpt lat="55.8813307" lon="49.1979314"><time>2023-06-03T09:16:26.997</time></trkpt><trkpt lat="55.8813912" lon="49.1979502"><time>2023-06-03T09:16:28.037</time></trkpt><trkpt lat="55.8814493" lon="49.1979709"><time>2023-06-03T09:16:29.003</time></trkpt><trkpt lat="55.8815020" lon="49.1979987"><time>2023-06-03T09:16:29.993</time></trkpt><trkpt lat="55.8815571" lon="49.1980244"><time>2023-06-03T09:16:30.967</time></trkpt><trkpt lat="55.8816108" lon="49.1980515"><time>2023-06-03T09:16:31.993</time></trkpt><trkpt lat="55.8816668" lon="49.1980744"><time>2023-06-03T09:16:33</time></trkpt><trkpt lat="55.8817232" lon="49.1980974"><time>2023-06-03T09:16:34.010</time></trkpt><trkpt lat="55.8817753" lon="49.1981192"><time>2023-06-03T09:16:35.013</time></trkpt><trkpt lat="55.8818298" lon="49.1981472"><time>2023-06-03T09:16:36.007</time></trkpt><trkpt lat="55.8818822" lon="49.1981711"><time>2023-06-03T09:16:36.997</time></trkpt><trkpt lat="55.8819367" lon="49.1981992"><time>2023-06-03T09:16:38.007</time></trkpt><trkpt lat="55.8819876" lon="49.1982238"><time>2023-06-03T09:16:38.997</time></trkpt><trkpt lat="55.8820408" lon="49.1982469"><time>2023-06-03T09:16:40.007</time></trkpt><trkpt lat="55.8820952" lon="49.1982687"><time>2023-06-03T09:16:41.027</time></trkpt><trkpt lat="55.8821491" lon="49.1983006"><time>2023-06-03T09:16:41.997</time></trkpt><trkpt lat="55.8822046" lon="49.1983229"><time>2023-06-03T09:16:42.997</time></trkpt><trkpt lat="55.8822629" lon="49.1983460"><time>2023-06-03T09:16:44.007</time></trkpt><trkpt lat="55.8823202" lon="49.1983623"><time>2023-06-03T09:16:45.040</time></trkpt><trkpt lat="55.8823786" lon="49.1983869"><time>2023-06-03T09:16:46.010</time></trkpt><trkpt lat="55.8824340" lon="49.1984073"><time>2023-06-03T09:16:46.997</time></trkpt><trkpt lat="55.8824892" lon="49.1984291"><time>2023-06-03T09:16:48</time></trkpt><trkpt lat="55.8825474" lon="49.1984537"><time>2023-06-03T09:16:49.033</time></trkpt><trkpt lat="55.8826016" lon="49.1984784"><time>2023-06-03T09:16:50.003</time></trkpt><trkpt lat="55.8826575" lon="49.1985003"><time>2023-06-03T09:16:51.003</time></trkpt><trkpt lat="55.8827113" lon="49.1985217"><time>2023-06-03T09:16:51.993</time></trkpt><trkpt lat="55.8827671" lon="49.1985432"><time>2023-06-03T09:16:53</time></trkpt><trkpt lat="55.8828259" lon="49.1985552"><time>2023-06-03T09:16:54.023</time></trkpt><trkpt lat="55.8828798" lon="49.1985756"><time>2023-06-03T09:16:55.017</time></trkpt><trkpt lat="55.8829342" lon="49.1986000"><time>2023-06-03T09:16:56.007</time></trkpt><trkpt lat="55.8829881" lon="49.1986243"><time>2023-06-03T09:16:56.990</time></trkpt><trkpt lat="55.8830376" lon="49.1986460"><time>2023-06-03T09:16:57.993</time></trkpt><trkpt lat="55.8830942" lon="49.1986607"><time>2023-06-03T09:16:59.030</time></trkpt><trkpt lat="55.8831532" lon="49.1986878"><time>2023-06-03T09:17:00.037</time></trkpt><trkpt lat="55.8832133" lon="49.1987069"><time>2023-06-03T09:17:01.003</time></trkpt><trkpt lat="55.8832693" lon="49.1987274"><time>2023-06-03T09:17:01.987</time></trkpt><trkpt lat="55.8833283" lon="49.1987460"><time>2023-06-03T09:17:02.993</time></trkpt><trkpt lat="55.8833846" lon="49.1987685"><time>2023-06-03T09:17:04.037</time></trkpt><trkpt lat="55.8834411" lon="49.1987940"><time>2023-06-03T09:17:05.037</time></trkpt><trkpt lat="55.8834938" lon="49.1988146"><time>2023-06-03T09:17:06.037</time></trkpt><trkpt lat="55.8835500" lon="49.1988283"><time>2023-06-03T09:17:06.993</time></trkpt><trkpt lat="55.8836056" lon="49.1988494"><time>2023-06-03T09:17:07.993</time></trkpt><trkpt lat="55.8836605" lon="49.1988741"><time>2023-06-03T09:17:09.003</time></trkpt><trkpt lat="55.8837141" lon="49.1988858"><time>2023-06-03T09:17:10.033</time></trkpt><trkpt lat="55.8837716" lon="49.1989016"><time>2023-06-03T09:17:11.013</time></trkpt><trkpt lat="55.8838270" lon="49.1989202"><time>2023-06-03T09:17:11.993</time></trkpt><trkpt lat="55.8838840" lon="49.1989393"><time>2023-06-03T09:17:12.990</time></trkpt><trkpt lat="55.8839394" lon="49.1989562"><time>2023-06-03T09:17:14.020</time></trkpt><trkpt lat="55.8839954" lon="49.1989788"><time>2023-06-03T09:17:15.013</time></trkpt><trkpt lat="55.8840516" lon="49.1990037"><time>2023-06-03T09:17:16.010</time></trkpt><trkpt lat="55.8841094" lon="49.1990134"><time>2023-06-03T09:17:16.990</time></trkpt><trkpt lat="55.8841671" lon="49.1990334"><time>2023-06-03T09:17:17.997</time></trkpt><trkpt lat="55.8842252" lon="49.1990623"><time>2023-06-03T09:17:18.970</time></trkpt><trkpt lat="55.8842796" lon="49.1990940"><time>2023-06-03T09:17:20.020</time></trkpt><trkpt lat="55.8843336" lon="49.1991165"><time>2023-06-03T09:17:20.993</time></trkpt><trkpt lat="55.8843929" lon="49.1991366"><time>2023-06-03T09:17:22</time></trkpt><trkpt lat="55.8844518" lon="49.1991704"><time>2023-06-03T09:17:22.993</time></trkpt><trkpt lat="55.8845058" lon="49.1991922"><time>2023-06-03T09:17:23.980</time></trkpt><trkpt lat="55.8845619" lon="49.1992227"><time>2023-06-03T09:17:24.977</time></trkpt><trkpt lat="55.8846192" lon="49.1992469"><time>2023-06-03T09:17:25.997</time></trkpt><trkpt lat="55.8846723" lon="49.1992679"><time>2023-06-03T09:17:26.997</time></trkpt><trkpt lat="55.8847310" lon="49.1992956"><time>2023-06-03T09:17:27.983</time></trkpt><trkpt lat="55.8847834" lon="49.1993165"><time>2023-06-03T09:17:29.043</time></trkpt><trkpt lat="55.8848395" lon="49.1993383"><time>2023-06-03T09:17:29.997</time></trkpt><trkpt lat="55.8848925" lon="49.1993607"><time>2023-06-03T09:17:31.007</time></trkpt><trkpt lat="55.8849436" lon="49.1993857"><time>2023-06-03T09:17:31.993</time></trkpt><trkpt lat="55.8849994" lon="49.1994096"><time>2023-06-03T09:17:32.993</time></trkpt><trkpt lat="55.8850531" lon="49.1994393"><time>2023-06-03T09:17:34.003</time></trkpt><trkpt lat="55.8851079" lon="49.1994691"><time>2023-06-03T09:17:34.997</time></trkpt><trkpt lat="55.8851565" lon="49.1994916"><time>2023-06-03T09:17:35.990</time></trkpt><trkpt lat="55.8852046" lon="49.1995165"><time>2023-06-03T09:17:36.993</time></trkpt><trkpt lat="55.8852589" lon="49.1995391"><time>2023-06-03T09:17:37.993</time></trkpt><trkpt lat="55.8853051" lon="49.1995660"><time>2023-06-03T09:17:39.003</time></trkpt><trkpt lat="55.8853556" lon="49.1995817"><time>2023-06-03T09:17:40.017</time></trkpt><trkpt lat="55.8854068" lon="49.1995906"><time>2023-06-03T09:17:41.007</time></trkpt><trkpt lat="55.8854594" lon="49.1996012"><time>2023-06-03T09:17:41.997</time></trkpt><trkpt lat="55.8855097" lon="49.1996140"><time>2023-06-03T09:17:42.997</time></trkpt><trkpt lat="55.8855577" lon="49.1996247"><time>2023-06-03T09:17:44.003</time></trkpt><trkpt lat="55.8856105" lon="49.1996366"><time>2023-06-03T09:17:44.990</time></trkpt><trkpt lat="55.8856606" lon="49.1996507"><time>2023-06-03T09:17:46.003</time></trkpt><trkpt lat="55.8857109" lon="49.1996680"><time>2023-06-03T09:17:46.997</time></trkpt><trkpt lat="55.8857641" lon="49.1996739"><time>2023-06-03T09:17:48.007</time></trkpt><trkpt lat="55.8858191" lon="49.1996853"><time>2023-06-03T09:17:48.993</time></trkpt><trkpt lat="55.8858718" lon="49.1996947"><time>2023-06-03T09:17:50.007</time></trkpt><trkpt lat="55.8859262" lon="49.1997049"><time>2023-06-03T09:17:51.020</time></trkpt><trkpt lat="55.8859811" lon="49.1997131"><time>2023-06-03T09:17:51.987</time></trkpt><trkpt lat="55.8860352" lon="49.1997277"><time>2023-06-03T09:17:52.997</time></trkpt><trkpt lat="55.8860899" lon="49.1997378"><time>2023-06-03T09:17:54.020</time></trkpt><trkpt lat="55.8861400" lon="49.1997554"><time>2023-06-03T09:17:55.017</time></trkpt><trkpt lat="55.8861946" lon="49.1997685"><time>2023-06-03T09:17:56</time></trkpt><trkpt lat="55.8862481" lon="49.1997840"><time>2023-06-03T09:17:56.993</time></trkpt><trkpt lat="55.8863022" lon="49.1997920"><time>2023-06-03T09:17:58</time></trkpt><trkpt lat="55.8863512" lon="49.1997996"><time>2023-06-03T09:17:59.017</time></trkpt><trkpt lat="55.8863969" lon="49.1998044"><time>2023-06-03T09:18:00.003</time></trkpt><trkpt lat="55.8864445" lon="49.1998100"><time>2023-06-03T09:18:01.013</time></trkpt><trkpt lat="55.8864924" lon="49.1998106"><time>2023-06-03T09:18:01.990</time></trkpt><trkpt lat="55.8865397" lon="49.1998118"><time>2023-06-03T09:18:02.993</time></trkpt><trkpt lat="55.8865852" lon="49.1998154"><time>2023-06-03T09:18:04.047</time></trkpt><trkpt lat="55.8866370" lon="49.1998034"><time>2023-06-03T09:18:05</time></trkpt><trkpt lat="55.8866868" lon="49.1997874"><time>2023-06-03T09:18:06.007</time></trkpt><trkpt lat="55.8867339" lon="49.1997716"><time>2023-06-03T09:18:07.010</time></trkpt><trkpt lat="55.8867864" lon="49.1997542"><time>2023-06-03T09:18:08.017</time></trkpt><trkpt lat="55.8868362" lon="49.1997421"><time>2023-06-03T09:18:09.030</time></trkpt><trkpt lat="55.8868887" lon="49.1997276"><time>2023-06-03T09:18:10.003</time></trkpt><trkpt lat="55.8869364" lon="49.1997116"><time>2023-06-03T09:18:11.003</time></trkpt><trkpt lat="55.8869852" lon="49.1996968"><time>2023-06-03T09:18:11.990</time></trkpt><trkpt lat="55.8870340" lon="49.1996774"><time>2023-06-03T09:18:12.997</time></trkpt><trkpt lat="55.8870830" lon="49.1996655"><time>2023-06-03T09:18:14</time></trkpt><trkpt lat="55.8871299" lon="49.1996544"><time>2023-06-03T09:18:15.007</time></trkpt><trkpt lat="55.8871823" lon="49.1996448"><time>2023-06-03T09:18:16.010</time></trkpt><trkpt lat="55.8872300" lon="49.1996329"><time>2023-06-03T09:18:17</time></trkpt><trkpt lat="55.8872789" lon="49.1996221"><time>2023-06-03T09:18:17.990</time></trkpt><trkpt lat="55.8873238" lon="49.1996082"><time>2023-06-03T09:18:19.010</time></trkpt><trkpt lat="55.8874085" lon="49.1995940"><time>2023-06-03T09:18:21.010</time></trkpt><trkpt lat="55.8874886" lon="49.1995810"><time>2023-06-03T09:18:22.997</time></trkpt><trkpt lat="55.8875732" lon="49.1995645"><time>2023-06-03T09:18:25.010</time></trkpt><trkpt lat="55.8876608" lon="49.1995457"><time>2023-06-03T09:18:26.997</time></trkpt><trkpt lat="55.8877112" lon="49.1995300"><time>2023-06-03T09:18:27.997</time></trkpt><trkpt lat="55.8877998" lon="49.1995087"><time>2023-06-03T09:18:29.993</time></trkpt><trkpt lat="55.8878454" lon="49.1995089"><time>2023-06-03T09:18:30.993</time></trkpt><trkpt lat="55.8878905" lon="49.1995033"><time>2023-06-03T09:18:31.993</time></trkpt><trkpt lat="55.8879360" lon="49.1994963"><time>2023-06-03T09:18:33.007</time></trkpt><trkpt lat="55.8879862" lon="49.1994933"><time>2023-06-03T09:18:34.007</time></trkpt><trkpt lat="55.8880332" lon="49.1994994"><time>2023-06-03T09:18:35.003</time></trkpt><trkpt lat="55.8881206" lon="49.1995041"><time>2023-06-03T09:18:36.997</time></trkpt><trkpt lat="55.8881702" lon="49.1995088"><time>2023-06-03T09:18:38.007</time></trkpt><trkpt lat="55.8882177" lon="49.1995178"><time>2023-06-03T09:18:39.023</time></trkpt><trkpt lat="55.8882666" lon="49.1995239"><time>2023-06-03T09:18:40.010</time></trkpt><trkpt lat="55.8883149" lon="49.1995243"><time>2023-06-03T09:18:41.037</time></trkpt><trkpt lat="55.8883629" lon="49.1995283"><time>2023-06-03T09:18:41.997</time></trkpt><trkpt lat="55.8884156" lon="49.1995172"><time>2023-06-03T09:18:43.003</time></trkpt><trkpt lat="55.8884659" lon="49.1995167"><time>2023-06-03T09:18:44.003</time></trkpt><trkpt lat="55.8885174" lon="49.1995250"><time>2023-06-03T09:18:45.020</time></trkpt><trkpt lat="55.8885668" lon="49.1995322"><time>2023-06-03T09:18:45.997</time></trkpt><trkpt lat="55.8886162" lon="49.1995367"><time>2023-06-03T09:18:47.007</time></trkpt><trkpt lat="55.8886679" lon="49.1995454"><time>2023-06-03T09:18:47.997</time></trkpt><trkpt lat="55.8887181" lon="49.1995584"><time>2023-06-03T09:18:49.020</time></trkpt><trkpt lat="55.8887678" lon="49.1995661"><time>2023-06-03T09:18:50.040</time></trkpt><trkpt lat="55.8888151" lon="49.1995772"><time>2023-06-03T09:18:51</time></trkpt><trkpt lat="55.8888638" lon="49.1995887"><time>2023-06-03T09:18:51.993</time></trkpt><trkpt lat="55.8889113" lon="49.1996012"><time>2023-06-03T09:18:52.987</time></trkpt><trkpt lat="55.8889615" lon="49.1996075"><time>2023-06-03T09:18:54.007</time></trkpt><trkpt lat="55.8890094" lon="49.1996208"><time>2023-06-03T09:18:55.007</time></trkpt><trkpt lat="55.8890595" lon="49.1996325"><time>2023-06-03T09:18:55.983</time></trkpt><trkpt lat="55.8891041" lon="49.1996501"><time>2023-06-03T09:18:56.987</time></trkpt><trkpt lat="55.8891494" lon="49.1996709"><time>2023-06-03T09:18:57.990</time></trkpt><trkpt lat="55.8891925" lon="49.1996951"><time>2023-06-03T09:18:58.990</time></trkpt><trkpt lat="55.8892748" lon="49.1997359"><time>2023-06-03T09:19:00.983</time></trkpt><trkpt lat="55.8893519" lon="49.1997881"><time>2023-06-03T09:19:02.987</time></trkpt><trkpt lat="55.8894267" lon="49.1998356"><time>2023-06-03T09:19:05</time></trkpt><trkpt lat="55.8894884" lon="49.1999037"><time>2023-06-03T09:19:06.990</time></trkpt><trkpt lat="55.8895645" lon="49.2000172"><time>2023-06-03T09:19:09.037</time></trkpt><trkpt lat="55.8896068" lon="49.2000666"><time>2023-06-03T09:19:10.017</time></trkpt><trkpt lat="55.8896462" lon="49.2001203"><time>2023-06-03T09:19:11.023</time></trkpt><trkpt lat="55.8896874" lon="49.2001666"><time>2023-06-03T09:19:11.993</time></trkpt><trkpt lat="55.8897359" lon="49.2002351"><time>2023-06-03T09:19:12.983</time></trkpt><trkpt lat="55.8897765" lon="49.2003034"><time>2023-06-03T09:19:13.987</time></trkpt><trkpt lat="55.8898250" lon="49.2003628"><time>2023-06-03T09:19:14.980</time></trkpt><trkpt lat="55.8898669" lon="49.2004278"><time>2023-06-03T09:19:15.987</time></trkpt><trkpt lat="55.8899086" lon="49.2004937"><time>2023-06-03T09:19:16.980</time></trkpt><trkpt lat="55.8899468" lon="49.2005598"><time>2023-06-03T09:19:18</time></trkpt><trkpt lat="55.8899824" lon="49.2006258"><time>2023-06-03T09:19:19</time></trkpt><trkpt lat="55.8900274" lon="49.2006888"><time>2023-06-03T09:19:20.027</time></trkpt><trkpt lat="55.8900694" lon="49.2007486"><time>2023-06-03T09:19:21.020</time></trkpt><trkpt lat="55.8901103" lon="49.2008039"><time>2023-06-03T09:19:21.990</time></trkpt><trkpt lat="55.8901479" lon="49.2008599"><time>2023-06-03T09:19:22.997</time></trkpt><trkpt lat="55.8901992" lon="49.2009253"><time>2023-06-03T09:19:23.990</time></trkpt><trkpt lat="55.8902406" lon="49.2009745"><time>2023-06-03T09:19:24.977</time></trkpt><trkpt lat="55.8902794" lon="49.2010346"><time>2023-06-03T09:19:25.997</time></trkpt><trkpt lat="55.8903252" lon="49.2010870"><time>2023-06-03T09:19:26.990</time></trkpt><trkpt lat="55.8903696" lon="49.2011482"><time>2023-06-03T09:19:28</time></trkpt><trkpt lat="55.8904129" lon="49.2011954"><time>2023-06-03T09:19:29.017</time></trkpt><trkpt lat="55.8904575" lon="49.2012476"><time>2023-06-03T09:19:30.010</time></trkpt><trkpt lat="55.8905051" lon="49.2012905"><time>2023-06-03T09:19:31.037</time></trkpt><trkpt lat="55.8905521" lon="49.2013323"><time>2023-06-03T09:19:31.993</time></trkpt><trkpt lat="55.8905998" lon="49.2013759"><time>2023-06-03T09:19:32.990</time></trkpt><trkpt lat="55.8906496" lon="49.2013907"><time>2023-06-03T09:19:34.003</time></trkpt><trkpt lat="55.8906935" lon="49.2014184"><time>2023-06-03T09:19:34.997</time></trkpt><trkpt lat="55.8907398" lon="49.2014554"><time>2023-06-03T09:19:36.007</time></trkpt><trkpt lat="55.8907787" lon="49.2015088"><time>2023-06-03T09:19:36.990</time></trkpt><trkpt lat="55.8908280" lon="49.2015329"><time>2023-06-03T09:19:38.007</time></trkpt><trkpt lat="55.8908699" lon="49.2015760"><time>2023-06-03T09:19:39.030</time></trkpt><trkpt lat="55.8909575" lon="49.2016332"><time>2023-06-03T09:19:41.023</time></trkpt><trkpt lat="55.8909988" lon="49.2016718"><time>2023-06-03T09:19:42.003</time></trkpt><trkpt lat="55.8910455" lon="49.2016946"><time>2023-06-03T09:19:42.997</time></trkpt><trkpt lat="55.8910959" lon="49.2017139"><time>2023-06-03T09:19:44</time></trkpt><trkpt lat="55.8911428" lon="49.2017225"><time>2023-06-03T09:19:45.003</time></trkpt><trkpt lat="55.8912155" lon="49.2017680"><time>2023-06-03T09:19:46.983</time></trkpt><trkpt lat="55.8912999" lon="49.2017834"><time>2023-06-03T09:19:49.023</time></trkpt><trkpt lat="55.8913815" lon="49.2017897"><time>2023-06-03T09:19:51</time></trkpt><trkpt lat="55.8914365" lon="49.2017791"><time>2023-06-03T09:19:52.997</time></trkpt><trkpt lat="55.8914905" lon="49.2017559"><time>2023-06-03T09:19:56.013</time></trkpt><trkpt lat="55.8914485" lon="49.2017173"><time>2023-06-03T09:22:03.997</time></trkpt><trkpt lat="55.8914014" lon="49.2017432"><time>2023-06-03T09:22:07.987</time></trkpt><trkpt lat="55.8913471" lon="49.2017144"><time>2023-06-03T09:22:12.980</time></trkpt><trkpt lat="55.8913077" lon="49.2016513"><time>2023-06-03T09:22:17.997</time></trkpt><trkpt lat="55.8912641" lon="49.2016203"><time>2023-06-03T09:22:19.997</time></trkpt><trkpt lat="55.8912013" lon="49.2016294"><time>2023-06-03T09:22:21.990</time></trkpt><trkpt lat="55.8911573" lon="49.2016531"><time>2023-06-03T09:22:24.027</time></trkpt><trkpt lat="55.8911402" lon="49.2017496"><time>2023-06-03T09:22:26.997</time></trkpt><trkpt lat="55.8911502" lon="49.2018581"><time>2023-06-03T09:22:30</time></trkpt><trkpt lat="55.8911636" lon="49.2019620"><time>2023-06-03T09:22:33.043</time></trkpt><trkpt lat="55.8911575" lon="49.2020960"><time>2023-06-03T09:22:36.030</time></trkpt><trkpt lat="55.8911833" lon="49.2021784"><time>2023-06-03T09:22:37.993</time></trkpt><trkpt lat="55.8912115" lon="49.2022409"><time>2023-06-03T09:22:40.043</time></trkpt><trkpt lat="55.8912479" lon="49.2023094"><time>2023-06-03T09:22:42.993</time></trkpt><trkpt lat="55.8912890" lon="49.2024094"><time>2023-06-03T09:22:46.013</time></trkpt><trkpt lat="55.8913201" lon="49.2025053"><time>2023-06-03T09:22:48.003</time></trkpt><trkpt lat="55.8913410" lon="49.2025962"><time>2023-06-03T09:22:50.037</time></trkpt><trkpt lat="55.8913520" lon="49.2026740"><time>2023-06-03T09:22:51.993</time></trkpt><trkpt lat="55.8913393" lon="49.2027611"><time>2023-06-03T09:22:53.980</time></trkpt><trkpt lat="55.8913194" lon="49.2028369"><time>2023-06-03T09:22:56.007</time></trkpt><trkpt lat="55.8912951" lon="49.2029138"><time>2023-06-03T09:22:58.003</time></trkpt><trkpt lat="55.8912694" lon="49.2030041"><time>2023-06-03T09:23:00.023</time></trkpt><trkpt lat="55.8912275" lon="49.2031202"><time>2023-06-03T09:23:01.997</time></trkpt><trkpt lat="55.8911832" lon="49.2032135"><time>2023-06-03T09:23:04.043</time></trkpt><trkpt lat="55.8911600" lon="49.2033062"><time>2023-06-03T09:23:06.037</time></trkpt><trkpt lat="55.8911248" lon="49.2034087"><time>2023-06-03T09:23:07.987</time></trkpt><trkpt lat="55.8910799" lon="49.2035001"><time>2023-06-03T09:23:09.990</time></trkpt><trkpt lat="55.8910297" lon="49.2036091"><time>2023-06-03T09:23:11.993</time></trkpt><trkpt lat="55.8909822" lon="49.2037281"><time>2023-06-03T09:23:14.007</time></trkpt><trkpt lat="55.8909412" lon="49.2038490"><time>2023-06-03T09:23:15.993</time></trkpt><trkpt lat="55.8909059" lon="49.2039722"><time>2023-06-03T09:23:17.997</time></trkpt><trkpt lat="55.8908823" lon="49.2041213"><time>2023-06-03T09:23:19.997</time></trkpt><trkpt lat="55.8908706" lon="49.2042624"><time>2023-06-03T09:23:22.003</time></trkpt><trkpt lat="55.8908619" lon="49.2044009"><time>2023-06-03T09:23:23.977</time></trkpt><trkpt lat="55.8908577" lon="49.2045572"><time>2023-06-03T09:23:25.990</time></trkpt><trkpt lat="55.8908612" lon="49.2046432"><time>2023-06-03T09:23:26.993</time></trkpt><trkpt lat="55.8908656" lon="49.2047812"><time>2023-06-03T09:23:28.990</time></trkpt><trkpt lat="55.8908600" lon="49.2049092"><time>2023-06-03T09:23:30.987</time></trkpt><trkpt lat="55.8908442" lon="49.2050329"><time>2023-06-03T09:23:32.993</time></trkpt><trkpt lat="55.8908218" lon="49.2051250"><time>2023-06-03T09:23:35.007</time></trkpt><trkpt lat="55.8907956" lon="49.2052314"><time>2023-06-03T09:23:36.990</time></trkpt><trkpt lat="55.8907744" lon="49.2053516"><time>2023-06-03T09:23:38.973</time></trkpt><trkpt lat="55.8907556" lon="49.2054760"><time>2023-06-03T09:23:40.967</time></trkpt><trkpt lat="55.8907525" lon="49.2056004"><time>2023-06-03T09:23:42.983</time></trkpt><trkpt lat="55.8907614" lon="49.2057317"><time>2023-06-03T09:23:44.967</time></trkpt><trkpt lat="55.8907674" lon="49.2058540"><time>2023-06-03T09:23:46.987</time></trkpt><trkpt lat="55.8907651" lon="49.2059554"><time>2023-06-03T09:23:48.970</time></trkpt><trkpt lat="55.8907716" lon="49.2060646"><time>2023-06-03T09:23:50.970</time></trkpt><trkpt lat="55.8907719" lon="49.2061675"><time>2023-06-03T09:23:52.980</time></trkpt><trkpt lat="55.8907742" lon="49.2062663"><time>2023-06-03T09:23:54.973</time></trkpt><trkpt lat="55.8907812" lon="49.2063765"><time>2023-06-03T09:23:56.970</time></trkpt><trkpt lat="55.8907887" lon="49.2064793"><time>2023-06-03T09:23:58.970</time></trkpt><trkpt lat="55.8907988" lon="49.2065782"><time>2023-06-03T09:24:00.973</time></trkpt><trkpt lat="55.8908038" lon="49.2066858"><time>2023-06-03T09:24:02.977</time></trkpt><trkpt lat="55.8907860" lon="49.2067755"><time>2023-06-03T09:24:04.967</time></trkpt><trkpt lat="55.8907595" lon="49.2068854"><time>2023-06-03T09:24:06.967</time></trkpt><trkpt lat="55.8907562" lon="49.2070221"><time>2023-06-03T09:24:08.967</time></trkpt><trkpt lat="55.8907601" lon="49.2071639"><time>2023-06-03T09:24:10.963</time></trkpt><trkpt lat="55.8907621" lon="49.2072988"><time>2023-06-03T09:24:12.987</time></trkpt><trkpt lat="55.8907766" lon="49.2074625"><time>2023-06-03T09:24:14.990</time></trkpt><trkpt lat="55.8908019" lon="49.2076039"><time>2023-06-03T09:24:16.997</time></trkpt><trkpt lat="55.8908120" lon="49.2076825"><time>2023-06-03T09:24:17.983</time></trkpt><trkpt lat="55.8908409" lon="49.2078150"><time>2023-06-03T09:24:19.977</time></trkpt><trkpt lat="55.8908793" lon="49.2079446"><time>2023-06-03T09:24:21.987</time></trkpt><trkpt lat="55.8909130" lon="49.2080714"><time>2023-06-03T09:24:23.987</time></trkpt><trkpt lat="55.8909372" lon="49.2081894"><time>2023-06-03T09:24:25.983</time></trkpt><trkpt lat="55.8909558" lon="49.2083121"><time>2023-06-03T09:24:27.977</time></trkpt><trkpt lat="55.8909661" lon="49.2084319"><time>2023-06-03T09:24:29.990</time></trkpt><trkpt lat="55.8909733" lon="49.2085620"><time>2023-06-03T09:24:31.983</time></trkpt><trkpt lat="55.8909855" lon="49.2086900"><time>2023-06-03T09:24:33.997</time></trkpt><trkpt lat="55.8909970" lon="49.2088177"><time>2023-06-03T09:24:35.993</time></trkpt><trkpt lat="55.8910071" lon="49.2089556"><time>2023-06-03T09:24:37.987</time></trkpt><trkpt lat="55.8910142" lon="49.2090922"><time>2023-06-03T09:24:39.997</time></trkpt><trkpt lat="55.8910263" lon="49.2092293"><time>2023-06-03T09:24:41.987</time></trkpt><trkpt lat="55.8910324" lon="49.2093529"><time>2023-06-03T09:24:44.010</time></trkpt><trkpt lat="55.8910439" lon="49.2094819"><time>2023-06-03T09:24:45.983</time></trkpt><trkpt lat="55.8910502" lon="49.2095984"><time>2023-06-03T09:24:47.993</time></trkpt><trkpt lat="55.8910639" lon="49.2097251"><time>2023-06-03T09:24:50.023</time></trkpt><trkpt lat="55.8910754" lon="49.2098525"><time>2023-06-03T09:24:51.990</time></trkpt><trkpt lat="55.8910828" lon="49.2099792"><time>2023-06-03T09:24:54</time></trkpt><trkpt lat="55.8910805" lon="49.2101168"><time>2023-06-03T09:24:56.023</time></trkpt><trkpt lat="55.8910721" lon="49.2102480"><time>2023-06-03T09:24:57.993</time></trkpt><trkpt lat="55.8910664" lon="49.2103799"><time>2023-06-03T09:25:00.027</time></trkpt><trkpt lat="55.8910621" lon="49.2105075"><time>2023-06-03T09:25:01.990</time></trkpt><trkpt lat="55.8910523" lon="49.2106068"><time>2023-06-03T09:25:04.020</time></trkpt><trkpt lat="55.8910349" lon="49.2106993"><time>2023-06-03T09:25:05.983</time></trkpt><trkpt lat="55.8910107" lon="49.2108220"><time>2023-06-03T09:25:07.973</time></trkpt><trkpt lat="55.8909884" lon="49.2109599"><time>2023-06-03T09:25:10</time></trkpt><trkpt lat="55.8909625" lon="49.2111015"><time>2023-06-03T09:25:11.987</time></trkpt><trkpt lat="55.8909462" lon="49.2111797"><time>2023-06-03T09:25:12.987</time></trkpt><trkpt lat="55.8909261" lon="49.2112565"><time>2023-06-03T09:25:13.987</time></trkpt><trkpt lat="55.8908828" lon="49.2113763"><time>2023-06-03T09:25:15.983</time></trkpt><trkpt lat="55.8908403" lon="49.2114799"><time>2023-06-03T09:25:18.990</time></trkpt><trkpt lat="55.8908115" lon="49.2115555"><time>2023-06-03T09:25:19</time></trkpt><trkpt lat="55.8907605" lon="49.2116798"><time>2023-06-03T09:25:21.027</time></trkpt><trkpt lat="55.8907213" lon="49.2118185"><time>2023-06-03T09:25:23.003</time></trkpt><trkpt lat="55.8906898" lon="49.2119550"><time>2023-06-03T09:25:24.980</time></trkpt><trkpt lat="55.8906624" lon="49.2121064"><time>2023-06-03T09:25:27</time></trkpt><trkpt lat="55.8906594" lon="49.2121897"><time>2023-06-03T09:25:27.993</time></trkpt><trkpt lat="55.8906559" lon="49.2123455"><time>2023-06-03T09:25:30.007</time></trkpt><trkpt lat="55.8906607" lon="49.2124519"><time>2023-06-03T09:25:31.003</time></trkpt><trkpt lat="55.8906440" lon="49.2125877"><time>2023-06-03T09:25:32.993</time></trkpt><trkpt lat="55.8906329" lon="49.2127224"><time>2023-06-03T09:25:35.013</time></trkpt><trkpt lat="55.8906297" lon="49.2127595"><time>2023-06-03T09:25:36.117</time></trkpt><trkpt lat="55.8906194" lon="49.2128450"><time>2023-06-03T09:25:36.993</time></trkpt><trkpt lat="55.8906028" lon="49.2129904"><time>2023-06-03T09:25:39.007</time></trkpt><trkpt lat="55.8905789" lon="49.2131247"><time>2023-06-03T09:25:40.990</time></trkpt><trkpt lat="55.8905542" lon="49.2132609"><time>2023-06-03T09:25:42.997</time></trkpt><trkpt lat="55.8905232" lon="49.2133751"><time>2023-06-03T09:25:45</time></trkpt><trkpt lat="55.8904978" lon="49.2134797"><time>2023-06-03T09:25:46.997</time></trkpt><trkpt lat="55.8904721" lon="49.2135894"><time>2023-06-03T09:25:48.990</time></trkpt><trkpt lat="55.8904530" lon="49.2137219"><time>2023-06-03T09:25:51.007</time></trkpt><trkpt lat="55.8904343" lon="49.2138435"><time>2023-06-03T09:25:53</time></trkpt><trkpt lat="55.8904174" lon="49.2139621"><time>2023-06-03T09:25:54.997</time></trkpt><trkpt lat="55.8904085" lon="49.2141065"><time>2023-06-03T09:25:56.997</time></trkpt><trkpt lat="55.8903968" lon="49.2142569"><time>2023-06-03T09:25:59.003</time></trkpt><trkpt lat="55.8903900" lon="49.2144102"><time>2023-06-03T09:26:01.027</time></trkpt><trkpt lat="55.8903869" lon="49.2145380"><time>2023-06-03T09:26:03.020</time></trkpt><trkpt lat="55.8903904" lon="49.2145774"><time>2023-06-03T09:26:04.147</time></trkpt><trkpt lat="55.8903779" lon="49.2146775"><time>2023-06-03T09:26:06.987</time></trkpt><trkpt lat="55.8903625" lon="49.2147564"><time>2023-06-03T09:26:15.007</time></trkpt><trkpt lat="55.8903753" lon="49.2148575"><time>2023-06-03T09:26:36.997</time></trkpt><trkpt lat="55.8904036" lon="49.2149198"><time>2023-06-03T09:26:39.017</time></trkpt><trkpt lat="55.8904479" lon="49.2149804"><time>2023-06-03T09:26:41.997</time></trkpt><trkpt lat="55.8904811" lon="49.2150396"><time>2023-06-03T09:26:49</time></trkpt><trkpt lat="55.8905113" lon="49.2151025"><time>2023-06-03T09:28:41.003</time></trkpt><trkpt lat="55.8905490" lon="49.2151672"><time>2023-06-03T09:28:45.990</time></trkpt><trkpt lat="55.8905883" lon="49.2152388"><time>2023-06-03T09:28:52.007</time></trkpt><trkpt lat="55.8905991" lon="49.2152293"><time>2023-06-03T09:28:53.120</time></trkpt><trkpt lat="55.8906303" lon="49.2153041"><time>2023-06-03T09:28:56.997</time></trkpt><trkpt lat="55.8906562" lon="49.2153785"><time>2023-06-03T09:29:02.997</time></trkpt><trkpt lat="55.8906999" lon="49.2154525"><time>2023-06-03T09:29:07.993</time></trkpt><trkpt lat="55.8907423" lon="49.2155108"><time>2023-06-03T09:29:11.990</time></trkpt><trkpt lat="55.8907798" lon="49.2155634"><time>2023-06-03T09:29:17.007</time></trkpt><trkpt lat="55.8907966" lon="49.2156515"><time>2023-06-03T09:29:23.980</time></trkpt><trkpt lat="55.8907966" lon="49.2156515"><time>2023-06-03T09:29:24.033</time></trkpt><trkpt lat="55.8907914" lon="49.2157319"><time>2023-06-03T09:29:31.087</time></trkpt><trkpt lat="55.8908073" lon="49.2157044"><time>2023-06-03T09:29:32.187</time></trkpt><trkpt lat="55.8908068" lon="49.2157858"><time>2023-06-03T09:29:35.967</time></trkpt><trkpt lat="55.8908450" lon="49.2157244"><time>2023-06-03T09:29:54.987</time></trkpt><trkpt lat="55.8908506" lon="49.2156384"><time>2023-06-03T09:30:00.973</time></trkpt><trkpt lat="55.8908278" lon="49.2155595"><time>2023-06-03T09:30:04.967</time></trkpt><trkpt lat="55.8908036" lon="49.2154886"><time>2023-06-03T09:30:08.967</time></trkpt><trkpt lat="55.8907771" lon="49.2154103"><time>2023-06-03T09:30:12.970</time></trkpt><trkpt lat="55.8907406" lon="49.2153481"><time>2023-06-03T09:30:16.967</time></trkpt><trkpt lat="55.8907046" lon="49.2152627"><time>2023-06-03T09:30:20.977</time></trkpt><trkpt lat="55.8906762" lon="49.2151902"><time>2023-06-03T09:30:24.963</time></trkpt><trkpt lat="55.8906441" lon="49.2151216"><time>2023-06-03T09:30:28.973</time></trkpt><trkpt lat="55.8906118" lon="49.2150477"><time>2023-06-03T09:30:32.967</time></trkpt><trkpt lat="55.8905689" lon="49.2149881"><time>2023-06-03T09:30:36.973</time></trkpt><trkpt lat="55.8905259" lon="49.2149356"><time>2023-06-03T09:30:42</time></trkpt><trkpt lat="55.8904998" lon="49.2148669"><time>2023-06-03T09:30:44.997</time></trkpt><trkpt lat="55.8904707" lon="49.2147953"><time>2023-06-03T09:30:48.990</time></trkpt><trkpt lat="55.8904685" lon="49.2146279"><time>2023-06-03T09:30:51.990</time></trkpt><trkpt lat="55.8904586" lon="49.2145308"><time>2023-06-03T09:30:53.990</time></trkpt><trkpt lat="55.8904552" lon="49.2144407"><time>2023-06-03T09:30:55.990</time></trkpt><trkpt lat="55.8904594" lon="49.2143467"><time>2023-06-03T09:30:57.983</time></trkpt><trkpt lat="55.8904611" lon="49.2142468"><time>2023-06-03T09:30:59.993</time></trkpt><trkpt lat="55.8904604" lon="49.2141413"><time>2023-06-03T09:31:01.993</time></trkpt><trkpt lat="55.8904593" lon="49.2140414"><time>2023-06-03T09:31:03.987</time></trkpt><trkpt lat="55.8904648" lon="49.2139338"><time>2023-06-03T09:31:05.987</time></trkpt><trkpt lat="55.8904682" lon="49.2138198"><time>2023-06-03T09:31:07.990</time></trkpt><trkpt lat="55.8904859" lon="49.2136971"><time>2023-06-03T09:31:09.997</time></trkpt><trkpt lat="55.8905135" lon="49.2135721"><time>2023-06-03T09:31:11.993</time></trkpt><trkpt lat="55.8905476" lon="49.2134282"><time>2023-06-03T09:31:13.990</time></trkpt><trkpt lat="55.8905812" lon="49.2132709"><time>2023-06-03T09:31:15.997</time></trkpt><trkpt lat="55.8906041" lon="49.2131280"><time>2023-06-03T09:31:17.990</time></trkpt><trkpt lat="55.8906330" lon="49.2129813"><time>2023-06-03T09:31:19.990</time></trkpt><trkpt lat="55.8906428" lon="49.2128994"><time>2023-06-03T09:31:20.997</time></trkpt><trkpt lat="55.8906512" lon="49.2128161"><time>2023-06-03T09:31:21.990</time></trkpt><trkpt lat="55.8906659" lon="49.2127252"><time>2023-06-03T09:31:22.993</time></trkpt><trkpt lat="55.8906780" lon="49.2126322"><time>2023-06-03T09:31:23.970</time></trkpt><trkpt lat="55.8906861" lon="49.2125437"><time>2023-06-03T09:31:24.973</time></trkpt><trkpt lat="55.8906895" lon="49.2124473"><time>2023-06-03T09:31:25.970</time></trkpt><trkpt lat="55.8906958" lon="49.2123601"><time>2023-06-03T09:31:26.983</time></trkpt><trkpt lat="55.8907077" lon="49.2122760"><time>2023-06-03T09:31:27.977</time></trkpt><trkpt lat="55.8907368" lon="49.2121351"><time>2023-06-03T09:31:29.990</time></trkpt><trkpt lat="55.8907601" lon="49.2120532"><time>2023-06-03T09:31:31.003</time></trkpt><trkpt lat="55.8907761" lon="49.2119680"><time>2023-06-03T09:31:31.993</time></trkpt><trkpt lat="55.8907985" lon="49.2118265"><time>2023-06-03T09:31:33.990</time></trkpt><trkpt lat="55.8908426" lon="49.2116995"><time>2023-06-03T09:31:35.990</time></trkpt><trkpt lat="55.8908897" lon="49.2115777"><time>2023-06-03T09:31:37.987</time></trkpt><trkpt lat="55.8909196" lon="49.2115006"><time>2023-06-03T09:31:38.987</time></trkpt><trkpt lat="55.8909428" lon="49.2114254"><time>2023-06-03T09:31:39.990</time></trkpt><trkpt lat="55.8909652" lon="49.2113475"><time>2023-06-03T09:31:40.987</time></trkpt><trkpt lat="55.8909892" lon="49.2112044"><time>2023-06-03T09:31:42.987</time></trkpt><trkpt lat="55.8910265" lon="49.2110657"><time>2023-06-03T09:31:44.980</time></trkpt><trkpt lat="55.8910476" lon="49.2109429"><time>2023-06-03T09:31:46.987</time></trkpt><trkpt lat="55.8910646" lon="49.2108264"><time>2023-06-03T09:31:48.987</time></trkpt><trkpt lat="55.8910853" lon="49.2106833"><time>2023-06-03T09:31:50.987</time></trkpt><trkpt lat="55.8910959" lon="49.2105302"><time>2023-06-03T09:31:52.997</time></trkpt><trkpt lat="55.8911050" lon="49.2103848"><time>2023-06-03T09:31:54.993</time></trkpt><trkpt lat="55.8911051" lon="49.2102461"><time>2023-06-03T09:31:56.977</time></trkpt><trkpt lat="55.8911051" lon="49.2101057"><time>2023-06-03T09:31:58.990</time></trkpt><trkpt lat="55.8911051" lon="49.2100257"><time>2023-06-03T09:31:59.987</time></trkpt><trkpt lat="55.8911058" lon="49.2099456"><time>2023-06-03T09:32:00.987</time></trkpt><trkpt lat="55.8910954" lon="49.2098488"><time>2023-06-03T09:32:02.003</time></trkpt><trkpt lat="55.8910918" lon="49.2096875"><time>2023-06-03T09:32:03.993</time></trkpt><trkpt lat="55.8910995" lon="49.2096046"><time>2023-06-03T09:32:05.003</time></trkpt><trkpt lat="55.8910984" lon="49.2094471"><time>2023-06-03T09:32:06.983</time></trkpt><trkpt lat="55.8910949" lon="49.2093633"><time>2023-06-03T09:32:07.987</time></trkpt><trkpt lat="55.8910958" lon="49.2092245"><time>2023-06-03T09:32:09.993</time></trkpt><trkpt lat="55.8910847" lon="49.2090791"><time>2023-06-03T09:32:11.987</time></trkpt><trkpt lat="55.8910731" lon="49.2089284"><time>2023-06-03T09:32:13.990</time></trkpt><trkpt lat="55.8910697" lon="49.2088434"><time>2023-06-03T09:32:14.983</time></trkpt><trkpt lat="55.8910642" lon="49.2087626"><time>2023-06-03T09:32:15.987</time></trkpt><trkpt lat="55.8910567" lon="49.2086780"><time>2023-06-03T09:32:16.987</time></trkpt><trkpt lat="55.8910512" lon="49.2085253"><time>2023-06-03T09:32:18.997</time></trkpt><trkpt lat="55.8910463" lon="49.2084399"><time>2023-06-03T09:32:19.993</time></trkpt><trkpt lat="55.8910318" lon="49.2082919"><time>2023-06-03T09:32:21.990</time></trkpt><trkpt lat="55.8910027" lon="49.2081485"><time>2023-06-03T09:32:24.007</time></trkpt><trkpt lat="55.8909819" lon="49.2080769"><time>2023-06-03T09:32:25</time></trkpt><trkpt lat="55.8909536" lon="49.2079888"><time>2023-06-03T09:32:25.983</time></trkpt><trkpt lat="55.8909310" lon="49.2079164"><time>2023-06-03T09:32:26.990</time></trkpt><trkpt lat="55.8908949" lon="49.2077885"><time>2023-06-03T09:32:29.003</time></trkpt><trkpt lat="55.8908619" lon="49.2076686"><time>2023-06-03T09:32:30.987</time></trkpt><trkpt lat="55.8908409" lon="49.2075230"><time>2023-06-03T09:32:32.997</time></trkpt><trkpt lat="55.8908274" lon="49.2073680"><time>2023-06-03T09:32:35.017</time></trkpt><trkpt lat="55.8908296" lon="49.2072859"><time>2023-06-03T09:32:35.983</time></trkpt><trkpt lat="55.8908304" lon="49.2072035"><time>2023-06-03T09:32:36.990</time></trkpt><trkpt lat="55.8908288" lon="49.2070443"><time>2023-06-03T09:32:39.017</time></trkpt><trkpt lat="55.8908204" lon="49.2069019"><time>2023-06-03T09:32:41.007</time></trkpt><trkpt lat="55.8908341" lon="49.2067721"><time>2023-06-03T09:32:42.987</time></trkpt><trkpt lat="55.8908428" lon="49.2066459"><time>2023-06-03T09:32:45.017</time></trkpt><trkpt lat="55.8908344" lon="49.2064987"><time>2023-06-03T09:32:46.977</time></trkpt><trkpt lat="55.8908342" lon="49.2063572"><time>2023-06-03T09:32:48.980</time></trkpt><trkpt lat="55.8908357" lon="49.2062242"><time>2023-06-03T09:32:50.987</time></trkpt><trkpt lat="55.8908220" lon="49.2060960"><time>2023-06-03T09:32:52.990</time></trkpt><trkpt lat="55.8908092" lon="49.2059513"><time>2023-06-03T09:32:55.020</time></trkpt><trkpt lat="55.8908091" lon="49.2058029"><time>2023-06-03T09:32:56.993</time></trkpt><trkpt lat="55.8908059" lon="49.2056465"><time>2023-06-03T09:32:59.010</time></trkpt><trkpt lat="55.8908198" lon="49.2054966"><time>2023-06-03T09:33:00.993</time></trkpt><trkpt lat="55.8908487" lon="49.2053691"><time>2023-06-03T09:33:02.990</time></trkpt><trkpt lat="55.8908747" lon="49.2052364"><time>2023-06-03T09:33:05.013</time></trkpt><trkpt lat="55.8909029" lon="49.2051177"><time>2023-06-03T09:33:06.987</time></trkpt><trkpt lat="55.8909206" lon="49.2049920"><time>2023-06-03T09:33:08.987</time></trkpt><trkpt lat="55.8909163" lon="49.2048638"><time>2023-06-03T09:33:11.027</time></trkpt><trkpt lat="55.8909082" lon="49.2047247"><time>2023-06-03T09:33:12.990</time></trkpt><trkpt lat="55.8908990" lon="49.2045854"><time>2023-06-03T09:33:14.997</time></trkpt><trkpt lat="55.8908991" lon="49.2044644"><time>2023-06-03T09:33:16.990</time></trkpt><trkpt lat="55.8908971" lon="49.2043354"><time>2023-06-03T09:33:18.993</time></trkpt><trkpt lat="55.8908965" lon="49.2041969"><time>2023-06-03T09:33:21.020</time></trkpt><trkpt lat="55.8909112" lon="49.2040573"><time>2023-06-03T09:33:22.990</time></trkpt><trkpt lat="55.8909401" lon="49.2039516"><time>2023-06-03T09:33:24.983</time></trkpt><trkpt lat="55.8909797" lon="49.2038410"><time>2023-06-03T09:33:26.987</time></trkpt><trkpt lat="55.8910142" lon="49.2037549"><time>2023-06-03T09:33:30.023</time></trkpt><trkpt lat="55.8910640" lon="49.2036824"><time>2023-06-03T09:33:31.997</time></trkpt><trkpt lat="55.8911070" lon="49.2036125"><time>2023-06-03T09:33:33.990</time></trkpt><trkpt lat="55.8911491" lon="49.2035302"><time>2023-06-03T09:33:36.003</time></trkpt><trkpt lat="55.8912035" lon="49.2034225"><time>2023-06-03T09:33:37.993</time></trkpt><trkpt lat="55.8912600" lon="49.2033227"><time>2023-06-03T09:33:40.017</time></trkpt><trkpt lat="55.8913067" lon="49.2032079"><time>2023-06-03T09:33:41.990</time></trkpt><trkpt lat="55.8913468" lon="49.2031222"><time>2023-06-03T09:33:44</time></trkpt><trkpt lat="55.8913850" lon="49.2030218"><time>2023-06-03T09:33:47</time></trkpt><trkpt lat="55.8914052" lon="49.2029436"><time>2023-06-03T09:33:49.037</time></trkpt><trkpt lat="55.8913970" lon="49.2028390"><time>2023-06-03T09:33:50.993</time></trkpt><trkpt lat="55.8913863" lon="49.2027103"><time>2023-06-03T09:33:52.987</time></trkpt><trkpt lat="55.8913670" lon="49.2025900"><time>2023-06-03T09:33:54.983</time></trkpt><trkpt lat="55.8913679" lon="49.2024547"><time>2023-06-03T09:33:56.997</time></trkpt><trkpt lat="55.8913379" lon="49.2023180"><time>2023-06-03T09:33:58.997</time></trkpt><trkpt lat="55.8912914" lon="49.2022205"><time>2023-06-03T09:34:00.990</time></trkpt><trkpt lat="55.8912586" lon="49.2020980"><time>2023-06-03T09:34:02.987</time></trkpt><trkpt lat="55.8912334" lon="49.2019814"><time>2023-06-03T09:34:05.010</time></trkpt><trkpt lat="55.8912092" lon="49.2018745"><time>2023-06-03T09:34:06.990</time></trkpt><trkpt lat="55.8911970" lon="49.2017828"><time>2023-06-03T09:34:09</time></trkpt><trkpt lat="55.8911862" lon="49.2017041"><time>2023-06-03T09:34:11.017</time></trkpt><trkpt lat="55.8912204" lon="49.2016337"><time>2023-06-03T09:34:13.993</time></trkpt><trkpt lat="55.8912671" lon="49.2016443"><time>2023-06-03T09:34:16.003</time></trkpt><trkpt lat="55.8913359" lon="49.2016726"><time>2023-06-03T09:34:17.987</time></trkpt><trkpt lat="55.8914229" lon="49.2016732"><time>2023-06-03T09:34:20</time></trkpt><trkpt lat="55.8914721" lon="49.2016610"><time>2023-06-03T09:34:20.993</time></trkpt><trkpt lat="55.8915237" lon="49.2016365"><time>2023-06-03T09:34:21.990</time></trkpt><trkpt lat="55.8915723" lon="49.2016211"><time>2023-06-03T09:34:22.987</time></trkpt><trkpt lat="55.8916449" lon="49.2015858"><time>2023-06-03T09:34:24.967</time></trkpt><trkpt lat="55.8917086" lon="49.2015301"><time>2023-06-03T09:34:25.977</time></trkpt><trkpt lat="55.8917631" lon="49.2014772"><time>2023-06-03T09:34:26.967</time></trkpt><trkpt lat="55.8918167" lon="49.2014171"><time>2023-06-03T09:34:27.977</time></trkpt><trkpt lat="55.8918718" lon="49.2013561"><time>2023-06-03T09:34:28.967</time></trkpt><trkpt lat="55.8919238" lon="49.2012893"><time>2023-06-03T09:34:29.987</time></trkpt><trkpt lat="55.8919619" lon="49.2012262"><time>2023-06-03T09:34:30.983</time></trkpt><trkpt lat="55.8920028" lon="49.2011646"><time>2023-06-03T09:34:31.980</time></trkpt><trkpt lat="55.8920409" lon="49.2011063"><time>2023-06-03T09:34:32.987</time></trkpt><trkpt lat="55.8921255" lon="49.2009863"><time>2023-06-03T09:34:34.983</time></trkpt><trkpt lat="55.8921722" lon="49.2009230"><time>2023-06-03T09:34:35.980</time></trkpt><trkpt lat="55.8922200" lon="49.2008633"><time>2023-06-03T09:34:36.987</time></trkpt><trkpt lat="55.8922689" lon="49.2007984"><time>2023-06-03T09:34:37.987</time></trkpt><trkpt lat="55.8923127" lon="49.2007295"><time>2023-06-03T09:34:38.980</time></trkpt><trkpt lat="55.8923532" lon="49.2006696"><time>2023-06-03T09:34:39.987</time></trkpt><trkpt lat="55.8923932" lon="49.2006103"><time>2023-06-03T09:34:40.980</time></trkpt><trkpt lat="55.8924303" lon="49.2005594"><time>2023-06-03T09:34:41.980</time></trkpt><trkpt lat="55.8924972" lon="49.2004916"><time>2023-06-03T09:34:43.983</time></trkpt><trkpt lat="55.8925597" lon="49.2004508"><time>2023-06-03T09:34:45.977</time></trkpt><trkpt lat="55.8926143" lon="49.2004501"><time>2023-06-03T09:34:47.977</time></trkpt><trkpt lat="55.8926684" lon="49.2004775"><time>2023-06-03T09:34:50.980</time></trkpt><trkpt lat="55.8927131" lon="49.2005006"><time>2023-06-03T09:36:54.997</time></trkpt><trkpt lat="55.8927391" lon="49.2004301"><time>2023-06-03T09:36:56.993</time></trkpt><trkpt lat="55.8927351" lon="49.2003152"><time>2023-06-03T09:36:59.030</time></trkpt><trkpt lat="55.8927091" lon="49.2001845"><time>2023-06-03T09:37:01.023</time></trkpt><trkpt lat="55.8926823" lon="49.2000353"><time>2023-06-03T09:37:02.987</time></trkpt><trkpt lat="55.8926690" lon="49.1999518"><time>2023-06-03T09:37:03.993</time></trkpt><trkpt lat="55.8926505" lon="49.1998707"><time>2023-06-03T09:37:05</time></trkpt><trkpt lat="55.8926327" lon="49.1997886"><time>2023-06-03T09:37:05.997</time></trkpt><trkpt lat="55.8926164" lon="49.1997114"><time>2023-06-03T09:37:06.990</time></trkpt><trkpt lat="55.8925968" lon="49.1996330"><time>2023-06-03T09:37:07.993</time></trkpt><trkpt lat="55.8925754" lon="49.1995615"><time>2023-06-03T09:37:08.990</time></trkpt><trkpt lat="55.8925565" lon="49.1994875"><time>2023-06-03T09:37:09.993</time></trkpt><trkpt lat="55.8925312" lon="49.1993598"><time>2023-06-03T09:37:12.003</time></trkpt><trkpt lat="55.8925173" lon="49.1992739"><time>2023-06-03T09:37:14.010</time></trkpt><trkpt lat="55.8925528" lon="49.1991906"><time>2023-06-03T09:38:01.987</time></trkpt><trkpt lat="55.8926123" lon="49.1991824"><time>2023-06-03T09:38:04.010</time></trkpt><trkpt lat="55.8926828" lon="49.1991952"><time>2023-06-03T09:38:06.017</time></trkpt><trkpt lat="55.8927616" lon="49.1992123"><time>2023-06-03T09:38:07.983</time></trkpt><trkpt lat="55.8928414" lon="49.1992318"><time>2023-06-03T09:38:10.007</time></trkpt><trkpt lat="55.8929284" lon="49.1992392"><time>2023-06-03T09:38:11.997</time></trkpt><trkpt lat="55.8929733" lon="49.1992342"><time>2023-06-03T09:38:12.983</time></trkpt><trkpt lat="55.8930657" lon="49.1992112"><time>2023-06-03T09:38:15.857</time></trkpt><trkpt lat="55.8931132" lon="49.1991936"><time>2023-06-03T09:38:15.990</time></trkpt><trkpt lat="55.8931592" lon="49.1991695"><time>2023-06-03T09:38:16.997</time></trkpt><trkpt lat="55.8932068" lon="49.1991500"><time>2023-06-03T09:38:17.993</time></trkpt><trkpt lat="55.8932587" lon="49.1991363"><time>2023-06-03T09:38:19.027</time></trkpt><trkpt lat="55.8933100" lon="49.1991209"><time>2023-06-03T09:38:20.003</time></trkpt><trkpt lat="55.8933628" lon="49.1991078"><time>2023-06-03T09:38:21.020</time></trkpt><trkpt lat="55.8934156" lon="49.1990975"><time>2023-06-03T09:38:21.990</time></trkpt><trkpt lat="55.8934666" lon="49.1990946"><time>2023-06-03T09:38:22.987</time></trkpt><trkpt lat="55.8935215" lon="49.1990900"><time>2023-06-03T09:38:23.983</time></trkpt><trkpt lat="55.8935703" lon="49.1990852"><time>2023-06-03T09:38:24.993</time></trkpt><trkpt lat="55.8936224" lon="49.1990881"><time>2023-06-03T09:38:25.997</time></trkpt><trkpt lat="55.8936729" lon="49.1990837"><time>2023-06-03T09:38:26.987</time></trkpt><trkpt lat="55.8937181" lon="49.1990835"><time>2023-06-03T09:38:27.990</time></trkpt><trkpt lat="55.8938080" lon="49.1990876"><time>2023-06-03T09:38:29.997</time></trkpt><trkpt lat="55.8938884" lon="49.1990885"><time>2023-06-03T09:38:31.987</time></trkpt><trkpt lat="55.8939712" lon="49.1990657"><time>2023-06-03T09:38:34</time></trkpt><trkpt lat="55.8940509" lon="49.1990494"><time>2023-06-03T09:38:35.990</time></trkpt><trkpt lat="55.8941217" lon="49.1990502"><time>2023-06-03T09:38:37.987</time></trkpt><trkpt lat="55.8941966" lon="49.1990353"><time>2023-06-03T09:38:40.017</time></trkpt><trkpt lat="55.8942747" lon="49.1990168"><time>2023-06-03T09:38:41.987</time></trkpt><trkpt lat="55.8943420" lon="49.1990122"><time>2023-06-03T09:38:43.997</time></trkpt><trkpt lat="55.8944031" lon="49.1990123"><time>2023-06-03T09:38:45.993</time></trkpt><trkpt lat="55.8944663" lon="49.1990033"><time>2023-06-03T09:38:47.993</time></trkpt><trkpt lat="55.8945299" lon="49.1989900"><time>2023-06-03T09:38:50.007</time></trkpt><trkpt lat="55.8945861" lon="49.1989574"><time>2023-06-03T09:38:51.990</time></trkpt><trkpt lat="55.8946448" lon="49.1989223"><time>2023-06-03T09:38:54</time></trkpt><trkpt lat="55.8947107" lon="49.1989238"><time>2023-06-03T09:38:56.023</time></trkpt><trkpt lat="55.8947715" lon="49.1989453"><time>2023-06-03T09:38:57.990</time></trkpt><trkpt lat="55.8948381" lon="49.1989469"><time>2023-06-03T09:38:59.987</time></trkpt><trkpt lat="55.8949011" lon="49.1989393"><time>2023-06-03T09:39:01.993</time></trkpt><trkpt lat="55.8949543" lon="49.1989279"><time>2023-06-03T09:39:03.983</time></trkpt><trkpt lat="55.8950079" lon="49.1989242"><time>2023-06-03T09:39:05.973</time></trkpt><trkpt lat="55.8950649" lon="49.1989160"><time>2023-06-03T09:39:07.987</time></trkpt><trkpt lat="55.8951230" lon="49.1988865"><time>2023-06-03T09:39:09.993</time></trkpt><trkpt lat="55.8951679" lon="49.1988201"><time>2023-06-03T09:39:11.990</time></trkpt><trkpt lat="55.8951978" lon="49.1987481"><time>2023-06-03T09:39:14.003</time></trkpt><trkpt lat="55.8952197" lon="49.1986681"><time>2023-06-03T09:39:15.987</time></trkpt><trkpt lat="55.8952390" lon="49.1985765"><time>2023-06-03T09:39:18</time></trkpt><trkpt lat="55.8952480" lon="49.1984772"><time>2023-06-03T09:39:19.987</time></trkpt><trkpt lat="55.8952481" lon="49.1983738"><time>2023-06-03T09:39:21.987</time></trkpt><trkpt lat="55.8952266" lon="49.1982712"><time>2023-06-03T09:39:23.967</time></trkpt><trkpt lat="55.8952049" lon="49.1981789"><time>2023-06-03T09:39:26.980</time></trkpt><trkpt lat="55.8951901" lon="49.1980879"><time>2023-06-03T09:40:07.993</time></trkpt><trkpt lat="55.8951917" lon="49.1979805"><time>2023-06-03T09:40:09.997</time></trkpt><trkpt lat="55.8951950" lon="49.1978626"><time>2023-06-03T09:40:11.997</time></trkpt><trkpt lat="55.8951965" lon="49.1977342"><time>2023-06-03T09:40:14.020</time></trkpt><trkpt lat="55.8951925" lon="49.1976017"><time>2023-06-03T09:40:16.013</time></trkpt><trkpt lat="55.8951808" lon="49.1974633"><time>2023-06-03T09:40:17.993</time></trkpt><trkpt lat="55.8951672" lon="49.1973173"><time>2023-06-03T09:40:19.993</time></trkpt><trkpt lat="55.8951626" lon="49.1971936"><time>2023-06-03T09:40:21.997</time></trkpt><trkpt lat="55.8951790" lon="49.1970737"><time>2023-06-03T09:40:24.017</time></trkpt><trkpt lat="55.8952277" lon="49.1969982"><time>2023-06-03T09:40:25.987</time></trkpt><trkpt lat="55.8952918" lon="49.1969656"><time>2023-06-03T09:40:27.990</time></trkpt><trkpt lat="55.8953663" lon="49.1969655"><time>2023-06-03T09:40:29.993</time></trkpt><trkpt lat="55.8954343" lon="49.1969714"><time>2023-06-03T09:40:31.990</time></trkpt><trkpt lat="55.8955048" lon="49.1969700"><time>2023-06-03T09:40:34</time></trkpt><trkpt lat="55.8955697" lon="49.1969811"><time>2023-06-03T09:40:36.013</time></trkpt><trkpt lat="55.8956137" lon="49.1970333"><time>2023-06-03T09:40:37.987</time></trkpt><trkpt lat="55.8956412" lon="49.1971281"><time>2023-06-03T09:40:39.993</time></trkpt><trkpt lat="55.8956757" lon="49.1972300"><time>2023-06-03T09:40:41.977</time></trkpt><trkpt lat="55.8957213" lon="49.1973342"><time>2023-06-03T09:40:43.977</time></trkpt><trkpt lat="55.8957843" lon="49.1974127"><time>2023-06-03T09:40:45.990</time></trkpt><trkpt lat="55.8958601" lon="49.1974511"><time>2023-06-03T09:40:47.997</time></trkpt><trkpt lat="55.8959383" lon="49.1974916"><time>2023-06-03T09:40:49.987</time></trkpt><trkpt lat="55.8960113" lon="49.1975359"><time>2023-06-03T09:40:51.997</time></trkpt><trkpt lat="55.8960853" lon="49.1975170"><time>2023-06-03T09:40:53.990</time></trkpt><trkpt lat="55.8961523" lon="49.1974613"><time>2023-06-03T09:40:56.003</time></trkpt><trkpt lat="55.8962127" lon="49.1973947"><time>2023-06-03T09:40:57.990</time></trkpt><trkpt lat="55.8962590" lon="49.1973060"><time>2023-06-03T09:40:59.990</time></trkpt><trkpt lat="55.8962883" lon="49.1971891"><time>2023-06-03T09:41:01.983</time></trkpt><trkpt lat="55.8963131" lon="49.1970788"><time>2023-06-03T09:41:03.990</time></trkpt><trkpt lat="55.8963407" lon="49.1969833"><time>2023-06-03T09:41:06.980</time></trkpt><trkpt lat="55.8963682" lon="49.1969114"><time>2023-06-03T09:41:08.997</time></trkpt><trkpt lat="55.8964160" lon="49.1968305"><time>2023-06-03T09:41:10.977</time></trkpt><trkpt lat="55.8964766" lon="49.1967487"><time>2023-06-03T09:41:12.983</time></trkpt><trkpt lat="55.8965509" lon="49.1966665"><time>2023-06-03T09:41:14.997</time></trkpt><trkpt lat="55.8966214" lon="49.1965853"><time>2023-06-03T09:41:16.990</time></trkpt><trkpt lat="55.8966943" lon="49.1965132"><time>2023-06-03T09:41:18.990</time></trkpt><trkpt lat="55.8967560" lon="49.1964210"><time>2023-06-03T09:41:20.990</time></trkpt><trkpt lat="55.8968080" lon="49.1963083"><time>2023-06-03T09:41:22.993</time></trkpt><trkpt lat="55.8968670" lon="49.1962083"><time>2023-06-03T09:41:24.977</time></trkpt><trkpt lat="55.8969342" lon="49.1961335"><time>2023-06-03T09:41:26.973</time></trkpt><trkpt lat="55.8970110" lon="49.1961000"><time>2023-06-03T09:41:28.990</time></trkpt><trkpt lat="55.8970890" lon="49.1961179"><time>2023-06-03T09:41:30.987</time></trkpt><trkpt lat="55.8971536" lon="49.1961501"><time>2023-06-03T09:41:32.990</time></trkpt><trkpt lat="55.8972093" lon="49.1961954"><time>2023-06-03T09:41:34.990</time></trkpt><trkpt lat="55.8972629" lon="49.1962474"><time>2023-06-03T09:41:36.997</time></trkpt><trkpt lat="55.8973106" lon="49.1963029"><time>2023-06-03T09:41:38.993</time></trkpt><trkpt lat="55.8973628" lon="49.1963421"><time>2023-06-03T09:41:41.040</time></trkpt><trkpt lat="55.8974213" lon="49.1963844"><time>2023-06-03T09:41:42.990</time></trkpt><trkpt lat="55.8974682" lon="49.1964323"><time>2023-06-03T09:41:44.997</time></trkpt><trkpt lat="55.8975154" lon="49.1964855"><time>2023-06-03T09:41:46.987</time></trkpt><trkpt lat="55.8975719" lon="49.1965350"><time>2023-06-03T09:41:48.983</time></trkpt><trkpt lat="55.8976352" lon="49.1965927"><time>2023-06-03T09:41:50.980</time></trkpt><trkpt lat="55.8977041" lon="49.1966407"><time>2023-06-03T09:41:52.997</time></trkpt><trkpt lat="55.8977691" lon="49.1966924"><time>2023-06-03T09:41:55.013</time></trkpt><trkpt lat="55.8977906" lon="49.1967118"><time>2023-06-03T09:41:56.150</time></trkpt><trkpt lat="55.8978338" lon="49.1967368"><time>2023-06-03T09:41:56.980</time></trkpt><trkpt lat="55.8978909" lon="49.1967506"><time>2023-06-03T09:41:58.987</time></trkpt><trkpt lat="55.8979454" lon="49.1967596"><time>2023-06-03T09:42:56.037</time></trkpt><trkpt lat="55.8980010" lon="49.1967630"><time>2023-06-03T09:42:57.987</time></trkpt><trkpt lat="55.8980678" lon="49.1967569"><time>2023-06-03T09:43:00</time></trkpt><trkpt lat="55.8981392" lon="49.1967335"><time>2023-06-03T09:43:01.993</time></trkpt><trkpt lat="55.8982029" lon="49.1967007"><time>2023-06-03T09:43:04.007</time></trkpt><trkpt lat="55.8982614" lon="49.1966552"><time>2023-06-03T09:43:06.003</time></trkpt><trkpt lat="55.8983147" lon="49.1965860"><time>2023-06-03T09:43:07.997</time></trkpt><trkpt lat="55.8983782" lon="49.1965375"><time>2023-06-03T09:43:10</time></trkpt><trkpt lat="55.8984435" lon="49.1965329"><time>2023-06-03T09:43:11.987</time></trkpt><trkpt lat="55.8984966" lon="49.1965270"><time>2023-06-03T09:43:14.033</time></trkpt><trkpt lat="55.8985490" lon="49.1965433"><time>2023-06-03T09:43:16.997</time></trkpt><trkpt lat="55.8985913" lon="49.1965922"><time>2023-06-03T09:43:21.003</time></trkpt><trkpt lat="55.8986166" lon="49.1965053"><time>2023-06-03T09:45:18.980</time></trkpt><trkpt lat="55.8986163" lon="49.1964057"><time>2023-06-03T09:45:20.977</time></trkpt><trkpt lat="55.8986200" lon="49.1962948"><time>2023-06-03T09:45:22.987</time></trkpt><trkpt lat="55.8986239" lon="49.1961891"><time>2023-06-03T09:45:24.977</time></trkpt><trkpt lat="55.8986366" lon="49.1960900"><time>2023-06-03T09:45:26.993</time></trkpt><trkpt lat="55.8986515" lon="49.1959989"><time>2023-06-03T09:45:29.020</time></trkpt><trkpt lat="55.8986564" lon="49.1959776"><time>2023-06-03T09:45:30.117</time></trkpt><trkpt lat="55.8986738" lon="49.1958693"><time>2023-06-03T09:45:32.980</time></trkpt><trkpt lat="55.8986873" lon="49.1957844"><time>2023-06-03T09:45:35.987</time></trkpt><trkpt lat="55.8987033" lon="49.1958705"><time>2023-06-03T09:46:05.003</time></trkpt><trkpt lat="55.8987375" lon="49.1959318"><time>2023-06-03T09:46:09.027</time></trkpt><trkpt lat="55.8987836" lon="49.1959574"><time>2023-06-03T09:46:14.003</time></trkpt><trkpt lat="55.8988337" lon="49.1959732"><time>2023-06-03T09:46:22.990</time></trkpt><trkpt lat="55.8988770" lon="49.1959423"><time>2023-06-03T09:46:29.983</time></trkpt><trkpt lat="55.8989185" lon="49.1959918"><time>2023-06-03T09:46:36.977</time></trkpt><trkpt lat="55.8989643" lon="49.1959904"><time>2023-06-03T09:46:43.013</time></trkpt><trkpt lat="55.8989808" lon="49.1959076"><time>2023-06-03T09:46:59</time></trkpt><trkpt lat="55.8989992" lon="49.1958242"><time>2023-06-03T09:47:06.020</time></trkpt><trkpt lat="55.8990093" lon="49.1957423"><time>2023-06-03T09:47:11.993</time></trkpt><trkpt lat="55.8990039" lon="49.1956598"><time>2023-06-03T09:47:28.990</time></trkpt><trkpt lat="55.8990239" lon="49.1955835"><time>2023-06-03T09:47:34</time></trkpt><trkpt lat="55.8990695" lon="49.1956031"><time>2023-06-03T09:47:41.013</time></trkpt><trkpt lat="55.8991024" lon="49.1956659"><time>2023-06-03T09:47:47.990</time></trkpt><trkpt lat="55.8990881" lon="49.1957478"><time>2023-06-03T09:48:00.007</time></trkpt><trkpt lat="55.8991368" lon="49.1957307"><time>2023-06-03T09:48:11</time></trkpt><trkpt lat="55.8991676" lon="49.1956626"><time>2023-06-03T09:48:17.993</time></trkpt><trkpt lat="55.8992126" lon="49.1956423"><time>2023-06-03T09:48:30.993</time></trkpt><trkpt lat="55.8991692" lon="49.1956050"><time>2023-06-03T09:48:50.973</time></trkpt><trkpt lat="55.8991839" lon="49.1955999"><time>2023-06-03T09:48:52.110</time></trkpt><trkpt lat="55.8991454" lon="49.1956685"><time>2023-06-03T09:49:01.987</time></trkpt><trkpt lat="55.8991308" lon="49.1956696"><time>2023-06-03T09:49:03.097</time></trkpt><trkpt lat="55.8990946" lon="49.1957527"><time>2023-06-03T09:49:10.967</time></trkpt><trkpt lat="55.8990467" lon="49.1958051"><time>2023-06-03T09:49:14.973</time></trkpt><trkpt lat="55.8989981" lon="49.1958580"><time>2023-06-03T09:49:18.960</time></trkpt><trkpt lat="55.8989551" lon="49.1959159"><time>2023-06-03T09:49:23.970</time></trkpt><trkpt lat="55.8989321" lon="49.1960016"><time>2023-06-03T09:49:28.973</time></trkpt><trkpt lat="55.8989337" lon="49.1960838"><time>2023-06-03T09:49:32.963</time></trkpt><trkpt lat="55.8989378" lon="49.1961771"><time>2023-06-03T09:49:36.963</time></trkpt><trkpt lat="55.8989384" lon="49.1960877"><time>2023-06-03T09:49:49.987</time></trkpt><trkpt lat="55.8989017" lon="49.1960398"><time>2023-06-03T09:49:54.983</time></trkpt><trkpt lat="55.8988643" lon="49.1959890"><time>2023-06-03T09:50:02.993</time></trkpt><trkpt lat="55.8988919" lon="49.1959057"><time>2023-06-03T09:50:12.980</time></trkpt><trkpt lat="55.8989155" lon="49.1958049"><time>2023-06-03T09:50:15.977</time></trkpt><trkpt lat="55.8989282" lon="49.1956974"><time>2023-06-03T09:50:18.987</time></trkpt><trkpt lat="55.8989493" lon="49.1956237"><time>2023-06-03T09:50:25.980</time></trkpt><trkpt lat="55.8989767" lon="49.1955461"><time>2023-06-03T09:50:31.967</time></trkpt><trkpt lat="55.8990235" lon="49.1955046"><time>2023-06-03T09:50:36.997</time></trkpt><trkpt lat="55.8990233" lon="49.1955103"><time>2023-06-03T09:50:38.110</time></trkpt><trkpt lat="55.8990497" lon="49.1954246"><time>2023-06-03T09:50:41.977</time></trkpt><trkpt lat="55.8990692" lon="49.1953501"><time>2023-06-03T09:50:43.977</time></trkpt><trkpt lat="55.8990850" lon="49.1952692"><time>2023-06-03T09:50:45.977</time></trkpt><trkpt lat="55.8991054" lon="49.1951943"><time>2023-06-03T09:50:47.973</time></trkpt><trkpt lat="55.8991349" lon="49.1951261"><time>2023-06-03T09:50:49.977</time></trkpt><trkpt lat="55.8991774" lon="49.1950464"><time>2023-06-03T09:50:52.997</time></trkpt><trkpt lat="55.8991774" lon="49.1950464"><time>2023-06-03T09:50:53.090</time></trkpt><trkpt lat="55.8992170" lon="49.1949816"><time>2023-06-03T09:50:56.017</time></trkpt><trkpt lat="55.8992108" lon="49.1949771"><time>2023-06-03T09:50:57.153</time></trkpt><trkpt lat="55.8992469" lon="49.1949171"><time>2023-06-03T09:51:01.980</time></trkpt><trkpt lat="55.8992794" lon="49.1948599"><time>2023-06-03T09:51:38.967</time></trkpt><trkpt lat="55.8992294" lon="49.1948939"><time>2023-06-03T09:51:50.973</time></trkpt><trkpt lat="55.8991924" lon="49.1949528"><time>2023-06-03T09:51:53.987</time></trkpt><trkpt lat="55.8991529" lon="49.1950225"><time>2023-06-03T09:51:55.967</time></trkpt><trkpt lat="55.8991343" lon="49.1951110"><time>2023-06-03T09:51:59.960</time></trkpt><trkpt lat="55.8990989" lon="49.1951836"><time>2023-06-03T09:52:03.963</time></trkpt><trkpt lat="55.8990595" lon="49.1952437"><time>2023-06-03T09:52:07.970</time></trkpt><trkpt lat="55.8990269" lon="49.1953196"><time>2023-06-03T09:52:11.960</time></trkpt><trkpt lat="55.8990014" lon="49.1953960"><time>2023-06-03T09:52:14.983</time></trkpt><trkpt lat="55.8989750" lon="49.1954812"><time>2023-06-03T09:52:18.990</time></trkpt><trkpt lat="55.8989548" lon="49.1955701"><time>2023-06-03T09:52:22.993</time></trkpt><trkpt lat="55.8989358" lon="49.1956707"><time>2023-06-03T09:52:26.987</time></trkpt><trkpt lat="55.8989266" lon="49.1957492"><time>2023-06-03T09:52:29.993</time></trkpt><trkpt lat="55.8989119" lon="49.1958298"><time>2023-06-03T09:52:34.003</time></trkpt><trkpt lat="55.8988894" lon="49.1959046"><time>2023-06-03T09:52:37.987</time></trkpt><trkpt lat="55.8988654" lon="49.1959725"><time>2023-06-03T09:52:41.990</time></trkpt><trkpt lat="55.8988230" lon="49.1960044"><time>2023-06-03T09:52:46.013</time></trkpt><trkpt lat="55.8987774" lon="49.1960150"><time>2023-06-03T09:52:52.990</time></trkpt><trkpt lat="55.8987341" lon="49.1959637"><time>2023-06-03T09:52:56.983</time></trkpt><trkpt lat="55.8986918" lon="49.1959169"><time>2023-06-03T09:53:01.037</time></trkpt><trkpt lat="55.8986515" lon="49.1958795"><time>2023-06-03T09:53:05.023</time></trkpt><trkpt lat="55.8986636" lon="49.1957817"><time>2023-06-03T09:54:37.990</time></trkpt><trkpt lat="55.8986604" lon="49.1956854"><time>2023-06-03T09:54:41.010</time></trkpt><trkpt lat="55.8986548" lon="49.1956005"><time>2023-06-03T09:54:42.990</time></trkpt><trkpt lat="55.8986515" lon="49.1954964"><time>2023-06-03T09:54:45.037</time></trkpt><trkpt lat="55.8986404" lon="49.1954178"><time>2023-06-03T09:54:46.007</time></trkpt><trkpt lat="55.8986294" lon="49.1953388"><time>2023-06-03T09:54:46.993</time></trkpt><trkpt lat="55.8986096" lon="49.1952063"><time>2023-06-03T09:54:49.007</time></trkpt><trkpt lat="55.8986013" lon="49.1951152"><time>2023-06-03T09:54:51.007</time></trkpt><trkpt lat="55.8986200" lon="49.1950084"><time>2023-06-03T09:54:54.007</time></trkpt><trkpt lat="55.8986211" lon="49.1948989"><time>2023-06-03T09:54:55.987</time></trkpt><trkpt lat="55.8986468" lon="49.1948053"><time>2023-06-03T09:54:57.957</time></trkpt><trkpt lat="55.8986815" lon="49.1947123"><time>2023-06-03T09:55:00.970</time></trkpt><trkpt lat="55.8987330" lon="49.1947018"><time>2023-06-03T09:55:02.967</time></trkpt><trkpt lat="55.8987948" lon="49.1946958"><time>2023-06-03T09:55:36.983</time></trkpt><trkpt lat="55.8988467" lon="49.1946438"><time>2023-06-03T09:55:39.017</time></trkpt><trkpt lat="55.8989025" lon="49.1945931"><time>2023-06-03T09:55:41</time></trkpt><trkpt lat="55.8989703" lon="49.1945447"><time>2023-06-03T09:55:42.987</time></trkpt><trkpt lat="55.8990170" lon="49.1944596"><time>2023-06-03T09:55:45.007</time></trkpt><trkpt lat="55.8990566" lon="49.1943610"><time>2023-06-03T09:55:46.980</time></trkpt><trkpt lat="55.8990909" lon="49.1942483"><time>2023-06-03T09:55:49.037</time></trkpt><trkpt lat="55.8991246" lon="49.1941250"><time>2023-06-03T09:55:51.003</time></trkpt><trkpt lat="55.8991580" lon="49.1940027"><time>2023-06-03T09:55:52.987</time></trkpt><trkpt lat="55.8991865" lon="49.1938875"><time>2023-06-03T09:55:55</time></trkpt><trkpt lat="55.8992138" lon="49.1937705"><time>2023-06-03T09:55:56.987</time></trkpt><trkpt lat="55.8992384" lon="49.1936513"><time>2023-06-03T09:55:58.987</time></trkpt><trkpt lat="55.8992654" lon="49.1935172"><time>2023-06-03T09:56:00.977</time></trkpt><trkpt lat="55.8992941" lon="49.1933887"><time>2023-06-03T09:56:02.990</time></trkpt><trkpt lat="55.8993220" lon="49.1932655"><time>2023-06-03T09:56:05.010</time></trkpt><trkpt lat="55.8993538" lon="49.1931365"><time>2023-06-03T09:56:06.983</time></trkpt><trkpt lat="55.8993798" lon="49.1930075"><time>2023-06-03T09:56:08.980</time></trkpt><trkpt lat="55.8994018" lon="49.1928768"><time>2023-06-03T09:56:11.007</time></trkpt><trkpt lat="55.8994320" lon="49.1927470"><time>2023-06-03T09:56:12.980</time></trkpt><trkpt lat="55.8994621" lon="49.1926218"><time>2023-06-03T09:56:14.993</time></trkpt><trkpt lat="55.8994971" lon="49.1925009"><time>2023-06-03T09:56:16.987</time></trkpt><trkpt lat="55.8995388" lon="49.1923828"><time>2023-06-03T09:56:19.010</time></trkpt><trkpt lat="55.8995775" lon="49.1922693"><time>2023-06-03T09:56:21.010</time></trkpt><trkpt lat="55.8996177" lon="49.1921617"><time>2023-06-03T09:56:22.983</time></trkpt><trkpt lat="55.8996589" lon="49.1920425"><time>2023-06-03T09:56:24.997</time></trkpt><trkpt lat="55.8996936" lon="49.1919092"><time>2023-06-03T09:56:26.977</time></trkpt><trkpt lat="55.8997251" lon="49.1917736"><time>2023-06-03T09:56:28.997</time></trkpt><trkpt lat="55.8997574" lon="49.1916386"><time>2023-06-03T09:56:30.987</time></trkpt><trkpt lat="55.8997868" lon="49.1915026"><time>2023-06-03T09:56:32.967</time></trkpt><trkpt lat="55.8998136" lon="49.1913462"><time>2023-06-03T09:56:34.993</time></trkpt><trkpt lat="55.8998239" lon="49.1912668"><time>2023-06-03T09:56:35.980</time></trkpt><trkpt lat="55.8998546" lon="49.1911247"><time>2023-06-03T09:56:37.990</time></trkpt><trkpt lat="55.8998925" lon="49.1909943"><time>2023-06-03T09:56:40.007</time></trkpt><trkpt lat="55.8999524" lon="49.1908890"><time>2023-06-03T09:56:41.987</time></trkpt><trkpt lat="55.9000224" lon="49.1908185"><time>2023-06-03T09:56:44</time></trkpt><trkpt lat="55.9000924" lon="49.1907567"><time>2023-06-03T09:56:46.010</time></trkpt><trkpt lat="55.9001574" lon="49.1906677"><time>2023-06-03T09:56:47.990</time></trkpt><trkpt lat="55.9002087" lon="49.1905559"><time>2023-06-03T09:56:49.997</time></trkpt><trkpt lat="55.9002549" lon="49.1904345"><time>2023-06-03T09:56:51.983</time></trkpt><trkpt lat="55.9002916" lon="49.1903050"><time>2023-06-03T09:56:53.993</time></trkpt><trkpt lat="55.9003253" lon="49.1901751"><time>2023-06-03T09:56:56.003</time></trkpt><trkpt lat="55.9003617" lon="49.1900448"><time>2023-06-03T09:56:57.993</time></trkpt><trkpt lat="55.9004036" lon="49.1899159"><time>2023-06-03T09:57:00.010</time></trkpt><trkpt lat="55.9004482" lon="49.1897874"><time>2023-06-03T09:57:01.987</time></trkpt><trkpt lat="55.9004951" lon="49.1896620"><time>2023-06-03T09:57:04.027</time></trkpt><trkpt lat="55.9005453" lon="49.1895488"><time>2023-06-03T09:57:06.027</time></trkpt><trkpt lat="55.9006051" lon="49.1894596"><time>2023-06-03T09:57:07.987</time></trkpt><trkpt lat="55.9006749" lon="49.1894007"><time>2023-06-03T09:57:09.997</time></trkpt><trkpt lat="55.9007384" lon="49.1893228"><time>2023-06-03T09:57:11.990</time></trkpt><trkpt lat="55.9007905" lon="49.1892158"><time>2023-06-03T09:57:14</time></trkpt><trkpt lat="55.9008345" lon="49.1890952"><time>2023-06-03T09:57:16.010</time></trkpt><trkpt lat="55.9008741" lon="49.1889676"><time>2023-06-03T09:57:17.983</time></trkpt><trkpt lat="55.9009032" lon="49.1888372"><time>2023-06-03T09:57:19.997</time></trkpt><trkpt lat="55.9009192" lon="49.1886982"><time>2023-06-03T09:57:21.983</time></trkpt><trkpt lat="55.9009408" lon="49.1885592"><time>2023-06-03T09:57:23.987</time></trkpt><trkpt lat="55.9009767" lon="49.1884256"><time>2023-06-03T09:57:25.980</time></trkpt><trkpt lat="55.9010187" lon="49.1882964"><time>2023-06-03T09:57:28.037</time></trkpt><trkpt lat="55.9010739" lon="49.1881833"><time>2023-06-03T09:57:30.010</time></trkpt><trkpt lat="55.9011426" lon="49.1880793"><time>2023-06-03T09:57:31.987</time></trkpt><trkpt lat="55.9011756" lon="49.1880225"><time>2023-06-03T09:57:32.980</time></trkpt><trkpt lat="55.9012053" lon="49.1879590"><time>2023-06-03T09:57:33.983</time></trkpt><trkpt lat="55.9012501" lon="49.1878246"><time>2023-06-03T09:57:35.993</time></trkpt><trkpt lat="55.9012814" lon="49.1876917"><time>2023-06-03T09:57:37.987</time></trkpt><trkpt lat="55.9012888" lon="49.1875529"><time>2023-06-03T09:57:40.033</time></trkpt><trkpt lat="55.9012822" lon="49.1874272"><time>2023-06-03T09:57:41.987</time></trkpt><trkpt lat="55.9013116" lon="49.1873146"><time>2023-06-03T09:57:44.017</time></trkpt><trkpt lat="55.9013759" lon="49.1872341"><time>2023-06-03T09:57:46.037</time></trkpt><trkpt lat="55.9014489" lon="49.1871765"><time>2023-06-03T09:57:47.990</time></trkpt><trkpt lat="55.9015150" lon="49.1871288"><time>2023-06-03T09:57:50.003</time></trkpt><trkpt lat="55.9015627" lon="49.1870858"><time>2023-06-03T09:57:51.980</time></trkpt><trkpt lat="55.9016021" lon="49.1870199"><time>2023-06-03T09:57:54.047</time></trkpt><trkpt lat="55.9016377" lon="49.1869331"><time>2023-06-03T09:57:56.043</time></trkpt><trkpt lat="55.9016708" lon="49.1868275"><time>2023-06-03T09:57:57.990</time></trkpt><trkpt lat="55.9016991" lon="49.1867343"><time>2023-06-03T09:58:00.007</time></trkpt><trkpt lat="55.9017274" lon="49.1866409"><time>2023-06-03T09:58:01.997</time></trkpt><trkpt lat="55.9017481" lon="49.1865532"><time>2023-06-03T09:58:04.037</time></trkpt><trkpt lat="55.9017793" lon="49.1864521"><time>2023-06-03T09:58:06.030</time></trkpt><trkpt lat="55.9018158" lon="49.1863320"><time>2023-06-03T09:58:07.993</time></trkpt><trkpt lat="55.9018484" lon="49.1862006"><time>2023-06-03T09:58:10.027</time></trkpt><trkpt lat="55.9018857" lon="49.1860744"><time>2023-06-03T09:58:11.990</time></trkpt><trkpt lat="55.9019240" lon="49.1859528"><time>2023-06-03T09:58:14.030</time></trkpt><trkpt lat="55.9019611" lon="49.1858328"><time>2023-06-03T09:58:16.007</time></trkpt><trkpt lat="55.9019996" lon="49.1857078"><time>2023-06-03T09:58:17.990</time></trkpt><trkpt lat="55.9020388" lon="49.1855746"><time>2023-06-03T09:58:20.037</time></trkpt><trkpt lat="55.9020799" lon="49.1854356"><time>2023-06-03T09:58:21.987</time></trkpt><trkpt lat="55.9021233" lon="49.1853058"><time>2023-06-03T09:58:24.027</time></trkpt><trkpt lat="55.9021639" lon="49.1851667"><time>2023-06-03T09:58:26.010</time></trkpt><trkpt lat="55.9021863" lon="49.1850936"><time>2023-06-03T09:58:26.987</time></trkpt><trkpt lat="55.9022087" lon="49.1850212"><time>2023-06-03T09:58:27.993</time></trkpt><trkpt lat="55.9022299" lon="49.1849473"><time>2023-06-03T09:58:29</time></trkpt><trkpt lat="55.9022720" lon="49.1848191"><time>2023-06-03T09:58:30.990</time></trkpt><trkpt lat="55.9023220" lon="49.1847149"><time>2023-06-03T09:58:33.010</time></trkpt><trkpt lat="55.9023726" lon="49.1846067"><time>2023-06-03T09:58:35.023</time></trkpt><trkpt lat="55.9024105" lon="49.1844757"><time>2023-06-03T09:58:36.987</time></trkpt><trkpt lat="55.9024380" lon="49.1843344"><time>2023-06-03T09:58:38.997</time></trkpt><trkpt lat="55.9024584" lon="49.1841999"><time>2023-06-03T09:58:41.007</time></trkpt><trkpt lat="55.9024851" lon="49.1840636"><time>2023-06-03T09:58:42.987</time></trkpt><trkpt lat="55.9025184" lon="49.1839315"><time>2023-06-03T09:58:45.013</time></trkpt><trkpt lat="55.9025533" lon="49.1837913"><time>2023-06-03T09:58:47</time></trkpt><trkpt lat="55.9025859" lon="49.1836550"><time>2023-06-03T09:58:49.030</time></trkpt><trkpt lat="55.9026246" lon="49.1835279"><time>2023-06-03T09:58:51.037</time></trkpt><trkpt lat="55.9026658" lon="49.1833977"><time>2023-06-03T09:58:52.987</time></trkpt><trkpt lat="55.9026998" lon="49.1832697"><time>2023-06-03T09:58:55.010</time></trkpt><trkpt lat="55.9027319" lon="49.1831335"><time>2023-06-03T09:58:56.973</time></trkpt><trkpt lat="55.9027591" lon="49.1829929"><time>2023-06-03T09:58:59.010</time></trkpt><trkpt lat="55.9027886" lon="49.1828571"><time>2023-06-03T09:59:01.037</time></trkpt><trkpt lat="55.9028213" lon="49.1827214"><time>2023-06-03T09:59:03.013</time></trkpt><trkpt lat="55.9028591" lon="49.1825840"><time>2023-06-03T09:59:05.013</time></trkpt><trkpt lat="55.9028991" lon="49.1824460"><time>2023-06-03T09:59:06.980</time></trkpt><trkpt lat="55.9029353" lon="49.1823151"><time>2023-06-03T09:59:09.027</time></trkpt><trkpt lat="55.9029671" lon="49.1821824"><time>2023-06-03T09:59:11.010</time></trkpt><trkpt lat="55.9030100" lon="49.1820566"><time>2023-06-03T09:59:12.983</time></trkpt><trkpt lat="55.9030407" lon="49.1819385"><time>2023-06-03T09:59:15.040</time></trkpt><trkpt lat="55.9030710" lon="49.1818160"><time>2023-06-03T09:59:16.987</time></trkpt><trkpt lat="55.9030957" lon="49.1816924"><time>2023-06-03T09:59:19.017</time></trkpt><trkpt lat="55.9031269" lon="49.1815750"><time>2023-06-03T09:59:21.007</time></trkpt><trkpt lat="55.9031542" lon="49.1814511"><time>2023-06-03T09:59:22.983</time></trkpt><trkpt lat="55.9031827" lon="49.1813170"><time>2023-06-03T09:59:24.973</time></trkpt><trkpt lat="55.9032179" lon="49.1811978"><time>2023-06-03T09:59:26.990</time></trkpt><trkpt lat="55.9032656" lon="49.1811019"><time>2023-06-03T09:59:29.007</time></trkpt><trkpt lat="55.9033253" lon="49.1810205"><time>2023-06-03T09:59:30.993</time></trkpt><trkpt lat="55.9033857" lon="49.1809286"><time>2023-06-03T09:59:32.977</time></trkpt><trkpt lat="55.9034398" lon="49.1808323"><time>2023-06-03T09:59:35.007</time></trkpt><trkpt lat="55.9034925" lon="49.1807335"><time>2023-06-03T09:59:36.990</time></trkpt><trkpt lat="55.9035501" lon="49.1806254"><time>2023-06-03T09:59:39.030</time></trkpt><trkpt lat="55.9036066" lon="49.1805135"><time>2023-06-03T09:59:41.033</time></trkpt><trkpt lat="55.9036664" lon="49.1804148"><time>2023-06-03T09:59:42.987</time></trkpt><trkpt lat="55.9037315" lon="49.1803233"><time>2023-06-03T09:59:44.997</time></trkpt><trkpt lat="55.9038032" lon="49.1802314"><time>2023-06-03T09:59:46.980</time></trkpt><trkpt lat="55.9038407" lon="49.1801864"><time>2023-06-03T09:59:47.980</time></trkpt><trkpt lat="55.9039132" lon="49.1800964"><time>2023-06-03T09:59:49.980</time></trkpt><trkpt lat="55.9039774" lon="49.1799984"><time>2023-06-03T09:59:51.980</time></trkpt><trkpt lat="55.9040365" lon="49.1798921"><time>2023-06-03T09:59:54.033</time></trkpt><trkpt lat="55.9040919" lon="49.1797914"><time>2023-06-03T09:59:56.003</time></trkpt><trkpt lat="55.9041437" lon="49.1796831"><time>2023-06-03T09:59:57.987</time></trkpt><trkpt lat="55.9041964" lon="49.1795780"><time>2023-06-03T10:00:00.020</time></trkpt><trkpt lat="55.9042501" lon="49.1794941"><time>2023-06-03T10:00:01.983</time></trkpt><trkpt lat="55.9043018" lon="49.1794403"><time>2023-06-03T10:00:04.003</time></trkpt><trkpt lat="55.9043525" lon="49.1793949"><time>2023-06-03T10:00:06.043</time></trkpt><trkpt lat="55.9044082" lon="49.1793595"><time>2023-06-03T10:00:07.983</time></trkpt><trkpt lat="55.9044560" lon="49.1793298"><time>2023-06-03T10:00:10</time></trkpt><trkpt lat="55.9045057" lon="49.1793055"><time>2023-06-03T10:00:11.987</time></trkpt><trkpt lat="55.9045672" lon="49.1793119"><time>2023-06-03T10:00:14.013</time></trkpt><trkpt lat="55.9046264" lon="49.1793530"><time>2023-06-03T10:00:16.013</time></trkpt><trkpt lat="55.9046888" lon="49.1794158"><time>2023-06-03T10:00:17.987</time></trkpt><trkpt lat="55.9047522" lon="49.1794960"><time>2023-06-03T10:00:20.023</time></trkpt><trkpt lat="55.9048120" lon="49.1795773"><time>2023-06-03T10:00:21.990</time></trkpt><trkpt lat="55.9048732" lon="49.1796754"><time>2023-06-03T10:00:24.007</time></trkpt><trkpt lat="55.9049320" lon="49.1797780"><time>2023-06-03T10:00:26.017</time></trkpt><trkpt lat="55.9049841" lon="49.1798853"><time>2023-06-03T10:00:27.977</time></trkpt><trkpt lat="55.9050264" lon="49.1799852"><time>2023-06-03T10:00:30</time></trkpt><trkpt lat="55.9050614" lon="49.1800874"><time>2023-06-03T10:00:31.983</time></trkpt><trkpt lat="55.9050941" lon="49.1801804"><time>2023-06-03T10:00:34.030</time></trkpt><trkpt lat="55.9051204" lon="49.1802682"><time>2023-06-03T10:00:36</time></trkpt><trkpt lat="55.9051450" lon="49.1803469"><time>2023-06-03T10:00:37.983</time></trkpt><trkpt lat="55.9052007" lon="49.1803792"><time>2023-06-03T10:00:41.017</time></trkpt><trkpt lat="55.9052582" lon="49.1803456"><time>2023-06-03T10:00:42.987</time></trkpt><trkpt lat="55.9053108" lon="49.1802735"><time>2023-06-03T10:00:45.007</time></trkpt><trkpt lat="55.9053469" lon="49.1801893"><time>2023-06-03T10:00:46.990</time></trkpt><trkpt lat="55.9053813" lon="49.1800843"><time>2023-06-03T10:00:49.060</time></trkpt><trkpt lat="55.9054028" lon="49.1799929"><time>2023-06-03T10:00:50.987</time></trkpt><trkpt lat="55.9054216" lon="49.1798832"><time>2023-06-03T10:00:53.030</time></trkpt><trkpt lat="55.9054382" lon="49.1797497"><time>2023-06-03T10:00:54.993</time></trkpt><trkpt lat="55.9054466" lon="49.1796206"><time>2023-06-03T10:00:56.990</time></trkpt><trkpt lat="55.9054522" lon="49.1794890"><time>2023-06-03T10:00:59.020</time></trkpt><trkpt lat="55.9054579" lon="49.1793683"><time>2023-06-03T10:01:01.017</time></trkpt><trkpt lat="55.9054671" lon="49.1792465"><time>2023-06-03T10:01:02.983</time></trkpt><trkpt lat="55.9054934" lon="49.1791207"><time>2023-06-03T10:01:05</time></trkpt><trkpt lat="55.9055356" lon="49.1790067"><time>2023-06-03T10:01:07</time></trkpt><trkpt lat="55.9055784" lon="49.1788848"><time>2023-06-03T10:01:09.040</time></trkpt><trkpt lat="55.9056178" lon="49.1787538"><time>2023-06-03T10:01:11</time></trkpt><trkpt lat="55.9056420" lon="49.1786829"><time>2023-06-03T10:01:11.983</time></trkpt><trkpt lat="55.9056891" lon="49.1785637"><time>2023-06-03T10:01:14.010</time></trkpt><trkpt lat="55.9057335" lon="49.1784304"><time>2023-06-03T10:01:16.013</time></trkpt><trkpt lat="55.9057525" lon="49.1783564"><time>2023-06-03T10:01:16.987</time></trkpt><trkpt lat="55.9057837" lon="49.1782191"><time>2023-06-03T10:01:19.037</time></trkpt><trkpt lat="55.9058199" lon="49.1780863"><time>2023-06-03T10:01:21.003</time></trkpt><trkpt lat="55.9058576" lon="49.1779519"><time>2023-06-03T10:01:22.987</time></trkpt><trkpt lat="55.9058957" lon="49.1778227"><time>2023-06-03T10:01:24.973</time></trkpt><trkpt lat="55.9059345" lon="49.1776985"><time>2023-06-03T10:01:26.987</time></trkpt><trkpt lat="55.9059707" lon="49.1775807"><time>2023-06-03T10:01:29.047</time></trkpt><trkpt lat="55.9060057" lon="49.1774606"><time>2023-06-03T10:01:31.003</time></trkpt><trkpt lat="55.9060396" lon="49.1773397"><time>2023-06-03T10:01:32.987</time></trkpt><trkpt lat="55.9060766" lon="49.1772097"><time>2023-06-03T10:01:35.013</time></trkpt><trkpt lat="55.9061154" lon="49.1770727"><time>2023-06-03T10:01:36.983</time></trkpt><trkpt lat="55.9061583" lon="49.1769325"><time>2023-06-03T10:01:39.003</time></trkpt><trkpt lat="55.9061795" lon="49.1768583"><time>2023-06-03T10:01:40</time></trkpt><trkpt lat="55.9062019" lon="49.1767817"><time>2023-06-03T10:01:41.030</time></trkpt><trkpt lat="55.9062440" lon="49.1766324"><time>2023-06-03T10:01:42.987</time></trkpt><trkpt lat="55.9062655" lon="49.1765522"><time>2023-06-03T10:01:43.997</time></trkpt><trkpt lat="55.9062886" lon="49.1764671"><time>2023-06-03T10:01:45.007</time></trkpt><trkpt lat="55.9063106" lon="49.1763818"><time>2023-06-03T10:01:46.033</time></trkpt><trkpt lat="55.9063350" lon="49.1762926"><time>2023-06-03T10:01:46.983</time></trkpt><trkpt lat="55.9063631" lon="49.1762058"><time>2023-06-03T10:01:47.993</time></trkpt><trkpt lat="55.9063904" lon="49.1761339"><time>2023-06-03T10:01:49.007</time></trkpt><trkpt lat="55.9064199" lon="49.1760593"><time>2023-06-03T10:01:50.030</time></trkpt><trkpt lat="55.9064465" lon="49.1759915"><time>2023-06-03T10:01:51.043</time></trkpt><trkpt lat="55.9064939" lon="49.1758644"><time>2023-06-03T10:01:52.987</time></trkpt><trkpt lat="55.9065467" lon="49.1757416"><time>2023-06-03T10:01:54.997</time></trkpt><trkpt lat="55.9065743" lon="49.1756727"><time>2023-06-03T10:01:56.037</time></trkpt><trkpt lat="55.9065993" lon="49.1755984"><time>2023-06-03T10:01:56.987</time></trkpt><trkpt lat="55.9066275" lon="49.1755338"><time>2023-06-03T10:01:57.990</time></trkpt><trkpt lat="55.9066570" lon="49.1754661"><time>2023-06-03T10:01:59.023</time></trkpt><trkpt lat="55.9066854" lon="49.1754014"><time>2023-06-03T10:02:00.010</time></trkpt><trkpt lat="55.9067393" lon="49.1752770"><time>2023-06-03T10:02:01.987</time></trkpt><trkpt lat="55.9067685" lon="49.1752129"><time>2023-06-03T10:02:02.987</time></trkpt><trkpt lat="55.9068185" lon="49.1750948"><time>2023-06-03T10:02:05.003</time></trkpt><trkpt lat="55.9068681" lon="49.1749784"><time>2023-06-03T10:02:06.977</time></trkpt><trkpt lat="55.9069156" lon="49.1748527"><time>2023-06-03T10:02:09</time></trkpt><trkpt lat="55.9069599" lon="49.1747340"><time>2023-06-03T10:02:11.037</time></trkpt><trkpt lat="55.9070123" lon="49.1746099"><time>2023-06-03T10:02:12.990</time></trkpt><trkpt lat="55.9070404" lon="49.1745474"><time>2023-06-03T10:02:13.997</time></trkpt><trkpt lat="55.9070706" lon="49.1744818"><time>2023-06-03T10:02:15</time></trkpt><trkpt lat="55.9071012" lon="49.1744200"><time>2023-06-03T10:02:15.993</time></trkpt><trkpt lat="55.9071608" lon="49.1742949"><time>2023-06-03T10:02:17.980</time></trkpt><trkpt lat="55.9072137" lon="49.1741727"><time>2023-06-03T10:02:20.033</time></trkpt><trkpt lat="55.9072711" lon="49.1740570"><time>2023-06-03T10:02:21.987</time></trkpt><trkpt lat="55.9073266" lon="49.1739513"><time>2023-06-03T10:02:24.013</time></trkpt><trkpt lat="55.9073902" lon="49.1738512"><time>2023-06-03T10:02:26.007</time></trkpt><trkpt lat="55.9074587" lon="49.1737623"><time>2023-06-03T10:02:27.983</time></trkpt><trkpt lat="55.9075187" lon="49.1736501"><time>2023-06-03T10:02:30.040</time></trkpt><trkpt lat="55.9075447" lon="49.1735844"><time>2023-06-03T10:02:30.990</time></trkpt><trkpt lat="55.9075683" lon="49.1735158"><time>2023-06-03T10:02:31.987</time></trkpt><trkpt lat="55.9076109" lon="49.1733830"><time>2023-06-03T10:02:33.977</time></trkpt><trkpt lat="55.9076583" lon="49.1732501"><time>2023-06-03T10:02:35.967</time></trkpt><trkpt lat="55.9076838" lon="49.1731839"><time>2023-06-03T10:02:36.980</time></trkpt><trkpt lat="55.9077328" lon="49.1730550"><time>2023-06-03T10:02:38.977</time></trkpt><trkpt lat="55.9077709" lon="49.1729384"><time>2023-06-03T10:02:40.960</time></trkpt><trkpt lat="55.9078295" lon="49.1728350"><time>2023-06-03T10:02:42.963</time></trkpt><trkpt lat="55.9078796" lon="49.1727245"><time>2023-06-03T10:02:44.977</time></trkpt><trkpt lat="55.9079315" lon="49.1725993"><time>2023-06-03T10:02:46.973</time></trkpt><trkpt lat="55.9079598" lon="49.1725313"><time>2023-06-03T10:02:47.977</time></trkpt><trkpt lat="55.9080174" lon="49.1723985"><time>2023-06-03T10:02:49.977</time></trkpt><trkpt lat="55.9080476" lon="49.1723392"><time>2023-06-03T10:02:50.973</time></trkpt><trkpt lat="55.9081033" lon="49.1722243"><time>2023-06-03T10:02:52.973</time></trkpt><trkpt lat="55.9081592" lon="49.1721169"><time>2023-06-03T10:02:54.983</time></trkpt><trkpt lat="55.9082087" lon="49.1720095"><time>2023-06-03T10:02:56.983</time></trkpt><trkpt lat="55.9082352" lon="49.1718963"><time>2023-06-03T10:02:58.977</time></trkpt><trkpt lat="55.9082403" lon="49.1717844"><time>2023-06-03T10:03:00.983</time></trkpt><trkpt lat="55.9082276" lon="49.1716794"><time>2023-06-03T10:03:02.980</time></trkpt><trkpt lat="55.9081950" lon="49.1715902"><time>2023-06-03T10:03:04.973</time></trkpt><trkpt lat="55.9081510" lon="49.1715007"><time>2023-06-03T10:03:06.977</time></trkpt><trkpt lat="55.9080936" lon="49.1714232"><time>2023-06-03T10:03:08.973</time></trkpt><trkpt lat="55.9080362" lon="49.1713368"><time>2023-06-03T10:03:10.977</time></trkpt><trkpt lat="55.9079810" lon="49.1712466"><time>2023-06-03T10:03:12.980</time></trkpt><trkpt lat="55.9079287" lon="49.1711510"><time>2023-06-03T10:03:14.980</time></trkpt><trkpt lat="55.9079046" lon="49.1710319"><time>2023-06-03T10:03:16.980</time></trkpt><trkpt lat="55.9079269" lon="49.1709127"><time>2023-06-03T10:03:18.987</time></trkpt><trkpt lat="55.9079875" lon="49.1708022"><time>2023-06-03T10:03:20.963</time></trkpt><trkpt lat="55.9080207" lon="49.1707456"><time>2023-06-03T10:03:21.960</time></trkpt><trkpt lat="55.9080823" lon="49.1706498"><time>2023-06-03T10:03:23.960</time></trkpt><trkpt lat="55.9081507" lon="49.1705553"><time>2023-06-03T10:03:25.967</time></trkpt><trkpt lat="55.9082043" lon="49.1704631"><time>2023-06-03T10:03:27.963</time></trkpt><trkpt lat="55.9082562" lon="49.1703686"><time>2023-06-03T10:03:29.977</time></trkpt><trkpt lat="55.9083010" lon="49.1702813"><time>2023-06-03T10:03:31.977</time></trkpt><trkpt lat="55.9083414" lon="49.1702001"><time>2023-06-03T10:03:33.977</time></trkpt><trkpt lat="55.9083821" lon="49.1701132"><time>2023-06-03T10:03:35.963</time></trkpt><trkpt lat="55.9084247" lon="49.1700195"><time>2023-06-03T10:03:37.957</time></trkpt><trkpt lat="55.9084723" lon="49.1699271"><time>2023-06-03T10:03:39.977</time></trkpt><trkpt lat="55.9085209" lon="49.1698350"><time>2023-06-03T10:03:41.960</time></trkpt><trkpt lat="55.9085716" lon="49.1697391"><time>2023-06-03T10:03:43.973</time></trkpt><trkpt lat="55.9086173" lon="49.1696452"><time>2023-06-03T10:03:45.973</time></trkpt><trkpt lat="55.9086616" lon="49.1695554"><time>2023-06-03T10:03:47.970</time></trkpt><trkpt lat="55.9087033" lon="49.1694763"><time>2023-06-03T10:03:49.977</time></trkpt><trkpt lat="55.9087443" lon="49.1694142"><time>2023-06-03T10:03:51.973</time></trkpt><trkpt lat="55.9087888" lon="49.1693860"><time>2023-06-03T10:03:53.977</time></trkpt><trkpt lat="55.9088396" lon="49.1693528"><time>2023-06-03T10:03:56.973</time></trkpt><trkpt lat="55.9088805" lon="49.1693002"><time>2023-06-03T10:03:59.977</time></trkpt><trkpt lat="55.9089203" lon="49.1692406"><time>2023-06-03T10:04:02.977</time></trkpt><trkpt lat="55.9089563" lon="49.1691926"><time>2023-06-03T10:04:18.973</time></trkpt><trkpt lat="55.9089580" lon="49.1690773"><time>2023-06-03T10:04:34.997</time></trkpt><trkpt lat="55.9089664" lon="49.1689574"><time>2023-06-03T10:04:37.987</time></trkpt><trkpt lat="55.9089742" lon="49.1688722"><time>2023-06-03T10:04:40.027</time></trkpt><trkpt lat="55.9089863" lon="49.1687869"><time>2023-06-03T10:04:41.983</time></trkpt><trkpt lat="55.9090154" lon="49.1686939"><time>2023-06-03T10:04:44.020</time></trkpt><trkpt lat="55.9090525" lon="49.1686125"><time>2023-06-03T10:04:46.033</time></trkpt><trkpt lat="55.9090934" lon="49.1685489"><time>2023-06-03T10:04:47.990</time></trkpt><trkpt lat="55.9091322" lon="49.1684805"><time>2023-06-03T10:04:50.010</time></trkpt><trkpt lat="55.9091626" lon="49.1683697"><time>2023-06-03T10:04:52.990</time></trkpt><trkpt lat="55.9091838" lon="49.1682659"><time>2023-06-03T10:04:55.013</time></trkpt><trkpt lat="55.9092285" lon="49.1681283"><time>2023-06-03T10:04:56.990</time></trkpt><trkpt lat="55.9092575" lon="49.1680533"><time>2023-06-03T10:04:57.990</time></trkpt><trkpt lat="55.9092923" lon="49.1679735"><time>2023-06-03T10:04:59.007</time></trkpt><trkpt lat="55.9093307" lon="49.1678879"><time>2023-06-03T10:05:00.033</time></trkpt><trkpt lat="55.9093712" lon="49.1678033"><time>2023-06-03T10:05:01.023</time></trkpt><trkpt lat="55.9094177" lon="49.1677235"><time>2023-06-03T10:05:01.983</time></trkpt><trkpt lat="55.9094671" lon="49.1676448"><time>2023-06-03T10:05:02.990</time></trkpt><trkpt lat="55.9095149" lon="49.1675655"><time>2023-06-03T10:05:04.053</time></trkpt><trkpt lat="55.9095601" lon="49.1674839"><time>2023-06-03T10:05:05.027</time></trkpt><trkpt lat="55.9095957" lon="49.1674136"><time>2023-06-03T10:05:06.003</time></trkpt><trkpt lat="55.9096345" lon="49.1673293"><time>2023-06-03T10:05:06.997</time></trkpt><trkpt lat="55.9096732" lon="49.1672511"><time>2023-06-03T10:05:07.987</time></trkpt><trkpt lat="55.9097090" lon="49.1671816"><time>2023-06-03T10:05:09.050</time></trkpt><trkpt lat="55.9097462" lon="49.1671128"><time>2023-06-03T10:05:10</time></trkpt><trkpt lat="55.9097832" lon="49.1670490"><time>2023-06-03T10:05:11.013</time></trkpt><trkpt lat="55.9098157" lon="49.1669821"><time>2023-06-03T10:05:11.987</time></trkpt><trkpt lat="55.9098528" lon="49.1669142"><time>2023-06-03T10:05:12.987</time></trkpt><trkpt lat="55.9098876" lon="49.1668495"><time>2023-06-03T10:05:14.040</time></trkpt><trkpt lat="55.9099220" lon="49.1667857"><time>2023-06-03T10:05:15.020</time></trkpt><trkpt lat="55.9099575" lon="49.1667291"><time>2023-06-03T10:05:16.030</time></trkpt><trkpt lat="55.9099929" lon="49.1666656"><time>2023-06-03T10:05:16.993</time></trkpt><trkpt lat="55.9100273" lon="49.1665974"><time>2023-06-03T10:05:17.990</time></trkpt><trkpt lat="55.9100606" lon="49.1665333"><time>2023-06-03T10:05:19.027</time></trkpt><trkpt lat="55.9100915" lon="49.1664727"><time>2023-06-03T10:05:20.010</time></trkpt><trkpt lat="55.9101222" lon="49.1664102"><time>2023-06-03T10:05:21.003</time></trkpt><trkpt lat="55.9101840" lon="49.1662878"><time>2023-06-03T10:05:22.987</time></trkpt><trkpt lat="55.9102152" lon="49.1662256"><time>2023-06-03T10:05:23.983</time></trkpt><trkpt lat="55.9102492" lon="49.1661722"><time>2023-06-03T10:05:24.970</time></trkpt><trkpt lat="55.9102854" lon="49.1661149"><time>2023-06-03T10:05:25.973</time></trkpt><trkpt lat="55.9103201" lon="49.1660563"><time>2023-06-03T10:05:26.983</time></trkpt><trkpt lat="55.9103525" lon="49.1660008"><time>2023-06-03T10:05:28</time></trkpt><trkpt lat="55.9104133" lon="49.1659114"><time>2023-06-03T10:05:30.023</time></trkpt><trkpt lat="55.9104894" lon="49.1658432"><time>2023-06-03T10:05:31.983</time></trkpt><trkpt lat="55.9105622" lon="49.1658056"><time>2023-06-03T10:05:34</time></trkpt><trkpt lat="55.9106318" lon="49.1657634"><time>2023-06-03T10:05:36.020</time></trkpt><trkpt lat="55.9107006" lon="49.1657495"><time>2023-06-03T10:05:37.983</time></trkpt><trkpt lat="55.9107684" lon="49.1657539"><time>2023-06-03T10:05:40.040</time></trkpt><trkpt lat="55.9108433" lon="49.1657518"><time>2023-06-03T10:05:41.980</time></trkpt><trkpt lat="55.9109170" lon="49.1657519"><time>2023-06-03T10:05:44</time></trkpt><trkpt lat="55.9109885" lon="49.1657635"><time>2023-06-03T10:05:46.020</time></trkpt><trkpt lat="55.9110537" lon="49.1657918"><time>2023-06-03T10:05:47.983</time></trkpt><trkpt lat="55.9111116" lon="49.1658120"><time>2023-06-03T10:05:50.037</time></trkpt><trkpt lat="55.9111605" lon="49.1658326"><time>2023-06-03T10:05:51.977</time></trkpt><trkpt lat="55.9111728" lon="49.1659198"><time>2023-06-03T10:06:10.027</time></trkpt><trkpt lat="55.9111554" lon="49.1660052"><time>2023-06-03T10:06:16.027</time></trkpt><trkpt lat="55.9111501" lon="49.1660981"><time>2023-06-03T10:06:21.993</time></trkpt><trkpt lat="55.9111888" lon="49.1661633"><time>2023-06-03T10:06:26.983</time></trkpt><trkpt lat="55.9111945" lon="49.1662522"><time>2023-06-03T10:06:31.987</time></trkpt><trkpt lat="55.9111951" lon="49.1663338"><time>2023-06-03T10:06:36.990</time></trkpt><trkpt lat="55.9112453" lon="49.1663689"><time>2023-06-03T10:06:42.990</time></trkpt><trkpt lat="55.9112760" lon="49.1662850"><time>2023-06-03T10:06:52.997</time></trkpt><trkpt lat="55.9113199" lon="49.1662049"><time>2023-06-03T10:06:56.993</time></trkpt><trkpt lat="55.9113825" lon="49.1660792"><time>2023-06-03T10:06:59.990</time></trkpt><trkpt lat="55.9114297" lon="49.1659914"><time>2023-06-03T10:07:01.987</time></trkpt><trkpt lat="55.9114712" lon="49.1659025"><time>2023-06-03T10:07:03.993</time></trkpt><trkpt lat="55.9115150" lon="49.1658147"><time>2023-06-03T10:07:05.987</time></trkpt><trkpt lat="55.9115563" lon="49.1657336"><time>2023-06-03T10:07:07.987</time></trkpt><trkpt lat="55.9115975" lon="49.1656537"><time>2023-06-03T10:07:10.017</time></trkpt><trkpt lat="55.9116398" lon="49.1655732"><time>2023-06-03T10:07:11.983</time></trkpt><trkpt lat="55.9116852" lon="49.1654904"><time>2023-06-03T10:07:14</time></trkpt><trkpt lat="55.9117284" lon="49.1654023"><time>2023-06-03T10:07:15.997</time></trkpt><trkpt lat="55.9117694" lon="49.1653203"><time>2023-06-03T10:07:17.987</time></trkpt><trkpt lat="55.9118082" lon="49.1652396"><time>2023-06-03T10:07:20.007</time></trkpt><trkpt lat="55.9118477" lon="49.1651564"><time>2023-06-03T10:07:21.990</time></trkpt><trkpt lat="55.9118892" lon="49.1650758"><time>2023-06-03T10:07:23.987</time></trkpt><trkpt lat="55.9119315" lon="49.1649978"><time>2023-06-03T10:07:25.970</time></trkpt><trkpt lat="55.9119716" lon="49.1649127"><time>2023-06-03T10:07:28.040</time></trkpt><trkpt lat="55.9120095" lon="49.1648282"><time>2023-06-03T10:07:30.030</time></trkpt><trkpt lat="55.9120500" lon="49.1647447"><time>2023-06-03T10:07:31.983</time></trkpt><trkpt lat="55.9120925" lon="49.1646581"><time>2023-06-03T10:07:34</time></trkpt><trkpt lat="55.9121365" lon="49.1645735"><time>2023-06-03T10:07:36.030</time></trkpt><trkpt lat="55.9121811" lon="49.1644845"><time>2023-06-03T10:07:37.987</time></trkpt><trkpt lat="55.9122230" lon="49.1643921"><time>2023-06-03T10:07:40.063</time></trkpt><trkpt lat="55.9122659" lon="49.1643022"><time>2023-06-03T10:07:41.987</time></trkpt><trkpt lat="55.9123114" lon="49.1642208"><time>2023-06-03T10:07:43.993</time></trkpt><trkpt lat="55.9123589" lon="49.1641359"><time>2023-06-03T10:07:46</time></trkpt><trkpt lat="55.9124046" lon="49.1640480"><time>2023-06-03T10:07:47.987</time></trkpt><trkpt lat="55.9124448" lon="49.1639603"><time>2023-06-03T10:07:50.010</time></trkpt><trkpt lat="55.9124836" lon="49.1638781"><time>2023-06-03T10:07:51.987</time></trkpt><trkpt lat="55.9125213" lon="49.1638032"><time>2023-06-03T10:07:54.020</time></trkpt><trkpt lat="55.9125584" lon="49.1637243"><time>2023-06-03T10:07:56.043</time></trkpt><trkpt lat="55.9125951" lon="49.1636481"><time>2023-06-03T10:07:57.990</time></trkpt><trkpt lat="55.9126305" lon="49.1635713"><time>2023-06-03T10:08:00.017</time></trkpt><trkpt lat="55.9126640" lon="49.1635027"><time>2023-06-03T10:08:01.990</time></trkpt><trkpt lat="55.9127036" lon="49.1634262"><time>2023-06-03T10:08:05.017</time></trkpt><trkpt lat="55.9127281" lon="49.1633538"><time>2023-06-03T10:08:11.993</time></trkpt><trkpt lat="55.9127559" lon="49.1632822"><time>2023-06-03T10:08:17.987</time></trkpt><trkpt lat="55.9127833" lon="49.1632010"><time>2023-06-03T10:08:21.017</time></trkpt><trkpt lat="55.9128021" lon="49.1631132"><time>2023-06-03T10:08:25.010</time></trkpt><trkpt lat="55.9128388" lon="49.1630322"><time>2023-06-03T10:08:30.033</time></trkpt><trkpt lat="55.9128458" lon="49.1629459"><time>2023-06-03T10:08:40.027</time></trkpt><trkpt lat="55.9127886" lon="49.1629237"><time>2023-06-03T10:08:42.987</time></trkpt><trkpt lat="55.9127189" lon="49.1630088"><time>2023-06-03T10:08:45</time></trkpt><trkpt lat="55.9126795" lon="49.1630638"><time>2023-06-03T10:08:45.997</time></trkpt><trkpt lat="55.9126348" lon="49.1631367"><time>2023-06-03T10:08:46.997</time></trkpt><trkpt lat="55.9125936" lon="49.1632075"><time>2023-06-03T10:08:47.997</time></trkpt><trkpt lat="55.9125538" lon="49.1633075"><time>2023-06-03T10:08:49.020</time></trkpt><trkpt lat="55.9125271" lon="49.1634152"><time>2023-06-03T10:08:50.013</time></trkpt><trkpt lat="55.9125031" lon="49.1635309"><time>2023-06-03T10:08:50.977</time></trkpt><trkpt lat="55.9124811" lon="49.1636394"><time>2023-06-03T10:08:51.980</time></trkpt><trkpt lat="55.9124666" lon="49.1637465"><time>2023-06-03T10:08:52.980</time></trkpt><trkpt lat="55.9124559" lon="49.1638582"><time>2023-06-03T10:08:53.980</time></trkpt><trkpt lat="55.9124484" lon="49.1639601"><time>2023-06-03T10:08:54.973</time></trkpt><trkpt lat="55.9124484" lon="49.1640690"><time>2023-06-03T10:08:56.010</time></trkpt><trkpt lat="55.9124486" lon="49.1641653"><time>2023-06-03T10:08:56.977</time></trkpt><trkpt lat="55.9124704" lon="49.1642816"><time>2023-06-03T10:08:57.987</time></trkpt><trkpt lat="55.9124859" lon="49.1643802"><time>2023-06-03T10:08:59.027</time></trkpt><trkpt lat="55.9125025" lon="49.1644930"><time>2023-06-03T10:09:00.033</time></trkpt><trkpt lat="55.9125237" lon="49.1645838"><time>2023-06-03T10:09:01.007</time></trkpt><trkpt lat="55.9125425" lon="49.1646721"><time>2023-06-03T10:09:01.987</time></trkpt><trkpt lat="55.9125782" lon="49.1648004"><time>2023-06-03T10:09:04.007</time></trkpt><trkpt lat="55.9126088" lon="49.1648775"><time>2023-06-03T10:09:06.033</time></trkpt><trkpt lat="55.9126354" lon="49.1649606"><time>2023-06-03T10:09:09.033</time></trkpt><trkpt lat="55.9126715" lon="49.1650178"><time>2023-06-03T10:11:00.037</time></trkpt><trkpt lat="55.9127228" lon="49.1650913"><time>2023-06-03T10:11:02.997</time></trkpt><trkpt lat="55.9127627" lon="49.1651805"><time>2023-06-03T10:11:05.023</time></trkpt><trkpt lat="55.9128003" lon="49.1652619"><time>2023-06-03T10:11:06.980</time></trkpt><trkpt lat="55.9128269" lon="49.1653310"><time>2023-06-03T10:11:08.977</time></trkpt><trkpt lat="55.9128579" lon="49.1654083"><time>2023-06-03T10:11:11.003</time></trkpt><trkpt lat="55.9128934" lon="49.1654804"><time>2023-06-03T10:11:12.987</time></trkpt><trkpt lat="55.9129304" lon="49.1655543"><time>2023-06-03T10:11:15.020</time></trkpt><trkpt lat="55.9129630" lon="49.1656244"><time>2023-06-03T10:11:16.983</time></trkpt><trkpt lat="55.9129844" lon="49.1656974"><time>2023-06-03T10:11:20.003</time></trkpt><trkpt lat="55.9130295" lon="49.1656679"><time>2023-06-03T10:11:52.020</time></trkpt><trkpt lat="55.9130370" lon="49.1656573"><time>2023-06-03T10:11:53.150</time></trkpt><trkpt lat="55.9130556" lon="49.1655760"><time>2023-06-03T10:11:55.977</time></trkpt><trkpt lat="55.9130532" lon="49.1654822"><time>2023-06-03T10:11:58.973</time></trkpt><trkpt lat="55.9130406" lon="49.1653674"><time>2023-06-03T10:12:01.980</time></trkpt><trkpt lat="55.9130388" lon="49.1652705"><time>2023-06-03T10:12:03.977</time></trkpt><trkpt lat="55.9130476" lon="49.1651540"><time>2023-06-03T10:12:06.980</time></trkpt><trkpt lat="55.9130549" lon="49.1650746"><time>2023-06-03T10:12:08.983</time></trkpt><trkpt lat="55.9130606" lon="49.1649879"><time>2023-06-03T10:12:10.980</time></trkpt><trkpt lat="55.9130658" lon="49.1649016"><time>2023-06-03T10:12:12.980</time></trkpt><trkpt lat="55.9130693" lon="49.1648008"><time>2023-06-03T10:12:15.987</time></trkpt><trkpt lat="55.9130521" lon="49.1647016"><time>2023-06-03T10:12:19.993</time></trkpt><trkpt lat="55.9130439" lon="49.1646875"><time>2023-06-03T10:12:21.123</time></trkpt><trkpt lat="55.9130177" lon="49.1646095"><time>2023-06-03T10:12:23.967</time></trkpt><trkpt lat="55.9130178" lon="49.1645253"><time>2023-06-03T10:12:30.980</time></trkpt><trkpt lat="55.9130311" lon="49.1644486"><time>2023-06-03T10:12:36.030</time></trkpt><trkpt lat="55.9130380" lon="49.1643661"><time>2023-06-03T10:12:40.993</time></trkpt><trkpt lat="55.9130390" lon="49.1642848"><time>2023-06-03T10:12:45.023</time></trkpt><trkpt lat="55.9130396" lon="49.1641929"><time>2023-06-03T10:12:50</time></trkpt><trkpt lat="55.9130391" lon="49.1641111"><time>2023-06-03T10:12:55.027</time></trkpt><trkpt lat="55.9130605" lon="49.1640376"><time>2023-06-03T10:13:01.020</time></trkpt><trkpt lat="55.9130737" lon="49.1639541"><time>2023-06-03T10:13:14.997</time></trkpt><trkpt lat="55.9130925" lon="49.1638792"><time>2023-06-03T10:13:20.027</time></trkpt><trkpt lat="55.9131173" lon="49.1637989"><time>2023-06-03T10:13:25.973</time></trkpt><trkpt lat="55.9131539" lon="49.1637334"><time>2023-06-03T10:13:32.983</time></trkpt><trkpt lat="55.9131966" lon="49.1636830"><time>2023-06-03T10:13:39.030</time></trkpt><trkpt lat="55.9132446" lon="49.1636397"><time>2023-06-03T10:13:45.033</time></trkpt><trkpt lat="55.9132824" lon="49.1635934"><time>2023-06-03T10:13:49.990</time></trkpt><trkpt lat="55.9133184" lon="49.1635277"><time>2023-06-03T10:13:54.993</time></trkpt><trkpt lat="55.9133526" lon="49.1634511"><time>2023-06-03T10:14:00.017</time></trkpt><trkpt lat="55.9133801" lon="49.1633654"><time>2023-06-03T10:14:05.020</time></trkpt><trkpt lat="55.9133964" lon="49.1632904"><time>2023-06-03T10:14:09.023</time></trkpt><trkpt lat="55.9134447" lon="49.1632439"><time>2023-06-03T10:14:14.033</time></trkpt><trkpt lat="55.9134863" lon="49.1632016"><time>2023-06-03T10:14:19.020</time></trkpt><trkpt lat="55.9135348" lon="49.1631648"><time>2023-06-03T10:14:26.993</time></trkpt><trkpt lat="55.9135867" lon="49.1631268"><time>2023-06-03T10:14:31.983</time></trkpt><trkpt lat="55.9136312" lon="49.1630963"><time>2023-06-03T10:14:36.033</time></trkpt><trkpt lat="55.9136842" lon="49.1630787"><time>2023-06-03T10:14:41.017</time></trkpt><trkpt lat="55.9136958" lon="49.1630620"><time>2023-06-03T10:14:42.163</time></trkpt><trkpt lat="55.9137417" lon="49.1631031"><time>2023-06-03T10:14:50.983</time></trkpt><trkpt lat="55.9137693" lon="49.1631703"><time>2023-06-03T10:14:56.993</time></trkpt><trkpt lat="55.9137987" lon="49.1632343"><time>2023-06-03T10:15:04.023</time></trkpt><trkpt lat="55.9138231" lon="49.1633039"><time>2023-06-03T10:15:10.010</time></trkpt><trkpt lat="55.9138590" lon="49.1633709"><time>2023-06-03T10:15:15.980</time></trkpt><trkpt lat="55.9138983" lon="49.1634267"><time>2023-06-03T10:15:21.990</time></trkpt><trkpt lat="55.9139420" lon="49.1634810"><time>2023-06-03T10:15:27.990</time></trkpt><trkpt lat="55.9139689" lon="49.1635652"><time>2023-06-03T10:15:33.957</time></trkpt><trkpt lat="55.9139964" lon="49.1636322"><time>2023-06-03T10:15:38.963</time></trkpt><trkpt lat="55.9140369" lon="49.1637049"><time>2023-06-03T10:16:06.977</time></trkpt><trkpt lat="55.9140569" lon="49.1637784"><time>2023-06-03T10:16:10.993</time></trkpt><trkpt lat="55.9140722" lon="49.1638773"><time>2023-06-03T10:16:13.987</time></trkpt><trkpt lat="55.9140927" lon="49.1639553"><time>2023-06-03T10:16:15.983</time></trkpt><trkpt lat="55.9141072" lon="49.1640325"><time>2023-06-03T10:16:17.980</time></trkpt><trkpt lat="55.9141357" lon="49.1641133"><time>2023-06-03T10:16:19.977</time></trkpt><trkpt lat="55.9141644" lon="49.1641856"><time>2023-06-03T10:16:21.977</time></trkpt><trkpt lat="55.9141992" lon="49.1642591"><time>2023-06-03T10:16:23.980</time></trkpt><trkpt lat="55.9142356" lon="49.1643190"><time>2023-06-03T10:16:25.977</time></trkpt><trkpt lat="55.9142763" lon="49.1643665"><time>2023-06-03T10:16:27.997</time></trkpt><trkpt lat="55.9142854" lon="49.1643906"><time>2023-06-03T10:16:29.117</time></trkpt><trkpt lat="55.9143305" lon="49.1644450"><time>2023-06-03T10:16:30.977</time></trkpt><trkpt lat="55.9143883" lon="49.1645150"><time>2023-06-03T10:16:33.973</time></trkpt><trkpt lat="55.9144372" lon="49.1645753"><time>2023-06-03T10:16:35.963</time></trkpt><trkpt lat="55.9144895" lon="49.1646381"><time>2023-06-03T10:16:37.967</time></trkpt><trkpt lat="55.9145445" lon="49.1646957"><time>2023-06-03T10:16:39.957</time></trkpt><trkpt lat="55.9146023" lon="49.1647328"><time>2023-06-03T10:16:41.977</time></trkpt><trkpt lat="55.9146552" lon="49.1647552"><time>2023-06-03T10:16:43.973</time></trkpt><trkpt lat="55.9147150" lon="49.1647614"><time>2023-06-03T10:16:46.973</time></trkpt><trkpt lat="55.9147609" lon="49.1647727"><time>2023-06-03T10:17:08.960</time></trkpt><trkpt lat="55.9148036" lon="49.1648093"><time>2023-06-03T10:17:11.997</time></trkpt><trkpt lat="55.9148085" lon="49.1648291"><time>2023-06-03T10:17:13.123</time></trkpt><trkpt lat="55.9148623" lon="49.1648940"><time>2023-06-03T10:17:15.977</time></trkpt><trkpt lat="55.9149073" lon="49.1649433"><time>2023-06-03T10:17:18.977</time></trkpt><trkpt lat="55.9149454" lon="49.1649935"><time>2023-06-03T10:17:22.980</time></trkpt><trkpt lat="55.9149850" lon="49.1650697"><time>2023-06-03T10:17:26.970</time></trkpt><trkpt lat="55.9150141" lon="49.1651311"><time>2023-06-03T10:17:29.993</time></trkpt><trkpt lat="55.9150503" lon="49.1651944"><time>2023-06-03T10:17:33.990</time></trkpt><trkpt lat="55.9150393" lon="49.1652853"><time>2023-06-03T10:18:02.980</time></trkpt><trkpt lat="55.9149951" lon="49.1653132"><time>2023-06-03T10:18:08.990</time></trkpt><trkpt lat="55.9149463" lon="49.1653332"><time>2023-06-03T10:18:13.983</time></trkpt><trkpt lat="55.9148981" lon="49.1653685"><time>2023-06-03T10:18:18.013</time></trkpt><trkpt lat="55.9148981" lon="49.1653685"><time>2023-06-03T10:18:18.093</time></trkpt><trkpt lat="55.9148592" lon="49.1654093"><time>2023-06-03T10:18:21.010</time></trkpt><trkpt lat="55.9148474" lon="49.1654210"><time>2023-06-03T10:18:22.130</time></trkpt><trkpt lat="55.9148091" lon="49.1654658"><time>2023-06-03T10:18:27.987</time></trkpt><trkpt lat="55.9147840" lon="49.1655391"><time>2023-06-03T10:18:43.963</time></trkpt><trkpt lat="55.9148288" lon="49.1655245"><time>2023-06-03T10:19:00.963</time></trkpt><trkpt lat="55.9147837" lon="49.1655615"><time>2023-06-03T10:19:20.967</time></trkpt><trkpt lat="55.9148398" lon="49.1655596"><time>2023-06-03T10:19:35.973</time></trkpt><trkpt lat="55.9148949" lon="49.1655478"><time>2023-06-03T10:19:38.987</time></trkpt><trkpt lat="55.9149449" lon="49.1655120"><time>2023-06-03T10:19:41.987</time></trkpt><trkpt lat="55.9149945" lon="49.1654901"><time>2023-06-03T10:19:45.990</time></trkpt><trkpt lat="55.9150393" lon="49.1654740"><time>2023-06-03T10:19:50.993</time></trkpt><trkpt lat="55.9150882" lon="49.1654238"><time>2023-06-03T10:19:59.030</time></trkpt><trkpt lat="55.9151342" lon="49.1653951"><time>2023-06-03T10:20:12.990</time></trkpt><trkpt lat="55.9151685" lon="49.1654480"><time>2023-06-03T10:20:16.003</time></trkpt><trkpt lat="55.9151962" lon="49.1655109"><time>2023-06-03T10:20:17.987</time></trkpt><trkpt lat="55.9152120" lon="49.1655892"><time>2023-06-03T10:20:20.023</time></trkpt><trkpt lat="55.9152258" lon="49.1656775"><time>2023-06-03T10:20:21.990</time></trkpt><trkpt lat="55.9152379" lon="49.1657731"><time>2023-06-03T10:20:24.013</time></trkpt><trkpt lat="55.9152577" lon="49.1658573"><time>2023-06-03T10:20:26.030</time></trkpt><trkpt lat="55.9152867" lon="49.1659189"><time>2023-06-03T10:20:27.980</time></trkpt><trkpt lat="55.9153362" lon="49.1659885"><time>2023-06-03T10:20:30</time></trkpt><trkpt lat="55.9153919" lon="49.1660627"><time>2023-06-03T10:20:31.983</time></trkpt><trkpt lat="55.9154448" lon="49.1661583"><time>2023-06-03T10:20:33.987</time></trkpt><trkpt lat="55.9155002" lon="49.1662635"><time>2023-06-03T10:20:35.987</time></trkpt><trkpt lat="55.9155516" lon="49.1663654"><time>2023-06-03T10:20:37.977</time></trkpt><trkpt lat="55.9155991" lon="49.1664618"><time>2023-06-03T10:20:40</time></trkpt><trkpt lat="55.9156397" lon="49.1665602"><time>2023-06-03T10:20:41.983</time></trkpt><trkpt lat="55.9156830" lon="49.1666604"><time>2023-06-03T10:20:43.990</time></trkpt><trkpt lat="55.9157311" lon="49.1667547"><time>2023-06-03T10:20:45.983</time></trkpt><trkpt lat="55.9157613" lon="49.1668187"><time>2023-06-03T10:20:47.980</time></trkpt><trkpt lat="55.9157594" lon="49.1669178"><time>2023-06-03T10:20:50.993</time></trkpt><trkpt lat="55.9157281" lon="49.1669801"><time>2023-06-03T10:20:52.987</time></trkpt><trkpt lat="55.9156944" lon="49.1670629"><time>2023-06-03T10:20:55.993</time></trkpt><trkpt lat="55.9156625" lon="49.1671528"><time>2023-06-03T10:20:59.003</time></trkpt><trkpt lat="55.9156078" lon="49.1672348"><time>2023-06-03T10:21:01.987</time></trkpt><trkpt lat="55.9155511" lon="49.1672684"><time>2023-06-03T10:21:03.980</time></trkpt><trkpt lat="55.9155014" lon="49.1672983"><time>2023-06-03T10:21:05.977</time></trkpt><trkpt lat="55.9154574" lon="49.1672789"><time>2023-06-03T10:21:07.973</time></trkpt><trkpt lat="55.9153996" lon="49.1672718"><time>2023-06-03T10:21:10.040</time></trkpt><trkpt lat="55.9153507" lon="49.1672703"><time>2023-06-03T10:21:11.977</time></trkpt><trkpt lat="55.9152946" lon="49.1672690"><time>2023-06-03T10:21:14</time></trkpt><trkpt lat="55.9152067" lon="49.1672853"><time>2023-06-03T10:21:16.007</time></trkpt><trkpt lat="55.9151244" lon="49.1672897"><time>2023-06-03T10:21:17.980</time></trkpt><trkpt lat="55.9150598" lon="49.1672905"><time>2023-06-03T10:21:19.993</time></trkpt><trkpt lat="55.9149964" lon="49.1673140"><time>2023-06-03T10:21:22.983</time></trkpt><trkpt lat="55.9149289" lon="49.1673378"><time>2023-06-03T10:21:24.977</time></trkpt><trkpt lat="55.9148755" lon="49.1673650"><time>2023-06-03T10:21:26.963</time></trkpt><trkpt lat="55.9148176" lon="49.1674083"><time>2023-06-03T10:21:29</time></trkpt><trkpt lat="55.9147633" lon="49.1674425"><time>2023-06-03T10:21:30.997</time></trkpt><trkpt lat="55.9147189" lon="49.1674704"><time>2023-06-03T10:21:35</time></trkpt><trkpt lat="55.9146702" lon="49.1674816"><time>2023-06-03T10:21:42.980</time></trkpt><trkpt lat="55.9146222" lon="49.1675080"><time>2023-06-03T10:21:46.997</time></trkpt><trkpt lat="55.9145774" lon="49.1675645"><time>2023-06-03T10:21:49.963</time></trkpt><trkpt lat="55.9145365" lon="49.1676127"><time>2023-06-03T10:21:54.977</time></trkpt><trkpt lat="55.9145043" lon="49.1676766"><time>2023-06-03T10:21:59.977</time></trkpt><trkpt lat="55.9144881" lon="49.1677512"><time>2023-06-03T10:22:13.977</time></trkpt><trkpt lat="55.9144436" lon="49.1677996"><time>2023-06-03T10:22:19.970</time></trkpt><trkpt lat="55.9143981" lon="49.1678192"><time>2023-06-03T10:22:25.973</time></trkpt><trkpt lat="55.9143429" lon="49.1678060"><time>2023-06-03T10:22:32.953</time></trkpt><trkpt lat="55.9143122" lon="49.1678988"><time>2023-06-03T10:22:36.973</time></trkpt><trkpt lat="55.9142926" lon="49.1680090"><time>2023-06-03T10:22:38.977</time></trkpt><trkpt lat="55.9143229" lon="49.1681418"><time>2023-06-03T10:22:40.973</time></trkpt><trkpt lat="55.9143909" lon="49.1682381"><time>2023-06-03T10:22:42.977</time></trkpt><trkpt lat="55.9144327" lon="49.1682796"><time>2023-06-03T10:22:43.973</time></trkpt><trkpt lat="55.9144729" lon="49.1683225"><time>2023-06-03T10:22:44.987</time></trkpt><trkpt lat="55.9145160" lon="49.1683641"><time>2023-06-03T10:22:45.977</time></trkpt><trkpt lat="55.9145488" lon="49.1684219"><time>2023-06-03T10:22:46.977</time></trkpt><trkpt lat="55.9145845" lon="49.1684816"><time>2023-06-03T10:22:47.977</time></trkpt><trkpt lat="55.9146063" lon="49.1685805"><time>2023-06-03T10:22:48.980</time></trkpt><trkpt lat="55.9146209" lon="49.1686722"><time>2023-06-03T10:22:49.973</time></trkpt><trkpt lat="55.9146331" lon="49.1687768"><time>2023-06-03T10:22:50.977</time></trkpt><trkpt lat="55.9146426" lon="49.1688718"><time>2023-06-03T10:22:51.970</time></trkpt><trkpt lat="55.9146565" lon="49.1689676"><time>2023-06-03T10:22:52.973</time></trkpt><trkpt lat="55.9146644" lon="49.1690567"><time>2023-06-03T10:22:53.980</time></trkpt><trkpt lat="55.9146660" lon="49.1691496"><time>2023-06-03T10:22:55.010</time></trkpt><trkpt lat="55.9146654" lon="49.1692347"><time>2023-06-03T10:22:55.997</time></trkpt><trkpt lat="55.9146593" lon="49.1693140"><time>2023-06-03T10:22:56.993</time></trkpt><trkpt lat="55.9146459" lon="49.1694130"><time>2023-06-03T10:22:58.990</time></trkpt><trkpt lat="55.9146395" lon="49.1695107"><time>2023-06-03T10:23:01.987</time></trkpt><trkpt lat="55.9146469" lon="49.1696276"><time>2023-06-03T10:23:04.010</time></trkpt><trkpt lat="55.9146433" lon="49.1697822"><time>2023-06-03T10:23:06.020</time></trkpt><trkpt lat="55.9146470" lon="49.1698660"><time>2023-06-03T10:23:06.987</time></trkpt><trkpt lat="55.9146581" lon="49.1699654"><time>2023-06-03T10:23:07.983</time></trkpt><trkpt lat="55.9146745" lon="49.1700596"><time>2023-06-03T10:23:09.007</time></trkpt><trkpt lat="55.9146930" lon="49.1701503"><time>2023-06-03T10:23:10.017</time></trkpt><trkpt lat="55.9147104" lon="49.1702357"><time>2023-06-03T10:23:10.983</time></trkpt><trkpt lat="55.9147424" lon="49.1703671"><time>2023-06-03T10:23:12.980</time></trkpt><trkpt lat="55.9147758" lon="49.1704747"><time>2023-06-03T10:23:14.987</time></trkpt><trkpt lat="55.9148228" lon="49.1705792"><time>2023-06-03T10:23:16.980</time></trkpt><trkpt lat="55.9148722" lon="49.1706912"><time>2023-06-03T10:23:19.007</time></trkpt><trkpt lat="55.9149238" lon="49.1707886"><time>2023-06-03T10:23:21.003</time></trkpt><trkpt lat="55.9149667" lon="49.1708866"><time>2023-06-03T10:23:22.980</time></trkpt><trkpt lat="55.9150188" lon="49.1709579"><time>2023-06-03T10:23:24.987</time></trkpt><trkpt lat="55.9150750" lon="49.1710243"><time>2023-06-03T10:23:26.960</time></trkpt><trkpt lat="55.9151293" lon="49.1711084"><time>2023-06-03T10:23:28.973</time></trkpt><trkpt lat="55.9151812" lon="49.1711961"><time>2023-06-03T10:23:31.027</time></trkpt><trkpt lat="55.9152290" lon="49.1712524"><time>2023-06-03T10:23:33.013</time></trkpt><trkpt lat="55.9152305" lon="49.1712677"><time>2023-06-03T10:23:34.130</time></trkpt><trkpt lat="55.9152733" lon="49.1713097"><time>2023-06-03T10:23:35.987</time></trkpt><trkpt lat="55.9153203" lon="49.1713791"><time>2023-06-03T10:23:37.983</time></trkpt><trkpt lat="55.9153643" lon="49.1714804"><time>2023-06-03T10:23:39.997</time></trkpt><trkpt lat="55.9154046" lon="49.1715311"><time>2023-06-03T10:23:41.007</time></trkpt><trkpt lat="55.9154727" lon="49.1716426"><time>2023-06-03T10:23:42.977</time></trkpt><trkpt lat="55.9155061" lon="49.1717108"><time>2023-06-03T10:23:43.997</time></trkpt><trkpt lat="55.9155395" lon="49.1717812"><time>2023-06-03T10:23:45</time></trkpt><trkpt lat="55.9155810" lon="49.1718484"><time>2023-06-03T10:23:46.020</time></trkpt><trkpt lat="55.9156069" lon="49.1719286"><time>2023-06-03T10:23:46.987</time></trkpt><trkpt lat="55.9156375" lon="49.1720046"><time>2023-06-03T10:23:47.983</time></trkpt><trkpt lat="55.9156640" lon="49.1720816"><time>2023-06-03T10:23:48.997</time></trkpt><trkpt lat="55.9156939" lon="49.1721570"><time>2023-06-03T10:23:49.997</time></trkpt><trkpt lat="55.9157217" lon="49.1722314"><time>2023-06-03T10:23:51.017</time></trkpt><trkpt lat="55.9157514" lon="49.1723021"><time>2023-06-03T10:23:51.983</time></trkpt><trkpt lat="55.9157805" lon="49.1723783"><time>2023-06-03T10:23:52.977</time></trkpt><trkpt lat="55.9158138" lon="49.1724474"><time>2023-06-03T10:23:54.047</time></trkpt><trkpt lat="55.9158339" lon="49.1724872"><time>2023-06-03T10:23:55.153</time></trkpt><trkpt lat="55.9158794" lon="49.1725576"><time>2023-06-03T10:23:56.010</time></trkpt><trkpt lat="55.9159102" lon="49.1726325"><time>2023-06-03T10:23:56.987</time></trkpt><trkpt lat="55.9159303" lon="49.1727068"><time>2023-06-03T10:23:57.980</time></trkpt><trkpt lat="55.9159559" lon="49.1727806"><time>2023-06-03T10:23:59.007</time></trkpt><trkpt lat="55.9159834" lon="49.1728472"><time>2023-06-03T10:23:59.990</time></trkpt><trkpt lat="55.9160108" lon="49.1729132"><time>2023-06-03T10:24:00.990</time></trkpt><trkpt lat="55.9160574" lon="49.1730386"><time>2023-06-03T10:24:02.987</time></trkpt><trkpt lat="55.9161000" lon="49.1731540"><time>2023-06-03T10:24:05.003</time></trkpt><trkpt lat="55.9161088" lon="49.1731784"><time>2023-06-03T10:24:06.110</time></trkpt><trkpt lat="55.9161365" lon="49.1732606"><time>2023-06-03T10:24:07.983</time></trkpt><trkpt lat="55.9161728" lon="49.1733511"><time>2023-06-03T10:24:11.030</time></trkpt><trkpt lat="55.9162271" lon="49.1733922"><time>2023-06-03T10:24:13.990</time></trkpt><trkpt lat="55.9162850" lon="49.1734102"><time>2023-06-03T10:24:16.990</time></trkpt><trkpt lat="55.9163460" lon="49.1734283"><time>2023-06-03T10:24:19.977</time></trkpt><trkpt lat="55.9163868" lon="49.1734672"><time>2023-06-03T10:24:23.033</time></trkpt><trkpt lat="55.9164158" lon="49.1735291"><time>2023-06-03T10:24:30.013</time></trkpt></trkseg></trk></gpx>